# Wetter Temperatur Luftdruck Luftfeuchtigkeit Sichtweite Windgeschwindigkeit Windrichtung Zeit
1 Dust 37 997 39 400 4.12 180 08:56 14.08.2022
2 Dust 35 997 41 600 4.63 180 06:23 14.08.2022
3 Dust 35 996 30 4500 2.06 120 04:21 14.08.2022
4 Clear 36 994 22 10000 1.54 160 00:42 14.08.2022
5 Clear 38 995 10 10000 2.57 160 22:56 13.08.2022
6 Clear 38 995 11 10000 2.57 150 21:59 13.08.2022
7 Clear 39 995 11 10000 2.57 100 20:49 13.08.2022
8 Clear 40 994 14 10000 3.6 70 19:47 13.08.2022
9 Clear 40 994 17 10000 4.63 50 18:47 13.08.2022
10 Clear 41 993 20 10000 6.17 10 16:23 13.08.2022
11 Clear 42 993 19 10000 6.69 10 14:42 13.08.2022
12 Clear 43 993 20 10000 5.66 360 13:49 13.08.2022
13 Clear 43 993 20 10000 5.66 360 13:25 13.08.2022
14 Clear 44 994 28 10000 5.14 300 11:27 13.08.2022
15 Clear 43 995 11 10000 6.69 110 09:23 13.08.2022
16 Clear 36 995 44 10000 5.14 110 06:44 13.08.2022
17 Clear 36 993 30 10000 4.63 60 01:37 13.08.2022
18 Clear 38 993 18 10000 3.09 60 23:25 12.08.2022
19 Clear 39 993 16 10000 4.63 110 21:35 12.08.2022
20 Clouds 41 993 15 8000 4.63 90 19:47 12.08.2022
21 Clouds 41 993 15 8000 4.63 90 19:23 12.08.2022
22 Clouds 42 992 12 7000 5.14 90 18:21 12.08.2022
23 Clear 41 991 29 10000 5.14 20 16:26 12.08.2022
24 Clear 41 992 29 10000 4.63 10 14:50 12.08.2022
25 Clear 40 992 35 10000 6.69 340 13:30 12.08.2022
26 Clear 40 992 39 10000 7.2 340 12:25 12.08.2022
27 Clear 40 994 35 10000 2.06 330 08:51 12.08.2022
28 Clear 38 994 41 10000 2.57 340 07:45 12.08.2022
29 Clear 37 994 47 10000 2.57 340 06:21 12.08.2022
30 Clear 36 993 39 10000 2.06 60 00:32 12.08.2022
31 Clear 36 994 41 10000 2.06 40 23:55 11.08.2022
32 Clear 37 994 44 10000 2.06 50 22:45 11.08.2022
33 Clear 37 994 53 10000 1.54 350 21:53 11.08.2022
34 Clear 37 994 53 10000 1.54 350 21:26 11.08.2022
35 Clear 37 994 49 10000 1.54 350 20:30 11.08.2022
36 Clear 37 993 49 10000 3.6 330 19:33 11.08.2022
37 Clear 40 992 33 10000 2.57 340 18:53 11.08.2022
38 Clear 41 993 31 10000 3.6 320 16:46 11.08.2022
39 Clear 41 992 37 10000 5.66 320 15:42 11.08.2022
40 Clear 41 993 37 10000 4.63 350 14:32 11.08.2022
41 Clouds 40 994 37 8000 6.17 330 11:53 11.08.2022
42 Clear 40 995 29 10000 3.09 200 08:57 11.08.2022
43 Clear 34 994 55 10000 3.6 160 05:57 11.08.2022
44 Clear 35 993 49 10000 2.57 110 02:33 11.08.2022
45 Clear 36 994 44 10000 1.54 50 22:59 10.08.2022
46 Clear 37 994 41 10000 3.09 320 21:47 10.08.2022
47 Clear 37 994 41 10000 4.12 340 20:56 10.08.2022
48 Clear 37 994 41 10000 4.12 340 20:27 10.08.2022
49 Clear 38 993 39 10000 3.6 320 18:48 10.08.2022
50 Clear 38 992 37 10000 3.6 330 17:27 10.08.2022
51 Clear 39 992 39 10000 7.2 340 14:36 10.08.2022
52 Clear 39 993 50 10000 6.17 330 13:32 10.08.2022
53 Clouds 40 994 44 7000 5.66 20 10:47 10.08.2022
54 Clear 41 995 26 10000 3.09 90 08:37 10.08.2022
55 Clear 38 995 34 10000 4.63 140 07:23 10.08.2022
56 Clear 34 994 59 10000 4.63 120 04:50 10.08.2022
57 Clear 35 993 46 10000 1.54 70 00:50 10.08.2022
58 Clear 36 994 44 10000 2.57 110 23:29 09.08.2022
59 Clear 37 994 49 10000 2.06 270 21:41 09.08.2022
60 Clear 37 994 49 10000 2.06 270 21:22 09.08.2022
61 Clouds 38 993 41 8000 3.6 320 18:56 09.08.2022
62 Clouds 38 993 44 6000 4.12 330 17:37 09.08.2022
63 Clouds 38 993 44 6000 4.12 330 17:19 09.08.2022
64 Clear 39 993 44 10000 4.63 330 16:22 09.08.2022
65 Clear 39 993 56 10000 4.63 340 14:50 09.08.2022
66 Clear 41 994 33 10000 6.69 320 11:30 09.08.2022
67 Clear 43 996 17 10000 0.51 0 08:53 09.08.2022
68 Clear 41 995 17 10000 1.03 0 07:58 09.08.2022
69 Clear 37 995 32 10000 1.03 0 05:24 09.08.2022
70 Clear 37 995 30 10000 2.57 90 00:36 09.08.2022
71 Clear 38 995 27 10000 2.57 50 23:24 08.08.2022
72 Clear 37 995 37 10000 2.06 60 22:42 08.08.2022
73 Clear 38 995 30 10000 2.57 360 21:44 08.08.2022
74 Clear 39 995 31 10000 1.54 360 20:39 08.08.2022
75 Clear 40 994 31 10000 2.06 350 19:35 08.08.2022
76 Clear 40 994 31 10000 2.57 330 18:18 08.08.2022
77 Clear 43 994 26 10000 6.17 340 15:48 08.08.2022
78 Clear 43 994 26 10000 6.17 340 15:28 08.08.2022
79 Clear 43 995 28 10000 5.14 330 12:30 08.08.2022
80 Clear 44 996 28 10000 6.17 320 10:28 08.08.2022
81 Clear 38 997 34 10000 2.57 230 07:59 08.08.2022
82 Clear 37 995 34 10000 3.09 70 03:45 08.08.2022
83 Clear 39 995 29 10000 3.6 110 23:28 07.08.2022
84 Clear 40 995 25 10000 2.06 90 21:41 07.08.2022
85 Clear 40 995 24 10000 3.6 120 20:55 07.08.2022
86 Clear 40 995 24 10000 3.6 120 20:18 07.08.2022
87 Clear 40 995 27 10000 2.57 90 19:51 07.08.2022
88 Clear 41 994 29 10000 3.09 70 18:49 07.08.2022
89 Clear 42 994 20 10000 4.12 50 17:22 07.08.2022
90 Clear 41 993 27 10000 3.6 30 16:51 07.08.2022
91 Clear 43 993 17 10000 4.63 350 15:29 07.08.2022
92 Clear 41 994 31 10000 6.17 340 13:55 07.08.2022
93 Clear 43 994 31 10000 6.69 340 12:38 07.08.2022
94 Clear 43 995 33 10000 5.66 350 10:48 07.08.2022
95 Clear 42 995 33 10000 6.17 350 09:56 07.08.2022
96 Clear 35 995 55 10000 4.63 130 04:33 07.08.2022
97 Clear 35 994 34 10000 3.6 70 01:59 07.08.2022
98 Clear 38 994 32 10000 1.54 0 22:33 06.08.2022
99 Clear 38 995 30 10000 1.54 240 21:48 06.08.2022
100 Clear 39 994 27 10000 2.06 200 19:43 06.08.2022
101 Clear 40 994 25 10000 2.57 80 18:35 06.08.2022
102 Clear 40 995 27 10000 2.57 50 17:44 06.08.2022
103 Clear 40 995 31 10000 4.12 350 15:21 06.08.2022
104 Clear 39 995 42 8000 5.14 330 13:50 06.08.2022
105 Clear 39 996 42 8000 4.63 340 12:21 06.08.2022
106 Clear 39 997 47 7000 4.63 310 10:40 06.08.2022
107 Clear 38 998 50 7000 3.09 0 09:24 06.08.2022
108 Clear 33 997 55 6000 2.06 170 04:38 06.08.2022
109 Clear 34 997 55 10000 2.06 80 00:46 06.08.2022
110 Clear 35 997 55 8000 3.09 340 22:34 05.08.2022
111 Clear 37 997 47 10000 2.57 190 20:37 05.08.2022
112 Clear 37 997 44 10000 2.06 270 18:55 05.08.2022
113 Clear 37 997 44 10000 2.06 270 18:36 05.08.2022
114 Clear 37 997 53 6000 5.14 330 16:52 05.08.2022
115 Dust 37 997 59 4500 6.69 340 15:24 05.08.2022
116 Clear 38 998 53 8000 7.2 310 14:34 05.08.2022
117 Clear 39 998 37 10000 5.66 300 13:26 05.08.2022
118 Clear 38 998 47 10000 6.17 320 12:59 05.08.2022
119 Clear 40 999 39 10000 6.17 320 11:20 05.08.2022
120 Clear 39 1000 39 10000 3.6 310 08:57 05.08.2022
121 Clear 37 1000 47 10000 2.06 70 07:34 05.08.2022
122 Clear 34 999 55 10000 2.57 50 02:33 05.08.2022
123 Clear 35 999 46 10000 3.09 350 23:18 04.08.2022
124 Clear 36 999 47 10000 1.54 250 21:28 04.08.2022
125 Clear 36 998 49 10000 1.54 250 20:57 04.08.2022
126 Clear 36 998 49 10000 1.54 250 20:36 04.08.2022
127 Clear 37 998 44 10000 2.57 330 18:59 04.08.2022
128 Clear 37 998 44 10000 2.57 330 18:34 04.08.2022
129 Clear 37 998 53 8000 7.2 310 15:53 04.08.2022
130 Clear 38 999 56 7000 9.26 330 13:26 04.08.2022
131 Clear 38 999 56 7000 9.26 330 13:26 04.08.2022
132 Clear 40 999 50 7000 7.72 320 11:39 04.08.2022
133 Clear 43 999 42 9000 8.23 330 10:21 04.08.2022
134 Clear 38 1001 44 10000 4.12 150 07:47 04.08.2022
135 Clear 35 999 52 10000 3.6 40 02:50 04.08.2022
136 Clear 36 999 52 10000 1.54 20 00:43 04.08.2022
137 Clear 36 999 49 10000 2.57 340 23:40 03.08.2022
138 Clear 36 999 56 10000 2.57 220 21:31 03.08.2022
139 Clear 37 999 53 10000 1.03 0 20:21 03.08.2022
140 Clear 36 999 56 10000 0.51 0 19:24 03.08.2022
141 Clear 37 998 47 10000 6.69 340 16:50 03.08.2022
142 Clear 37 998 47 10000 6.69 340 16:22 03.08.2022
143 Clear 40 998 33 10000 9.26 310 13:52 03.08.2022
144 Clear 43 999 24 10000 4.12 330 10:56 03.08.2022
145 Clear 40 1000 29 10000 2.57 170 07:26 03.08.2022
146 Clear 36 999 34 10000 1.03 0 04:22 03.08.2022
147 Clear 36 998 34 10000 2.06 120 03:23 03.08.2022
148 Clear 36 998 34 10000 2.06 120 03:23 03.08.2022
149 Clear 37 998 41 10000 1.54 220 00:49 03.08.2022
150 Clear 37 999 39 10000 2.57 130 22:37 02.08.2022
151 Clear 37 999 39 10000 3.09 90 21:51 02.08.2022
152 Clear 38 999 32 10000 2.57 70 20:30 02.08.2022
153 Clear 37 998 41 10000 5.14 340 18:34 02.08.2022
154 Clear 39 998 37 10000 7.72 330 15:20 02.08.2022
155 Clear 41 1000 27 10000 1.54 0 10:51 02.08.2022
156 Clear 39 1000 32 10000 2.57 220 08:54 02.08.2022
157 Clear 38 1000 34 10000 2.57 230 07:52 02.08.2022
158 Clear 36 999 38 10000 2.57 220 05:40 02.08.2022
159 Clear 36 998 36 10000 2.06 160 03:40 02.08.2022
160 Clear 37 998 34 10000 3.09 140 23:35 01.08.2022
161 Clear 38 999 34 10000 3.09 130 22:21 01.08.2022
162 Clear 38 1000 32 10000 2.06 90 20:40 01.08.2022
163 Clear 38 999 32 10000 3.09 80 19:22 01.08.2022
164 Clear 38 998 39 10000 5.14 340 17:27 01.08.2022
165 Clear 38 998 44 10000 5.14 340 16:50 01.08.2022
166 Clouds 40 998 31 8000 7.2 320 15:51 01.08.2022
167 Clouds 40 998 31 8000 7.2 320 15:28 01.08.2022
168 Clouds 41 998 31 9000 7.2 320 13:44 01.08.2022
169 Clouds 42 999 26 8000 4.63 270 11:49 01.08.2022
170 Clouds 40 1000 29 7000 6.17 210 09:38 01.08.2022
171 Clouds 39 1000 32 7000 6.17 200 08:20 01.08.2022
172 Clear 37 998 36 10000 4.63 190 04:44 01.08.2022
173 Clear 36 997 44 10000 2.57 170 02:31 01.08.2022
174 Clear 36 998 34 10000 1.54 90 23:42 31.07.2022
175 Clear 37 998 34 10000 3.09 110 22:36 31.07.2022
176 Clear 37 999 41 10000 4.63 100 20:49 31.07.2022
177 Clear 37 999 39 10000 3.6 70 19:25 31.07.2022
178 Clear 37 997 41 10000 5.66 330 17:43 31.07.2022
179 Clear 39 997 32 10000 6.69 320 15:30 31.07.2022
180 Clear 40 997 35 10000 6.69 320 13:31 31.07.2022
181 Clear 40 999 35 10000 5.66 340 11:45 31.07.2022
182 Clear 39 1000 30 10000 5.14 210 09:27 31.07.2022
183 Clear 35 1000 43 10000 4.63 200 06:37 31.07.2022
184 Clear 33 999 58 10000 3.09 90 02:56 31.07.2022
185 Clear 34 999 49 10000 3.09 60 23:23 30.07.2022
186 Clear 34 1000 49 10000 4.12 80 22:19 30.07.2022
187 Clear 34 1001 49 10000 4.12 70 21:40 30.07.2022
188 Clear 35 1001 46 10000 3.6 50 20:51 30.07.2022
189 Clear 35 1001 52 10000 3.6 40 19:57 30.07.2022
190 Clear 35 1001 49 10000 4.12 50 18:26 30.07.2022
191 Clouds 36 1000 41 8000 5.66 360 16:54 30.07.2022
192 Clouds 36 999 46 7000 6.17 30 15:35 30.07.2022
193 Clouds 37 1000 44 6000 6.69 340 14:32 30.07.2022
194 Clouds 37 1001 41 6000 5.66 350 12:43 30.07.2022
195 Clouds 39 1002 37 6000 4.63 340 11:55 30.07.2022
196 Clouds 38 1002 37 7000 3.09 280 10:25 30.07.2022
197 Clouds 36 1003 41 6000 3.09 240 09:45 30.07.2022
198 Clouds 34 1003 49 8000 3.6 200 07:47 30.07.2022
199 Clear 31 1001 66 10000 4.12 100 02:34 30.07.2022
200 Clear 31 1002 66 10000 4.12 100 01:43 30.07.2022
201 Clear 32 1003 62 10000 4.63 90 21:39 29.07.2022
202 Clear 32 1003 62 10000 5.66 100 20:58 29.07.2022
203 Clear 33 1002 58 10000 5.66 80 19:48 29.07.2022
204 Clear 35 1001 49 10000 5.66 60 17:52 29.07.2022
205 Clear 36 1000 46 10000 5.66 90 15:19 29.07.2022
206 Clouds 38 1002 39 10000 5.66 90 12:59 29.07.2022
207 Clouds 37 1003 41 10000 4.63 100 10:35 29.07.2022
208 Clear 33 1004 52 10000 4.12 110 08:49 29.07.2022
209 Clear 32 1004 58 10000 4.63 130 07:40 29.07.2022
210 Clear 30 1002 66 10000 5.66 110 01:47 29.07.2022
211 Clear 31 1003 62 10000 5.66 100 22:41 28.07.2022
212 Clear 31 1004 62 10000 7.72 100 20:59 28.07.2022
213 Clear 31 1004 62 10000 7.72 100 20:27 28.07.2022
214 Clear 31 1003 62 10000 7.72 90 19:42 28.07.2022
215 Clear 32 1002 58 10000 8.75 100 18:27 28.07.2022
216 Clear 33 1001 55 10000 8.23 90 17:43 28.07.2022
217 Clear 34 1001 52 10000 8.23 90 16:42 28.07.2022
218 Clear 35 1001 49 10000 7.2 80 15:24 28.07.2022
219 Clouds 35 1002 52 10000 7.2 100 12:51 28.07.2022
220 Clouds 32 1003 62 10000 6.17 110 09:45 28.07.2022
221 Clear 31 1003 70 10000 4.63 120 06:24 28.07.2022
222 Clear 30 1002 74 10000 4.63 130 05:26 28.07.2022
223 Clear 30 1000 74 10000 5.66 100 00:45 28.07.2022
224 Clouds 29 1001 84 10000 5.14 90 22:31 27.07.2022
225 Clouds 29 1001 84 10000 4.12 90 20:56 27.07.2022
226 Rain 28 1000 89 10000 3.6 100 19:34 27.07.2022
227 Rain 29 999 84 10000 4.12 80 17:23 27.07.2022
228 Clouds 30 999 84 10000 3.6 70 15:52 27.07.2022
229 Rain 28 999 89 8000 4.63 70 14:48 27.07.2022
230 Rain 28 999 89 8000 4.63 70 14:30 27.07.2022
231 Clouds 33 999 55 10000 6.17 30 12:49 27.07.2022
232 Clouds 32 1000 62 10000 5.66 120 07:53 27.07.2022
233 Clear 31 1000 66 10000 4.12 100 06:19 27.07.2022
234 Clear 33 998 52 10000 6.69 110 00:48 27.07.2022
235 Clear 33 998 55 10000 7.72 120 22:25 26.07.2022
236 Clear 35 998 46 10000 6.17 130 21:20 26.07.2022
237 Clear 35 998 46 10000 6.17 130 21:20 26.07.2022
238 Clear 36 998 44 10000 3.09 140 20:25 26.07.2022
239 Clear 35 997 46 10000 2.57 130 18:42 26.07.2022
240 Clear 36 997 44 10000 3.09 150 17:57 26.07.2022
241 Clouds 35 996 49 10000 5.14 170 15:58 26.07.2022
242 Clear 35 997 49 10000 4.63 180 14:57 26.07.2022
243 Clouds 34 998 55 8000 8.23 120 12:59 26.07.2022
244 Dust 36 998 49 4500 8.23 130 10:59 26.07.2022
245 Clear 36 998 52 10000 7.72 120 08:46 26.07.2022
246 Clear 36 996 46 10000 5.14 80 05:49 26.07.2022
247 Clouds 34 996 59 6000 9.26 110 00:27 26.07.2022
248 Dust 35 996 63 5000 7.72 110 22:51 25.07.2022
249 Dust 35 996 63 5000 7.72 110 22:22 25.07.2022
250 Clouds 36 996 63 8000 8.75 110 21:38 25.07.2022
251 Clear 38 995 41 10000 4.12 60 20:40 25.07.2022
252 Clear 38 995 44 10000 3.6 70 19:27 25.07.2022
253 Clear 37 994 49 10000 3.6 50 18:18 25.07.2022
254 Clouds 37 993 49 8000 5.14 340 17:27 25.07.2022
255 Clear 39 993 47 7000 6.69 350 14:32 25.07.2022
256 Clouds 40 994 39 7000 6.17 330 11:50 25.07.2022
257 Clouds 40 996 33 6000 3.6 190 08:32 25.07.2022
258 Clear 36 994 56 10000 3.6 110 02:21 25.07.2022
259 Clear 37 995 56 10000 3.09 120 23:51 24.07.2022
260 Clear 38 995 50 10000 4.63 120 22:54 24.07.2022
261 Clear 38 995 50 10000 4.63 120 22:25 24.07.2022
262 Clear 39 995 39 10000 2.06 10 21:19 24.07.2022
263 Clear 39 995 35 10000 1.54 20 20:47 24.07.2022
264 Clear 39 995 35 10000 1.54 60 19:54 24.07.2022
265 Clear 38 994 41 10000 1.54 350 18:30 24.07.2022
266 Clear 38 993 47 10000 5.14 340 16:28 24.07.2022
267 Clear 40 993 39 10000 6.17 330 15:45 24.07.2022
268 Clear 42 994 33 10000 5.66 310 13:54 24.07.2022
269 Clear 42 994 33 10000 5.66 300 12:52 24.07.2022
270 Clear 43 995 28 10000 4.12 0 11:38 24.07.2022
271 Clear 42 996 29 10000 4.63 230 10:59 24.07.2022
272 Clear 40 996 33 10000 6.17 200 08:31 24.07.2022
273 Clear 38 997 39 10000 4.63 190 07:47 24.07.2022
274 Clear 34 995 62 10000 3.09 90 04:45 24.07.2022
275 Clear 37 995 44 10000 3.09 110 23:51 23.07.2022
276 Clear 38 996 44 10000 3.09 80 20:59 23.07.2022
277 Clear 38 996 44 10000 3.6 60 19:59 23.07.2022
278 Clear 39 995 42 10000 2.57 40 18:50 23.07.2022
279 Clear 37 995 49 10000 3.6 340 17:28 23.07.2022
280 Clear 38 995 50 10000 4.12 340 16:33 23.07.2022
281 Clear 39 995 50 10000 5.66 340 15:22 23.07.2022
282 Clear 40 995 44 10000 6.17 310 14:58 23.07.2022
283 Clear 40 995 44 10000 6.17 310 14:26 23.07.2022
284 Clear 42 996 31 10000 7.72 290 12:44 23.07.2022
285 Clear 43 997 30 10000 4.63 270 10:45 23.07.2022
286 Clear 42 998 29 10000 5.66 250 09:56 23.07.2022
287 Clear 41 998 33 10000 5.14 220 08:31 23.07.2022
288 Clear 35 997 59 10000 4.12 80 03:38 23.07.2022
289 Clear 36 996 56 10000 3.09 130 00:41 23.07.2022
290 Clear 36 998 56 10000 4.63 130 22:32 22.07.2022
291 Clear 38 998 50 10000 5.14 110 20:51 22.07.2022
292 Clear 39 998 42 10000 4.12 70 19:34 22.07.2022
293 Clouds 35 998 67 10000 4.9 27 18:28 22.07.2022
294 Clear 39 997 44 10000 5.14 330 16:48 22.07.2022
295 Clear 40 997 44 10000 7.2 330 14:40 22.07.2022
296 Clouds 43 999 30 8000 5.14 220 10:59 22.07.2022
297 Clouds 42 999 31 8000 6.17 210 09:25 22.07.2022
298 Clouds 41 999 35 8000 6.17 190 08:27 22.07.2022
299 Clear 35 999 59 10000 6.17 130 05:18 22.07.2022
300 Clear 37 997 53 10000 3.6 90 00:40 22.07.2022
301 Clear 38 997 37 10000 3.6 80 22:25 21.07.2022
302 Clear 39 998 37 10000 3.6 50 20:48 21.07.2022
303 Clear 39 997 35 10000 3.09 50 19:23 21.07.2022
304 Clear 39 996 35 10000 3.09 10 17:39 21.07.2022
305 Clear 39 996 35 10000 3.09 10 17:19 21.07.2022
306 Clear 38 996 47 10000 6.69 350 14:52 21.07.2022
307 Clear 38 996 47 10000 6.69 350 14:24 21.07.2022
308 Clear 43 996 31 10000 5.14 280 12:27 21.07.2022
309 Clear 42 997 31 10000 3.09 180 10:48 21.07.2022
310 Clear 41 998 33 10000 3.6 170 09:18 21.07.2022
311 Clear 39 998 39 10000 5.14 180 08:45 21.07.2022
312 Clear 37 998 47 10000 5.14 150 07:23 21.07.2022
313 Clear 34 996 59 10000 4.63 110 03:55 21.07.2022
314 Clear 36 996 56 10000 3.09 80 00:24 21.07.2022
315 Clear 36 997 44 10000 3.6 70 22:21 20.07.2022
316 Clear 37 997 41 10000 2.57 50 20:51 20.07.2022
317 Clear 37 997 41 10000 2.57 30 19:49 20.07.2022
318 Clear 37 997 41 10000 2.57 30 19:20 20.07.2022
319 Clear 37 997 47 10000 3.09 40 18:33 20.07.2022
320 Clear 37 997 41 10000 4.12 350 17:54 20.07.2022
321 Clear 37 996 47 10000 4.12 350 16:19 20.07.2022
322 Clear 38 996 47 10000 7.72 310 14:57 20.07.2022
323 Clear 39 996 42 10000 6.69 320 13:57 20.07.2022
324 Clear 40 998 35 10000 2.57 0 11:32 20.07.2022
325 Clear 36 999 41 10000 5.66 180 07:50 20.07.2022
326 Clear 35 997 55 10000 5.66 110 02:45 20.07.2022
327 Clear 35 997 55 10000 5.14 100 00:46 20.07.2022
328 Clear 36 997 49 10000 4.63 90 23:37 19.07.2022
329 Clear 36 997 52 10000 5.14 80 22:22 19.07.2022
330 Clear 37 997 49 10000 4.12 90 21:18 19.07.2022
331 Clear 36 997 56 10000 4.63 130 20:23 19.07.2022
332 Clear 38 997 47 10000 5.14 140 18:43 19.07.2022
333 Clear 38 996 44 10000 3.09 360 17:57 19.07.2022
334 Clear 39 996 42 10000 4.12 40 16:26 19.07.2022
335 Clear 40 997 39 10000 4.12 360 14:36 19.07.2022
336 Clear 39 998 39 10000 7.2 350 11:38 19.07.2022
337 Clear 40 998 33 10000 3.09 230 10:31 19.07.2022
338 Clear 38 999 39 10000 3.09 170 08:48 19.07.2022
339 Clear 38 999 39 10000 3.09 170 08:22 19.07.2022
340 Clear 37 999 44 10000 3.6 160 07:18 19.07.2022
341 Clear 35 998 49 10000 5.66 150 05:26 19.07.2022
342 Clear 35 998 46 10000 6.17 140 04:46 19.07.2022
343 Clear 36 997 44 10000 3.6 130 00:35 19.07.2022
344 Clear 37 997 39 10000 2.57 100 23:31 18.07.2022
345 Clear 37 998 39 10000 3.09 90 22:58 18.07.2022
346 Clouds 38 998 34 9000 1.54 90 21:58 18.07.2022
347 Clear 38 998 37 10000 2.06 70 20:50 18.07.2022
348 Clear 37 997 41 10000 2.06 90 19:25 18.07.2022
349 Clear 37 997 41 10000 3.09 340 17:24 18.07.2022
350 Clear 38 996 39 10000 6.17 320 15:51 18.07.2022
351 Clear 39 996 37 10000 8.23 330 14:30 18.07.2022
352 Clear 41 997 31 10000 6.17 320 12:45 18.07.2022
353 Clear 42 997 24 10000 2.57 260 11:29 18.07.2022
354 Clear 38 999 34 10000 6.69 200 08:51 18.07.2022
355 Clear 36 999 36 10000 4.63 200 06:58 18.07.2022
356 Clouds 36 997 44 7000 2.06 160 00:42 18.07.2022
357 Clouds 36 997 46 7000 2.06 220 22:37 17.07.2022
358 Clouds 37 997 41 8000 2.57 320 21:49 17.07.2022
359 Clouds 37 997 41 8000 2.57 320 21:18 17.07.2022
360 Clouds 37 997 41 8000 3.6 330 20:37 17.07.2022
361 Clouds 37 996 44 8000 5.66 320 19:29 17.07.2022
362 Clouds 37 996 47 8000 5.66 330 18:27 17.07.2022
363 Clouds 37 996 49 8000 6.69 330 17:38 17.07.2022
364 Clouds 40 995 39 8000 6.69 320 16:50 17.07.2022
365 Clouds 40 995 39 8000 6.69 320 16:26 17.07.2022
366 Clouds 42 995 29 8000 6.17 330 14:37 17.07.2022
367 Clouds 42 995 31 7000 6.69 320 13:31 17.07.2022
368 Clouds 41 996 29 8000 2.57 260 11:35 17.07.2022
369 Clouds 37 997 47 7000 2.57 280 08:57 17.07.2022
370 Clouds 35 995 63 8000 2.06 320 03:44 17.07.2022
371 Clouds 34 995 63 8000 2.06 10 02:32 17.07.2022
372 Clear 35 995 46 10000 2.57 0 23:20 16.07.2022
373 Clear 37 996 32 10000 3.6 50 21:30 16.07.2022
374 Clear 39 995 32 10000 4.12 330 19:30 16.07.2022
375 Clear 38 995 39 10000 3.6 330 18:32 16.07.2022
376 Clouds 41 994 33 7000 5.66 320 16:34 16.07.2022
377 Clear 43 994 23 10000 7.2 350 13:49 16.07.2022
378 Clear 43 995 24 10000 1.54 0 10:53 16.07.2022
379 Clear 42 996 24 10000 1.54 0 09:33 16.07.2022
380 Clear 41 996 29 10000 1.54 0 08:43 16.07.2022
381 Clear 41 996 29 10000 1.54 0 08:19 16.07.2022
382 Clear 35 995 38 10000 2.57 90 03:58 16.07.2022
383 Clear 36 995 38 10000 2.06 70 02:40 16.07.2022
384 Clear 37 995 41 10000 3.09 130 23:29 15.07.2022
385 Clear 38 995 37 10000 3.09 110 22:40 15.07.2022
386 Clear 39 995 30 10000 4.63 140 21:28 15.07.2022
387 Clear 40 996 29 10000 3.09 120 20:24 15.07.2022
388 Clouds 41 995 29 8000 2.06 80 18:40 15.07.2022
389 Clouds 41 994 35 7000 1.54 220 17:37 15.07.2022
390 Dust 41 994 31 2500 4.12 180 14:53 15.07.2022
391 Dust 40 995 33 2800 6.69 110 12:57 15.07.2022
392 Clouds 42 994 29 7000 6.69 340 11:20 15.07.2022
393 Clouds 41 995 27 8000 2.06 0 09:44 15.07.2022
394 Clear 37 995 39 8000 2.06 100 06:24 15.07.2022
395 Clear 35 992 49 10000 2.57 310 00:53 15.07.2022
396 Clear 35 992 49 10000 2.57 310 00:21 15.07.2022
397 Clear 37 993 44 10000 2.06 50 22:50 14.07.2022
398 Clear 36 993 49 10000 1.54 320 21:46 14.07.2022
399 Clear 36 993 49 10000 1.54 320 21:28 14.07.2022
400 Clear 37 993 49 10000 2.57 330 20:44 14.07.2022
401 Clear 37 993 49 10000 2.57 330 20:20 14.07.2022
402 Clear 38 992 34 10000 2.06 60 18:52 14.07.2022
403 Clear 37 991 41 10000 4.63 350 16:22 14.07.2022
404 Clear 38 991 41 10000 5.66 340 15:30 14.07.2022
405 Clear 39 992 37 10000 6.69 320 13:53 14.07.2022
406 Clear 39 992 37 10000 6.69 320 13:53 14.07.2022
407 Clear 40 993 35 10000 6.69 320 12:58 14.07.2022
408 Clear 40 993 39 10000 6.17 320 11:47 14.07.2022
409 Clear 40 993 39 10000 6.17 320 11:23 14.07.2022
410 Clear 40 994 37 10000 3.6 0 09:54 14.07.2022
411 Clear 37 995 49 10000 2.57 140 07:47 14.07.2022
412 Clear 34 995 66 10000 3.6 340 01:25 14.07.2022
413 Clear 35 994 55 10000 3.6 30 00:53 14.07.2022
414 Clear 36 995 52 10000 2.06 90 22:33 13.07.2022
415 Clear 36 995 52 10000 3.6 140 21:57 13.07.2022
416 Clear 36 995 52 10000 3.6 150 20:53 13.07.2022
417 Clear 36 995 52 10000 1.54 130 19:34 13.07.2022
418 Clear 36 995 56 10000 4.12 320 17:51 13.07.2022
419 Clear 37 995 53 10000 4.12 290 16:43 13.07.2022
420 Clear 37 995 47 10000 6.17 320 15:24 13.07.2022
421 Clear 38 996 47 10000 6.17 300 12:56 13.07.2022
422 Clear 38 996 47 10000 6.17 300 12:56 13.07.2022
423 Clear 38 997 44 10000 5.66 290 10:46 13.07.2022
424 Clear 38 997 44 10000 5.66 290 10:24 13.07.2022
425 Clouds 38 997 47 10000 5.14 300 09:25 13.07.2022
426 Clouds 34 998 70 10000 3.6 190 06:46 13.07.2022
427 Clear 33 997 75 10000 3.6 310 02:38 13.07.2022
428 Clear 34 998 75 10000 2.57 220 23:52 12.07.2022
429 Clear 34 999 75 10000 2.57 340 21:58 12.07.2022
430 Clear 34 999 75 10000 2.57 340 21:32 12.07.2022
431 Clear 33 999 75 10000 4.12 330 20:41 12.07.2022
432 Clear 34 999 70 10000 3.6 330 19:36 12.07.2022
433 Clear 34 998 66 10000 5.66 320 17:54 12.07.2022
434 Clear 35 998 59 10000 6.69 320 16:20 12.07.2022
435 Clear 35 998 59 10000 6.69 320 16:20 12.07.2022
436 Clear 37 998 49 10000 8.23 310 14:31 12.07.2022
437 Clear 37 999 49 10000 7.72 320 12:48 12.07.2022
438 Clouds 38 1000 44 10000 5.66 290 11:37 12.07.2022
439 Clouds 37 1000 49 10000 5.14 290 10:18 12.07.2022
440 Clouds 37 1000 49 10000 5.14 290 10:18 12.07.2022
441 Clear 36 1001 49 10000 3.09 240 08:24 12.07.2022
442 Clear 34 1001 55 10000 4.12 190 06:59 12.07.2022
443 Clear 34 1000 55 10000 4.63 190 05:42 12.07.2022
444 Clear 34 999 52 10000 4.12 160 02:52 12.07.2022
445 Clear 35 999 46 10000 3.09 100 23:42 11.07.2022
446 Clear 35 999 46 10000 4.63 90 22:31 11.07.2022
447 Clear 36 999 44 10000 5.14 90 20:41 11.07.2022
448 Clear 36 998 44 10000 5.66 90 19:50 11.07.2022
449 Clear 37 997 41 10000 6.69 110 18:32 11.07.2022
450 Clear 37 997 41 10000 7.72 110 17:53 11.07.2022
451 Clear 39 996 37 10000 6.17 90 16:21 11.07.2022
452 Clear 39 996 35 10000 7.2 90 14:49 11.07.2022
453 Clouds 38 997 39 10000 6.69 70 12:18 11.07.2022
454 Clouds 38 998 37 10000 5.66 130 10:42 11.07.2022
455 Clouds 37 999 39 10000 7.2 130 09:54 11.07.2022
456 Clouds 36 999 49 10000 4.12 120 08:35 11.07.2022
457 Clouds 34 998 55 10000 4.63 110 07:24 11.07.2022
458 Clear 34 996 55 10000 6.69 110 00:24 11.07.2022
459 Clear 34 996 55 10000 6.69 110 23:32 10.07.2022
460 Clear 35 997 49 10000 6.17 100 22:21 10.07.2022
461 Clear 36 996 46 10000 6.69 120 20:54 10.07.2022
462 Clear 37 995 41 10000 5.14 110 19:55 10.07.2022
463 Clear 38 994 41 10000 6.69 120 18:53 10.07.2022
464 Clear 38 993 37 10000 8.75 120 17:50 10.07.2022
465 Clear 40 993 35 10000 7.72 100 16:59 10.07.2022
466 Clear 40 993 35 10000 7.72 100 16:20 10.07.2022
467 Clear 41 992 35 10000 6.17 90 14:35 10.07.2022
468 Clear 41 993 35 10000 4.63 120 12:38 10.07.2022
469 Clouds 41 993 37 10000 3.09 100 11:36 10.07.2022
470 Clear 39 994 39 10000 4.12 0 09:30 10.07.2022
471 Clear 38 994 41 10000 5.14 120 08:42 10.07.2022
472 Clear 35 994 55 10000 5.14 120 06:32 10.07.2022
473 Clear 35 994 52 10000 2.06 30 23:35 09.07.2022
474 Clear 34 994 59 10000 2.06 340 22:26 09.07.2022
475 Clear 34 994 62 10000 2.57 350 21:40 09.07.2022
476 Clear 34 993 62 10000 4.12 320 19:37 09.07.2022
477 Clear 35 993 59 10000 5.14 320 18:25 09.07.2022
478 Clear 35 993 59 10000 5.14 320 17:18 09.07.2022
479 Clear 36 992 52 10000 6.17 320 15:56 09.07.2022
480 Clear 36 992 52 10000 6.17 320 15:36 09.07.2022
481 Clear 37 993 47 10000 7.2 320 14:21 09.07.2022
482 Clear 39 993 39 10000 5.66 300 13:28 09.07.2022
483 Clear 38 995 39 10000 2.57 230 11:40 09.07.2022
484 Clear 38 995 39 10000 1.03 0 10:25 09.07.2022
485 Clear 36 996 44 10000 3.6 210 09:23 09.07.2022
486 Clear 35 996 49 10000 3.09 130 07:43 09.07.2022
487 Clear 33 996 55 10000 5.14 120 04:38 09.07.2022
488 Clear 33 997 58 10000 4.12 130 23:33 08.07.2022
489 Clear 33 997 58 10000 4.63 110 22:18 08.07.2022
490 Clear 34 997 55 10000 5.66 120 21:21 08.07.2022
491 Clear 34 997 55 10000 4.63 130 20:35 08.07.2022
492 Clear 37 997 39 10000 6.17 120 18:45 08.07.2022
493 Clear 38 996 39 10000 5.66 130 17:45 08.07.2022
494 Clear 38 996 39 10000 5.66 130 17:45 08.07.2022
495 Clear 38 996 39 10000 4.12 120 16:24 08.07.2022
496 Clear 38 996 41 10000 6.17 110 14:50 08.07.2022
497 Clear 37 997 47 10000 5.66 100 12:31 08.07.2022
498 Clear 36 998 46 10000 6.69 90 10:46 08.07.2022
499 Clear 35 999 52 10000 6.17 110 09:42 08.07.2022
500 Clear 34 999 55 10000 4.63 80 06:59 08.07.2022
501 Clear 34 999 55 10000 5.14 90 05:33 08.07.2022
502 Clear 33 998 58 10000 6.17 130 00:30 08.07.2022
503 Clear 34 999 52 10000 7.72 130 22:50 07.07.2022
504 Clear 35 999 49 10000 7.2 130 21:46 07.07.2022
505 Clear 36 998 46 10000 5.66 120 19:34 07.07.2022
506 Clear 38 997 37 10000 7.72 120 17:43 07.07.2022
507 Clouds 40 997 31 10000 8.23 100 15:58 07.07.2022
508 Clouds 40 997 35 10000 6.69 110 13:33 07.07.2022
509 Clear 41 998 33 10000 5.14 90 12:41 07.07.2022
510 Clear 41 998 33 10000 5.14 90 12:22 07.07.2022
511 Clouds 39 998 37 10000 6.69 110 11:32 07.07.2022
512 Clear 40 998 37 10000 5.14 130 10:45 07.07.2022
513 Clear 40 998 37 10000 5.14 130 10:26 07.07.2022
514 Clear 37 999 47 10000 6.17 130 08:40 07.07.2022
515 Clear 34 998 55 10000 4.63 100 05:44 07.07.2022
516 Rain 34 997 58 10000 6.18 106 23:54 06.07.2022
517 Rain 34 997 58 10000 6.18 106 23:36 06.07.2022
518 Clouds 34 997 66 10000 3.1 92 23:18 06.07.2022
519 Clear 36 998 44 10000 5.66 100 22:46 06.07.2022
520 Clear 36 998 44 10000 5.66 100 22:28 06.07.2022
521 Clear 38 997 37 10000 4.12 100 19:45 06.07.2022
522 Clear 38 996 34 10000 5.66 100 18:45 06.07.2022
523 Clear 40 994 31 10000 5.14 80 16:45 06.07.2022
524 Clear 41 994 29 10000 3.6 70 15:39 06.07.2022
525 Clear 39 994 37 10000 3.09 100 12:44 06.07.2022
526 Clear 37 996 49 10000 7.2 90 11:49 06.07.2022
527 Clear 38 996 44 10000 5.66 110 10:33 06.07.2022
528 Clear 38 996 50 10000 4.12 100 08:43 06.07.2022
529 Clear 36 995 56 10000 3.09 110 07:39 06.07.2022
530 Clear 36 995 59 10000 3.09 130 06:40 06.07.2022
531 Clear 35 995 71 10000 3.09 10 22:49 05.07.2022
532 Clear 35 995 71 10000 3.09 10 22:28 05.07.2022
533 Clear 35 995 71 10000 5.66 330 20:42 05.07.2022
534 Clear 36 994 67 10000 4.12 340 19:44 05.07.2022
535 Clear 36 994 67 10000 4.12 340 19:26 05.07.2022
536 Clear 37 993 53 10000 3.6 320 17:48 05.07.2022
537 Clear 38 992 50 10000 4.63 330 16:57 05.07.2022
538 Clear 38 991 47 10000 6.17 340 15:38 05.07.2022
539 Clear 38 991 53 10000 7.72 340 14:39 05.07.2022
540 Clear 40 992 39 10000 6.69 340 12:52 05.07.2022
541 Clear 40 992 39 10000 6.69 340 12:19 05.07.2022
542 Clear 39 993 47 10000 3.6 10 10:44 05.07.2022
543 Clear 38 994 50 10000 4.12 20 09:28 05.07.2022
544 Clear 38 994 47 10000 4.12 60 08:18 05.07.2022
545 Clear 36 995 41 10000 3.09 0 06:22 05.07.2022
546 Clear 35 993 46 10000 1.54 0 04:26 05.07.2022
547 Clouds 35 994 59 8000 9.26 100 00:38 05.07.2022
548 Clear 36 995 59 10000 5.66 90 23:34 04.07.2022
549 Clear 36 995 56 10000 5.14 80 22:50 04.07.2022
550 Clear 36 994 63 10000 1.54 70 21:48 04.07.2022
551 Clear 36 994 63 10000 2.06 70 20:54 04.07.2022
552 Clear 36 994 63 10000 2.06 70 20:34 04.07.2022
553 Clear 36 993 59 10000 2.57 40 19:55 04.07.2022
554 Clear 36 993 59 10000 2.57 40 19:36 04.07.2022
555 Clear 36 993 63 10000 3.09 330 18:18 04.07.2022
556 Clear 36 992 63 10000 6.69 330 16:34 04.07.2022
557 Clear 36 991 67 10000 7.2 340 15:34 04.07.2022
558 Clear 39 992 56 10000 9.26 320 13:33 04.07.2022
559 Clear 40 993 53 10000 7.2 280 12:33 04.07.2022
560 Clear 41 994 35 10000 4.63 130 10:34 04.07.2022
561 Clear 40 994 39 10000 4.63 110 09:53 04.07.2022
562 Clear 38 995 47 10000 6.17 110 08:24 04.07.2022
563 Clear 34 994 70 10000 4.12 120 04:57 04.07.2022
564 Clouds 34 993 79 10000 3.6 340 00:42 04.07.2022
565 Clear 35 993 71 10000 3.09 270 22:59 03.07.2022
566 Clear 36 993 67 10000 3.09 330 20:58 03.07.2022
567 Clear 36 993 67 10000 3.09 330 20:31 03.07.2022
568 Clear 36 993 63 10000 3.09 330 19:41 03.07.2022
569 Clear 36 993 63 10000 3.09 330 19:23 03.07.2022
570 Clear 37 991 63 10000 2.57 30 17:45 03.07.2022
571 Clear 38 990 60 10000 5.66 330 15:55 03.07.2022
572 Clear 37 990 59 10000 6.17 320 14:59 03.07.2022
573 Clear 37 990 59 10000 6.17 320 14:20 03.07.2022
574 Clear 37 991 59 9000 5.66 340 13:48 03.07.2022
575 Clear 37 991 63 10000 5.66 340 12:35 03.07.2022
576 Clear 37 992 63 10000 6.17 330 11:29 03.07.2022
577 Clear 37 992 63 10000 5.66 320 10:39 03.07.2022
578 Clear 40 993 50 10000 4.63 340 09:55 03.07.2022
579 Clear 36 993 56 10000 2.06 110 07:35 03.07.2022
580 Clear 33 992 75 10000 3.09 100 04:22 03.07.2022
581 Clear 34 992 66 10000 3.6 340 00:23 03.07.2022
582 Clear 34 993 75 10000 3.09 350 22:35 02.07.2022
583 Clear 34 993 70 10000 4.63 320 21:38 02.07.2022
584 Clear 36 993 56 10000 4.63 310 19:52 02.07.2022
585 Clear 36 993 56 10000 4.63 310 19:23 02.07.2022
586 Clear 37 992 53 10000 3.09 340 17:51 02.07.2022
587 Clear 37 992 53 10000 3.09 340 17:33 02.07.2022
588 Clear 37 991 59 10000 6.17 350 14:52 02.07.2022
589 Clear 39 992 53 10000 7.2 330 12:22 02.07.2022
590 Clear 41 992 47 10000 4.63 330 11:27 02.07.2022
591 Clear 41 993 33 10000 3.09 200 10:43 02.07.2022
592 Clear 40 994 39 10000 2.57 190 09:25 02.07.2022
593 Clouds 38 994 41 8000 4.63 160 08:36 02.07.2022
594 Clouds 38 994 41 8000 4.63 160 08:18 02.07.2022
595 Clear 34 992 66 10000 4.12 90 02:52 02.07.2022
596 Clear 35 993 59 10000 3.09 60 00:26 02.07.2022
597 Clear 36 994 47 10000 2.57 70 22:58 01.07.2022
598 Clear 36 994 52 10000 1.54 40 21:56 01.07.2022
599 Clear 36 994 52 10000 1.54 40 21:37 01.07.2022
600 Clear 36 994 56 10000 2.06 50 20:56 01.07.2022
601 Clear 36 993 56 10000 2.06 10 19:47 01.07.2022
602 Clear 36 992 63 10000 4.12 330 17:58 01.07.2022
603 Clear 37 992 44 10000 5.66 330 16:24 01.07.2022
604 Clear 40 992 39 10000 6.17 320 13:55 01.07.2022
605 Clear 41 993 29 10000 5.66 330 12:59 01.07.2022
606 Clear 41 994 11 10000 2.57 190 10:46 01.07.2022
607 Clear 41 994 11 10000 2.57 190 10:18 01.07.2022
608 Clouds 31 995 70 8000 2.06 130 05:27 01.07.2022
609 Clear 32 993 66 10000 2.06 240 01:27 01.07.2022
610 Clear 33 994 70 10000 1.03 0 23:28 30.06.2022
611 Clear 33 994 75 10000 2.06 340 22:45 30.06.2022
612 Clear 33 994 75 10000 2.06 340 22:27 30.06.2022
613 Clear 34 994 66 10000 3.09 350 21:50 30.06.2022
614 Clear 34 994 49 10000 1.03 0 20:31 30.06.2022
615 Clear 35 993 49 10000 1.54 220 19:55 30.06.2022
616 Clear 35 993 49 10000 1.54 220 19:32 30.06.2022
617 Clear 36 993 38 10000 2.06 270 18:43 30.06.2022
618 Clear 37 993 44 10000 2.57 300 17:49 30.06.2022
619 Clear 37 993 44 10000 5.66 320 16:55 30.06.2022
620 Clear 37 993 44 10000 5.66 320 15:50 30.06.2022
621 Clouds 38 993 50 8000 7.2 320 13:50 30.06.2022
622 Clouds 38 994 53 7000 6.69 320 12:36 30.06.2022
623 Clouds 39 994 44 6000 4.12 290 11:59 30.06.2022
624 Clouds 39 995 35 6000 3.6 240 09:55 30.06.2022
625 Clouds 39 995 35 6000 3.6 240 09:37 30.06.2022
626 Clouds 37 995 44 6000 3.6 250 08:19 30.06.2022
627 Clouds 36 995 46 7000 2.57 0 07:40 30.06.2022
628 Clouds 33 993 62 8000 3.6 200 02:49 30.06.2022
629 Clear 34 994 46 10000 2.57 100 23:38 29.06.2022
630 Clear 34 994 52 10000 2.06 100 22:41 29.06.2022
631 Clear 35 995 43 9000 1.54 30 21:58 29.06.2022
632 Clear 35 995 55 9000 1.03 0 20:35 29.06.2022
633 Clear 35 995 55 9000 1.03 0 20:35 29.06.2022
634 Clear 35 994 52 9000 3.6 320 19:56 29.06.2022
635 Clouds 35 994 59 8000 5.14 320 17:55 29.06.2022
636 Clouds 36 994 52 7000 6.17 320 16:55 29.06.2022
637 Clouds 37 994 53 6000 6.17 320 15:33 29.06.2022
638 Clear 37 995 56 6000 6.17 320 13:36 29.06.2022
639 Clear 37 995 59 6000 5.66 320 12:24 29.06.2022
640 Clear 39 997 39 8000 3.6 0 09:46 29.06.2022
641 Clear 39 997 39 8000 3.6 0 09:22 29.06.2022
642 Clouds 35 997 59 8000 2.06 210 06:28 29.06.2022
643 Clear 34 996 70 10000 1.54 0 02:59 29.06.2022
644 Clear 34 996 70 10000 2.06 330 00:52 29.06.2022
645 Clear 34 996 70 10000 2.06 330 00:33 29.06.2022
646 Clear 35 997 63 10000 2.57 330 22:49 28.06.2022
647 Clear 36 997 56 9000 1.54 0 21:57 28.06.2022
648 Clear 36 997 56 9000 1.54 0 21:38 28.06.2022
649 Clear 36 997 56 9000 1.54 0 21:19 28.06.2022
650 Clear 35 997 59 10000 1.54 270 19:54 28.06.2022
651 Clear 35 997 59 10000 1.54 270 19:28 28.06.2022
652 Clouds 35 997 66 10000 2.57 360 18:38 28.06.2022
653 Clear 35 996 66 10000 5.14 320 16:47 28.06.2022
654 Clear 36 996 63 9000 6.17 340 15:54 28.06.2022
655 Clear 36 996 63 9000 7.2 340 14:48 28.06.2022
656 Clear 36 996 63 9000 7.2 340 14:18 28.06.2022
657 Clear 36 996 63 9000 7.2 330 13:45 28.06.2022
658 Clear 40 997 47 9000 6.17 310 11:58 28.06.2022
659 Clear 38 998 41 10000 4.63 200 09:50 28.06.2022
660 Clear 37 999 49 10000 4.12 190 08:54 28.06.2022
661 Clouds 35 999 66 8000 4.12 170 07:58 28.06.2022
662 Clouds 35 999 66 8000 4.12 170 07:20 28.06.2022
663 Clouds 33 997 79 8000 2.57 330 02:41 28.06.2022
664 Clouds 33 997 79 8000 3.6 330 23:48 27.06.2022
665 Clouds 34 997 75 9000 4.12 330 22:56 27.06.2022
666 Clouds 34 997 75 9000 5.14 330 21:39 27.06.2022
667 Clouds 34 997 75 9000 5.14 330 21:18 27.06.2022
668 Clear 36 997 63 10000 4.12 320 19:48 27.06.2022
669 Clear 39 996 37 10000 3.6 30 18:40 27.06.2022
670 Clear 39 996 35 10000 5.14 10 17:26 27.06.2022
671 Clear 41 995 31 10000 6.17 10 15:43 27.06.2022
672 Clouds 39 996 42 8000 6.17 360 13:51 27.06.2022
673 Clouds 40 996 47 8000 6.69 350 12:57 27.06.2022
674 Clouds 40 997 50 8000 7.2 320 10:51 27.06.2022
675 Clear 41 997 33 10000 4.63 120 09:43 27.06.2022
676 Clear 41 997 31 10000 5.66 140 08:38 27.06.2022
677 Clouds 37 997 39 9000 5.14 140 07:39 27.06.2022
678 Clouds 33 996 66 7000 2.06 170 04:40 27.06.2022
679 Clear 34 995 59 10000 2.06 170 01:21 27.06.2022
680 Clear 35 995 46 10000 1.54 230 22:48 26.06.2022
681 Clear 36 996 49 10000 2.06 220 21:23 26.06.2022
682 Clear 37 995 49 10000 2.06 230 19:59 26.06.2022
683 Clear 37 995 39 10000 2.06 350 18:33 26.06.2022
684 Clear 37 995 44 10000 3.6 330 17:37 26.06.2022
685 Clear 38 994 50 10000 5.66 330 15:31 26.06.2022
686 Clear 38 995 56 10000 6.17 310 13:59 26.06.2022
687 Clear 38 995 56 10000 6.17 310 13:23 26.06.2022
688 Clear 42 995 35 10000 2.06 250 11:39 26.06.2022
689 Clear 40 996 35 10000 2.57 260 10:30 26.06.2022
690 Clouds 38 997 41 9000 2.06 240 09:55 26.06.2022
691 Clouds 34 997 55 7000 2.57 220 07:47 26.06.2022
692 Clouds 31 996 66 6000 2.57 170 04:29 26.06.2022
693 Clear 33 995 66 8000 2.06 120 00:36 26.06.2022
694 Clear 33 995 66 8000 2.06 120 00:18 26.06.2022
695 Clear 33 995 70 8000 3.6 200 23:25 25.06.2022
696 Clear 34 996 62 8000 2.06 220 22:28 25.06.2022
697 Clear 34 996 66 8000 2.06 220 21:52 25.06.2022
698 Clear 34 996 66 8000 2.06 220 21:20 25.06.2022
699 Clear 34 997 66 8000 1.03 0 20:32 25.06.2022
700 Clear 33 997 70 8000 2.06 330 19:55 25.06.2022
701 Clear 33 997 70 8000 2.06 330 19:55 25.06.2022
702 Clear 34 996 70 8000 5.66 320 18:22 25.06.2022
703 Clear 35 996 55 7000 6.17 320 17:25 25.06.2022
704 Clear 38 995 39 7000 3.6 290 16:25 25.06.2022
705 Clear 37 996 49 7000 6.69 330 14:28 25.06.2022
706 Clear 39 997 42 6000 6.17 330 12:43 25.06.2022
707 Clear 38 998 47 6000 5.66 330 11:34 25.06.2022
708 Clear 39 999 30 7000 3.6 230 09:22 25.06.2022
709 Clear 37 1000 39 7000 3.6 210 08:48 25.06.2022
710 Clear 37 1000 39 7000 3.6 210 08:19 25.06.2022
711 Clear 34 999 52 6000 2.06 210 05:26 25.06.2022
712 Clear 35 999 46 8000 3.09 330 00:44 25.06.2022
713 Clear 35 999 46 8000 3.09 330 00:44 25.06.2022
714 Clear 36 999 41 8000 1.54 190 23:18 24.06.2022
715 Clear 35 1000 44 8000 2.06 90 21:59 24.06.2022
716 Clear 35 1000 44 8000 2.06 90 21:21 24.06.2022
717 Clear 36 1000 36 8000 2.57 340 20:22 24.06.2022
718 Clear 36 999 44 8000 3.09 310 19:23 24.06.2022
719 Clear 36 999 46 7000 3.09 350 18:50 24.06.2022
720 Clear 36 999 46 7000 3.09 350 18:30 24.06.2022
721 Clear 37 999 47 6000 3.6 340 17:46 24.06.2022
722 Clear 38 999 47 7000 6.17 350 15:56 24.06.2022
723 Clear 39 999 42 7000 5.14 320 14:29 24.06.2022
724 Clear 40 1000 42 7000 5.66 340 13:55 24.06.2022
725 Clear 40 1000 42 7000 5.66 340 13:55 24.06.2022
726 Clear 40 1001 37 7000 4.12 330 11:54 24.06.2022
727 Clear 40 1001 37 7000 4.12 330 11:34 24.06.2022
728 Clear 41 1002 27 8000 4.63 260 10:22 24.06.2022
729 Clear 40 1003 31 8000 4.63 190 09:40 24.06.2022
730 Clear 38 1004 39 8000 3.6 180 08:52 24.06.2022
731 Clear 36 1004 46 8000 4.12 140 07:20 24.06.2022
732 Clear 34 1003 55 8000 3.6 120 06:40 24.06.2022
733 Clear 33 1003 58 8000 3.6 120 05:57 24.06.2022
734 Clear 33 1001 58 10000 6.69 130 02:31 24.06.2022
735 Clear 34 1002 55 10000 5.14 90 22:57 23.06.2022
736 Clear 34 1002 55 10000 5.14 90 22:38 23.06.2022
737 Clear 35 1001 49 10000 5.66 100 20:57 23.06.2022
738 Clear 35 1001 49 10000 5.66 100 20:32 23.06.2022
739 Clear 36 1000 49 9000 8.23 110 19:24 23.06.2022
740 Clear 38 1000 44 6000 7.2 90 17:50 23.06.2022
741 Clear 39 999 42 6000 8.23 90 16:58 23.06.2022
742 Dust 42 998 35 5000 8.23 80 15:49 23.06.2022
743 Dust 42 998 35 5000 8.23 80 15:24 23.06.2022
744 Clear 44 998 26 7000 7.2 100 13:32 23.06.2022
745 Clear 43 1000 28 7000 6.69 100 11:27 23.06.2022
746 Clear 42 1000 31 7000 6.69 110 10:31 23.06.2022
747 Dust 39 1001 42 5000 7.72 120 08:49 23.06.2022
748 Clear 34 997 52 10000 5.14 110 02:46 23.06.2022
749 Clear 36 997 32 10000 2.06 110 00:26 23.06.2022
750 Clear 35 997 28 10000 1.54 100 23:27 22.06.2022
751 Clear 37 997 17 10000 2.06 110 22:39 22.06.2022
752 Clear 37 997 23 10000 1.03 0 21:22 22.06.2022
753 Clear 38 997 14 10000 3.09 110 20:34 22.06.2022
754 Clear 37 996 18 10000 3.09 100 19:52 22.06.2022
755 Clear 38 996 16 10000 3.09 70 18:40 22.06.2022
756 Clear 40 995 17 10000 2.57 20 17:27 22.06.2022
757 Clear 40 995 12 10000 4.63 350 16:18 22.06.2022
758 Clear 40 995 22 10000 4.12 340 15:26 22.06.2022
759 Clear 41 995 24 10000 4.63 320 14:18 22.06.2022
760 Clear 42 995 26 10000 5.66 330 13:37 22.06.2022
761 Clear 42 995 26 10000 5.66 330 13:37 22.06.2022
762 Clear 42 995 26 10000 5.66 330 13:18 22.06.2022
763 Clear 40 996 31 10000 4.63 330 11:48 22.06.2022
764 Clear 39 996 35 10000 4.63 330 10:55 22.06.2022
765 Clear 39 996 29 10000 4.12 320 09:59 22.06.2022
766 Clear 38 996 20 10000 2.06 220 07:58 22.06.2022
767 Clear 32 994 35 10000 1.54 190 03:40 22.06.2022
768 Clear 32 993 38 10000 3.6 130 01:23 22.06.2022
769 Clear 34 994 31 10000 3.09 100 23:42 21.06.2022
770 Clear 35 994 36 10000 2.06 210 21:49 21.06.2022
771 Clear 36 994 32 10000 2.57 260 19:50 21.06.2022
772 Clear 36 994 32 10000 3.6 270 18:32 21.06.2022
773 Clear 37 994 34 10000 3.09 280 17:31 21.06.2022
774 Clear 40 994 29 10000 5.14 280 13:45 21.06.2022
775 Clear 40 995 21 10000 5.66 290 11:31 21.06.2022
776 Clear 41 996 14 10000 5.14 280 09:48 21.06.2022
777 Clear 39 996 25 10000 4.12 230 08:47 21.06.2022
778 Clear 35 996 43 10000 2.06 190 06:35 21.06.2022
779 Clear 34 996 43 10000 0 0 00:44 21.06.2022
780 Clear 34 996 46 10000 1.54 230 23:24 20.06.2022
781 Clear 36 997 44 10000 2.06 10 21:54 20.06.2022
782 Clear 36 997 41 10000 2.57 320 20:50 20.06.2022
783 Clear 37 997 39 10000 3.09 340 19:39 20.06.2022
784 Clear 38 996 44 10000 1.54 0 18:46 20.06.2022
785 Clear 38 996 41 7000 5.66 320 17:59 20.06.2022
786 Clear 38 996 41 7000 5.66 320 17:32 20.06.2022
787 Clear 39 996 42 6000 7.72 320 15:56 20.06.2022
788 Dust 39 997 47 5000 8.23 320 12:54 20.06.2022
789 Clear 43 998 30 8000 5.14 290 10:58 20.06.2022
790 Clear 42 999 27 8000 4.63 250 09:41 20.06.2022
791 Clear 41 999 31 8000 3.6 210 08:44 20.06.2022
792 Clear 37 999 39 8000 5.14 180 06:19 20.06.2022
793 Clear 33 998 43 10000 5.66 170 02:29 20.06.2022
794 Clear 35 998 41 10000 1.54 50 00:26 20.06.2022
795 Clear 35 998 41 10000 2.06 90 23:18 19.06.2022
796 Clear 36 998 36 10000 1.54 50 21:58 19.06.2022
797 Clear 36 998 36 10000 1.54 50 21:40 19.06.2022
798 Clear 37 998 41 10000 3.09 70 20:44 19.06.2022
799 Clear 37 998 44 10000 3.09 60 19:48 19.06.2022
800 Clear 37 998 44 10000 3.09 60 19:19 19.06.2022
801 Clear 39 997 32 10000 3.6 330 18:30 19.06.2022
802 Clear 39 997 35 10000 2.57 10 17:22 19.06.2022
803 Clear 40 997 35 10000 4.63 10 16:36 19.06.2022
804 Clear 41 997 33 10000 5.14 330 15:43 19.06.2022
805 Clear 41 997 33 10000 5.14 330 15:24 19.06.2022
806 Clear 40 997 35 8000 6.69 330 14:20 19.06.2022
807 Clear 41 997 33 8000 7.2 330 13:37 19.06.2022
808 Clear 41 999 39 10000 6.69 350 11:40 19.06.2022
809 Clear 42 999 29 10000 5.14 320 10:49 19.06.2022
810 Clear 40 1000 29 10000 2.57 190 08:54 19.06.2022
811 Clear 40 1000 29 10000 2.57 190 08:30 19.06.2022
812 Clear 35 1000 41 10000 2.57 110 05:59 19.06.2022
813 Clear 34 998 46 10000 2.06 0 02:59 19.06.2022
814 Clear 35 997 44 10000 3.09 50 00:26 19.06.2022
815 Clear 35 997 52 10000 3.09 20 23:36 18.06.2022
816 Clear 35 997 59 9000 2.57 40 22:55 18.06.2022
817 Clear 36 997 63 9000 3.09 360 21:52 18.06.2022
818 Clear 36 996 63 10000 2.57 340 20:50 18.06.2022
819 Clear 37 996 63 10000 3.6 320 19:48 18.06.2022
820 Clear 37 996 53 10000 2.06 320 18:54 18.06.2022
821 Clear 39 996 35 10000 3.09 360 17:54 18.06.2022
822 Clear 39 996 35 10000 3.09 360 17:23 18.06.2022
823 Clear 40 996 33 10000 5.14 20 15:38 18.06.2022
824 Clear 39 996 35 10000 5.14 10 14:49 18.06.2022
825 Clear 38 997 47 10000 5.66 350 13:54 18.06.2022
826 Clear 35 998 66 8000 6.69 340 11:58 18.06.2022
827 Clear 36 998 63 9000 6.17 340 10:57 18.06.2022
828 Clear 37 998 63 8000 4.12 340 09:29 18.06.2022
829 Clear 36 999 59 10000 3.09 320 08:33 18.06.2022
830 Clear 34 999 59 10000 1.54 0 07:32 18.06.2022
831 Clear 30 997 84 7000 2.57 210 04:20 18.06.2022
832 Clear 31 996 79 10000 1.54 170 01:27 18.06.2022
833 Clear 31 996 79 10000 1.54 170 01:27 18.06.2022
834 Clear 32 997 70 10000 2.06 100 00:55 18.06.2022
835 Clear 32 997 70 10000 2.06 100 00:22 18.06.2022
836 Clear 32 997 79 10000 1.54 0 23:29 17.06.2022
837 Clear 32 997 79 10000 3.6 230 21:57 17.06.2022
838 Clear 33 997 70 10000 2.57 220 20:29 17.06.2022
839 Clear 34 997 55 10000 2.57 260 19:19 17.06.2022
840 Clear 36 996 44 10000 4.63 330 17:47 17.06.2022
841 Clear 38 996 32 10000 5.14 300 16:44 17.06.2022
842 Clear 38 996 32 10000 5.14 300 16:19 17.06.2022
843 Clear 37 996 39 10000 5.14 300 15:37 17.06.2022
844 Clear 37 996 47 10000 4.63 280 14:23 17.06.2022
845 Clear 38 996 50 10000 5.66 310 13:57 17.06.2022
846 Clear 38 996 50 10000 5.66 310 13:37 17.06.2022
847 Clear 38 997 53 10000 5.14 280 12:20 17.06.2022
848 Clear 39 997 47 10000 4.63 280 11:49 17.06.2022
849 Clear 39 997 47 10000 4.63 280 11:30 17.06.2022
850 Clear 37 998 47 8000 3.09 210 08:45 17.06.2022
851 Clear 37 998 47 8000 3.09 210 08:24 17.06.2022
852 Clear 32 998 62 6000 3.6 210 06:35 17.06.2022
853 Clear 31 997 55 10000 3.09 220 03:25 17.06.2022
854 Clear 32 997 62 10000 2.57 0 01:27 17.06.2022
855 Clear 33 997 46 10000 1.03 0 23:34 16.06.2022
856 Clear 34 998 46 10000 2.06 0 22:40 16.06.2022
857 Clear 35 998 38 10000 2.06 230 21:21 16.06.2022
858 Clear 36 998 34 10000 2.06 260 20:50 16.06.2022
859 Clear 36 998 34 10000 2.06 260 20:21 16.06.2022
860 Clear 38 998 27 10000 1.54 260 18:51 16.06.2022
861 Clear 38 997 30 10000 2.57 270 17:50 16.06.2022
862 Clear 38 997 30 10000 2.57 270 17:27 16.06.2022
863 Clear 38 997 32 10000 3.6 270 16:20 16.06.2022
864 Clear 40 998 24 10000 4.12 280 15:21 16.06.2022
865 Clear 41 998 20 10000 4.12 280 14:27 16.06.2022
866 Clear 40 999 22 10000 3.6 280 12:53 16.06.2022
867 Clear 40 999 22 10000 3.6 280 12:34 16.06.2022
868 Clear 40 999 22 10000 3.6 290 11:48 16.06.2022
869 Clear 40 1000 22 10000 3.09 290 10:41 16.06.2022
870 Clear 39 1000 21 10000 3.6 290 09:43 16.06.2022
871 Clear 40 1000 21 10000 2.57 0 08:59 16.06.2022
872 Clear 36 1000 32 10000 2.06 210 07:42 16.06.2022
873 Clear 35 1000 34 10000 3.6 170 06:36 16.06.2022
874 Clear 32 999 45 10000 1.54 230 04:24 16.06.2022
875 Clear 34 999 40 10000 1.54 0 01:53 16.06.2022
876 Clear 34 999 40 10000 1.54 0 01:29 16.06.2022
877 Clear 33 999 46 10000 1.54 200 00:29 16.06.2022
878 Clear 34 1000 38 10000 2.06 220 22:54 15.06.2022
879 Clear 34 1001 41 10000 2.06 250 21:48 15.06.2022
880 Clear 34 1001 41 10000 2.06 250 21:19 15.06.2022
881 Clear 35 1000 36 10000 2.57 230 20:37 15.06.2022
882 Clear 35 1000 36 10000 2.57 230 20:18 15.06.2022
883 Clear 36 1000 38 10000 3.09 280 18:47 15.06.2022
884 Clear 37 999 39 7000 5.14 330 17:54 15.06.2022
885 Clear 37 999 39 7000 5.14 330 16:34 15.06.2022
886 Clear 38 999 39 6000 7.2 320 15:22 15.06.2022
887 Clear 41 1000 29 6000 5.66 280 13:37 15.06.2022
888 Clear 40 1001 33 6000 5.14 280 12:51 15.06.2022
889 Clear 41 1001 33 6000 5.66 290 11:37 15.06.2022
890 Clear 41 1001 27 6000 2.06 0 10:22 15.06.2022
891 Clear 40 1002 33 6000 4.63 0 09:34 15.06.2022
892 Clear 37 1002 36 7000 3.6 200 07:58 15.06.2022
893 Clear 34 1002 43 8000 3.09 170 05:58 15.06.2022
894 Clear 33 1001 43 10000 2.57 100 03:28 15.06.2022
895 Clear 34 1000 46 10000 3.09 80 01:37 15.06.2022
896 Clear 34 1000 38 10000 3.6 40 00:41 15.06.2022
897 Clear 36 1000 34 10000 2.57 40 23:38 14.06.2022
898 Clear 36 1001 36 10000 2.57 10 22:51 14.06.2022
899 Clear 36 1001 36 10000 2.06 70 21:47 14.06.2022
900 Clear 36 1001 36 10000 2.06 70 21:26 14.06.2022
901 Clear 37 1001 36 10000 2.06 40 20:41 14.06.2022
902 Clear 37 1001 36 10000 3.09 30 19:59 14.06.2022
903 Clear 37 1000 39 10000 4.12 50 18:45 14.06.2022
904 Clear 37 1000 39 10000 3.6 20 17:29 14.06.2022
905 Clear 38 999 37 10000 5.66 20 16:43 14.06.2022
906 Clear 38 999 37 10000 5.14 20 15:49 14.06.2022
907 Clear 38 1000 41 8000 6.69 330 14:56 14.06.2022
908 Clear 38 1000 41 8000 6.69 330 14:19 14.06.2022
909 Clear 39 1000 39 8000 6.17 340 13:32 14.06.2022
910 Clear 38 1001 47 10000 6.69 340 12:25 14.06.2022
911 Clear 40 1002 35 10000 2.57 360 10:59 14.06.2022
912 Clear 40 1002 35 10000 2.57 360 10:59 14.06.2022
913 Clear 40 1002 35 10000 2.57 360 10:33 14.06.2022
914 Clear 38 1002 39 10000 1.54 0 09:28 14.06.2022
915 Clear 38 1002 39 10000 1.54 0 09:28 14.06.2022
916 Clear 37 1003 44 10000 3.6 100 08:41 14.06.2022
917 Clear 34 1002 55 10000 4.12 120 06:54 14.06.2022
918 Clear 32 1001 62 10000 3.6 80 04:28 14.06.2022
919 Clear 33 999 58 10000 5.14 90 01:50 14.06.2022
920 Clear 33 999 58 10000 4.12 90 00:27 14.06.2022
921 Clear 33 999 58 10000 5.14 80 23:18 13.06.2022
922 Clear 34 1000 55 10000 4.12 90 22:24 13.06.2022
923 Clear 34 1000 52 10000 5.14 90 21:41 13.06.2022
924 Clear 35 1000 52 10000 6.17 100 19:59 13.06.2022
925 Clear 35 1000 52 10000 6.17 100 19:25 13.06.2022
926 Clear 37 998 44 8000 7.2 100 17:57 13.06.2022
927 Clear 37 998 44 8000 7.2 100 17:27 13.06.2022
928 Clear 38 998 39 8000 8.23 100 16:31 13.06.2022
929 Clear 40 998 37 6000 8.23 70 14:53 13.06.2022
930 Clear 40 998 37 6000 8.23 70 14:33 13.06.2022
931 Clear 40 998 35 7000 8.23 80 13:39 13.06.2022
932 Clear 40 999 35 7000 9.26 90 12:23 13.06.2022
933 Clear 39 1000 39 6000 8.23 90 11:18 13.06.2022
934 Clear 38 1000 41 6000 8.75 100 10:26 13.06.2022
935 Clear 37 1000 44 6000 8.23 110 09:22 13.06.2022
936 Dust 34 1000 55 5000 8.75 90 06:55 13.06.2022
937 Clear 34 1000 55 6000 7.72 100 05:36 13.06.2022
938 Clear 33 998 58 8000 8.75 100 02:47 13.06.2022
939 Clear 33 998 58 8000 7.72 90 01:36 13.06.2022
940 Clear 34 999 55 8000 6.69 90 23:50 12.06.2022
941 Clear 33 999 58 10000 7.2 100 22:50 12.06.2022
942 Clear 33 999 58 10000 7.2 100 22:22 12.06.2022
943 Clear 35 998 46 10000 5.14 40 20:58 12.06.2022
944 Clear 35 998 46 10000 5.14 40 20:19 12.06.2022
945 Clear 35 997 49 10000 5.66 40 19:30 12.06.2022
946 Clear 36 995 49 10000 5.14 20 17:47 12.06.2022
947 Clear 37 995 49 10000 7.2 360 15:58 12.06.2022
948 Clear 39 995 47 10000 6.69 10 14:56 12.06.2022
949 Clear 39 995 47 10000 6.69 10 14:20 12.06.2022
950 Clear 38 995 49 10000 6.17 20 13:49 12.06.2022
951 Clear 38 996 49 10000 6.69 10 12:35 12.06.2022
952 Clear 38 996 44 10000 6.17 10 11:36 12.06.2022
953 Clear 39 997 32 10000 4.12 80 10:22 12.06.2022
954 Clear 36 997 46 10000 5.14 120 08:54 12.06.2022
955 Clear 36 997 46 10000 5.14 120 08:35 12.06.2022
956 Clear 33 998 46 10000 2.57 130 07:32 12.06.2022
957 Clear 29 997 54 10000 2.57 150 04:35 12.06.2022
958 Clear 29 996 58 10000 3.6 190 02:38 12.06.2022
959 Clear 30 995 58 10000 4.12 210 01:37 12.06.2022
960 Clear 30 996 62 10000 4.12 190 00:58 12.06.2022
961 Clear 30 996 62 10000 4.12 190 00:20 12.06.2022
962 Clear 30 996 62 10000 4.63 190 23:29 11.06.2022
963 Clear 31 997 62 10000 4.12 180 22:38 11.06.2022
964 Clear 31 997 66 10000 3.09 200 21:37 11.06.2022
965 Clear 32 997 62 10000 3.09 240 20:34 11.06.2022
966 Clear 32 996 62 10000 3.09 250 19:39 11.06.2022
967 Clear 32 996 58 10000 4.12 260 18:56 11.06.2022
968 Clear 32 996 58 10000 4.12 260 18:33 11.06.2022
969 Clear 33 995 55 8000 4.12 280 17:50 11.06.2022
970 Clear 33 995 55 8000 4.12 280 17:26 11.06.2022
971 Clear 34 995 49 8000 5.66 250 16:50 11.06.2022
972 Clear 34 995 49 8000 5.66 250 16:26 11.06.2022
973 Clear 35 995 46 8000 6.17 260 15:27 11.06.2022
974 Clear 37 996 39 8000 6.17 270 13:53 11.06.2022
975 Clear 37 996 39 8000 6.17 270 13:53 11.06.2022
976 Clear 37 996 41 10000 5.66 260 12:36 11.06.2022
977 Clear 37 997 41 8000 5.66 0 10:46 11.06.2022
978 Clear 37 997 34 10000 4.63 260 09:43 11.06.2022
979 Clear 36 998 36 10000 4.63 260 08:51 11.06.2022
980 Clear 32 997 48 10000 4.63 200 06:47 11.06.2022
981 Clear 32 997 48 10000 4.63 200 06:24 11.06.2022
982 Clear 30 995 58 10000 5.14 210 03:46 11.06.2022
983 Clear 32 995 55 10000 4.12 200 01:52 11.06.2022
984 Clear 32 995 55 10000 4.12 200 01:26 11.06.2022
985 Clear 34 996 55 10000 3.09 220 23:29 10.06.2022
986 Clear 35 996 55 10000 3.09 220 22:29 10.06.2022
987 Clear 33 997 66 10000 3.6 230 21:47 10.06.2022
988 Clear 35 997 55 10000 2.57 220 20:39 10.06.2022
989 Clear 35 997 55 10000 2.57 220 20:39 10.06.2022
990 Clear 35 997 55 10000 2.57 220 20:21 10.06.2022
991 Clear 35 997 49 10000 2.57 260 19:19 10.06.2022
992 Clear 35 997 49 10000 2.57 260 19:19 10.06.2022
993 Clear 35 996 55 8000 3.6 280 18:46 10.06.2022
994 Clear 37 996 44 7000 3.6 280 17:54 10.06.2022
995 Clear 37 996 44 7000 3.6 280 17:32 10.06.2022
996 Clear 38 996 41 7000 4.63 280 16:36 10.06.2022
997 Clear 39 996 35 7000 5.14 280 15:40 10.06.2022
998 Clear 41 996 35 7000 5.66 300 14:29 10.06.2022
999 Clear 42 996 35 7000 3.6 280 13:20 10.06.2022
1000 Clear 39 998 39 7000 4.63 290 11:59 10.06.2022
1001 Clear 40 998 27 7000 2.06 0 10:59 10.06.2022
1002 Clear 40 998 27 7000 2.06 0 10:24 10.06.2022
1003 Clear 37 999 28 8000 4.12 190 08:58 10.06.2022
1004 Clear 35 999 31 7000 3.6 210 07:50 10.06.2022
1005 Clear 32 999 33 7000 4.12 210 06:47 10.06.2022
1006 Clear 32 999 33 7000 4.12 210 06:28 10.06.2022
1007 Clear 30 998 30 7000 3.6 190 04:53 10.06.2022
1008 Clear 31 997 30 10000 4.12 200 02:31 10.06.2022
1009 Clear 31 997 30 8000 3.6 190 01:37 10.06.2022
1010 Clear 33 998 31 8000 3.09 200 23:58 09.06.2022
1011 Clear 33 998 33 8000 3.6 210 22:30 09.06.2022
1012 Clear 35 999 28 8000 3.09 210 21:43 09.06.2022
1013 Clear 35 999 28 8000 3.09 210 21:24 09.06.2022
1014 Clear 35 999 28 8000 3.09 210 20:38 09.06.2022
1015 Clear 35 999 29 8000 2.57 210 19:43 09.06.2022
1016 Clear 36 999 20 9000 2.06 230 18:37 09.06.2022
1017 Clear 37 999 22 8000 2.57 260 17:31 09.06.2022
1018 Clear 38 998 19 10000 4.12 320 16:28 09.06.2022
1019 Clear 40 999 15 10000 6.69 310 14:45 09.06.2022
1020 Clear 40 999 15 10000 6.69 310 14:24 09.06.2022
1021 Clear 40 999 17 10000 6.69 310 13:30 09.06.2022
1022 Clear 41 1000 12 10000 5.66 310 12:51 09.06.2022
1023 Clear 41 1000 11 10000 5.66 290 11:33 09.06.2022
1024 Clear 40 1001 17 10000 2.06 0 09:55 09.06.2022
1025 Clear 40 1001 17 10000 2.06 0 09:55 09.06.2022
1026 Clear 40 1001 17 10000 2.06 0 09:37 09.06.2022
1027 Clear 39 1002 18 10000 3.09 240 08:33 09.06.2022
1028 Clear 37 1002 22 10000 3.09 180 07:29 09.06.2022
1029 Clear 31 1001 35 10000 4.12 190 03:31 09.06.2022
1030 Clear 33 1000 26 10000 2.57 320 00:34 09.06.2022
1031 Clear 35 1001 24 10000 1.54 0 23:18 08.06.2022
1032 Clear 35 1001 23 10000 1.54 50 22:42 08.06.2022
1033 Clear 35 1001 23 10000 1.54 50 22:23 08.06.2022
1034 Clear 36 1002 19 10000 1.54 40 21:32 08.06.2022
1035 Clear 36 1002 20 10000 1.54 50 20:25 08.06.2022
1036 Clear 36 1001 22 10000 1.03 0 19:41 08.06.2022
1037 Clear 37 1001 20 10000 3.6 320 18:48 08.06.2022
1038 Clear 37 1001 25 10000 4.12 330 17:38 08.06.2022
1039 Clear 39 1000 24 10000 5.66 340 15:53 08.06.2022
1040 Clear 38 1001 34 10000 7.72 340 14:38 08.06.2022
1041 Clear 40 1001 31 10000 8.23 320 12:55 08.06.2022
1042 Clear 40 1001 31 10000 8.23 320 12:55 08.06.2022
1043 Clear 43 1001 24 10000 5.14 300 11:36 08.06.2022
1044 Clear 43 1002 19 10000 4.63 270 10:46 08.06.2022
1045 Clear 41 1002 21 10000 4.12 210 09:28 08.06.2022
1046 Clear 38 1003 27 10000 4.12 220 08:54 08.06.2022
1047 Clear 34 1002 29 10000 3.6 220 06:56 08.06.2022
1048 Clear 34 1002 27 10000 1.54 250 04:41 08.06.2022
1049 Clear 33 1000 31 10000 2.06 0 01:25 08.06.2022
1050 Clear 34 1001 34 10000 2.06 80 23:32 07.06.2022
1051 Clear 34 1001 34 10000 2.57 100 22:54 07.06.2022
1052 Clear 34 1001 34 10000 2.57 100 22:34 07.06.2022
1053 Clear 35 1001 32 10000 2.06 70 21:39 07.06.2022
1054 Clear 35 1001 32 10000 2.06 70 21:20 07.06.2022
1055 Clear 35 1001 30 10000 2.57 40 20:40 07.06.2022
1056 Clear 36 1000 25 10000 1.03 50 19:51 07.06.2022
1057 Clear 36 1000 28 10000 2.06 30 18:26 07.06.2022
1058 Clear 37 1000 30 10000 3.09 30 17:33 07.06.2022
1059 Clear 37 1000 32 10000 3.09 360 16:44 07.06.2022
1060 Clear 37 1000 32 10000 6.17 330 15:58 07.06.2022
1061 Clear 37 1000 32 10000 6.17 330 15:36 07.06.2022
1062 Clear 37 1000 32 10000 6.17 330 15:18 07.06.2022
1063 Clear 37 1000 34 10000 7.2 340 14:42 07.06.2022
1064 Clear 38 1000 37 10000 7.2 340 13:34 07.06.2022
1065 Clear 38 1000 41 10000 7.72 340 12:54 07.06.2022
1066 Clear 44 1001 10 10000 3.6 230 11:55 07.06.2022
1067 Clear 43 1001 13 10000 4.63 200 10:48 07.06.2022
1068 Clear 40 1002 17 10000 6.69 180 08:58 07.06.2022
1069 Clear 37 1002 22 10000 4.63 180 07:54 07.06.2022
1070 Clear 34 1002 26 10000 2.06 210 06:41 07.06.2022
1071 Clear 31 1001 35 10000 1.03 0 04:47 07.06.2022
1072 Clear 30 1000 45 10000 2.57 110 01:27 07.06.2022
1073 Clear 32 1000 25 10000 2.06 90 23:58 06.06.2022
1074 Clear 33 1001 33 10000 2.06 70 22:54 06.06.2022
1075 Clear 33 1001 33 10000 2.06 70 22:30 06.06.2022
1076 Clear 34 1001 34 10000 2.06 20 20:54 06.06.2022
1077 Clear 35 1001 29 10000 2.06 30 19:29 06.06.2022
1078 Clear 36 1001 30 10000 2.06 360 18:53 06.06.2022
1079 Clear 36 1001 30 10000 2.06 360 18:26 06.06.2022
1080 Clear 35 1000 36 10000 4.63 340 17:26 06.06.2022
1081 Clear 37 1000 34 10000 6.17 340 16:18 06.06.2022
1082 Clear 38 1000 28 10000 6.69 330 15:28 06.06.2022
1083 Clear 38 1000 30 10000 7.2 330 14:32 06.06.2022
1084 Clear 39 1000 27 10000 5.66 330 13:25 06.06.2022
1085 Clear 39 1001 24 10000 6.17 340 12:36 06.06.2022
1086 Clear 39 1001 29 10000 6.69 340 11:53 06.06.2022
1087 Clear 42 1002 13 10000 5.14 340 10:40 06.06.2022
1088 Clear 42 1002 9 10000 2.06 0 09:33 06.06.2022
1089 Clear 41 1002 9 10000 2.06 190 08:32 06.06.2022
1090 Clear 39 1002 13 10000 4.12 180 07:28 06.06.2022
1091 Clear 32 1002 31 10000 2.06 190 05:27 06.06.2022
1092 Clear 30 1001 31 10000 2.06 90 02:55 06.06.2022
1093 Clear 30 1001 40 10000 2.06 90 01:18 06.06.2022
1094 Clear 31 1001 35 10000 2.06 90 00:38 06.06.2022
1095 Clear 32 1001 33 10000 2.06 100 23:33 05.06.2022
1096 Clear 32 1002 27 10000 1.54 80 22:45 05.06.2022
1097 Clear 32 1002 27 10000 1.54 80 22:45 05.06.2022
1098 Clear 34 1002 33 10000 1.54 0 20:47 05.06.2022
1099 Clear 34 1002 36 10000 1.54 0 19:41 05.06.2022
1100 Clear 34 1001 38 10000 1.54 350 18:30 05.06.2022
1101 Clear 34 1001 43 8000 3.09 320 17:54 05.06.2022
1102 Clear 34 1001 43 8000 3.09 320 17:25 05.06.2022
1103 Clear 35 1001 38 8000 4.12 350 16:51 05.06.2022
1104 Clear 35 1001 38 8000 4.12 350 16:32 05.06.2022
1105 Clear 37 1001 36 7000 7.72 330 14:25 05.06.2022
1106 Clear 38 1001 25 7000 6.69 340 12:55 05.06.2022
1107 Clear 38 1001 25 7000 6.69 340 12:55 05.06.2022
1108 Clear 39 1002 25 10000 6.69 340 11:45 05.06.2022
1109 Clear 42 1002 9 10000 5.14 320 10:34 05.06.2022
1110 Clear 42 1003 8 10000 2.06 230 09:59 05.06.2022
1111 Clear 39 1003 13 10000 1.54 200 08:32 05.06.2022
1112 Clear 36 1003 20 10000 2.06 230 07:43 05.06.2022
1113 Clear 30 1003 37 10000 1.54 0 05:22 05.06.2022
1114 Clear 29 1002 39 10000 2.06 0 03:47 05.06.2022
1115 Clear 31 1002 37 10000 2.57 100 01:32 05.06.2022
1116 Clear 31 1003 40 10000 1.54 120 00:33 05.06.2022
1117 Clear 32 1003 31 10000 1.54 50 22:22 04.06.2022
1118 Clear 32 1003 38 10000 2.57 320 20:33 04.06.2022
1119 Clear 32 1003 48 10000 0.51 0 18:45 04.06.2022
1120 Clear 34 1002 40 10000 7.2 330 16:44 04.06.2022
1121 Clear 34 1002 40 10000 7.2 330 16:18 04.06.2022
1122 Clear 35 1003 38 10000 7.72 340 14:53 04.06.2022
1123 Clear 35 1003 38 10000 7.72 340 14:53 04.06.2022
1124 Clear 36 1003 36 10000 7.2 310 12:38 04.06.2022
1125 Clear 35 1004 46 10000 6.69 340 11:19 04.06.2022
1126 Clear 35 1004 46 10000 7.72 340 10:44 04.06.2022
1127 Clear 36 1004 41 10000 7.2 320 09:44 04.06.2022
1128 Clear 40 1004 24 10000 5.14 310 08:43 04.06.2022
1129 Clear 37 1004 14 10000 2.06 170 07:41 04.06.2022
1130 Clear 31 1004 27 10000 1.54 0 05:29 04.06.2022
1131 Clear 31 1003 27 10000 2.06 0 01:42 04.06.2022
1132 Clear 32 1004 33 10000 2.57 340 23:59 03.06.2022
1133 Clear 32 1004 22 10000 3.09 340 22:40 03.06.2022
1134 Clear 32 1005 43 10000 1.54 10 21:30 03.06.2022
1135 Clear 32 1004 43 10000 1.54 250 20:37 03.06.2022
1136 Clear 32 1004 43 10000 1.54 250 20:37 03.06.2022
1137 Clear 32 1004 43 10000 1.54 250 20:37 03.06.2022
1138 Clear 33 1004 46 10000 3.6 340 18:41 03.06.2022
1139 Clear 35 1003 43 10000 6.17 340 16:49 03.06.2022
1140 Clear 37 1003 26 10000 8.23 320 15:37 03.06.2022
1141 Clear 37 1004 41 10000 7.72 330 13:28 03.06.2022
1142 Clear 39 1004 30 10000 6.17 320 11:40 03.06.2022
1143 Clear 40 1006 17 10000 2.57 220 09:50 03.06.2022
1144 Clear 40 1006 17 10000 2.57 220 09:24 03.06.2022
1145 Clear 35 1006 31 10000 5.66 190 07:27 03.06.2022
1146 Clear 34 1006 36 10000 4.63 190 06:39 03.06.2022
1147 Clear 34 1006 36 10000 4.63 190 06:20 03.06.2022
1148 Clear 31 1004 51 8000 2.06 80 00:41 03.06.2022
1149 Clear 31 1005 51 8000 2.06 350 22:48 02.06.2022
1150 Clear 33 1005 49 8000 3.6 340 21:57 02.06.2022
1151 Clear 33 1005 52 8000 3.6 330 20:22 02.06.2022
1152 Clear 33 1005 55 10000 3.6 340 19:50 02.06.2022
1153 Clear 33 1005 55 10000 3.6 340 19:32 02.06.2022
1154 Clear 34 1004 43 10000 5.14 330 17:35 02.06.2022
1155 Clear 36 1003 41 10000 6.17 330 16:28 02.06.2022
1156 Clear 41 1003 16 10000 6.69 320 14:22 02.06.2022
1157 Clear 41 1004 16 10000 6.17 310 13:30 02.06.2022
1158 Clear 41 1004 16 10000 6.17 310 13:30 02.06.2022
1159 Clear 42 1004 15 10000 4.63 310 12:40 02.06.2022
1160 Clear 41 1006 14 10000 3.09 240 10:20 02.06.2022
1161 Clear 38 1006 22 10000 4.63 200 09:28 02.06.2022
1162 Clear 36 1007 32 10000 3.6 190 08:28 02.06.2022
1163 Clear 35 1007 38 10000 4.63 210 07:34 02.06.2022
1164 Clear 33 1006 36 10000 2.06 230 05:29 02.06.2022
1165 Clear 34 1005 24 10000 1.03 0 03:45 02.06.2022
1166 Clear 34 1003 17 10000 3.6 120 23:52 01.06.2022
1167 Clear 35 1003 23 10000 2.57 0 22:54 01.06.2022
1168 Clear 35 1003 17 10000 3.09 100 21:39 01.06.2022
1169 Clear 35 1003 17 10000 3.09 100 21:20 01.06.2022
1170 Clear 36 1003 16 10000 3.6 110 20:37 01.06.2022
1171 Clear 38 1002 17 10000 4.12 100 19:31 01.06.2022
1172 Clear 40 1001 18 10000 4.63 40 17:46 01.06.2022
1173 Clear 40 1001 17 10000 5.66 20 16:40 01.06.2022
1174 Clear 40 1001 22 10000 6.69 10 15:18 01.06.2022
1175 Clear 38 1001 36 10000 8.23 340 13:54 01.06.2022
1176 Clear 40 1001 32 10000 5.66 350 12:28 01.06.2022
1177 Clear 42 1003 10 10000 5.14 100 10:25 01.06.2022
1178 Clear 40 1003 11 10000 5.66 120 09:24 01.06.2022
1179 Clear 36 1003 20 10000 4.63 110 07:25 01.06.2022
1180 Clear 35 1004 30 10000 6.21 106 06:30 01.06.2022
1181 Clear 28 1001 62 10000 3.8 58 01:29 01.06.2022
1182 Clear 30 1000 66 10000 2.57 360 23:41 31.05.2022
1183 Clear 32 1001 51 10000 2.06 240 22:37 31.05.2022
1184 Clear 32 1001 51 10000 2.06 110 21:46 31.05.2022
1185 Clear 32 1001 51 10000 2.57 80 20:46 31.05.2022
1186 Clear 32 1001 51 10000 2.57 80 20:23 31.05.2022
1187 Clear 32 1000 55 10000 1.03 0 18:53 31.05.2022
1188 Clear 32 1000 55 10000 2.57 330 17:51 31.05.2022
1189 Clear 32 1000 55 10000 2.57 330 17:18 31.05.2022
1190 Clear 33 1000 49 10000 5.14 340 15:41 31.05.2022
1191 Clear 33 1000 49 10000 5.14 340 15:41 31.05.2022
1192 Clear 34 1000 38 10000 7.2 330 14:18 31.05.2022
1193 Clear 38 1001 17 10000 3.6 290 12:21 31.05.2022
1194 Clear 37 1002 23 10000 4.63 300 10:55 31.05.2022
1195 Clear 37 1003 20 10000 4.12 240 09:31 31.05.2022
1196 Clear 32 1003 37 10000 5.14 210 07:28 31.05.2022
1197 Clear 26 1002 61 10000 4.63 210 05:23 31.05.2022
1198 Clear 28 1001 65 10000 4.12 170 01:35 31.05.2022
1199 Clear 28 1001 74 10000 2.57 210 23:27 30.05.2022
1200 Clear 29 1001 65 10000 3.09 190 22:56 30.05.2022
1201 Clear 29 1001 65 10000 3.09 190 22:21 30.05.2022
1202 Clear 30 1002 62 10000 3.09 230 21:34 30.05.2022
1203 Clear 30 1002 62 10000 3.09 180 20:20 30.05.2022
1204 Clear 31 1001 62 10000 2.57 280 18:41 30.05.2022
1205 Clear 31 1000 62 10000 4.12 280 17:38 30.05.2022
1206 Clear 32 1000 55 10000 4.63 280 16:44 30.05.2022
1207 Clear 33 1000 52 10000 6.69 280 14:51 30.05.2022
1208 Clear 34 1001 40 10000 6.17 280 12:29 30.05.2022
1209 Clear 34 1002 38 10000 5.66 270 10:46 30.05.2022
1210 Clear 34 1002 33 10000 5.14 280 09:38 30.05.2022
1211 Clear 33 1002 33 10000 3.09 230 07:23 30.05.2022
1212 Clear 29 1002 42 10000 4.12 200 05:49 30.05.2022
1213 Clear 30 1001 39 10000 3.09 180 02:24 30.05.2022
1214 Clear 32 1001 37 10000 2.57 250 23:21 29.05.2022
1215 Clear 33 1002 38 10000 3.09 280 22:38 29.05.2022
1216 Clear 33 1002 38 10000 6.69 310 20:57 29.05.2022
1217 Clear 34 1002 33 10000 7.2 300 19:34 29.05.2022
1218 Clear 35 1001 31 10000 5.14 300 18:59 29.05.2022
1219 Clear 37 1001 20 10000 5.14 300 17:31 29.05.2022
1220 Clear 38 1001 30 10000 5.66 280 15:48 29.05.2022
1221 Clear 38 1001 30 10000 5.66 280 15:23 29.05.2022
1222 Clear 41 1001 17 10000 5.14 340 13:59 29.05.2022
1223 Clear 42 1002 14 10000 3.6 340 11:42 29.05.2022
1224 Clear 39 1003 27 10000 1.54 0 10:39 29.05.2022
1225 Clear 38 1003 32 10000 1.54 0 09:31 29.05.2022
1226 Clear 30 1003 48 10000 3.6 190 06:24 29.05.2022
1227 Clear 27 1002 54 10000 3.6 200 04:45 29.05.2022
1228 Clear 28 1001 54 10000 4.12 210 03:53 29.05.2022
1229 Clear 30 1002 51 10000 4.12 210 23:50 28.05.2022
1230 Clear 30 1002 51 10000 4.12 210 23:26 28.05.2022
1231 Clear 31 1002 45 10000 3.09 200 22:40 28.05.2022
1232 Clear 32 1003 48 10000 3.09 210 21:38 28.05.2022
1233 Clear 33 1002 43 10000 2.06 240 19:51 28.05.2022
1234 Clear 34 1001 38 10000 3.09 270 18:54 28.05.2022
1235 Clear 34 1001 43 10000 3.6 260 17:37 28.05.2022
1236 Clear 34 1001 46 10000 6.17 290 16:43 28.05.2022
1237 Clear 36 1001 46 10000 6.69 290 15:43 28.05.2022
1238 Clear 37 1001 34 10000 5.14 310 14:28 28.05.2022
1239 Clear 38 1001 30 10000 4.63 310 12:57 28.05.2022
1240 Clear 38 1001 30 10000 4.63 310 12:35 28.05.2022
1241 Clear 38 1002 32 10000 4.12 280 11:22 28.05.2022
1242 Clear 36 1003 30 10000 3.09 290 09:59 28.05.2022
1243 Clear 36 1003 30 10000 3.09 290 09:21 28.05.2022
1244 Clear 32 1003 40 10000 4.12 200 07:23 28.05.2022
1245 Clear 28 1002 51 10000 3.6 210 05:48 28.05.2022
1246 Clear 30 1001 51 10000 3.6 220 02:52 28.05.2022
1247 Clear 30 1001 48 10000 3.09 190 00:33 28.05.2022
1248 Clear 32 1001 40 10000 3.09 260 23:20 27.05.2022
1249 Clear 32 1002 45 10000 2.06 210 21:46 27.05.2022
1250 Clear 33 1002 35 10000 3.09 250 20:56 27.05.2022
1251 Clear 33 1002 35 10000 3.09 250 20:25 27.05.2022
1252 Clear 34 1002 29 10000 2.57 270 19:48 27.05.2022
1253 Clear 34 1002 29 10000 2.57 270 19:29 27.05.2022
1254 Clear 35 1001 26 10000 6.69 300 17:58 27.05.2022
1255 Clear 37 1001 23 10000 6.17 300 16:39 27.05.2022
1256 Clear 37 1000 23 10000 7.72 290 15:22 27.05.2022
1257 Clear 38 1001 20 10000 9.26 320 14:26 27.05.2022
1258 Clear 38 1001 25 10000 7.72 300 13:18 27.05.2022
1259 Clear 37 1003 30 10000 6.17 310 11:34 27.05.2022
1260 Clear 36 1003 34 10000 4.63 300 10:56 27.05.2022
1261 Clear 36 1003 34 10000 4.63 300 10:31 27.05.2022
1262 Clear 36 1004 36 10000 4.12 280 09:35 27.05.2022
1263 Clear 33 1003 43 10000 4.63 190 07:52 27.05.2022
1264 Clear 29 1003 51 10000 4.63 190 05:44 27.05.2022
1265 Clear 30 1001 48 10000 4.63 190 02:26 27.05.2022
1266 Clear 31 1002 45 10000 3.09 210 00:29 27.05.2022
1267 Clear 31 1003 45 10000 5.14 180 22:39 26.05.2022
1268 Clear 32 1003 45 10000 3.09 210 21:39 26.05.2022
1269 Clear 32 1003 45 10000 3.6 190 20:30 26.05.2022
1270 Clear 32 1002 45 10000 3.6 240 19:19 26.05.2022
1271 Clear 34 1002 36 10000 3.6 300 17:51 26.05.2022
1272 Clear 35 1001 34 10000 6.17 280 16:42 26.05.2022
1273 Clear 35 1002 31 10000 5.66 290 15:45 26.05.2022
1274 Clear 37 1002 25 10000 7.72 300 14:28 26.05.2022
1275 Clear 37 1003 25 10000 9.77 300 12:37 26.05.2022
1276 Clear 37 1004 28 10000 8.23 310 11:23 26.05.2022
1277 Clear 37 1004 28 10000 8.23 310 11:23 26.05.2022
1278 Clear 35 1005 36 10000 4.63 280 09:41 26.05.2022
1279 Clear 35 1005 36 10000 4.63 280 09:23 26.05.2022
1280 Clear 34 1005 40 10000 3.09 270 08:30 26.05.2022
1281 Clear 28 1005 65 8000 4.12 190 04:41 26.05.2022
1282 Clear 29 1004 61 7000 4.12 240 00:38 26.05.2022
1283 Clear 30 1005 54 6000 3.6 210 23:40 25.05.2022
1284 Clear 31 1005 51 6000 3.6 240 21:56 25.05.2022
1285 Clear 31 1005 51 6000 3.6 240 21:31 25.05.2022
1286 Clear 32 1005 45 6000 4.12 230 20:35 25.05.2022
1287 Clear 32 1005 45 7000 3.6 240 19:21 25.05.2022
1288 Dust 33 1004 40 5000 3.6 260 17:40 25.05.2022
1289 Dust 34 1004 40 5000 6.17 280 16:37 25.05.2022
1290 Dust 37 1003 30 5000 6.17 280 15:54 25.05.2022
1291 Dust 38 1003 28 4000 4.12 260 14:51 25.05.2022
1292 Dust 38 1003 28 4000 4.12 260 14:32 25.05.2022
1293 Dust 38 1004 30 3500 4.12 270 13:45 25.05.2022
1294 Dust 37 1004 28 3500 5.14 270 12:37 25.05.2022
1295 Dust 37 1005 26 3500 3.6 280 10:43 25.05.2022
1296 Dust 36 1005 34 3000 4.63 210 09:54 25.05.2022
1297 Clear 33 1005 53 10000 7.91 237 08:37 25.05.2022
1298 Clear 31 1006 59 10000 8.29 217 07:23 25.05.2022
1299 Dust 27 1003 74 3000 4.63 190 03:34 25.05.2022
1300 Dust 30 1003 66 2500 3.09 210 23:56 24.05.2022
1301 Dust 30 1003 66 2500 3.09 210 23:31 24.05.2022
1302 Dust 30 1003 70 2500 2.57 230 22:21 24.05.2022
1303 Dust 31 1003 62 2500 2.06 220 21:40 24.05.2022
1304 Dust 31 1003 62 2500 2.06 220 21:20 24.05.2022
1305 Dust 32 1003 55 2000 2.57 270 19:45 24.05.2022
1306 Dust 32 1002 55 1500 3.6 270 18:53 24.05.2022
1307 Dust 35 1001 46 1000 4.12 270 16:45 24.05.2022
1308 Dust 35 1001 46 1000 4.12 270 16:22 24.05.2022
1309 Dust 37 1001 36 4000 5.66 290 14:56 24.05.2022
1310 Clear 38 1000 23 8000 5.66 270 14:20 24.05.2022
1311 Clear 41 1001 9 10000 6.17 290 12:49 24.05.2022
1312 Clear 40 1001 14 10000 4.63 290 11:26 24.05.2022
1313 Clear 37 1002 39 8000 5.66 290 09:44 24.05.2022
1314 Clear 41 1001 17 8000 5.14 310 08:50 24.05.2022
1315 Clear 34 1001 36 7000 2.57 180 06:57 24.05.2022
1316 Clear 31 999 58 10000 2.57 170 03:56 24.05.2022
1317 Clear 31 999 58 10000 1.03 0 01:53 24.05.2022
1318 Clear 31 999 58 10000 1.03 0 01:33 24.05.2022
1319 Clear 31 998 55 10000 3.6 330 23:31 23.05.2022
1320 Clear 33 998 55 10000 1.54 10 21:56 23.05.2022
1321 Clear 33 998 55 10000 1.54 10 21:29 23.05.2022
1322 Clear 33 998 59 10000 1.03 0 20:35 23.05.2022
1323 Clear 33 998 62 10000 2.06 330 19:32 23.05.2022
1324 Clear 33 997 58 10000 3.6 320 18:58 23.05.2022
1325 Clear 33 997 58 10000 3.6 320 18:30 23.05.2022
1326 Clear 34 997 55 8000 4.12 320 17:20 23.05.2022
1327 Clear 38 996 37 10000 4.63 330 15:23 23.05.2022
1328 Clear 39 997 41 10000 4.12 340 13:21 23.05.2022
1329 Clear 35 999 49 10000 5.66 330 11:33 23.05.2022
1330 Clear 36 999 49 10000 4.63 320 10:31 23.05.2022
1331 Clear 38 999 32 10000 1.54 0 09:39 23.05.2022
1332 Clear 34 1000 46 10000 2.06 190 08:32 23.05.2022
1333 Clear 28 999 65 10000 3.09 210 06:46 23.05.2022
1334 Clear 27 999 69 10000 3.09 180 05:39 23.05.2022
1335 Clear 27 998 74 10000 3.09 190 02:34 23.05.2022
1336 Clear 27 997 74 10000 3.6 190 01:39 23.05.2022
1337 Clear 27 997 74 10000 4.12 190 00:38 23.05.2022
1338 Clear 29 998 70 10000 3.6 200 22:42 22.05.2022
1339 Clear 30 998 66 10000 3.09 200 21:55 22.05.2022
1340 Clear 30 998 66 10000 3.09 200 21:36 22.05.2022
1341 Clear 31 998 62 10000 1.54 240 20:32 22.05.2022
1342 Clear 31 998 66 10000 2.57 270 19:57 22.05.2022
1343 Clear 32 997 66 10000 4.12 280 18:56 22.05.2022
1344 Clear 32 997 66 10000 4.12 280 18:28 22.05.2022
1345 Clear 34 997 55 10000 4.63 290 17:39 22.05.2022
1346 Clear 37 996 44 10000 3.09 280 16:50 22.05.2022
1347 Clear 37 997 46 10000 4.63 280 14:53 22.05.2022
1348 Clear 38 997 39 10000 4.12 300 13:56 22.05.2022
1349 Clear 38 997 39 10000 5.14 290 12:52 22.05.2022
1350 Clear 40 998 37 10000 5.14 300 11:52 22.05.2022
1351 Clear 40 998 22 10000 4.12 220 10:27 22.05.2022
1352 Clear 38 999 30 10000 4.12 210 09:19 22.05.2022
1353 Clear 31 999 48 10000 5.66 190 07:22 22.05.2022
1354 Clear 29 999 54 10000 5.14 200 06:27 22.05.2022
1355 Clear 27 998 69 10000 4.63 200 02:50 22.05.2022
1356 Clear 29 999 70 10000 4.12 200 00:44 22.05.2022
1357 Clear 29 999 74 10000 4.63 200 23:56 21.05.2022
1358 Clear 29 999 74 10000 4.63 200 23:21 21.05.2022
1359 Clear 31 1001 62 10000 2.57 230 21:55 21.05.2022
1360 Clear 31 1001 62 10000 2.57 230 21:26 21.05.2022
1361 Clear 33 1001 49 10000 2.57 200 20:27 21.05.2022
1362 Clear 34 1000 43 10000 1.54 0 19:43 21.05.2022
1363 Clear 34 1000 43 10000 2.57 320 18:31 21.05.2022
1364 Clear 37 999 30 10000 4.63 320 16:57 21.05.2022
1365 Clear 37 1000 41 10000 6.69 320 14:38 21.05.2022
1366 Clear 37 1000 41 10000 6.69 320 14:38 21.05.2022
1367 Clear 37 1000 41 10000 6.17 320 13:54 21.05.2022
1368 Clear 37 1000 41 10000 6.17 320 13:18 21.05.2022
1369 Clear 39 1000 37 10000 6.69 320 12:38 21.05.2022
1370 Clear 40 1001 20 10000 4.12 260 10:53 21.05.2022
1371 Clear 37 1002 32 10000 3.09 220 09:53 21.05.2022
1372 Clear 35 1002 41 10000 3.09 220 08:58 21.05.2022
1373 Clear 35 1002 41 10000 3.09 220 08:35 21.05.2022
1374 Clear 28 1002 62 10000 4.59 201 05:29 21.05.2022
1375 Clear 29 1000 79 10000 3.09 190 01:24 21.05.2022
1376 Clear 30 1000 74 10000 3.09 190 23:29 20.05.2022
1377 Clear 30 1001 74 10000 2.57 220 22:26 20.05.2022
1378 Clear 31 1001 66 10000 2.57 230 21:55 20.05.2022
1379 Clear 32 1001 58 10000 2.06 240 20:58 20.05.2022
1380 Clear 32 1001 58 10000 2.06 240 20:58 20.05.2022
1381 Clear 32 1001 58 10000 2.06 240 20:29 20.05.2022
1382 Clear 32 1001 62 10000 1.54 250 19:29 20.05.2022
1383 Clear 33 1000 58 10000 2.57 270 18:47 20.05.2022
1384 Clear 36 1000 34 10000 3.09 280 17:43 20.05.2022
1385 Clear 36 1000 38 10000 3.6 300 16:21 20.05.2022
1386 Clear 35 1000 49 10000 3.6 0 15:53 20.05.2022
1387 Clear 37 1000 41 10000 4.63 280 14:31 20.05.2022
1388 Clear 39 1001 37 10000 4.12 310 13:56 20.05.2022
1389 Clear 39 1002 35 8000 3.6 310 11:49 20.05.2022
1390 Clear 39 1002 27 8000 4.63 260 10:24 20.05.2022
1391 Clear 35 1002 38 8000 4.63 200 08:50 20.05.2022
1392 Clear 32 1002 45 7000 4.12 190 07:25 20.05.2022
1393 Clear 29 1002 51 7000 5.14 200 06:36 20.05.2022
1394 Clear 28 1002 54 7000 4.12 200 05:22 20.05.2022
1395 Clear 29 1001 61 8000 4.63 200 00:54 20.05.2022
1396 Clear 31 1001 55 8000 3.6 210 23:25 19.05.2022
1397 Clear 32 1002 51 8000 3.09 200 22:26 19.05.2022
1398 Clear 32 1002 51 8000 3.09 200 21:49 19.05.2022
1399 Clear 32 1002 51 8000 3.09 200 21:23 19.05.2022
1400 Clear 33 1003 52 8000 2.06 200 20:40 19.05.2022
1401 Clear 33 1002 40 8000 2.06 240 19:53 19.05.2022
1402 Clear 34 1002 46 8000 2.57 330 18:34 19.05.2022
1403 Clear 34 1001 46 7000 4.63 320 17:31 19.05.2022
1404 Clear 35 1001 46 8000 6.17 320 15:33 19.05.2022
1405 Clear 36 1001 38 8000 5.14 310 14:29 19.05.2022
1406 Clear 37 1002 34 8000 5.14 290 13:50 19.05.2022
1407 Clear 38 1003 34 6000 5.14 280 11:46 19.05.2022
1408 Clear 37 1004 32 6000 4.12 250 09:35 19.05.2022
1409 Dust 35 1004 41 5000 4.12 200 08:18 19.05.2022
1410 Dust 29 1004 61 4000 4.12 200 06:31 19.05.2022
1411 Dust 27 1002 74 4500 4.12 200 02:54 19.05.2022
1412 Dust 29 1002 65 4500 3.09 190 00:44 19.05.2022
1413 Dust 30 1003 62 5000 2.57 200 22:53 18.05.2022
1414 Dust 30 1003 62 5000 2.57 200 22:35 18.05.2022
1415 Dust 31 1003 51 5000 2.06 220 21:31 18.05.2022
1416 Dust 30 1003 51 5000 1.54 220 20:54 18.05.2022
1417 Dust 30 1003 51 5000 1.54 220 20:19 18.05.2022
1418 Dust 32 1002 48 5000 2.06 260 18:43 18.05.2022
1419 Dust 33 1002 43 3000 4.12 280 17:41 18.05.2022
1420 Dust 33 1002 43 3000 4.12 280 17:23 18.05.2022
1421 Dust 34 1001 49 3000 4.12 270 16:35 18.05.2022
1422 Dust 35 1001 46 2800 6.17 320 15:42 18.05.2022
1423 Dust 36 1001 44 2700 3.6 270 14:54 18.05.2022
1424 Dust 36 1002 46 2500 5.66 320 13:47 18.05.2022
1425 Dust 37 1002 41 2500 3.09 300 12:51 18.05.2022
1426 Dust 37 1003 34 2500 3.09 250 11:37 18.05.2022
1427 Dust 37 1003 34 2500 3.09 250 11:19 18.05.2022
1428 Dust 34 1004 40 2300 2.57 0 09:56 18.05.2022
1429 Dust 28 1004 65 1700 2.57 190 07:55 18.05.2022
1430 Dust 26 1004 73 1500 3.6 190 06:49 18.05.2022
1431 Dust 26 1001 73 2500 4.12 200 02:23 18.05.2022
1432 Dust 27 1002 78 2000 3.6 200 00:26 18.05.2022
1433 Dust 28 1003 74 2000 3.09 230 22:47 17.05.2022
1434 Dust 29 1003 70 2000 3.09 240 21:20 17.05.2022
1435 Dust 29 1003 74 2200 2.57 230 20:29 17.05.2022
1436 Dust 30 1003 66 2500 3.6 240 19:28 17.05.2022
1437 Dust 32 1002 58 3000 3.09 290 17:52 17.05.2022
1438 Dust 32 1002 58 3000 3.09 290 17:18 17.05.2022
1439 Dust 33 1001 48 4000 4.12 280 16:34 17.05.2022
1440 Clear 33 1002 46 6000 4.63 290 15:32 17.05.2022
1441 Clear 34 1002 43 7000 4.12 290 14:31 17.05.2022
1442 Clear 35 1002 40 8000 4.12 280 13:38 17.05.2022
1443 Clear 35 1004 31 10000 4.12 290 11:58 17.05.2022
1444 Clear 34 1005 27 10000 3.6 280 09:53 17.05.2022
1445 Clear 34 1005 24 10000 3.6 280 08:43 17.05.2022
1446 Clear 29 1005 47 10000 3.09 220 06:52 17.05.2022
1447 Clear 26 1003 54 10000 2.06 180 04:24 17.05.2022
1448 Clear 28 1004 57 10000 2.57 190 00:46 17.05.2022
1449 Clear 29 1005 48 10000 2.06 220 22:44 16.05.2022
1450 Clear 31 1005 42 10000 2.06 230 21:52 16.05.2022
1451 Clear 31 1005 40 10000 4.12 330 20:49 16.05.2022
1452 Clear 31 1005 55 9000 4.12 320 19:57 16.05.2022
1453 Clear 32 1004 45 10000 3.6 300 18:21 16.05.2022
1454 Clear 35 1003 31 10000 5.66 330 16:24 16.05.2022
1455 Clear 36 1003 36 10000 7.2 320 14:42 16.05.2022
1456 Clear 37 1004 34 9000 7.2 320 13:25 16.05.2022
1457 Clear 39 1006 24 9000 5.66 320 11:33 16.05.2022
1458 Clear 37 1007 28 8000 1.54 0 09:58 16.05.2022
1459 Clear 32 1007 43 7000 1.03 0 07:21 16.05.2022
1460 Clear 28 1007 69 6000 2.57 110 05:23 16.05.2022
1461 Clear 30 1006 58 8000 3.09 340 23:56 15.05.2022
1462 Clear 29 1006 70 7000 4.12 340 22:34 15.05.2022
1463 Clear 29 1006 70 7000 4.12 340 22:34 15.05.2022
1464 Clear 29 1006 74 7000 3.6 340 21:47 15.05.2022
1465 Clear 29 1006 74 7000 4.12 340 20:59 15.05.2022
1466 Clear 29 1005 74 7000 4.63 340 19:53 15.05.2022
1467 Dust 31 1004 51 5000 4.12 350 17:52 15.05.2022
1468 Dust 34 1004 36 4500 4.63 10 16:31 15.05.2022
1469 Dust 34 1003 36 4000 5.14 360 14:18 15.05.2022
1470 Dust 34 1004 33 4500 5.14 360 13:23 15.05.2022
1471 Dust 31 1005 45 5000 4.63 330 11:41 15.05.2022
1472 Dust 31 1006 42 5000 3.09 360 10:35 15.05.2022
1473 Dust 29 1006 42 5000 1.54 0 08:47 15.05.2022
1474 Dust 26 1006 50 5000 2.06 0 06:59 15.05.2022
1475 Dust 24 1005 57 5000 3.09 140 05:57 15.05.2022
1476 Clear 25 1004 61 6000 3.09 170 01:43 15.05.2022
1477 Clear 26 1004 57 6000 3.6 200 23:52 14.05.2022
1478 Clear 26 1004 57 6000 3.6 200 23:33 14.05.2022
1479 Clear 27 1004 57 6000 3.6 230 21:43 14.05.2022
1480 Clear 27 1004 57 6000 3.6 230 21:18 14.05.2022
1481 Clear 27 1004 57 6000 4.12 260 19:40 14.05.2022
1482 Clear 27 1004 57 6000 4.12 260 19:20 14.05.2022
1483 Clear 27 1003 57 7000 4.63 260 18:47 14.05.2022
1484 Clear 28 1003 54 6000 5.14 270 17:28 14.05.2022
1485 Clear 29 1002 48 9000 9.77 280 15:34 14.05.2022
1486 Clear 30 1002 48 10000 9.26 280 14:34 14.05.2022
1487 Clear 31 1003 42 10000 7.2 280 12:49 14.05.2022
1488 Clear 31 1003 42 10000 9.26 280 11:37 14.05.2022
1489 Clear 31 1003 40 10000 8.75 280 10:22 14.05.2022
1490 Clear 31 1004 40 10000 7.2 280 09:54 14.05.2022
1491 Clear 31 1004 42 8000 6.69 270 08:49 14.05.2022
1492 Clear 29 1003 48 10000 4.63 260 06:47 14.05.2022
1493 Clear 26 1001 57 10000 4.12 200 02:46 14.05.2022
1494 Clear 28 1002 54 10000 4.12 230 23:45 13.05.2022
1495 Clear 28 1002 54 10000 4.12 230 23:18 13.05.2022
1496 Clear 28 1003 54 10000 4.12 240 22:43 13.05.2022
1497 Clear 28 1003 54 10000 4.12 240 22:18 13.05.2022
1498 Clear 29 1003 54 10000 4.12 250 20:46 13.05.2022
1499 Clear 29 1003 54 10000 4.12 250 20:27 13.05.2022
1500 Clear 29 1003 54 10000 4.63 270 19:28 13.05.2022
1501 Clear 30 1002 51 10000 5.66 280 17:53 13.05.2022
1502 Clear 30 1002 51 10000 5.66 280 17:29 13.05.2022
1503 Clear 31 1002 48 10000 5.66 280 16:21 13.05.2022
1504 Clear 32 1002 45 10000 6.69 280 15:29 13.05.2022
1505 Clear 35 1002 40 10000 5.66 270 13:48 13.05.2022
1506 Clear 35 1003 40 10000 5.14 280 12:32 13.05.2022
1507 Clear 35 1003 40 10000 5.14 280 12:32 13.05.2022
1508 Clear 36 1003 36 10000 6.17 250 11:23 13.05.2022
1509 Clear 34 1004 36 10000 5.14 230 09:34 13.05.2022
1510 Clear 32 1004 43 10000 5.14 190 08:49 13.05.2022
1511 Clear 29 1005 54 10000 4.63 190 07:48 13.05.2022
1512 Clear 27 1004 61 10000 4.12 210 06:33 13.05.2022
1513 Clear 27 1004 61 10000 4.12 210 06:33 13.05.2022
1514 Clear 27 1004 61 10000 4.12 210 06:33 13.05.2022
1515 Clear 27 1004 61 10000 4.12 210 06:33 13.05.2022
1516 Clear 24 1003 69 10000 4.12 190 03:34 13.05.2022
1517 Clear 26 1003 65 10000 3.6 200 00:39 13.05.2022
1518 Clear 28 1004 61 10000 4.12 200 22:45 12.05.2022
1519 Clear 28 1005 65 10000 4.12 190 21:56 12.05.2022
1520 Clear 29 1005 61 10000 3.09 200 20:29 12.05.2022
1521 Clear 30 1004 58 10000 4.12 270 18:59 12.05.2022
1522 Clear 31 1003 51 10000 4.63 280 17:24 12.05.2022
1523 Clear 32 1003 51 10000 5.14 270 16:18 12.05.2022
1524 Clear 34 1003 38 10000 5.66 280 14:41 12.05.2022
1525 Clear 36 1003 34 10000 5.66 300 13:41 12.05.2022
1526 Clear 37 1005 26 10000 3.6 280 10:52 12.05.2022
1527 Clear 35 1006 38 10000 3.09 220 09:30 12.05.2022
1528 Clear 32 1006 45 10000 3.6 240 08:51 12.05.2022
1529 Clear 30 1006 48 10000 4.12 210 07:40 12.05.2022
1530 Clear 27 1005 54 10000 4.63 200 06:19 12.05.2022
1531 Clear 27 1003 50 10000 3.6 190 02:56 12.05.2022
1532 Clear 28 1004 51 10000 3.09 200 00:36 12.05.2022
1533 Clear 29 1005 54 10000 2.57 210 22:36 11.05.2022
1534 Clear 30 1005 48 10000 2.57 230 21:50 11.05.2022
1535 Clear 30 1005 48 10000 2.57 230 21:24 11.05.2022
1536 Clear 31 1005 45 10000 7.2 310 18:49 11.05.2022
1537 Clear 32 1004 51 10000 4.12 280 16:55 11.05.2022
1538 Clear 35 1004 24 10000 5.66 310 15:37 11.05.2022
1539 Clear 34 1004 36 10000 6.17 320 14:39 11.05.2022
1540 Clear 34 1004 36 10000 6.17 320 14:18 11.05.2022
1541 Clear 35 1005 38 10000 4.12 290 11:54 11.05.2022
1542 Clear 35 1005 38 10000 4.12 290 11:19 11.05.2022
1543 Clear 30 1006 51 10000 2.57 240 08:40 11.05.2022
1544 Clear 24 1005 73 10000 4.12 170 05:31 11.05.2022
1545 Clear 26 1004 65 10000 3.6 180 00:45 11.05.2022
1546 Clear 27 1005 65 10000 2.57 200 22:32 10.05.2022
1547 Clear 27 1006 61 10000 2.57 240 21:57 10.05.2022
1548 Clear 28 1006 61 10000 3.6 270 20:58 10.05.2022
1549 Clear 28 1006 57 10000 4.12 280 19:47 10.05.2022
1550 Clear 29 1005 54 10000 5.14 290 17:59 10.05.2022
1551 Clear 29 1005 54 10000 5.14 290 17:29 10.05.2022
1552 Clear 31 1004 45 10000 6.69 280 15:41 10.05.2022
1553 Clear 32 1005 40 10000 8.75 290 12:47 10.05.2022
1554 Clear 32 1006 37 10000 7.2 270 11:51 10.05.2022
1555 Clear 32 1006 37 10000 7.2 270 11:21 10.05.2022
1556 Clear 32 1006 35 10000 7.72 290 10:54 10.05.2022
1557 Clear 32 1007 37 10000 7.2 290 09:26 10.05.2022
1558 Clear 31 1007 40 10000 5.66 270 07:26 10.05.2022
1559 Clear 26 1005 57 10000 4.12 190 04:32 10.05.2022
1560 Clear 28 1005 54 10000 3.09 250 01:34 10.05.2022
1561 Clear 28 1005 54 10000 3.09 230 23:26 09.05.2022
1562 Clear 29 1006 51 10000 3.09 240 21:58 09.05.2022
1563 Clear 29 1006 51 10000 3.09 240 21:18 09.05.2022
1564 Clear 29 1006 51 10000 5.66 260 19:37 09.05.2022
1565 Clear 30 1005 42 10000 7.2 280 17:56 09.05.2022
1566 Clear 31 1005 37 10000 8.23 280 16:38 09.05.2022
1567 Clear 32 1005 33 10000 7.72 280 15:53 09.05.2022
1568 Clear 32 1005 33 10000 7.72 280 15:31 09.05.2022
1569 Clear 33 1005 27 10000 7.2 280 14:32 09.05.2022
1570 Clear 35 1006 21 10000 7.2 280 13:50 09.05.2022
1571 Clear 34 1006 27 10000 7.72 290 12:26 09.05.2022
1572 Clear 35 1006 31 10000 6.69 270 11:43 09.05.2022
1573 Clear 34 1007 36 10000 7.2 280 10:44 09.05.2022
1574 Clear 34 1007 36 10000 6.17 290 09:38 09.05.2022
1575 Clear 32 1007 40 10000 4.63 290 07:55 09.05.2022
1576 Clear 29 1005 65 10000 2.57 230 03:40 09.05.2022
1577 Clear 30 1005 48 10000 2.57 210 00:20 09.05.2022
1578 Clear 32 1005 40 10000 2.06 120 22:56 08.05.2022
1579 Clear 32 1005 35 10000 2.57 320 21:56 08.05.2022
1580 Clear 32 1006 43 10000 3.09 330 20:37 08.05.2022
1581 Clear 33 1005 40 10000 4.12 320 19:45 08.05.2022
1582 Clear 32 1005 45 10000 5.14 320 18:57 08.05.2022
1583 Clear 32 1005 45 10000 5.14 320 18:19 08.05.2022
1584 Clear 34 1005 43 8000 9.26 310 16:56 08.05.2022
1585 Clear 38 1004 22 10000 6.17 280 15:41 08.05.2022
1586 Clear 38 1004 22 10000 6.17 280 15:20 08.05.2022
1587 Clear 38 1004 22 10000 6.17 280 15:20 08.05.2022
1588 Clear 41 1005 15 10000 3.09 280 12:39 08.05.2022
1589 Clear 38 1007 25 8000 2.57 0 10:32 08.05.2022
1590 Clear 36 1008 32 8000 2.06 220 09:59 08.05.2022
1591 Clear 36 1008 32 8000 2.06 220 09:31 08.05.2022
1592 Clear 34 1008 33 8000 3.6 310 07:33 08.05.2022
1593 Clear 30 1006 29 10000 2.06 150 04:20 08.05.2022
1594 Clear 30 1005 25 10000 2.57 110 03:19 08.05.2022
1595 Clear 32 1005 24 10000 2.06 40 00:28 08.05.2022
1596 Clear 33 1005 22 10000 3.6 80 23:53 07.05.2022
1597 Clear 33 1005 24 10000 4.12 90 22:51 07.05.2022
1598 Clear 33 1005 24 10000 4.12 90 22:33 07.05.2022
1599 Clear 34 1006 26 10000 2.57 90 21:34 07.05.2022
1600 Clear 34 1006 26 9000 2.06 70 20:42 07.05.2022
1601 Clear 35 1005 21 10000 3.6 50 19:58 07.05.2022
1602 Clear 37 1005 20 8000 4.63 20 17:43 07.05.2022
1603 Clear 39 1004 21 7000 7.72 30 15:51 07.05.2022
1604 Clear 38 1004 23 7000 7.2 20 14:19 07.05.2022
1605 Clear 40 1007 27 8000 2.57 0 10:56 07.05.2022
1606 Clear 38 1007 28 8000 2.57 180 09:22 07.05.2022
1607 Clear 33 1007 46 7000 3.6 120 07:52 07.05.2022
1608 Clear 31 1007 55 6000 3.6 170 06:43 07.05.2022
1609 Clear 31 1006 40 7000 3.09 170 04:59 07.05.2022
1610 Clear 31 1004 25 7000 2.57 110 01:46 07.05.2022
1611 Clear 32 1005 25 8000 3.09 120 23:38 06.05.2022
1612 Clear 33 1005 24 8000 3.6 140 22:30 06.05.2022
1613 Clear 33 1006 20 8000 2.06 100 21:43 06.05.2022
1614 Clear 33 1006 20 8000 2.06 100 21:43 06.05.2022
1615 Clear 33 1006 21 8000 2.57 110 20:35 06.05.2022
1616 Clear 34 1005 20 8000 2.57 80 19:31 06.05.2022
1617 Clear 34 1005 20 8000 2.57 80 19:00 06.05.2022
1618 Clear 34 1005 20 8000 2.57 80 18:19 06.05.2022
1619 Clear 35 1004 23 7000 4.63 30 16:44 06.05.2022
1620 Clear 35 1004 29 6000 4.63 40 15:41 06.05.2022
1621 Clear 36 1005 32 6000 7.72 20 14:50 06.05.2022
1622 Clear 35 1006 38 7000 6.17 350 12:55 06.05.2022
1623 Clear 35 1006 38 7000 6.17 350 12:36 06.05.2022
1624 Clear 35 1006 34 6000 7.72 330 11:42 06.05.2022
1625 Clear 36 1006 28 7000 7.2 340 10:27 06.05.2022
1626 Clear 38 1006 27 7000 5.14 340 09:45 06.05.2022
1627 Clear 37 1006 19 7000 4.63 200 08:27 06.05.2022
1628 Clear 31 1006 27 8000 3.6 190 06:45 06.05.2022
1629 Clear 27 1004 57 8000 1.54 190 04:53 06.05.2022
1630 Clear 26 1004 65 10000 2.57 140 02:45 06.05.2022
1631 Clear 29 1004 58 10000 2.06 110 23:45 05.05.2022
1632 Clear 29 1006 70 10000 1.54 290 21:53 05.05.2022
1633 Clear 29 1006 70 10000 1.54 290 21:19 05.05.2022
1634 Clear 30 1005 66 10000 2.57 360 19:53 05.05.2022
1635 Clear 30 1005 66 10000 2.57 340 18:26 05.05.2022
1636 Clear 32 1004 55 10000 3.6 330 16:20 05.05.2022
1637 Clear 34 1005 46 10000 5.66 320 14:43 05.05.2022
1638 Clear 35 1005 41 10000 4.12 320 13:21 05.05.2022
1639 Clear 34 1006 46 10000 5.14 330 12:25 05.05.2022
1640 Clear 34 1007 38 10000 4.63 310 10:37 05.05.2022
1641 Clear 34 1008 40 10000 1.54 0 09:39 05.05.2022
1642 Clear 29 1008 54 9000 2.06 220 07:34 05.05.2022
1643 Clear 24 1006 78 9000 3.6 200 04:28 05.05.2022
1644 Clear 26 1005 73 9000 3.6 180 01:50 05.05.2022
1645 Clear 26 1005 73 9000 3.6 180 01:22 05.05.2022
1646 Clear 28 1006 69 10000 3.09 190 23:34 04.05.2022
1647 Clear 28 1007 69 9000 3.09 190 22:27 04.05.2022
1648 Clear 28 1007 69 10000 2.57 220 21:49 04.05.2022
1649 Clear 28 1007 69 10000 2.57 220 21:26 04.05.2022
1650 Clear 28 1007 74 10000 3.09 270 20:22 04.05.2022
1651 Clear 28 1006 69 10000 3.6 280 19:51 04.05.2022
1652 Clear 28 1006 69 10000 4.63 280 18:51 04.05.2022
1653 Clear 28 1006 69 10000 4.63 280 18:22 04.05.2022
1654 Clear 29 1006 61 9000 4.63 280 17:30 04.05.2022
1655 Clear 31 1005 55 9000 5.66 290 15:38 04.05.2022
1656 Clear 31 1005 55 9000 5.66 290 15:20 04.05.2022
1657 Clear 31 1005 51 9000 6.69 300 14:20 04.05.2022
1658 Clear 32 1005 48 9000 5.66 270 13:20 04.05.2022
1659 Clear 32 1006 48 10000 6.17 280 12:29 04.05.2022
1660 Clear 33 1007 43 10000 3.6 280 10:40 04.05.2022
1661 Clear 33 1007 43 10000 3.6 280 10:40 04.05.2022
1662 Clear 31 1007 42 10000 5.14 300 09:40 04.05.2022
1663 Clear 30 1008 48 10000 5.14 230 08:34 04.05.2022
1664 Clear 24 1007 64 10000 4.12 200 05:53 04.05.2022
1665 Clear 25 1005 61 10000 3.09 200 02:49 04.05.2022
1666 Clear 27 1006 57 8000 4.12 240 23:41 03.05.2022
1667 Clear 28 1006 54 8000 3.6 240 22:20 03.05.2022
1668 Clear 28 1006 54 7000 3.6 250 21:36 03.05.2022
1669 Clear 28 1006 54 7000 4.63 260 20:53 03.05.2022
1670 Clear 28 1006 54 7000 3.6 270 19:45 03.05.2022
1671 Clear 29 1005 51 7000 4.63 270 18:50 03.05.2022
1672 Dust 29 1005 54 5000 6.17 280 17:45 03.05.2022
1673 Dust 30 1005 48 5000 6.69 270 16:37 03.05.2022
1674 Dust 31 1005 45 4000 7.2 290 15:32 03.05.2022
1675 Dust 32 1005 37 3400 8.75 300 12:47 03.05.2022
1676 Dust 32 1005 37 3400 8.75 300 12:27 03.05.2022
1677 Dust 32 1006 35 4000 8.75 300 10:52 03.05.2022
1678 Dust 31 1006 42 4000 7.72 320 09:21 03.05.2022
1679 Dust 30 1005 51 3300 5.66 0 06:46 03.05.2022
1680 Dust 27 1005 65 3000 2.57 230 05:56 03.05.2022
1681 Clear 28 1004 57 6000 4.63 270 00:19 03.05.2022
1682 Clear 29 1004 48 6000 5.66 280 22:36 02.05.2022
1683 Clear 30 1004 45 9000 6.17 300 21:51 02.05.2022
1684 Clear 31 1004 40 10000 3.09 260 20:51 02.05.2022
1685 Clear 31 1003 37 10000 4.63 310 18:37 02.05.2022
1686 Clear 31 1003 37 10000 6.17 320 17:57 02.05.2022
1687 Clear 31 1003 37 10000 6.17 320 17:34 02.05.2022
1688 Clear 31 1003 42 10000 7.2 320 16:21 02.05.2022
1689 Clear 33 1003 31 10000 5.66 300 15:29 02.05.2022
1690 Clear 34 1004 26 10000 7.72 310 13:50 02.05.2022
1691 Clear 36 1004 21 10000 4.63 290 12:19 02.05.2022
1692 Clear 36 1005 21 10000 4.12 290 10:38 02.05.2022
1693 Clear 33 1006 24 10000 4.63 260 08:49 02.05.2022
1694 Clear 31 1005 29 10000 3.09 190 07:39 02.05.2022
1695 Clear 31 1005 29 10000 3.09 190 07:39 02.05.2022
1696 Clear 26 1004 50 10000 1.54 190 03:48 02.05.2022
1697 Clear 26 1004 61 10000 3.09 210 00:24 02.05.2022
1698 Clear 27 1005 61 10000 3.6 200 23:47 01.05.2022
1699 Clear 28 1005 54 10000 3.09 180 22:20 01.05.2022
1700 Clear 29 1005 54 10000 3.6 190 21:18 01.05.2022
1701 Clear 29 1005 51 10000 2.57 250 19:51 01.05.2022
1702 Clear 29 1005 51 10000 3.09 260 18:57 01.05.2022
1703 Clear 29 1005 51 10000 3.09 260 18:27 01.05.2022
1704 Clear 30 1005 48 10000 5.66 280 17:26 01.05.2022
1705 Clear 30 1005 45 10000 6.17 290 16:23 01.05.2022
1706 Clear 31 1004 42 10000 6.69 280 15:24 01.05.2022
1707 Clear 32 1005 40 10000 7.72 300 13:42 01.05.2022
1708 Clear 32 1007 45 10000 6.17 290 11:18 01.05.2022
1709 Clear 31 1008 42 10000 6.69 290 08:53 01.05.2022
1710 Clear 31 1008 45 10000 4.63 270 07:55 01.05.2022
1711 Clear 26 1006 61 10000 3.09 200 03:31 01.05.2022
1712 Clear 27 1007 65 10000 3.6 230 23:49 30.04.2022
1713 Clear 28 1008 57 10000 3.6 230 21:47 30.04.2022
1714 Clear 29 1008 54 10000 3.09 230 20:45 30.04.2022
1715 Clear 29 1008 54 10000 3.09 250 19:41 30.04.2022
1716 Clear 30 1007 48 10000 5.14 270 17:45 30.04.2022
1717 Clear 31 1007 45 10000 5.66 290 16:42 30.04.2022
1718 Clear 32 1007 37 10000 5.66 290 15:24 30.04.2022
1719 Clear 33 1008 31 10000 7.72 310 14:43 30.04.2022
1720 Clear 33 1009 35 10000 7.2 300 12:42 30.04.2022
1721 Clear 33 1009 33 10000 6.69 300 11:33 30.04.2022
1722 Clear 33 1010 38 10000 6.69 310 10:43 30.04.2022
1723 Clear 31 1011 48 10000 6.69 330 08:59 30.04.2022
1724 Clear 29 1010 61 10000 4.63 300 06:43 30.04.2022
1725 Clouds 29 1006 65 8000 3.6 270 01:53 30.04.2022
1726 Clear 31 1007 43 10000 6.17 280 23:37 29.04.2022
1727 Clear 32 1007 24 10000 2.57 110 22:31 29.04.2022
1728 Clear 32 1008 27 10000 2.06 110 21:34 29.04.2022
1729 Clear 32 1008 31 10000 2.06 90 20:40 29.04.2022
1730 Clear 33 1008 29 10000 2.06 50 19:43 29.04.2022
1731 Clouds 32 1007 45 8000 3.6 40 17:54 29.04.2022
1732 Clouds 32 1007 45 8000 3.6 40 17:21 29.04.2022
1733 Clear 32 1007 58 7000 7.2 340 15:23 29.04.2022
1734 Clouds 35 1006 38 7000 9.77 340 14:20 29.04.2022
1735 Clouds 39 1008 21 10000 6.69 320 12:48 29.04.2022
1736 Clouds 40 1009 21 10000 6.69 340 11:40 29.04.2022
1737 Clear 37 1011 25 10000 3.6 190 08:46 29.04.2022
1738 Clear 35 1011 23 10000 3.09 170 07:27 29.04.2022
1739 Clear 31 1010 27 10000 2.57 170 06:38 29.04.2022
1740 Clouds 28 1008 39 8000 2.06 40 04:43 29.04.2022
1741 Clear 29 1008 42 10000 1.54 100 00:19 29.04.2022
1742 Clear 29 1009 42 10000 2.57 70 23:27 28.04.2022
1743 Clear 30 1009 42 10000 2.06 70 22:41 28.04.2022
1744 Clear 31 1010 42 10000 3.09 320 21:47 28.04.2022
1745 Clear 31 1010 37 10000 4.12 350 20:57 28.04.2022
1746 Clear 31 1010 37 10000 4.12 350 20:24 28.04.2022
1747 Clear 31 1009 43 10000 2.06 320 19:41 28.04.2022
1748 Clear 31 1009 43 10000 2.06 320 19:21 28.04.2022
1749 Clear 33 1008 35 10000 2.06 340 18:35 28.04.2022
1750 Clear 35 1007 21 10000 5.14 330 16:59 28.04.2022
1751 Clear 35 1007 21 10000 5.14 330 16:22 28.04.2022
1752 Clear 35 1007 29 10000 4.12 340 15:57 28.04.2022
1753 Clear 35 1007 29 10000 4.12 340 15:27 28.04.2022
1754 Clear 37 1007 23 10000 5.14 340 13:44 28.04.2022
1755 Clear 37 1007 19 10000 5.14 350 12:42 28.04.2022
1756 Clear 38 1008 19 10000 4.63 320 11:56 28.04.2022
1757 Clear 37 1009 19 10000 1.03 0 10:44 28.04.2022
1758 Clear 36 1009 24 10000 1.54 0 09:52 28.04.2022
1759 Clear 35 1009 20 10000 1.54 0 08:30 28.04.2022
1760 Clear 30 1008 45 10000 1.54 150 06:58 28.04.2022
1761 Clear 28 1008 54 10000 2.06 170 05:55 28.04.2022
1762 Clear 28 1008 54 10000 2.06 170 05:37 28.04.2022
1763 Clear 28 1007 54 10000 3.6 160 04:38 28.04.2022
1764 Thunderstorm 31 1007 40 10000 1.54 250 00:22 28.04.2022
1765 Clear 30 1008 42 10000 2.06 90 22:38 27.04.2022
1766 Clear 31 1008 40 10000 3.09 340 21:51 27.04.2022
1767 Clear 31 1008 48 10000 1.03 0 20:56 27.04.2022
1768 Clear 31 1008 48 10000 1.03 0 20:35 27.04.2022
1769 Clear 31 1008 45 10000 2.06 20 19:37 27.04.2022
1770 Clear 31 1007 45 10000 2.06 330 18:56 27.04.2022
1771 Clear 31 1007 45 10000 2.06 330 18:22 27.04.2022
1772 Clear 33 1006 33 10000 5.66 340 16:29 27.04.2022
1773 Clear 35 1006 28 10000 6.69 320 14:31 27.04.2022
1774 Clear 35 1008 31 10000 5.14 330 11:45 27.04.2022
1775 Clear 35 1008 31 10000 5.14 330 11:20 27.04.2022
1776 Clear 34 1009 31 10000 2.57 300 08:58 27.04.2022
1777 Clear 32 1009 43 10000 3.09 280 07:18 27.04.2022
1778 Clouds 27 1006 78 8000 2.06 240 04:21 27.04.2022
1779 Clear 29 1006 58 10000 1.54 210 01:31 27.04.2022
1780 Clear 29 1006 62 10000 1.03 220 00:36 27.04.2022
1781 Clear 29 1006 62 10000 1.03 220 00:36 27.04.2022
1782 Clear 30 1006 62 10000 1.54 270 23:25 26.04.2022
1783 Clear 31 1007 42 10000 3.09 260 22:57 26.04.2022
1784 Clear 31 1007 42 10000 3.09 260 22:38 26.04.2022
1785 Clear 32 1007 35 10000 1.54 0 21:26 26.04.2022
1786 Clear 32 1007 35 10000 1.54 0 21:26 26.04.2022
1787 Clear 32 1007 35 10000 1.54 0 21:26 26.04.2022
1788 Clear 32 1008 37 10000 4.12 130 20:41 26.04.2022
1789 Clear 31 1007 45 10000 5.14 110 19:49 26.04.2022
1790 Clear 31 1007 45 10000 5.14 110 19:30 26.04.2022
1791 Clear 31 1007 51 10000 3.6 80 18:44 26.04.2022
1792 Clouds 31 1007 51 8000 4.63 340 17:50 26.04.2022
1793 Clouds 32 1006 40 9000 9.26 330 16:26 26.04.2022
1794 Squall 36 1006 38 6000 10.8 320 13:59 26.04.2022
1795 Clear 37 1006 25 10000 7.2 320 13:31 26.04.2022
1796 Clouds 37 1007 34 10000 6.69 330 11:48 26.04.2022
1797 Clear 39 1008 19 10000 4.63 240 10:31 26.04.2022
1798 Clear 36 1009 23 10000 5.14 230 08:47 26.04.2022
1799 Clear 32 1008 31 10000 2.06 260 06:57 26.04.2022
1800 Clear 27 1007 51 10000 1.03 0 04:23 26.04.2022
1801 Clear 30 1006 35 10000 1.54 140 00:57 26.04.2022
1802 Clear 30 1006 35 10000 1.54 140 00:20 26.04.2022
1803 Clear 31 1007 42 10000 1.54 200 22:19 25.04.2022
1804 Clear 29 1008 48 10000 1.54 100 21:33 25.04.2022
1805 Clear 30 1008 51 10000 2.57 90 20:34 25.04.2022
1806 Clear 31 1008 45 10000 3.09 50 18:54 25.04.2022
1807 Clear 31 1007 45 10000 4.12 20 17:41 25.04.2022
1808 Clear 31 1006 55 10000 5.66 340 16:51 25.04.2022
1809 Clear 32 1006 55 6000 9.77 330 15:23 25.04.2022
1810 Dust 34 1006 40 4000 11.32 320 14:34 25.04.2022
1811 Clouds 39 1006 19 10000 6.69 280 13:29 25.04.2022
1812 Clear 38 1008 20 8000 6.17 250 10:58 25.04.2022
1813 Clear 37 1008 23 8000 6.17 220 09:55 25.04.2022
1814 Clear 35 1009 24 10000 6.17 190 08:23 25.04.2022
1815 Clear 32 1008 25 10000 1.03 0 06:18 25.04.2022
1816 Clear 27 1006 54 10000 1.54 100 01:49 25.04.2022
1817 Clear 29 1007 48 10000 1.54 70 23:58 24.04.2022
1818 Clear 26 1007 61 10000 2.99 55 23:30 24.04.2022
1819 Clear 30 1007 45 10000 2.06 350 22:40 24.04.2022
1820 Clear 31 1007 42 10000 1.54 40 21:58 24.04.2022
1821 Clear 31 1007 42 10000 1.54 40 21:23 24.04.2022
1822 Clear 31 1008 45 10000 2.06 10 20:47 24.04.2022
1823 Clear 31 1008 45 10000 2.06 10 20:21 24.04.2022
1824 Clear 31 1007 45 10000 3.6 80 18:54 24.04.2022
1825 Clear 32 1006 40 10000 3.6 320 17:54 24.04.2022
1826 Clear 32 1006 40 10000 3.6 320 17:21 24.04.2022
1827 Clear 31 1006 58 10000 6.69 350 16:56 24.04.2022
1828 Clear 31 1006 58 10000 6.69 350 16:29 24.04.2022
1829 Clear 31 1006 58 10000 6.69 350 16:29 24.04.2022
1830 Clear 32 1006 52 10000 6.71 340 15:52 24.04.2022
1831 Clear 33 1006 46 9000 6.69 340 14:40 24.04.2022
1832 Clear 33 1006 55 8000 6.69 340 13:38 24.04.2022
1833 Clear 33 1006 55 8000 6.69 340 13:18 24.04.2022
1834 Clear 36 1008 38 7000 5.66 310 11:50 24.04.2022
1835 Clear 37 1009 32 10000 3.6 330 10:48 24.04.2022
1836 Clear 36 1009 20 10000 1.54 190 09:47 24.04.2022
1837 Clear 33 1010 27 10000 2.57 170 08:18 24.04.2022
1838 Clouds 25 1009 69 6000 2.06 170 05:45 24.04.2022
1839 Clear 26 1007 65 10000 1.54 210 02:48 24.04.2022
1840 Clear 27 1007 61 10000 1.54 210 00:47 24.04.2022
1841 Clear 27 1007 65 10000 1.54 0 23:55 23.04.2022
1842 Clear 27 1007 65 10000 1.54 0 23:25 23.04.2022
1843 Clear 27 1008 61 10000 1.54 220 22:39 23.04.2022
1844 Clear 28 1008 61 10000 1.03 0 21:41 23.04.2022
1845 Clear 28 1008 61 10000 1.03 0 21:22 23.04.2022
1846 Clear 29 1008 61 10000 2.06 270 19:56 23.04.2022
1847 Clear 29 1008 61 10000 2.06 270 19:20 23.04.2022
1848 Clear 29 1008 61 10000 2.57 350 18:54 23.04.2022
1849 Clear 29 1008 61 10000 2.57 350 18:32 23.04.2022
1850 Clear 29 1007 61 10000 3.6 330 17:46 23.04.2022
1851 Clear 30 1007 54 10000 6.17 320 16:45 23.04.2022
1852 Clear 32 1007 40 10000 6.17 320 15:43 23.04.2022
1853 Clear 34 1007 29 10000 6.17 310 13:24 23.04.2022
1854 Clear 36 1008 26 10000 5.14 290 11:29 23.04.2022
1855 Clear 35 1009 13 10000 3.09 270 09:41 23.04.2022
1856 Clear 31 1009 29 10000 2.57 210 07:52 23.04.2022
1857 Clear 26 1006 39 10000 2.57 150 03:57 23.04.2022
1858 Clear 26 1006 47 10000 2.06 160 02:34 23.04.2022
1859 Clear 28 1007 37 10000 1.54 110 23:34 22.04.2022
1860 Clear 28 1008 39 10000 1.54 230 22:43 22.04.2022
1861 Clear 29 1008 32 10000 1.54 0 21:56 22.04.2022
1862 Clear 29 1008 32 10000 1.54 0 21:38 22.04.2022
1863 Clear 29 1008 37 10000 2.06 360 20:30 22.04.2022
1864 Clear 30 1008 39 10000 2.57 360 19:24 22.04.2022
1865 Clear 29 1007 51 10000 2.57 340 18:56 22.04.2022
1866 Clear 29 1007 51 10000 2.57 340 18:24 22.04.2022
1867 Clear 32 1006 27 10000 3.6 350 16:53 22.04.2022
1868 Clear 33 1006 24 10000 5.66 340 15:57 22.04.2022
1869 Clear 33 1006 24 10000 5.66 340 15:23 22.04.2022
1870 Clear 33 1006 19 10000 8.23 330 14:37 22.04.2022
1871 Clear 33 1007 33 10000 8.23 330 13:41 22.04.2022
1872 Clear 33 1007 24 10000 8.75 320 12:35 22.04.2022
1873 Clear 33 1008 40 10000 6.17 330 11:23 22.04.2022
1874 Clear 32 1008 45 10000 4.63 330 10:56 22.04.2022
1875 Clear 32 1008 45 10000 4.63 330 10:32 22.04.2022
1876 Clear 33 1009 33 10000 5.66 320 09:54 22.04.2022
1877 Clear 34 1009 36 10000 5.66 320 08:56 22.04.2022
1878 Clear 34 1008 26 10000 1.03 0 08:29 22.04.2022
1879 Clear 29 1008 34 10000 1.03 0 06:21 22.04.2022
1880 Clear 25 1007 50 10000 1.54 110 00:53 22.04.2022
1881 Clear 26 1007 50 10000 2.57 90 23:29 21.04.2022
1882 Clear 27 1008 47 10000 1.54 100 22:34 21.04.2022
1883 Clear 27 1008 47 10000 1.54 90 21:25 21.04.2022
1884 Clear 27 1008 47 10000 2.57 330 20:29 21.04.2022
1885 Clear 29 1007 51 10000 2.06 30 18:49 21.04.2022
1886 Clear 29 1007 51 10000 2.06 30 18:19 21.04.2022
1887 Clear 31 1006 30 10000 5.14 330 16:56 21.04.2022
1888 Clear 31 1006 30 10000 6.69 340 15:24 21.04.2022
1889 Clear 30 1006 48 10000 6.17 350 14:51 21.04.2022
1890 Clear 30 1006 54 10000 6.69 350 13:56 21.04.2022
1891 Clear 29 1006 50 10000 6.88 304 13:20 21.04.2022
1892 Clear 33 1007 38 10000 7.72 320 11:37 21.04.2022
1893 Clear 34 1008 21 10000 3.09 100 09:23 21.04.2022
1894 Clear 31 1009 29 10000 2.06 70 08:29 21.04.2022
1895 Clouds 23 1008 83 7000 2.06 110 06:25 21.04.2022
1896 Fog 22 1008 94 600 2.57 150 03:37 21.04.2022
1897 Clouds 23 1007 88 6000 2.57 110 02:56 21.04.2022
1898 Clouds 23 1007 88 6000 2.57 110 02:38 21.04.2022
1899 Clear 24 1008 83 10000 3.09 60 00:25 21.04.2022
1900 Clear 25 1008 78 10000 2.06 350 23:24 20.04.2022
1901 Clear 25 1009 78 10000 2.57 350 22:52 20.04.2022
1902 Clear 25 1009 78 10000 2.57 350 22:32 20.04.2022
1903 Clear 25 1009 78 10000 2.57 350 22:32 20.04.2022
1904 Clear 26 1009 69 10000 1.54 240 21:35 20.04.2022
1905 Clear 26 1009 69 10000 1.03 0 20:43 20.04.2022
1906 Clear 27 1009 69 10000 1.54 0 19:55 20.04.2022
1907 Clear 27 1009 69 10000 1.54 0 19:29 20.04.2022
1908 Clear 26 1008 73 10000 3.09 340 18:33 20.04.2022
1909 Clear 28 1008 57 10000 6.17 320 16:58 20.04.2022
1910 Clear 28 1008 57 10000 6.17 320 16:38 20.04.2022
1911 Clear 29 1008 54 10000 7.2 320 14:48 20.04.2022
1912 Clear 31 1010 37 10000 6.69 320 11:57 20.04.2022
1913 Clear 31 1010 37 10000 6.69 320 11:33 20.04.2022
1914 Clear 31 1011 40 10000 5.66 340 10:29 20.04.2022
1915 Clear 32 1011 19 10000 2.57 110 09:27 20.04.2022
1916 Clear 30 1011 32 10000 1.54 0 08:25 20.04.2022
1917 Clear 26 1011 57 10000 2.06 160 07:43 20.04.2022
1918 Clear 22 1010 78 8000 1.54 150 04:49 20.04.2022
1919 Clear 23 1009 73 10000 2.06 190 01:20 20.04.2022
1920 Clear 25 1010 73 10000 2.06 200 00:20 20.04.2022
1921 Clear 25 1011 69 10000 2.06 260 22:40 19.04.2022
1922 Clear 25 1011 69 10000 2.06 260 22:19 19.04.2022
1923 Clear 26 1011 69 10000 1.54 250 21:38 19.04.2022
1924 Clear 26 1011 69 10000 2.57 270 20:56 19.04.2022
1925 Clear 26 1011 69 10000 2.57 270 20:34 19.04.2022
1926 Clear 26 1011 65 10000 4.12 270 19:31 19.04.2022
1927 Clear 27 1010 61 10000 3.09 270 18:18 19.04.2022
1928 Clear 28 1009 54 10000 4.63 300 16:46 19.04.2022
1929 Clear 28 1009 54 10000 4.63 300 16:24 19.04.2022
1930 Clear 29 1009 54 10000 6.17 310 15:20 19.04.2022
1931 Clear 29 1009 51 10000 5.14 290 14:32 19.04.2022
1932 Clear 30 1010 42 10000 6.17 300 12:52 19.04.2022
1933 Clear 30 1010 42 10000 6.17 300 12:26 19.04.2022
1934 Clear 30 1010 42 10000 4.63 280 11:23 19.04.2022
1935 Clear 29 1011 39 10000 2.57 0 09:26 19.04.2022
1936 Clear 26 1012 41 10000 2.57 190 07:26 19.04.2022
1937 Clear 22 1010 49 10000 2.57 190 04:19 19.04.2022
1938 Clear 24 1009 46 10000 3.09 190 00:56 19.04.2022
1939 Clear 25 1009 44 10000 2.57 210 23:40 18.04.2022
1940 Clear 27 1009 39 10000 3.09 250 21:56 18.04.2022
1941 Clear 27 1009 39 10000 3.09 250 21:24 18.04.2022
1942 Clear 27 1009 39 10000 3.6 270 20:38 18.04.2022
1943 Clear 27 1009 41 10000 4.12 260 19:59 18.04.2022
1944 Clear 27 1009 41 10000 4.12 260 19:29 18.04.2022
1945 Clear 27 1008 39 10000 3.6 260 18:34 18.04.2022
1946 Clear 28 1008 39 10000 5.14 270 17:39 18.04.2022
1947 Clear 28 1008 39 10000 5.14 270 17:39 18.04.2022
1948 Clear 28 1008 39 10000 5.14 270 17:19 18.04.2022
1949 Clear 28 1007 39 10000 5.66 270 16:36 18.04.2022
1950 Clear 29 1007 32 10000 6.69 280 15:28 18.04.2022
1951 Clear 30 1007 32 10000 5.66 300 13:44 18.04.2022
1952 Clear 30 1007 35 10000 6.17 300 12:41 18.04.2022
1953 Clear 29 1008 39 10000 6.69 290 11:48 18.04.2022
1954 Clear 30 1008 39 10000 6.17 310 10:46 18.04.2022
1955 Clear 29 1009 39 10000 7.72 290 09:31 18.04.2022
1956 Clear 29 1008 37 10000 7.72 300 08:37 18.04.2022
1957 Clear 28 1008 42 10000 5.66 300 06:25 18.04.2022
1958 Clear 27 1006 50 10000 4.63 270 02:22 18.04.2022
1959 Clear 29 1006 45 10000 4.12 280 22:54 17.04.2022
1960 Clear 29 1006 45 10000 4.12 280 22:32 17.04.2022
1961 Clear 29 1006 48 10000 5.66 280 21:34 17.04.2022
1962 Clear 29 1006 48 10000 4.63 270 20:51 17.04.2022
1963 Clear 30 1006 48 10000 3.6 270 19:55 17.04.2022
1964 Clear 30 1005 48 10000 3.6 270 18:42 17.04.2022
1965 Clear 31 1005 45 10000 3.6 270 17:20 17.04.2022
1966 Clear 33 1004 38 10000 5.66 280 15:34 17.04.2022
1967 Clear 35 1004 28 10000 7.2 300 14:45 17.04.2022
1968 Clear 35 1004 29 10000 7.2 300 13:28 17.04.2022
1969 Clear 36 1005 28 10000 5.66 290 12:31 17.04.2022
1970 Clear 35 1006 28 10000 5.66 300 10:51 17.04.2022
1971 Clear 35 1006 28 10000 5.66 300 10:29 17.04.2022
1972 Clear 35 1005 29 10000 3.6 280 09:51 17.04.2022
1973 Clear 35 1005 29 10000 3.6 280 09:18 17.04.2022
1974 Clear 33 1005 40 7000 2.57 260 08:29 17.04.2022
1975 Clear 28 1005 54 7000 3.09 190 05:33 17.04.2022
1976 Clear 29 1004 58 10000 3.09 270 01:47 17.04.2022
1977 Clear 30 1004 51 10000 3.09 250 00:37 17.04.2022
1978 Clear 32 1004 35 10000 3.09 280 23:19 16.04.2022
1979 Clear 31 1005 45 10000 1.54 260 21:45 16.04.2022
1980 Clear 31 1005 48 10000 2.06 240 20:54 16.04.2022
1981 Clear 32 1005 43 10000 2.06 240 19:21 16.04.2022
1982 Clear 32 1004 43 10000 3.6 260 18:35 16.04.2022
1983 Clear 34 1004 33 10000 5.66 310 16:51 16.04.2022
1984 Clear 36 1004 26 10000 7.2 300 15:48 16.04.2022
1985 Clear 36 1004 24 10000 7.2 290 14:58 16.04.2022
1986 Clear 36 1004 24 10000 7.2 290 14:30 16.04.2022
1987 Clear 36 1004 24 10000 7.2 290 14:30 16.04.2022
1988 Clear 38 1004 19 10000 5.66 290 13:41 16.04.2022
1989 Clear 37 1004 20 10000 6.17 310 12:35 16.04.2022
1990 Clear 37 1005 22 10000 5.14 300 11:26 16.04.2022
1991 Clear 37 1006 23 10000 4.63 320 10:25 16.04.2022
1992 Clear 36 1007 24 10000 4.63 300 09:32 16.04.2022
1993 Clear 34 1006 38 10000 3.6 270 08:41 16.04.2022
1994 Clear 28 1006 47 10000 2.57 230 06:59 16.04.2022
1995 Clear 28 1004 44 10000 2.06 180 04:54 16.04.2022
1996 Clear 30 1004 40 10000 1.03 0 00:40 16.04.2022
1997 Clear 31 1004 45 10000 1.54 210 23:40 15.04.2022
1998 Clear 33 1005 31 10000 1.54 260 22:45 15.04.2022
1999 Clear 33 1005 31 10000 1.54 260 22:27 15.04.2022
2000 Clear 32 1005 31 10000 1.03 0 21:20 15.04.2022
2001 Clear 33 1005 24 10000 1.03 0 20:36 15.04.2022
2002 Clear 33 1005 27 10000 1.54 90 19:43 15.04.2022
2003 Clear 34 1005 28 10000 2.06 140 18:57 15.04.2022
2004 Clear 34 1005 28 10000 2.06 140 18:26 15.04.2022
2005 Clear 35 1004 26 10000 2.57 50 17:56 15.04.2022
2006 Clear 35 1004 26 10000 2.57 50 17:23 15.04.2022
2007 Clear 33 1004 40 10000 4.12 330 16:24 15.04.2022
2008 Clear 34 1004 38 10000 6.69 330 15:40 15.04.2022
2009 Clear 37 1004 23 10000 5.14 340 13:55 15.04.2022
2010 Clear 36 1005 23 10000 7.72 320 12:48 15.04.2022
2011 Clouds 38 1006 16 6000 5.14 300 11:59 15.04.2022
2012 Clouds 38 1006 16 6000 5.14 300 11:40 15.04.2022
2013 Clear 36 1006 23 6000 8.23 310 10:45 15.04.2022
2014 Dust 38 1007 20 5000 11.32 310 09:57 15.04.2022
2015 Dust 39 1007 18 4000 8.23 320 09:21 15.04.2022
2016 Clear 37 1006 14 10000 4.63 210 08:24 15.04.2022
2017 Clouds 31 1006 29 8000 2.57 220 06:47 15.04.2022
2018 Clear 29 1005 30 10000 3.09 200 04:28 15.04.2022
2019 Clear 30 1005 42 10000 3.6 110 23:42 14.04.2022
2020 Clear 30 1005 42 10000 3.6 110 23:19 14.04.2022
2021 Clear 30 1006 40 10000 2.06 90 22:42 14.04.2022
2022 Clear 30 1006 40 10000 2.06 90 22:24 14.04.2022
2023 Clear 31 1006 40 10000 2.06 70 21:32 14.04.2022
2024 Clear 32 1006 37 10000 4.12 330 19:24 14.04.2022
2025 Clear 34 1005 29 10000 3.09 340 18:38 14.04.2022
2026 Clear 35 1004 20 10000 3.6 330 17:45 14.04.2022
2027 Clear 36 1004 17 10000 5.14 330 16:49 14.04.2022
2028 Clear 37 1004 18 10000 6.17 320 15:50 14.04.2022
2029 Clear 40 1004 10 10000 6.17 320 13:52 14.04.2022
2030 Clear 40 1004 10 10000 6.17 320 13:19 14.04.2022
2031 Clear 40 1005 10 10000 5.66 320 12:32 14.04.2022
2032 Clear 40 1006 10 10000 5.66 330 11:36 14.04.2022
2033 Clear 41 1006 9 10000 2.06 300 10:57 14.04.2022
2034 Clear 41 1006 9 10000 2.06 300 10:29 14.04.2022
2035 Clear 39 1007 12 10000 1.54 200 09:26 14.04.2022
2036 Clouds 33 1006 31 8000 2.57 230 07:52 14.04.2022
2037 Clear 29 1005 26 10000 2.06 120 05:23 14.04.2022
2038 Clear 30 1006 37 10000 0.51 0 23:50 13.04.2022
2039 Clear 31 1006 29 10000 2.06 150 22:37 13.04.2022
2040 Clear 31 1006 29 10000 2.57 120 21:42 13.04.2022
2041 Clear 31 1006 29 10000 1.54 50 20:35 13.04.2022
2042 Clear 33 1006 27 10000 4.12 330 19:46 13.04.2022
2043 Clear 34 1005 26 10000 4.12 330 18:36 13.04.2022
2044 Clear 34 1005 22 10000 4.63 300 17:24 13.04.2022
2045 Clear 35 1004 23 10000 4.63 320 16:49 13.04.2022
2046 Clear 36 1004 20 10000 5.14 320 15:44 13.04.2022
2047 Clear 36 1004 20 10000 5.14 320 15:21 13.04.2022
2048 Clear 37 1004 18 10000 4.12 330 14:34 13.04.2022
2049 Clear 38 1004 10 10000 4.12 340 13:37 13.04.2022
2050 Clear 39 1005 8 10000 4.12 350 12:41 13.04.2022
2051 Clear 38 1005 8 10000 3.6 360 11:24 13.04.2022
2052 Clear 38 1006 8 10000 4.63 350 09:45 13.04.2022
2053 Clear 36 1007 10 10000 1.03 0 08:43 13.04.2022
2054 Clear 33 1006 13 10000 1.54 110 07:23 13.04.2022
2055 Clear 29 1006 16 10000 2.06 140 06:46 13.04.2022
2056 Clear 29 1006 16 10000 2.06 140 06:18 13.04.2022
2057 Clear 29 1004 20 10000 2.06 200 00:28 13.04.2022
2058 Clear 29 1005 28 10000 2.06 220 23:55 12.04.2022
2059 Clear 30 1005 23 10000 2.57 200 22:31 12.04.2022
2060 Clear 31 1005 30 10000 2.06 200 21:42 12.04.2022
2061 Clear 30 1005 30 10000 2.06 220 20:44 12.04.2022
2062 Clear 33 1005 18 10000 1.54 250 19:54 12.04.2022
2063 Clear 33 1005 18 10000 1.54 250 19:35 12.04.2022
2064 Clear 34 1005 14 10000 2.06 270 18:52 12.04.2022
2065 Clear 35 1004 13 10000 2.57 290 17:36 12.04.2022
2066 Clear 35 1004 12 10000 4.63 320 16:33 12.04.2022
2067 Clear 35 1004 16 10000 5.14 320 15:33 12.04.2022
2068 Clear 36 1004 16 10000 6.17 330 14:33 12.04.2022
2069 Clear 36 1005 19 10000 6.69 320 13:40 12.04.2022
2070 Clear 36 1005 19 10000 6.69 320 13:20 12.04.2022
2071 Clear 35 1006 20 10000 6.17 320 11:47 12.04.2022
2072 Clear 35 1006 20 10000 6.17 320 11:24 12.04.2022
2073 Clear 34 1007 26 10000 2.06 310 09:32 12.04.2022
2074 Clear 30 1008 51 6000 2.06 250 08:26 12.04.2022
2075 Dust 25 1007 65 4500 4.12 200 06:33 12.04.2022
2076 Haze 24 1007 73 4500 4.12 200 05:38 12.04.2022
2077 Clear 24 1006 83 6000 4.63 210 01:47 12.04.2022
2078 Clear 26 1006 78 6000 3.6 200 23:20 11.04.2022
2079 Clear 27 1007 69 6000 3.09 200 21:50 11.04.2022
2080 Clear 27 1007 69 6000 3.09 200 21:18 11.04.2022
2081 Clear 28 1007 61 7000 1.54 230 20:30 11.04.2022
2082 Clear 28 1007 61 7000 1.54 230 20:30 11.04.2022
2083 Clear 28 1007 65 8000 2.57 270 19:57 11.04.2022
2084 Clear 28 1007 65 8000 2.57 270 19:25 11.04.2022
2085 Clear 28 1007 65 8000 4.12 280 18:52 11.04.2022
2086 Clear 29 1006 54 8000 5.14 280 17:57 11.04.2022
2087 Clear 31 1005 40 10000 4.12 270 16:57 11.04.2022
2088 Clear 31 1005 40 10000 4.12 270 16:25 11.04.2022
2089 Clear 34 1005 36 10000 4.12 270 14:36 11.04.2022
2090 Clear 34 1006 26 10000 4.63 320 13:19 11.04.2022
2091 Clear 35 1006 23 10000 3.6 320 12:36 11.04.2022
2092 Clear 34 1007 21 10000 4.63 300 11:42 11.04.2022
2093 Clear 34 1008 26 10000 2.06 300 10:34 11.04.2022
2094 Clear 32 1009 35 10000 2.06 0 09:30 11.04.2022
2095 Clear 28 1009 47 10000 3.09 210 07:19 11.04.2022
2096 Clear 25 1006 50 10000 3.09 200 02:36 11.04.2022
2097 Clear 28 1007 42 10000 2.06 210 22:58 10.04.2022
2098 Clear 28 1007 42 10000 2.06 210 22:26 10.04.2022
2099 Clear 29 1008 37 10000 2.06 270 21:35 10.04.2022
2100 Clear 31 1008 23 10000 3.6 290 20:39 10.04.2022
2101 Clear 32 1007 25 10000 2.06 250 19:46 10.04.2022
2102 Clear 32 1007 25 10000 2.06 250 19:25 10.04.2022
2103 Clear 32 1007 20 10000 3.6 310 18:45 10.04.2022
2104 Clear 34 1007 13 10000 4.63 330 17:56 10.04.2022
2105 Clear 34 1007 13 10000 4.63 330 17:56 10.04.2022
2106 Clear 34 1007 13 10000 4.63 330 17:37 10.04.2022
2107 Clear 36 1006 11 10000 3.6 290 16:33 10.04.2022
2108 Clear 36 1006 12 10000 4.12 310 15:30 10.04.2022
2109 Clear 36 1006 12 10000 5.66 320 14:25 10.04.2022
2110 Clear 39 1007 6 10000 3.6 320 12:35 10.04.2022
2111 Clear 39 1007 6 10000 3.6 320 12:35 10.04.2022
2112 Clear 39 1008 6 10000 3.6 320 11:56 10.04.2022
2113 Clear 39 1008 6 10000 3.6 320 11:29 10.04.2022
2114 Clear 38 1009 7 10000 2.57 340 10:56 10.04.2022
2115 Clear 36 1009 8 10000 3.09 30 09:58 10.04.2022
2116 Clear 36 1009 8 10000 3.09 30 09:37 10.04.2022
2117 Clear 34 1009 11 10000 1.03 0 08:22 10.04.2022
2118 Clouds 30 1009 17 8000 2.06 100 07:35 10.04.2022
2119 Clouds 24 1008 31 8000 1.03 0 05:50 10.04.2022
2120 Clear 25 1007 41 10000 1.54 170 02:25 10.04.2022
2121 Clear 26 1008 47 10000 2.57 220 00:27 10.04.2022
2122 Clear 26 1008 44 10000 3.09 230 23:48 09.04.2022
2123 Clear 27 1009 51 10000 2.06 220 22:47 09.04.2022
2124 Clear 29 1009 51 10000 2.06 210 21:35 09.04.2022
2125 Clear 29 1009 39 10000 1.54 220 20:48 09.04.2022
2126 Clear 29 1009 39 10000 1.54 220 20:25 09.04.2022
2127 Clear 29 1009 35 10000 2.57 250 19:41 09.04.2022
2128 Clear 30 1008 45 10000 2.06 250 18:55 09.04.2022
2129 Clear 30 1008 45 10000 2.06 250 18:19 09.04.2022
2130 Clear 31 1008 45 10000 4.63 320 17:39 09.04.2022
2131 Clear 31 1008 45 10000 4.63 320 17:39 09.04.2022
2132 Clear 33 1007 24 10000 6.17 330 16:50 09.04.2022
2133 Clear 35 1007 18 10000 4.12 290 15:55 09.04.2022
2134 Clear 35 1007 18 10000 4.12 290 15:29 09.04.2022
2135 Clear 35 1007 18 10000 5.14 290 14:44 09.04.2022
2136 Clear 35 1007 18 10000 5.14 290 14:22 09.04.2022
2137 Clear 30 1008 49 10000 5.54 282 13:18 09.04.2022
2138 Clear 36 1008 17 10000 4.63 290 12:41 09.04.2022
2139 Clear 36 1009 17 10000 3.6 290 11:22 09.04.2022
2140 Clear 36 1009 14 10000 3.6 290 10:21 09.04.2022
2141 Clear 36 1010 10 10000 1.54 0 09:37 09.04.2022
2142 Clear 33 1010 14 10000 2.06 220 08:51 09.04.2022
2143 Clear 27 1010 24 10000 1.54 220 06:48 09.04.2022
2144 Clear 27 1008 26 10000 1.54 190 01:32 09.04.2022
2145 Clear 28 1009 24 10000 2.57 80 23:30 08.04.2022
2146 Clear 29 1010 28 10000 1.54 90 21:58 08.04.2022
2147 Clear 30 1010 30 10000 1.54 90 20:48 08.04.2022
2148 Clear 30 1010 30 10000 1.54 90 20:23 08.04.2022
2149 Clear 30 1010 35 10000 1.03 0 19:18 08.04.2022
2150 Clear 31 1010 37 10000 3.09 350 18:28 08.04.2022
2151 Clear 33 1009 17 10000 3.09 320 17:46 08.04.2022
2152 Clear 33 1009 17 10000 3.09 320 17:22 08.04.2022
2153 Clear 34 1009 18 10000 4.12 330 16:47 08.04.2022
2154 Clear 35 1010 16 10000 4.12 340 15:56 08.04.2022
2155 Clear 35 1010 16 10000 4.12 340 15:25 08.04.2022
2156 Clear 35 1010 36 10000 4.63 340 14:26 08.04.2022
2157 Clear 36 1010 19 10000 5.14 330 13:45 08.04.2022
2158 Clear 36 1010 19 10000 5.14 330 13:27 08.04.2022
2159 Clear 40 1011 8 10000 4.63 290 11:54 08.04.2022
2160 Clear 40 1012 7 10000 3.6 300 10:33 08.04.2022
2161 Clear 37 1012 7 10000 2.57 210 09:37 08.04.2022
2162 Clear 35 1012 9 10000 2.06 180 08:34 08.04.2022
2163 Clear 29 1011 20 10000 1.03 0 06:47 08.04.2022
2164 Clear 25 1011 31 10000 2.06 190 04:58 08.04.2022
2165 Clear 26 1011 32 10000 1.54 160 01:26 08.04.2022
2166 Clear 26 1011 36 10000 1.03 120 00:22 08.04.2022
2167 Clear 28 1012 39 10000 2.57 100 22:59 07.04.2022
2168 Clear 28 1012 39 10000 2.57 100 22:39 07.04.2022
2169 Clear 28 1012 39 10000 2.57 100 22:20 07.04.2022
2170 Clear 28 1012 39 10000 2.57 130 21:49 07.04.2022
2171 Clear 28 1012 42 10000 2.57 80 20:58 07.04.2022
2172 Clear 28 1012 42 10000 2.57 80 20:30 07.04.2022
2173 Clear 30 1012 33 10000 2.57 330 18:29 07.04.2022
2174 Clear 30 1011 45 10000 4.63 350 17:25 07.04.2022
2175 Clear 32 1011 43 10000 4.12 350 16:44 07.04.2022
2176 Clear 32 1011 43 10000 4.12 350 16:21 07.04.2022
2177 Clear 34 1011 36 10000 5.66 340 14:42 07.04.2022
2178 Clear 38 1011 15 10000 5.14 340 13:42 07.04.2022
2179 Clear 38 1012 10 10000 3.6 320 12:46 07.04.2022
2180 Clear 37 1012 12 10000 4.12 350 11:30 07.04.2022
2181 Clear 37 1013 10 10000 2.06 70 09:37 07.04.2022
2182 Clear 35 1014 14 10000 2.06 180 08:38 07.04.2022
2183 Clear 28 1013 34 10000 1.03 0 06:42 07.04.2022
2184 Clear 25 1011 53 10000 1.54 130 02:51 07.04.2022
2185 Clear 25 1011 53 10000 1.54 130 02:20 07.04.2022
2186 Clear 27 1011 47 10000 2.06 90 00:26 07.04.2022
2187 Clear 28 1012 48 10000 1.54 90 22:49 06.04.2022
2188 Clear 28 1012 48 10000 1.54 90 22:26 06.04.2022
2189 Clear 28 1013 54 10000 1.54 70 21:34 06.04.2022
2190 Clear 28 1013 51 10000 2.57 50 20:35 06.04.2022
2191 Clear 28 1012 51 10000 2.57 80 19:53 06.04.2022
2192 Clear 29 1012 61 10000 2.57 90 18:51 06.04.2022
2193 Clear 29 1012 61 10000 2.57 90 18:22 06.04.2022
2194 Clear 29 1011 58 7000 3.6 350 17:35 06.04.2022
2195 Clear 31 1010 45 10000 5.66 340 16:38 06.04.2022
2196 Clear 31 1010 51 8000 7.2 340 15:48 06.04.2022
2197 Clear 34 1010 21 10000 7.72 320 14:35 06.04.2022
2198 Clear 35 1011 34 10000 7.2 320 13:23 06.04.2022
2199 Clear 39 1011 10 10000 6.17 310 12:22 06.04.2022
2200 Clear 38 1013 10 10000 2.06 170 10:47 06.04.2022
2201 Clear 38 1013 10 10000 2.06 170 10:25 06.04.2022
2202 Clear 36 1013 10 10000 3.09 190 09:40 06.04.2022
2203 Clear 34 1014 16 10000 3.6 170 08:32 06.04.2022
2204 Clear 30 1013 30 10000 3.6 180 07:49 06.04.2022
2205 Clear 24 1011 69 7000 2.06 150 03:53 06.04.2022
2206 Clear 26 1012 61 10000 1.54 110 23:52 05.04.2022
2207 Clear 27 1012 57 10000 1.54 340 22:31 05.04.2022
2208 Clear 28 1012 57 10000 2.57 330 21:20 05.04.2022
2209 Clear 28 1012 51 10000 1.03 0 20:25 05.04.2022
2210 Clear 28 1012 61 10000 2.06 330 19:42 05.04.2022
2211 Clear 28 1011 54 10000 3.6 320 18:18 05.04.2022
2212 Haze 29 1010 74 4500 3.6 360 16:54 05.04.2022
2213 Clear 31 1009 37 10000 6.17 330 15:56 05.04.2022
2214 Clear 31 1009 37 10000 6.17 330 15:34 05.04.2022
2215 Clear 33 1009 33 10000 5.14 340 14:36 05.04.2022
2216 Clear 32 1009 37 10000 6.17 330 13:35 05.04.2022
2217 Clear 34 1011 26 10000 5.14 340 11:51 05.04.2022
2218 Clear 34 1011 26 10000 5.14 340 11:51 05.04.2022
2219 Clear 34 1011 26 10000 5.14 340 11:32 05.04.2022
2220 Clear 34 1012 29 10000 3.09 330 09:59 05.04.2022
2221 Clear 32 1012 31 10000 1.54 0 08:54 05.04.2022
2222 Clear 27 1011 44 10000 2.06 110 06:58 05.04.2022
2223 Clear 25 1009 53 10000 1.54 160 01:55 05.04.2022
2224 Clear 26 1010 47 10000 3.09 110 22:44 04.04.2022
2225 Clear 26 1010 47 10000 3.09 110 22:26 04.04.2022
2226 Clear 27 1010 36 10000 1.54 360 21:21 04.04.2022
2227 Clear 27 1010 42 10000 2.57 350 20:50 04.04.2022
2228 Clear 28 1010 42 10000 2.06 340 19:58 04.04.2022
2229 Clear 28 1010 42 10000 2.06 340 19:26 04.04.2022
2230 Clear 28 1009 44 10000 2.57 310 18:33 04.04.2022
2231 Clear 28 1008 57 10000 3.6 320 16:37 04.04.2022
2232 Clear 30 1008 42 10000 5.14 340 15:47 04.04.2022
2233 Clear 30 1008 42 10000 5.14 340 15:29 04.04.2022
2234 Clear 30 1008 48 10000 6.69 320 14:46 04.04.2022
2235 Clear 30 1009 54 10000 7.2 310 13:31 04.04.2022
2236 Clear 30 1010 54 10000 5.66 320 11:56 04.04.2022
2237 Clear 30 1010 54 10000 5.66 320 11:29 04.04.2022
2238 Clear 30 1010 51 8000 3.09 320 09:18 04.04.2022
2239 Haze 21 1009 83 5000 1.54 180 05:21 04.04.2022
2240 Clear 23 1008 69 10000 2.06 160 01:36 04.04.2022
2241 Clear 25 1009 61 10000 1.03 0 22:45 03.04.2022
2242 Clear 25 1009 61 10000 2.57 230 21:47 03.04.2022
2243 Clear 25 1009 61 10000 2.57 230 21:19 03.04.2022
2244 Clear 27 1008 54 10000 2.06 230 19:51 03.04.2022
2245 Clear 28 1008 47 10000 1.54 260 18:33 03.04.2022
2246 Clear 28 1008 47 10000 4.12 310 17:48 03.04.2022
2247 Clear 28 1008 47 10000 4.12 310 17:21 03.04.2022
2248 Clear 29 1007 39 10000 4.63 310 16:42 03.04.2022
2249 Clear 30 1007 42 10000 5.14 330 15:18 03.04.2022
2250 Clear 31 1008 45 10000 5.66 330 13:57 03.04.2022
2251 Clear 31 1009 45 10000 4.63 300 12:48 03.04.2022
2252 Clear 31 1009 55 10000 5.14 330 11:33 03.04.2022
2253 Clear 29 1011 48 10000 2.57 0 09:39 03.04.2022
2254 Clear 27 1011 65 10000 2.06 190 08:40 03.04.2022
2255 Mist 21 1010 100 3000 2.06 0 05:42 03.04.2022
2256 Haze 23 1009 88 5000 2.57 190 02:53 03.04.2022
2257 Clear 25 1009 83 9000 2.57 190 23:22 02.04.2022
2258 Clear 25 1009 78 10000 1.54 210 22:38 02.04.2022
2259 Clear 26 1010 73 10000 1.54 320 21:49 02.04.2022
2260 Clear 26 1010 73 10000 1.54 320 21:19 02.04.2022
2261 Clear 27 1010 65 10000 2.57 330 20:29 02.04.2022
2262 Clear 27 1009 65 10000 3.6 320 18:27 02.04.2022
2263 Clear 27 1009 69 10000 3.6 320 17:53 02.04.2022
2264 Clear 28 1008 61 10000 6.17 320 16:30 02.04.2022
2265 Clear 30 1008 51 10000 6.17 310 15:23 02.04.2022
2266 Clear 30 1009 51 10000 6.69 320 14:51 02.04.2022
2267 Clear 31 1009 48 10000 6.17 310 13:56 02.04.2022
2268 Clear 31 1009 48 10000 6.17 310 13:19 02.04.2022
2269 Clear 32 1011 45 10000 5.14 330 11:54 02.04.2022
2270 Clear 30 1012 45 10000 1.03 0 09:48 02.04.2022
2271 Clear 23 1012 73 10000 3.6 210 06:58 02.04.2022
2272 Clear 21 1010 78 8000 2.57 200 03:55 02.04.2022
2273 Clear 23 1010 78 8000 2.57 200 00:27 02.04.2022
2274 Clear 24 1011 73 10000 2.57 180 23:53 01.04.2022
2275 Clear 23 1011 78 10000 2.06 230 22:24 01.04.2022
2276 Clear 25 1012 73 10000 2.06 240 20:54 01.04.2022
2277 Clear 25 1012 73 10000 2.06 240 20:32 01.04.2022
2278 Clear 25 1011 73 10000 2.57 270 19:39 01.04.2022
2279 Clear 26 1011 65 10000 2.06 290 18:54 01.04.2022
2280 Clear 26 1011 65 10000 2.06 290 18:35 01.04.2022
2281 Clear 27 1010 57 10000 2.57 280 17:36 01.04.2022
2282 Clear 29 1010 45 10000 4.63 280 15:44 01.04.2022
2283 Clear 30 1010 32 10000 5.14 290 14:47 01.04.2022
2284 Clear 31 1011 30 10000 5.66 320 13:38 01.04.2022
2285 Clear 32 1011 25 10000 5.14 300 12:33 01.04.2022
2286 Clear 33 1012 17 10000 4.63 300 11:45 01.04.2022
2287 Clear 32 1013 27 10000 2.57 260 10:41 01.04.2022
2288 Clear 30 1013 39 10000 2.57 0 09:34 01.04.2022
2289 Clear 23 1014 73 8000 3.09 180 07:19 01.04.2022
2290 Fog 18 1012 100 500 2.57 210 04:56 01.04.2022
2291 Fog 18 1012 100 500 2.57 210 04:37 01.04.2022
2292 Fog 19 1012 100 200 2.06 200 02:32 01.04.2022
2293 Haze 22 1012 88 5000 2.06 180 01:31 01.04.2022
2294 Clear 24 1013 83 10000 2.57 180 22:23 31.03.2022
2295 Clear 25 1013 78 10000 2.06 230 21:37 31.03.2022
2296 Clear 25 1013 78 10000 2.57 290 20:50 31.03.2022
2297 Clear 25 1013 78 10000 2.57 290 20:28 31.03.2022
2298 Clear 25 1013 73 10000 3.6 290 19:18 31.03.2022
2299 Clear 26 1012 65 10000 3.6 270 18:31 31.03.2022
2300 Clear 28 1011 51 10000 5.66 330 16:46 31.03.2022
2301 Clear 29 1011 45 10000 5.14 330 15:54 31.03.2022
2302 Clear 29 1011 45 10000 5.14 330 15:23 31.03.2022
2303 Clear 30 1011 39 10000 5.66 320 14:44 31.03.2022
2304 Clear 30 1011 39 10000 5.66 330 13:27 31.03.2022
2305 Clear 31 1012 30 10000 4.12 340 11:30 31.03.2022
2306 Clear 27 1014 55 10000 4.11 276 10:19 31.03.2022
2307 Clear 29 1014 54 10000 1.03 0 09:19 31.03.2022
2308 Haze 23 1014 78 5000 2.57 170 07:31 31.03.2022
2309 Clear 23 1011 78 10000 1.03 0 01:27 31.03.2022
2310 Clear 23 1012 78 10000 2.57 340 23:23 30.03.2022
2311 Clear 25 1013 69 10000 3.09 330 21:50 30.03.2022
2312 Clear 25 1013 69 10000 3.09 330 21:27 30.03.2022
2313 Clear 25 1013 69 10000 2.06 350 20:22 30.03.2022
2314 Clear 25 1012 65 10000 3.09 340 19:38 30.03.2022
2315 Clear 25 1012 65 10000 2.06 320 18:40 30.03.2022
2316 Clear 25 1012 65 10000 3.6 340 17:49 30.03.2022
2317 Clear 26 1011 57 10000 4.63 330 16:58 30.03.2022
2318 Clear 26 1011 57 10000 4.63 330 16:38 30.03.2022
2319 Clear 27 1011 54 10000 5.66 330 15:38 30.03.2022
2320 Clear 27 1011 54 10000 5.14 340 14:18 30.03.2022
2321 Clear 27 1012 50 10000 5.66 340 13:19 30.03.2022
2322 Clear 27 1013 54 10000 5.66 320 11:40 30.03.2022
2323 Clear 27 1014 50 10000 3.6 350 10:37 30.03.2022
2324 Clear 26 1015 47 10000 1.54 0 09:27 30.03.2022
2325 Clear 22 1015 68 10000 1.03 0 07:59 30.03.2022
2326 Clear 18 1014 77 10000 1.54 170 05:41 30.03.2022
2327 Clear 19 1013 72 10000 1.54 160 04:54 30.03.2022
2328 Clear 21 1014 68 10000 2.57 190 00:43 30.03.2022
2329 Clear 22 1015 64 10000 3.09 260 22:35 29.03.2022
2330 Clear 22 1015 64 10000 3.6 280 21:46 29.03.2022
2331 Clear 23 1015 60 10000 3.6 270 20:54 29.03.2022
2332 Clear 23 1015 60 10000 3.6 270 20:20 29.03.2022
2333 Clear 23 1014 60 10000 3.6 270 18:57 29.03.2022
2334 Clear 23 1014 60 10000 3.6 270 18:36 29.03.2022
2335 Clear 24 1013 57 10000 6.17 300 17:37 29.03.2022
2336 Clear 24 1013 57 10000 6.17 290 16:58 29.03.2022
2337 Clear 24 1013 57 10000 6.17 290 16:58 29.03.2022
2338 Clear 26 1013 50 10000 5.14 280 15:58 29.03.2022
2339 Clear 26 1013 50 10000 6.17 290 14:53 29.03.2022
2340 Clear 26 1013 50 10000 6.17 290 14:18 29.03.2022
2341 Clear 27 1014 44 10000 5.14 300 12:55 29.03.2022
2342 Clear 27 1015 47 10000 5.14 320 11:44 29.03.2022
2343 Clear 26 1016 50 10000 4.63 310 10:55 29.03.2022
2344 Clear 25 1016 53 10000 5.66 310 09:49 29.03.2022
2345 Clear 25 1016 53 10000 5.66 310 09:49 29.03.2022
2346 Clear 24 1015 53 10000 4.63 320 07:57 29.03.2022
2347 Clear 19 1014 72 10000 3.6 190 04:47 29.03.2022
2348 Clear 20 1015 73 10000 3.6 200 00:36 29.03.2022
2349 Clear 22 1015 64 10000 3.09 240 23:24 28.03.2022
2350 Clear 23 1016 60 10000 3.6 250 22:53 28.03.2022
2351 Clear 23 1016 60 10000 3.6 250 22:26 28.03.2022
2352 Clear 23 1016 60 10000 4.12 280 20:58 28.03.2022
2353 Clear 23 1016 60 10000 4.12 280 20:23 28.03.2022
2354 Clear 23 1016 60 10000 4.12 260 19:44 28.03.2022
2355 Clear 23 1016 60 10000 4.12 260 19:25 28.03.2022
2356 Clear 23 1015 60 10000 4.12 270 18:37 28.03.2022
2357 Clear 24 1015 57 10000 5.66 270 17:39 28.03.2022
2358 Clear 24 1014 57 10000 6.69 280 16:21 28.03.2022
2359 Clear 26 1014 50 10000 6.69 280 14:47 28.03.2022
2360 Clear 24 1014 52 10000 9.09 278 14:21 28.03.2022
2361 Clear 26 1015 47 10000 7.72 290 12:20 28.03.2022
2362 Clear 25 1016 50 10000 6.69 280 11:24 28.03.2022
2363 Clear 25 1017 53 10000 7.2 290 09:43 28.03.2022
2364 Clear 25 1017 53 10000 7.2 290 09:19 28.03.2022
2365 Clear 24 1017 57 10000 6.17 280 08:22 28.03.2022
2366 Clear 24 1017 57 10000 5.14 250 07:28 28.03.2022
2367 Clear 23 1015 68 10000 3.6 270 03:44 28.03.2022
2368 Clear 23 1016 64 10000 4.12 270 23:29 27.03.2022
2369 Clear 23 1016 68 10000 4.12 280 22:24 27.03.2022
2370 Clear 24 1016 64 10000 4.63 270 21:41 27.03.2022
2371 Clear 24 1016 64 10000 5.14 270 20:54 27.03.2022
2372 Clear 24 1016 64 10000 5.14 270 20:54 27.03.2022
2373 Clear 24 1016 64 10000 5.14 270 20:54 27.03.2022
2374 Clear 24 1016 64 10000 5.14 280 19:47 27.03.2022
2375 Clear 24 1016 64 10000 5.14 280 19:20 27.03.2022
2376 Clear 24 1015 64 10000 4.12 270 18:27 27.03.2022
2377 Clear 24 1015 64 10000 4.12 270 18:27 27.03.2022
2378 Clear 25 1015 57 10000 5.14 280 17:38 27.03.2022
2379 Clear 25 1014 57 10000 5.66 290 16:21 27.03.2022
2380 Clear 24 1014 55 10000 7.74 278 15:18 27.03.2022
2381 Clear 28 1014 47 10000 6.69 310 13:55 27.03.2022
2382 Clear 28 1015 44 10000 6.17 310 12:24 27.03.2022
2383 Clear 27 1016 54 10000 7.2 310 10:53 27.03.2022
2384 Clear 27 1016 50 10000 5.66 320 08:43 27.03.2022
2385 Clear 23 1015 68 10000 2.57 240 05:54 27.03.2022
2386 Clear 24 1013 69 10000 2.06 220 00:47 27.03.2022
2387 Clear 25 1013 65 10000 2.06 240 23:34 26.03.2022
2388 Clear 25 1013 65 10000 2.57 230 22:36 26.03.2022
2389 Clear 25 1014 65 10000 3.09 230 21:33 26.03.2022
2390 Clear 26 1014 61 10000 2.57 230 20:20 26.03.2022
2391 Clear 26 1014 57 10000 2.57 250 19:19 26.03.2022
2392 Clear 27 1013 54 10000 3.6 290 17:51 26.03.2022
2393 Clear 27 1013 54 10000 3.6 290 17:30 26.03.2022
2394 Clear 27 1012 50 10000 4.63 300 16:25 26.03.2022
2395 Clear 25 1012 67 10000 4.72 278 14:51 26.03.2022
2396 Clear 29 1011 51 10000 6.69 310 13:52 26.03.2022
2397 Clear 30 1011 37 10000 5.66 310 12:44 26.03.2022
2398 Clear 31 1012 33 10000 4.63 290 11:29 26.03.2022
2399 Clear 31 1013 48 10000 4.63 300 09:23 26.03.2022
2400 Clear 30 1013 45 10000 1.03 0 08:28 26.03.2022
2401 Clear 25 1012 73 10000 2.57 270 05:54 26.03.2022
2402 Clear 25 1010 83 9000 2.57 270 03:59 26.03.2022
2403 Clear 27 1009 28 10000 2.57 230 23:39 25.03.2022
2404 Clear 28 1009 23 10000 1.54 220 21:28 25.03.2022
2405 Clear 30 1009 20 10000 2.06 120 20:45 25.03.2022
2406 Clear 30 1009 20 10000 2.06 100 19:28 25.03.2022
2407 Clear 31 1009 23 10000 2.06 100 18:46 25.03.2022
2408 Clear 31 1009 23 10000 2.06 100 18:46 25.03.2022
2409 Clear 31 1008 20 10000 3.09 40 17:35 25.03.2022
2410 Clear 32 1008 19 10000 3.6 20 16:41 25.03.2022
2411 Clear 32 1008 19 10000 3.6 20 16:41 25.03.2022
2412 Clear 33 1007 18 10000 3.6 30 15:52 25.03.2022
2413 Clear 34 1007 22 10000 5.66 350 13:58 25.03.2022
2414 Clear 35 1007 24 10000 7.2 330 12:32 25.03.2022
2415 Clear 39 1008 7 10000 3.6 160 09:52 25.03.2022
2416 Clear 39 1008 7 10000 3.6 160 09:23 25.03.2022
2417 Clear 34 1010 12 10000 2.06 0 07:51 25.03.2022
2418 Clear 34 1010 12 10000 2.06 0 07:23 25.03.2022
2419 Clear 27 1008 26 8000 2.06 150 05:23 25.03.2022
2420 Clear 26 1007 28 10000 5.66 110 00:33 25.03.2022
2421 Clear 25 1009 41 10000 2.06 110 22:30 24.03.2022
2422 Clear 25 1009 44 10000 2.57 100 21:34 24.03.2022
2423 Clear 28 1010 32 10000 2.06 40 19:50 24.03.2022
2424 Clear 28 1009 39 10000 2.06 360 18:54 24.03.2022
2425 Clear 29 1009 39 10000 2.57 340 17:45 24.03.2022
2426 Clear 30 1008 32 10000 3.6 330 16:54 24.03.2022
2427 Clear 32 1008 20 10000 5.66 320 15:19 24.03.2022
2428 Clear 33 1008 21 10000 5.66 340 14:42 24.03.2022
2429 Clear 34 1007 20 10000 5.66 340 13:59 24.03.2022
2430 Clear 35 1007 18 10000 5.66 330 12:42 24.03.2022
2431 Clear 37 1008 10 10000 5.14 340 11:33 24.03.2022
2432 Clear 36 1010 11 10000 2.57 80 09:48 24.03.2022
2433 Clear 34 1011 12 10000 1.54 180 08:40 24.03.2022
2434 Clear 29 1011 17 9000 2.06 160 06:44 24.03.2022
2435 Clear 23 1009 35 10000 1.54 150 01:43 24.03.2022
2436 Clear 25 1010 41 10000 1.54 160 22:37 23.03.2022
2437 Clear 26 1011 34 10000 1.54 60 21:25 23.03.2022
2438 Clear 26 1011 34 10000 1.54 60 21:25 23.03.2022
2439 Clear 26 1011 34 10000 1.54 60 21:25 23.03.2022
2440 Clear 26 1011 36 10000 2.06 0 20:47 23.03.2022
2441 Clear 27 1011 42 10000 1.54 0 19:45 23.03.2022
2442 Clear 28 1011 47 10000 3.6 340 18:30 23.03.2022
2443 Clear 29 1010 26 10000 2.57 360 17:36 23.03.2022
2444 Clear 30 1009 19 10000 4.12 320 16:20 23.03.2022
2445 Clear 32 1009 13 10000 4.12 340 14:50 23.03.2022
2446 Clear 32 1009 13 10000 4.12 340 14:21 23.03.2022
2447 Clear 33 1009 14 10000 4.63 340 12:24 23.03.2022
2448 Clear 34 1011 9 10000 3.6 350 09:38 23.03.2022
2449 Clear 28 1012 28 10000 1.03 0 06:40 23.03.2022
2450 Clear 21 1010 53 10000 1.03 0 03:58 23.03.2022
2451 Clear 22 1009 53 10000 1.03 0 00:29 23.03.2022
2452 Clear 23 1010 69 10000 1.54 110 22:26 22.03.2022
2453 Clear 24 1010 69 10000 0.51 0 21:29 22.03.2022
2454 Clear 24 1011 69 10000 2.06 330 20:39 22.03.2022
2455 Clear 25 1010 44 10000 2.06 350 19:31 22.03.2022
2456 Clear 25 1010 44 10000 2.06 350 19:31 22.03.2022
2457 Clear 26 1010 41 10000 2.06 350 18:57 22.03.2022
2458 Clear 27 1009 36 10000 2.06 270 17:58 22.03.2022
2459 Clear 27 1009 36 10000 2.06 270 17:25 22.03.2022
2460 Clear 29 1008 37 10000 4.63 330 15:54 22.03.2022
2461 Clear 29 1008 37 10000 4.63 330 15:22 22.03.2022
2462 Clear 30 1008 32 10000 5.14 330 14:46 22.03.2022
2463 Clear 30 1008 32 10000 5.14 330 14:25 22.03.2022
2464 Clear 31 1008 42 10000 4.63 330 12:46 22.03.2022
2465 Clear 30 1009 54 10000 5.14 320 11:36 22.03.2022
2466 Clear 31 1010 29 10000 3.09 270 10:23 22.03.2022
2467 Clear 25 1011 65 8000 1.03 0 07:48 22.03.2022
2468 Clouds 21 1010 73 7000 1.54 210 05:19 22.03.2022
2469 Clear 19 1009 77 10000 1.54 230 03:38 22.03.2022
2470 Clear 22 1009 78 10000 1.54 230 23:41 21.03.2022
2471 Clear 23 1009 78 10000 1.54 230 21:58 21.03.2022
2472 Clear 24 1010 61 10000 1.03 0 20:45 21.03.2022
2473 Clear 24 1010 61 10000 1.03 0 20:26 21.03.2022
2474 Clear 24 1009 65 10000 2.06 150 19:53 21.03.2022
2475 Clear 24 1009 65 10000 2.06 150 19:23 21.03.2022
2476 Clear 26 1009 53 10000 0.51 0 17:45 21.03.2022
2477 Clear 26 1009 53 10000 0.51 0 17:18 21.03.2022
2478 Clear 26 1009 47 10000 1.54 40 16:37 21.03.2022
2479 Clear 26 1009 57 10000 2.57 350 15:47 21.03.2022
2480 Clear 27 1009 47 10000 5.66 330 14:51 21.03.2022
2481 Clear 29 1008 34 10000 5.66 320 13:43 21.03.2022
2482 Clear 27 1009 50 10000 6.17 320 12:33 21.03.2022
2483 Clear 27 1010 54 10000 5.14 310 11:44 21.03.2022
2484 Clear 27 1010 54 10000 6.69 300 10:20 21.03.2022
2485 Clear 26 1011 47 10000 2.57 110 08:26 21.03.2022
2486 Haze 20 1011 77 5000 2.57 150 06:36 21.03.2022
2487 Mist 19 1009 94 1500 3.09 200 02:40 21.03.2022
2488 Clear 21 1009 88 10000 2.57 190 23:40 20.03.2022
2489 Clouds 22 1009 83 10000 2.06 200 22:43 20.03.2022
2490 Clouds 22 1010 78 10000 1.54 240 21:49 20.03.2022
2491 Clouds 22 1010 78 10000 1.54 240 21:20 20.03.2022
2492 Clouds 23 1010 78 10000 2.06 230 20:42 20.03.2022
2493 Clouds 23 1010 78 10000 3.09 270 19:57 20.03.2022
2494 Clouds 23 1010 78 10000 3.09 270 19:26 20.03.2022
2495 Clear 24 1009 73 10000 4.12 280 17:51 20.03.2022
2496 Clear 24 1009 73 10000 4.12 280 17:29 20.03.2022
2497 Clear 24 1009 69 10000 4.63 280 16:46 20.03.2022
2498 Clear 27 1008 54 10000 5.66 290 14:54 20.03.2022
2499 Clear 27 1008 54 10000 5.66 280 13:46 20.03.2022
2500 Clear 27 1009 54 10000 4.63 290 12:22 20.03.2022
2501 Clear 27 1010 50 10000 4.63 290 10:42 20.03.2022
2502 Clear 24 1012 60 10000 3.09 240 08:37 20.03.2022
2503 Clear 21 1012 68 10000 3.6 160 06:55 20.03.2022
2504 Clear 18 1011 77 10000 2.57 170 03:59 20.03.2022
2505 Clear 19 1011 72 10000 3.09 200 00:59 20.03.2022
2506 Clear 19 1011 72 10000 3.09 200 00:36 20.03.2022
2507 Clear 20 1011 68 10000 3.09 180 22:56 19.03.2022
2508 Clear 22 1012 64 10000 2.06 210 21:27 19.03.2022
2509 Clear 22 1012 64 10000 3.09 260 20:19 19.03.2022
2510 Clear 23 1012 60 10000 3.09 250 18:44 19.03.2022
2511 Clear 23 1012 60 10000 3.09 250 18:23 19.03.2022
2512 Clear 23 1012 60 10000 4.12 260 17:34 19.03.2022
2513 Clear 24 1011 57 10000 5.14 270 15:43 19.03.2022
2514 Clear 25 1011 53 10000 5.14 270 14:30 19.03.2022
2515 Clear 26 1012 47 10000 5.14 270 12:56 19.03.2022
2516 Clear 26 1012 47 10000 5.14 270 12:38 19.03.2022
2517 Clouds 25 1013 50 10000 6.17 290 11:49 19.03.2022
2518 Clouds 24 1014 53 10000 5.14 270 10:41 19.03.2022
2519 Clear 19 1014 72 10000 3.6 210 05:59 19.03.2022
2520 Clouds 21 1013 64 10000 3.6 270 02:48 19.03.2022
2521 Clouds 21 1013 64 10000 5.66 280 01:32 19.03.2022
2522 Clouds 21 1014 64 10000 5.14 280 23:26 18.03.2022
2523 Clouds 21 1014 64 10000 6.17 280 22:25 18.03.2022
2524 Clouds 21 1015 64 10000 5.66 270 20:56 18.03.2022
2525 Clouds 22 1015 64 10000 4.63 280 19:49 18.03.2022
2526 Clouds 22 1015 64 10000 4.63 280 19:19 18.03.2022
2527 Clear 22 1014 60 10000 5.14 270 17:27 18.03.2022
2528 Clear 22 1014 60 10000 5.66 280 16:45 18.03.2022
2529 Clear 24 1013 50 10000 7.2 280 14:37 18.03.2022
2530 Clear 24 1013 50 10000 7.2 280 14:18 18.03.2022
2531 Clear 23 1013 51 10000 9.28 281 12:19 18.03.2022
2532 Clear 24 1015 50 10000 6.69 290 10:38 18.03.2022
2533 Clouds 24 1016 53 10000 7.2 280 09:21 18.03.2022
2534 Clouds 23 1016 56 10000 6.17 290 07:45 18.03.2022
2535 Clouds 22 1015 60 10000 4.63 270 05:39 18.03.2022
2536 Clouds 21 1014 64 10000 4.63 270 02:44 18.03.2022
2537 Clouds 21 1014 64 10000 4.63 280 00:21 18.03.2022
2538 Clouds 22 1014 60 10000 5.66 280 22:54 17.03.2022
2539 Clouds 22 1014 60 10000 5.66 280 22:21 17.03.2022
2540 Clouds 22 1015 64 10000 5.66 280 21:47 17.03.2022
2541 Clouds 22 1015 64 10000 5.66 280 21:18 17.03.2022
2542 Clouds 22 1015 64 10000 6.17 280 20:30 17.03.2022
2543 Clear 23 1014 60 10000 5.14 270 19:39 17.03.2022
2544 Clear 23 1014 64 10000 5.14 260 18:55 17.03.2022
2545 Clear 23 1014 64 10000 4.12 260 17:47 17.03.2022
2546 Clear 23 1013 64 10000 5.66 270 16:30 17.03.2022
2547 Clear 23 1013 64 10000 6.69 280 15:43 17.03.2022
2548 Clear 23 1013 64 10000 6.69 280 15:21 17.03.2022
2549 Clear 25 1012 57 10000 7.72 280 13:48 17.03.2022
2550 Clear 25 1012 57 10000 7.2 280 12:48 17.03.2022
2551 Clear 26 1013 53 8000 7.2 280 11:47 17.03.2022
2552 Clear 26 1013 53 8000 7.2 280 11:22 17.03.2022
2553 Clear 26 1014 57 10000 4.63 260 09:41 17.03.2022
2554 Clouds 25 1014 61 10000 5.14 280 08:21 17.03.2022
2555 Clouds 24 1014 69 10000 4.12 280 06:18 17.03.2022
2556 Clouds 24 1013 69 10000 4.12 280 05:25 17.03.2022
2557 Clouds 25 1009 78 8000 7.72 300 00:33 17.03.2022
2558 Clear 26 1008 78 9000 4.63 290 22:58 16.03.2022
2559 Clear 26 1008 78 9000 4.63 290 22:37 16.03.2022
2560 Clear 29 1008 32 10000 1.54 250 21:58 16.03.2022
2561 Clear 29 1008 32 10000 1.54 250 21:18 16.03.2022
2562 Clear 29 1008 32 10000 1.54 250 21:18 16.03.2022
2563 Clear 29 1008 32 10000 1.54 100 19:25 16.03.2022
2564 Clear 28 1008 39 10000 2.57 90 18:43 16.03.2022
2565 Clear 28 1008 39 10000 2.57 90 18:18 16.03.2022
2566 Clear 29 1007 42 10000 2.57 340 17:36 16.03.2022
2567 Clear 30 1007 37 10000 4.12 340 16:49 16.03.2022
2568 Clear 32 1007 23 10000 7.72 320 15:35 16.03.2022
2569 Clear 36 1007 13 10000 7.2 290 13:41 16.03.2022
2570 Clear 37 1007 12 10000 6.17 280 12:57 16.03.2022
2571 Clear 37 1008 12 10000 7.2 290 11:26 16.03.2022
2572 Clear 37 1008 12 10000 4.12 240 10:43 16.03.2022
2573 Clear 37 1009 14 10000 4.12 250 09:58 16.03.2022
2574 Clear 35 1010 15 10000 3.6 170 08:33 16.03.2022
2575 Clear 24 1008 50 10000 1.54 90 03:30 16.03.2022
2576 Clear 25 1008 61 10000 1.54 110 23:37 15.03.2022
2577 Clear 26 1009 54 10000 2.57 110 22:36 15.03.2022
2578 Clear 26 1010 61 10000 2.57 100 21:27 15.03.2022
2579 Clear 27 1010 57 10000 2.57 100 19:47 15.03.2022
2580 Clear 28 1010 48 10000 2.57 340 18:35 15.03.2022
2581 Clear 29 1009 54 8000 4.63 320 16:42 15.03.2022
2582 Clear 31 1009 45 10000 4.63 340 15:42 15.03.2022
2583 Clear 34 1009 27 10000 4.63 340 14:54 15.03.2022
2584 Clear 37 1009 13 10000 5.66 340 13:57 15.03.2022
2585 Clear 37 1009 13 10000 5.66 340 13:24 15.03.2022
2586 Clear 37 1010 12 10000 5.66 360 11:34 15.03.2022
2587 Clear 38 1011 12 10000 5.14 350 10:55 15.03.2022
2588 Clear 37 1012 13 10000 1.54 60 09:29 15.03.2022
2589 Clear 35 1013 17 10000 2.06 50 08:27 15.03.2022
2590 Clear 32 1013 25 10000 1.03 0 07:38 15.03.2022
2591 Clear 28 1013 42 10000 1.54 160 06:32 15.03.2022
2592 Clear 24 1011 69 10000 2.06 150 01:57 15.03.2022
2593 Clear 26 1011 65 10000 1.54 120 23:31 14.03.2022
2594 Clear 26 1012 65 10000 1.54 100 22:52 14.03.2022
2595 Clear 26 1012 65 10000 2.06 80 21:55 14.03.2022
2596 Clear 27 1012 57 10000 1.54 80 20:59 14.03.2022
2597 Clear 27 1012 57 10000 1.54 80 20:28 14.03.2022
2598 Clear 26 1013 65 10000 1.03 0 19:32 14.03.2022
2599 Clear 27 1012 69 10000 3.6 340 17:58 14.03.2022
2600 Clear 27 1012 69 10000 3.6 340 17:58 14.03.2022
2601 Clear 27 1012 69 10000 3.6 340 17:40 14.03.2022
2602 Clear 27 1011 69 10000 4.12 330 16:33 14.03.2022
2603 Clear 30 1011 51 10000 5.66 330 14:52 14.03.2022
2604 Clear 31 1011 48 10000 6.17 330 13:57 14.03.2022
2605 Clear 35 1012 24 10000 6.17 320 11:26 14.03.2022
2606 Clear 36 1013 15 10000 1.54 150 09:57 14.03.2022
2607 Clear 36 1013 15 10000 1.54 150 09:35 14.03.2022
2608 Clear 34 1014 15 10000 2.06 170 08:58 14.03.2022
2609 Clear 34 1014 15 10000 2.06 170 08:28 14.03.2022
2610 Clear 28 1014 26 10000 1.03 0 06:47 14.03.2022
2611 Clear 26 1011 26 10000 1.54 130 02:59 14.03.2022
2612 Clear 26 1011 26 10000 2.06 110 01:39 14.03.2022
2613 Clear 27 1011 26 10000 2.06 80 00:29 14.03.2022
2614 Clear 28 1012 26 10000 1.54 100 21:49 13.03.2022
2615 Clear 28 1012 26 10000 1.54 100 21:21 13.03.2022
2616 Clear 29 1012 25 10000 1.54 120 20:46 13.03.2022
2617 Clear 29 1012 25 10000 1.54 120 20:22 13.03.2022
2618 Clear 28 1012 30 10000 1.54 120 19:42 13.03.2022
2619 Clear 28 1012 30 10000 1.54 120 19:22 13.03.2022
2620 Clear 28 1012 30 10000 1.54 120 19:22 13.03.2022
2621 Clear 28 1012 32 10000 1.54 90 18:45 13.03.2022
2622 Clear 28 1012 32 10000 1.54 90 18:25 13.03.2022
2623 Clear 29 1011 32 10000 2.57 30 17:36 13.03.2022
2624 Clear 31 1011 30 10000 2.57 340 16:45 13.03.2022
2625 Clear 31 1011 30 10000 2.57 340 16:21 13.03.2022
2626 Clear 31 1011 27 10000 4.63 340 15:39 13.03.2022
2627 Clear 32 1010 31 10000 4.12 320 14:36 13.03.2022
2628 Clear 33 1010 21 10000 5.14 320 13:28 13.03.2022
2629 Clear 33 1010 21 10000 5.66 320 12:22 13.03.2022
2630 Clear 34 1011 22 10000 5.66 330 11:38 13.03.2022
2631 Clear 35 1012 24 10000 4.12 330 10:49 13.03.2022
2632 Clear 35 1012 24 10000 4.12 330 10:25 13.03.2022
2633 Clear 34 1013 16 10000 2.57 250 09:42 13.03.2022
2634 Clear 33 1013 17 10000 3.09 0 08:49 13.03.2022
2635 Clear 33 1013 17 10000 3.09 0 08:49 13.03.2022
2636 Clear 33 1013 17 10000 3.09 0 08:29 13.03.2022
2637 Clear 30 1013 23 10000 3.09 200 06:40 13.03.2022
2638 Clear 24 1012 24 10000 1.54 180 04:51 13.03.2022
2639 Clear 26 1009 22 10000 1.03 0 01:46 13.03.2022
2640 Clear 27 1010 21 10000 1.03 180 22:51 12.03.2022
2641 Clear 28 1011 17 10000 2.06 110 21:32 12.03.2022
2642 Clear 30 1011 16 10000 3.09 120 20:19 12.03.2022
2643 Clear 30 1011 19 10000 3.09 130 19:44 12.03.2022
2644 Clear 30 1011 20 10000 2.57 100 18:37 12.03.2022
2645 Clear 31 1011 19 10000 2.06 60 17:48 12.03.2022
2646 Clear 32 1010 16 10000 2.57 30 16:28 12.03.2022
2647 Clear 33 1010 16 10000 4.12 360 15:40 12.03.2022
2648 Clear 33 1010 16 10000 4.12 360 15:18 12.03.2022
2649 Clear 33 1010 22 10000 6.69 330 13:53 12.03.2022
2650 Clear 34 1010 22 10000 7.2 330 12:27 12.03.2022
2651 Clear 33 1011 27 10000 6.69 320 11:52 12.03.2022
2652 Clear 33 1011 27 10000 6.69 320 11:20 12.03.2022
2653 Clear 36 1011 19 10000 5.66 320 09:59 12.03.2022
2654 Clear 36 1012 11 10000 4.12 240 09:40 12.03.2022
2655 Clear 33 1013 17 10000 3.09 210 07:51 12.03.2022
2656 Clear 26 1012 41 10000 2.57 190 05:44 12.03.2022
2657 Clear 26 1010 47 10000 1.54 160 00:26 12.03.2022
2658 Clear 27 1010 39 10000 3.6 120 23:37 11.03.2022
2659 Clear 27 1011 30 10000 1.54 110 21:55 11.03.2022
2660 Clear 28 1011 26 10000 2.57 100 20:59 11.03.2022
2661 Clear 28 1011 26 10000 2.57 100 20:40 11.03.2022
2662 Clear 28 1011 26 10000 2.57 100 20:19 11.03.2022
2663 Clear 29 1012 23 10000 3.09 70 19:28 11.03.2022
2664 Clear 30 1011 25 10000 4.12 80 17:38 11.03.2022
2665 Clear 30 1011 25 10000 4.12 80 17:19 11.03.2022
2666 Clear 32 1010 22 10000 4.63 20 15:57 11.03.2022
2667 Clear 33 1010 24 10000 5.66 20 14:22 11.03.2022
2668 Clear 33 1010 25 10000 7.72 330 13:27 11.03.2022
2669 Clear 37 1009 18 10000 6.17 340 12:23 11.03.2022
2670 Clear 38 1010 11 10000 4.12 220 11:56 11.03.2022
2671 Clear 37 1011 12 10000 4.63 210 10:24 11.03.2022
2672 Clear 36 1012 14 10000 5.14 200 09:27 11.03.2022
2673 Clear 34 1013 15 10000 5.66 210 08:25 11.03.2022
2674 Clear 33 1013 16 10000 6.69 180 07:46 11.03.2022
2675 Clear 31 1013 18 10000 3.09 0 06:22 11.03.2022
2676 Clear 25 1012 29 10000 1.03 210 04:24 11.03.2022
2677 Clear 26 1010 44 10000 1.54 150 00:21 11.03.2022
2678 Clear 27 1010 32 10000 3.09 100 22:31 10.03.2022
2679 Clear 28 1011 28 10000 2.57 100 21:50 10.03.2022
2680 Clear 28 1011 28 10000 2.57 100 21:23 10.03.2022
2681 Clear 29 1011 26 10000 3.09 70 19:51 10.03.2022
2682 Clear 29 1011 26 10000 2.57 80 18:56 10.03.2022
2683 Clear 29 1010 28 10000 3.09 80 17:36 10.03.2022
2684 Clear 31 1010 29 10000 3.09 50 16:31 10.03.2022
2685 Clear 32 1010 25 10000 3.6 20 15:26 10.03.2022
2686 Clear 33 1009 25 10000 5.14 340 13:30 10.03.2022
2687 Clear 33 1009 24 10000 5.14 340 12:34 10.03.2022
2688 Clear 33 1010 27 10000 5.66 330 11:20 10.03.2022
2689 Clear 34 1012 20 10000 5.66 260 09:22 10.03.2022
2690 Clear 31 1013 18 10000 3.6 180 07:41 10.03.2022
2691 Clear 23 1012 36 10000 2.06 100 04:47 10.03.2022
2692 Clear 24 1010 41 10000 2.57 140 01:50 10.03.2022
2693 Clear 25 1010 57 10000 2.06 100 23:28 09.03.2022
2694 Clear 26 1011 47 10000 2.06 90 21:51 09.03.2022
2695 Clear 26 1011 47 10000 2.06 90 21:32 09.03.2022
2696 Clear 27 1012 42 10000 3.09 80 19:50 09.03.2022
2697 Clear 27 1012 44 10000 2.06 80 18:34 09.03.2022
2698 Clear 28 1011 44 10000 2.57 60 17:27 09.03.2022
2699 Clear 29 1011 42 10000 3.6 50 16:31 09.03.2022
2700 Clear 29 1010 42 10000 3.09 340 15:19 09.03.2022
2701 Clear 31 1010 37 10000 4.63 330 13:53 09.03.2022
2702 Clear 31 1010 37 10000 5.66 320 12:47 09.03.2022
2703 Clear 32 1010 37 10000 5.66 320 11:53 09.03.2022
2704 Clear 32 1010 37 10000 5.66 320 11:35 09.03.2022
2705 Clear 32 1012 31 10000 4.63 200 09:54 09.03.2022
2706 Clear 31 1013 35 10000 5.14 230 08:51 09.03.2022
2707 Clear 30 1013 37 10000 5.14 200 07:27 09.03.2022
2708 Clear 29 1009 20 10000 5.14 190 02:45 09.03.2022
2709 Clear 29 1008 20 10000 4.12 190 00:41 09.03.2022
2710 Clear 28 1009 42 10000 4.12 160 22:47 08.03.2022
2711 Clear 28 1010 47 10000 4.63 150 21:58 08.03.2022
2712 Clear 28 1010 47 10000 4.63 150 21:23 08.03.2022
2713 Clear 28 1010 42 10000 4.12 140 20:29 08.03.2022
2714 Clear 28 1010 36 10000 2.57 100 19:31 08.03.2022
2715 Clear 28 1010 34 10000 3.6 80 18:44 08.03.2022
2716 Clear 29 1010 37 10000 3.6 60 17:26 08.03.2022
2717 Clouds 30 1009 37 8000 4.63 10 15:19 08.03.2022
2718 Clouds 31 1008 35 8000 4.63 30 14:19 08.03.2022
2719 Dust 33 1008 31 5000 6.17 20 12:43 08.03.2022
2720 Clouds 35 1008 16 6000 6.69 190 11:45 08.03.2022
2721 Clouds 34 1009 20 6000 6.17 200 10:41 08.03.2022
2722 Dust 33 1011 22 5000 7.72 190 09:37 08.03.2022
2723 Clear 29 1012 32 10000 5.14 160 06:34 08.03.2022
2724 Clear 25 1011 34 10000 2.57 80 04:47 08.03.2022
2725 Clear 25 1009 36 10000 2.57 140 23:36 07.03.2022
2726 Clear 26 1010 32 10000 2.57 90 21:50 07.03.2022
2727 Clear 26 1010 32 10000 2.57 90 21:31 07.03.2022
2728 Clear 26 1010 29 10000 3.6 110 20:39 07.03.2022
2729 Clear 25 1010 34 10000 2.57 100 19:55 07.03.2022
2730 Clear 25 1010 34 10000 2.57 100 19:29 07.03.2022
2731 Clear 26 1010 34 10000 2.57 80 18:38 07.03.2022
2732 Clear 27 1010 36 10000 4.12 80 17:41 07.03.2022
2733 Clear 28 1009 39 10000 3.09 60 16:55 07.03.2022
2734 Clear 29 1009 24 8000 4.12 30 15:27 07.03.2022
2735 Clear 33 1008 18 7000 4.63 330 12:48 07.03.2022
2736 Clear 33 1008 18 7000 4.63 330 12:20 07.03.2022
2737 Clear 33 1009 10 8000 3.09 180 10:35 07.03.2022
2738 Clear 30 1011 16 10000 1.54 0 08:35 07.03.2022
2739 Clouds 21 1010 73 6000 2.57 130 02:58 07.03.2022
2740 Clouds 21 1011 78 6000 1.03 0 00:21 07.03.2022
2741 Clouds 21 1011 78 6000 2.57 190 23:28 06.03.2022
2742 Clouds 22 1012 78 6000 2.57 160 22:32 06.03.2022
2743 Clouds 23 1012 64 7000 1.03 0 21:45 06.03.2022
2744 Clouds 23 1012 64 7000 1.03 0 20:29 06.03.2022
2745 Clouds 24 1012 69 7000 3.09 270 19:48 06.03.2022
2746 Clouds 24 1012 73 7000 5.66 310 18:51 06.03.2022
2747 Clouds 25 1011 61 7000 4.12 290 17:49 06.03.2022
2748 Clouds 25 1011 61 7000 4.12 290 17:20 06.03.2022
2749 Clouds 25 1011 69 7000 2.57 270 16:40 06.03.2022
2750 Dust 26 1011 61 5000 5.14 310 15:37 06.03.2022
2751 Clear 28 1010 42 7000 5.66 320 14:48 06.03.2022
2752 Clear 28 1010 42 7000 5.66 320 14:26 06.03.2022
2753 Clouds 29 1011 30 8000 4.63 310 12:40 06.03.2022
2754 Clear 29 1012 34 10000 5.14 300 11:46 06.03.2022
2755 Clear 29 1013 32 10000 4.63 290 10:43 06.03.2022
2756 Clear 30 1013 21 10000 2.06 0 09:21 06.03.2022
2757 Clear 28 1014 36 10000 2.06 0 08:28 06.03.2022
2758 Clear 26 1014 53 10000 2.06 0 07:33 06.03.2022
2759 Clear 21 1012 60 10000 0.51 0 03:18 06.03.2022
2760 Clear 22 1011 46 10000 1.54 240 00:41 06.03.2022
2761 Clear 22 1011 46 10000 1.54 240 00:22 06.03.2022
2762 Clear 23 1011 46 10000 1.03 210 23:19 05.03.2022
2763 Clear 24 1012 41 10000 1.54 80 22:35 05.03.2022
2764 Clear 24 1012 44 10000 2.06 100 21:30 05.03.2022
2765 Clear 24 1013 50 10000 2.06 110 20:38 05.03.2022
2766 Clear 25 1013 50 10000 2.57 90 19:22 05.03.2022
2767 Clear 25 1013 50 10000 2.57 80 18:48 05.03.2022
2768 Clear 26 1013 47 10000 3.09 340 17:35 05.03.2022
2769 Clear 27 1012 36 10000 4.12 330 16:19 05.03.2022
2770 Clear 29 1012 23 10000 3.09 300 15:20 05.03.2022
2771 Clear 29 1012 23 10000 3.09 300 15:20 05.03.2022
2772 Clear 30 1012 25 10000 4.12 290 14:36 05.03.2022
2773 Clear 30 1012 26 10000 3.6 310 13:44 05.03.2022
2774 Clear 29 1013 32 10000 4.12 350 12:45 05.03.2022
2775 Clear 29 1014 32 10000 4.63 350 11:21 05.03.2022
2776 Clear 29 1015 37 10000 5.14 340 10:52 05.03.2022
2777 Clear 31 1016 25 10000 1.54 0 09:33 05.03.2022
2778 Clear 29 1016 26 10000 3.09 180 08:28 05.03.2022
2779 Clear 27 1016 36 10000 4.12 190 07:22 05.03.2022
2780 Clear 21 1015 64 10000 3.6 170 05:39 05.03.2022
2781 Clear 22 1013 43 10000 2.06 0 00:49 05.03.2022
2782 Clear 23 1014 43 10000 2.06 110 22:58 04.03.2022
2783 Clear 23 1014 43 10000 2.06 110 22:38 04.03.2022
2784 Clear 24 1014 38 10000 2.06 70 21:43 04.03.2022
2785 Clear 24 1015 41 10000 2.57 50 20:42 04.03.2022
2786 Clear 24 1014 41 10000 2.57 60 19:37 04.03.2022
2787 Clear 25 1014 41 10000 2.06 90 18:56 04.03.2022
2788 Clear 25 1014 41 10000 2.06 90 18:33 04.03.2022
2789 Clear 25 1014 44 10000 2.57 70 17:29 04.03.2022
2790 Clear 28 1013 36 10000 2.06 340 15:58 04.03.2022
2791 Clear 28 1013 36 10000 2.06 340 15:25 04.03.2022
2792 Clear 28 1012 39 10000 6.17 330 13:36 04.03.2022
2793 Clear 30 1013 26 10000 5.66 320 12:47 04.03.2022
2794 Clear 31 1013 23 10000 6.69 310 11:37 04.03.2022
2795 Clear 32 1014 12 10000 6.17 210 10:26 04.03.2022
2796 Clear 31 1015 15 10000 5.66 200 09:28 04.03.2022
2797 Clear 25 1016 41 10000 3.09 180 07:48 04.03.2022
2798 Clouds 23 1016 68 6000 3.09 100 06:26 04.03.2022
2799 Clouds 19 1014 88 6000 1.54 70 02:26 04.03.2022
2800 Clouds 20 1014 83 7000 2.06 100 23:41 03.03.2022
2801 Clouds 20 1015 78 8000 2.06 90 22:18 03.03.2022
2802 Clouds 21 1016 78 8000 2.06 60 21:36 03.03.2022
2803 Clear 21 1016 78 10000 3.09 60 20:50 03.03.2022
2804 Clear 22 1016 73 10000 2.57 10 19:34 03.03.2022
2805 Clear 22 1016 73 10000 2.57 350 18:33 03.03.2022
2806 Clear 23 1015 73 10000 4.12 340 17:39 03.03.2022
2807 Clear 23 1015 73 10000 4.12 340 17:18 03.03.2022
2808 Clear 25 1014 53 10000 4.12 350 15:46 03.03.2022
2809 Clear 26 1014 53 10000 4.12 340 14:45 03.03.2022
2810 Clear 26 1014 53 10000 4.12 340 14:27 03.03.2022
2811 Clear 25 1014 61 10000 5.14 340 12:43 03.03.2022
2812 Clear 26 1015 57 10000 4.63 320 11:31 03.03.2022
2813 Clear 26 1016 57 10000 3.6 320 10:38 03.03.2022
2814 Clear 24 1018 57 9000 2.06 340 08:43 03.03.2022
2815 Haze 20 1018 77 5000 1.54 150 06:58 03.03.2022
2816 Haze 20 1018 77 5000 1.54 150 06:23 03.03.2022
2817 Clear 18 1015 82 8000 2.57 170 00:40 03.03.2022
2818 Clear 19 1016 77 10000 1.54 180 23:28 02.03.2022
2819 Clear 20 1016 73 10000 1.54 160 22:44 02.03.2022
2820 Clear 20 1016 78 10000 1.54 40 21:23 02.03.2022
2821 Clear 20 1016 78 10000 1.54 40 21:23 02.03.2022
2822 Clear 21 1017 73 10000 2.06 360 20:30 02.03.2022
2823 Clear 22 1016 73 10000 1.03 0 19:45 02.03.2022
2824 Clear 22 1016 73 10000 1.03 0 19:26 02.03.2022
2825 Clear 22 1017 73 10000 3.09 330 18:39 02.03.2022
2826 Clear 22 1017 73 10000 3.09 330 18:39 02.03.2022
2827 Clear 22 1017 73 10000 3.09 330 18:39 02.03.2022
2828 Clear 23 1016 64 10000 3.6 320 17:45 02.03.2022
2829 Clear 23 1016 68 10000 5.66 320 16:54 02.03.2022
2830 Clear 23 1016 68 10000 5.66 320 16:36 02.03.2022
2831 Clouds 24 1016 64 10000 6.69 310 14:42 02.03.2022
2832 Clear 25 1015 61 10000 6.17 320 13:23 02.03.2022
2833 Clear 25 1015 57 10000 5.14 320 12:40 02.03.2022
2834 Clear 25 1016 57 10000 4.63 330 11:38 02.03.2022
2835 Clear 25 1016 57 10000 4.63 330 11:18 02.03.2022
2836 Clear 25 1018 53 10000 2.06 80 09:41 02.03.2022
2837 Clear 24 1019 57 10000 1.03 0 08:51 02.03.2022
2838 Clear 22 1019 68 10000 2.57 190 07:25 02.03.2022
2839 Clear 18 1018 82 10000 3.09 190 05:43 02.03.2022
2840 Clear 19 1016 77 10000 2.57 240 00:57 02.03.2022
2841 Clear 20 1016 73 10000 3.09 180 23:45 01.03.2022
2842 Clear 20 1017 73 10000 3.09 190 22:42 01.03.2022
2843 Clear 21 1017 68 10000 2.06 190 21:56 01.03.2022
2844 Clear 21 1017 68 10000 2.06 190 21:21 01.03.2022
2845 Clear 22 1017 68 10000 2.57 240 20:24 01.03.2022
2846 Clear 22 1017 64 10000 3.09 270 19:23 01.03.2022
2847 Clear 22 1017 64 10000 4.63 280 18:32 01.03.2022
2848 Clear 22 1017 64 10000 5.14 270 17:55 01.03.2022
2849 Clear 23 1016 60 10000 4.63 270 16:54 01.03.2022
2850 Clear 24 1016 53 10000 4.63 280 15:59 01.03.2022
2851 Clear 24 1016 53 10000 4.63 280 15:23 01.03.2022
2852 Clear 24 1015 53 10000 4.12 280 14:34 01.03.2022
2853 Clear 25 1015 50 10000 4.63 280 13:45 01.03.2022
2854 Clear 25 1015 50 10000 4.63 280 13:22 01.03.2022
2855 Clear 25 1016 50 10000 4.63 0 12:27 01.03.2022
2856 Clouds 25 1017 50 10000 4.63 290 10:27 01.03.2022
2857 Clear 24 1018 57 10000 3.09 280 08:41 01.03.2022
2858 Clouds 23 1019 60 10000 3.6 260 07:40 01.03.2022
2859 Clouds 20 1017 83 10000 2.06 220 04:50 01.03.2022
2860 Clear 21 1016 73 10000 2.06 260 01:43 01.03.2022
2861 Clear 22 1016 73 10000 2.06 230 00:24 01.03.2022
2862 Clear 22 1016 73 10000 2.57 260 23:19 28.02.2022
2863 Clear 23 1017 68 10000 2.57 260 21:59 28.02.2022
2864 Clear 23 1017 68 10000 2.57 260 21:24 28.02.2022
2865 Clear 23 1017 68 10000 3.09 310 19:52 28.02.2022
2866 Clear 23 1017 68 10000 3.09 310 19:27 28.02.2022
2867 Clear 24 1017 69 10000 4.12 330 18:38 28.02.2022
2868 Clear 24 1016 69 10000 4.12 310 17:24 28.02.2022
2869 Clear 24 1015 69 10000 4.12 330 16:33 28.02.2022
2870 Clear 25 1014 69 10000 4.12 350 15:23 28.02.2022
2871 Clear 26 1014 53 10000 4.63 330 14:31 28.02.2022
2872 Clear 26 1015 50 10000 7.2 310 13:34 28.02.2022
2873 Clear 27 1015 54 10000 6.17 320 12:41 28.02.2022
2874 Clear 27 1015 50 10000 4.12 330 11:44 28.02.2022
2875 Clear 27 1016 47 10000 5.66 320 10:48 28.02.2022
2876 Clear 27 1016 47 10000 5.66 320 10:19 28.02.2022
2877 Clear 28 1017 44 10000 2.57 320 09:31 28.02.2022
2878 Clear 27 1017 47 10000 1.54 0 08:29 28.02.2022
2879 Clear 26 1017 61 10000 1.03 0 07:20 28.02.2022
2880 Clear 21 1015 78 8000 2.57 330 04:32 28.02.2022
2881 Clear 22 1015 78 8000 2.57 300 03:58 28.02.2022
2882 Clear 22 1015 57 10000 1.03 0 23:27 27.02.2022
2883 Clear 24 1015 53 10000 1.54 70 22:33 27.02.2022
2884 Clear 24 1015 57 10000 1.54 40 21:51 27.02.2022
2885 Clear 24 1016 53 10000 1.54 100 20:59 27.02.2022
2886 Clear 24 1016 53 10000 1.54 100 20:27 27.02.2022
2887 Clear 25 1016 57 10000 1.03 0 19:57 27.02.2022
2888 Clear 25 1016 57 10000 1.03 0 19:26 27.02.2022
2889 Clear 25 1015 53 10000 2.57 50 18:47 27.02.2022
2890 Clear 26 1015 47 10000 1.54 30 17:55 27.02.2022
2891 Clear 26 1014 47 10000 4.12 340 16:45 27.02.2022
2892 Clear 26 1014 47 10000 4.12 340 16:21 27.02.2022
2893 Clear 28 1013 47 10000 6.69 340 13:25 27.02.2022
2894 Clear 30 1013 39 10000 5.66 320 12:32 27.02.2022
2895 Clear 29 1014 42 10000 6.17 330 10:56 27.02.2022
2896 Clear 29 1014 42 10000 6.17 330 10:19 27.02.2022
2897 Clear 30 1014 37 10000 6.17 340 09:49 27.02.2022
2898 Clear 31 1015 35 10000 3.09 240 09:19 27.02.2022
2899 Clear 26 1016 41 10000 2.06 230 07:37 27.02.2022
2900 Clear 21 1015 49 10000 2.06 130 05:38 27.02.2022
2901 Clear 22 1013 40 10000 2.57 30 01:53 27.02.2022
2902 Clear 22 1013 31 10000 2.06 120 23:22 26.02.2022
2903 Clear 23 1014 31 10000 0 0 21:58 26.02.2022
2904 Clear 23 1014 33 10000 0.51 0 20:59 26.02.2022
2905 Clear 23 1014 33 10000 0.51 0 20:20 26.02.2022
2906 Clear 23 1014 36 10000 3.6 110 19:49 26.02.2022
2907 Clear 23 1014 36 10000 3.6 110 19:26 26.02.2022
2908 Clear 24 1013 44 10000 2.06 80 17:52 26.02.2022
2909 Clear 24 1013 44 10000 2.06 80 17:28 26.02.2022
2910 Clear 27 1013 24 10000 3.6 350 15:57 26.02.2022
2911 Clear 27 1013 24 10000 3.6 350 15:25 26.02.2022
2912 Clear 27 1012 39 10000 5.66 350 14:55 26.02.2022
2913 Clear 27 1012 39 10000 5.66 350 14:36 26.02.2022
2914 Clear 27 1012 44 10000 6.69 340 13:24 26.02.2022
2915 Clear 29 1012 32 10000 6.17 320 12:31 26.02.2022
2916 Clear 30 1013 28 10000 5.66 320 11:29 26.02.2022
2917 Clear 31 1013 30 10000 5.66 330 10:55 26.02.2022
2918 Clear 30 1014 21 10000 2.57 220 09:18 26.02.2022
2919 Clear 25 1015 41 10000 1.54 190 07:43 26.02.2022
2920 Clear 18 1012 77 9000 1.54 130 02:53 26.02.2022
2921 Clear 20 1013 78 10000 1.54 140 23:31 25.02.2022
2922 Clear 21 1014 68 10000 2.06 90 21:48 25.02.2022
2923 Clear 21 1014 68 10000 2.06 90 21:29 25.02.2022
2924 Clear 21 1014 78 10000 2.06 120 20:33 25.02.2022
2925 Clear 22 1015 73 10000 2.06 350 19:39 25.02.2022
2926 Clear 24 1014 57 10000 2.57 30 17:33 25.02.2022
2927 Clear 24 1013 57 10000 2.06 360 16:44 25.02.2022
2928 Clear 24 1013 64 9000 4.63 330 15:48 25.02.2022
2929 Clear 24 1013 64 9000 4.63 330 15:22 25.02.2022
2930 Clear 25 1013 53 9000 5.66 340 14:42 25.02.2022
2931 Clear 26 1013 44 10000 5.66 340 13:58 25.02.2022
2932 Clear 26 1013 44 10000 5.66 340 13:20 25.02.2022
2933 Clear 27 1014 44 10000 5.14 340 11:28 25.02.2022
2934 Clear 28 1015 42 10000 2.06 0 10:48 25.02.2022
2935 Clear 28 1015 42 10000 2.06 0 10:22 25.02.2022
2936 Clear 27 1016 29 10000 1.54 0 09:31 25.02.2022
2937 Clear 23 1017 64 7000 2.57 130 07:44 25.02.2022
2938 Clear 18 1017 82 6000 2.06 100 05:58 25.02.2022
2939 Clear 18 1017 82 6000 2.06 100 05:31 25.02.2022
2940 Clear 19 1015 77 8000 1.54 180 00:30 25.02.2022
2941 Clear 20 1016 73 8000 1.03 0 22:20 24.02.2022
2942 Clear 21 1016 68 8000 1.54 240 21:42 24.02.2022
2943 Clear 21 1016 68 8000 1.54 240 21:20 24.02.2022
2944 Clear 21 1016 68 10000 1.03 210 20:30 24.02.2022
2945 Clear 22 1016 73 10000 1.54 350 18:52 24.02.2022
2946 Clear 22 1016 73 10000 1.54 350 18:19 24.02.2022
2947 Clear 22 1016 73 10000 3.6 340 17:42 24.02.2022
2948 Clear 23 1016 64 10000 4.12 330 16:56 24.02.2022
2949 Clear 23 1016 64 10000 4.12 330 16:25 24.02.2022
2950 Clear 23 1016 64 8000 5.14 330 15:30 24.02.2022
2951 Clear 24 1015 57 8000 5.66 320 14:37 24.02.2022
2952 Clear 25 1015 47 9000 5.14 340 13:42 24.02.2022
2953 Clear 25 1015 47 9000 5.14 340 13:24 24.02.2022
2954 Clear 26 1016 44 7000 2.06 0 10:43 24.02.2022
2955 Clear 25 1017 53 7000 1.54 0 09:40 24.02.2022
2956 Clear 24 1018 57 7000 1.03 0 08:42 24.02.2022
2957 Haze 17 1018 88 4000 2.06 140 05:59 24.02.2022
2958 Mist 17 1018 88 4500 2.57 140 05:36 24.02.2022
2959 Clouds 20 1016 78 7000 1.54 180 23:45 23.02.2022
2960 Clear 20 1016 78 8000 1.54 170 21:55 23.02.2022
2961 Clear 21 1017 73 8000 2.06 360 20:32 23.02.2022
2962 Clear 22 1017 73 8000 2.06 350 19:55 23.02.2022
2963 Clear 22 1016 73 8000 3.09 330 18:57 23.02.2022
2964 Clear 23 1016 68 8000 4.12 320 17:46 23.02.2022
2965 Clear 24 1015 57 7000 4.63 330 15:47 23.02.2022
2966 Clear 25 1014 50 7000 5.14 310 13:34 23.02.2022
2967 Clear 25 1014 50 7000 5.14 320 12:28 23.02.2022
2968 Clear 25 1015 53 6000 3.09 290 10:55 23.02.2022
2969 Clear 24 1016 53 6000 2.06 250 09:31 23.02.2022
2970 Clear 23 1017 56 6000 1.03 0 08:28 23.02.2022
2971 Clear 22 1017 60 6000 2.57 150 07:19 23.02.2022
2972 Clouds 18 1014 77 8000 2.57 190 02:22 23.02.2022
2973 Clouds 19 1014 72 8000 2.06 210 23:46 22.02.2022
2974 Clouds 19 1014 72 8000 2.06 210 23:28 22.02.2022
2975 Clouds 20 1015 64 10000 2.57 260 21:59 22.02.2022
2976 Clouds 20 1015 64 10000 2.57 260 21:40 22.02.2022
2977 Clouds 20 1015 64 10000 2.57 260 21:19 22.02.2022
2978 Clouds 21 1015 64 9000 2.06 240 20:31 22.02.2022
2979 Clouds 21 1015 60 9000 3.09 260 19:53 22.02.2022
2980 Clouds 21 1015 60 9000 3.09 260 19:33 22.02.2022
2981 Clouds 22 1015 60 9000 3.6 260 18:35 22.02.2022
2982 Clouds 22 1015 56 10000 4.12 280 17:27 22.02.2022
2983 Clouds 22 1014 60 10000 5.14 270 16:55 22.02.2022
2984 Clouds 22 1014 60 10000 6.17 270 15:59 22.02.2022
2985 Clouds 22 1014 60 10000 6.17 270 15:18 22.02.2022
2986 Clouds 23 1013 56 10000 6.17 280 13:37 22.02.2022
2987 Clouds 23 1013 53 10000 6.17 290 11:18 22.02.2022
2988 Clouds 23 1015 56 10000 4.63 290 09:22 22.02.2022
2989 Clouds 22 1015 60 10000 5.66 280 07:28 22.02.2022
2990 Clouds 22 1015 56 10000 4.63 290 06:53 22.02.2022
2991 Clouds 21 1012 60 10000 5.14 280 02:49 22.02.2022
2992 Clouds 20 1013 64 10000 6.69 280 23:18 21.02.2022
2993 Clouds 20 1014 64 8000 6.17 280 21:56 21.02.2022
2994 Clouds 21 1014 60 7000 5.14 280 20:38 21.02.2022
2995 Clouds 21 1013 56 7000 5.66 270 18:47 21.02.2022
2996 Clouds 21 1013 56 7000 5.66 270 18:18 21.02.2022
2997 Dust 22 1012 53 4000 6.17 280 15:49 21.02.2022
2998 Clear 24 1012 43 8000 9.26 290 14:22 21.02.2022
2999 Clear 25 1012 36 10000 9.77 290 13:31 21.02.2022
3000 Clear 25 1012 38 10000 9.26 290 12:41 21.02.2022
3001 Clouds 23 1012 56 10000 10.15 285 12:20 21.02.2022
3002 Clouds 26 1013 41 10000 9.26 300 10:26 21.02.2022
3003 Clear 21 1014 46 10000 6.17 280 05:40 21.02.2022
3004 Clear 22 1011 49 10000 1.54 210 00:35 21.02.2022
3005 Clear 23 1012 41 10000 3.6 120 22:32 20.02.2022
3006 Clear 22 1012 53 10000 2.57 90 21:43 20.02.2022
3007 Clear 22 1012 53 10000 2.57 90 21:21 20.02.2022
3008 Clear 23 1013 53 10000 2.06 90 20:43 20.02.2022
3009 Clear 23 1013 53 10000 2.57 90 19:48 20.02.2022
3010 Clear 24 1013 53 10000 3.09 50 18:54 20.02.2022
3011 Clear 24 1013 53 10000 3.09 50 18:34 20.02.2022
3012 Clear 25 1013 50 10000 3.09 40 17:55 20.02.2022
3013 Clear 25 1012 47 10000 3.6 340 16:18 20.02.2022
3014 Clear 27 1011 44 10000 5.66 340 14:53 20.02.2022
3015 Clear 27 1011 44 10000 5.66 340 14:53 20.02.2022
3016 Clear 29 1011 37 10000 5.66 340 13:53 20.02.2022
3017 Clear 30 1012 30 10000 5.66 320 12:35 20.02.2022
3018 Clear 30 1013 35 10000 4.63 320 10:47 20.02.2022
3019 Clear 30 1013 35 10000 4.63 320 10:20 20.02.2022
3020 Clear 28 1015 32 10000 4.63 190 08:56 20.02.2022
3021 Clear 18 1013 49 10000 2.06 80 01:19 20.02.2022
3022 Clear 19 1013 46 10000 2.06 80 00:30 20.02.2022
3023 Clear 20 1014 49 10000 2.57 110 23:19 19.02.2022
3024 Clear 20 1014 53 10000 2.06 100 22:23 19.02.2022
3025 Clear 21 1015 64 10000 2.06 70 21:39 19.02.2022
3026 Clear 22 1015 60 10000 2.06 70 19:58 19.02.2022
3027 Clear 22 1015 60 10000 2.06 70 19:33 19.02.2022
3028 Clear 23 1015 50 10000 2.06 60 18:38 19.02.2022
3029 Clear 24 1014 53 10000 4.12 50 17:37 19.02.2022
3030 Clear 24 1014 53 10000 3.09 20 16:34 19.02.2022
3031 Clear 26 1013 41 10000 4.12 20 15:19 19.02.2022
3032 Clear 27 1013 39 10000 4.12 10 14:52 19.02.2022
3033 Clear 28 1013 39 10000 4.63 20 13:45 19.02.2022
3034 Clear 27 1014 42 10000 3.09 350 11:39 19.02.2022
3035 Clear 26 1017 34 10000 1.54 0 09:57 19.02.2022
3036 Clear 20 1017 64 10000 2.06 90 06:58 19.02.2022
3037 Clear 16 1015 77 10000 2.06 100 04:32 19.02.2022
3038 Clear 18 1013 68 10000 1.54 130 23:38 18.02.2022
3039 Clear 18 1014 68 10000 3.09 120 21:53 18.02.2022
3040 Clear 19 1014 64 10000 1.54 60 20:51 18.02.2022
3041 Clear 20 1014 60 10000 1.54 50 19:53 18.02.2022
3042 Clear 21 1014 64 10000 2.06 350 18:50 18.02.2022
3043 Clear 21 1014 64 10000 2.06 350 18:22 18.02.2022
3044 Clear 21 1013 60 10000 2.57 340 17:51 18.02.2022
3045 Clear 24 1012 50 10000 6.17 320 14:54 18.02.2022
3046 Clear 24 1012 50 10000 5.14 320 13:55 18.02.2022
3047 Clear 24 1012 50 10000 5.66 310 12:53 18.02.2022
3048 Clear 24 1012 50 10000 5.66 310 12:33 18.02.2022
3049 Clear 25 1013 50 10000 4.12 300 11:27 18.02.2022
3050 Clear 25 1014 47 10000 3.6 280 10:23 18.02.2022
3051 Clear 19 1015 72 7000 3.09 180 06:57 18.02.2022
3052 Haze 17 1014 77 5000 1.54 170 05:40 18.02.2022
3053 Clear 18 1011 77 6000 3.09 180 23:31 17.02.2022
3054 Clear 19 1011 68 10000 2.57 190 21:45 17.02.2022
3055 Clear 19 1011 68 10000 2.57 190 21:19 17.02.2022
3056 Clear 21 1012 64 10000 2.06 230 20:37 17.02.2022
3057 Clear 21 1012 60 10000 2.06 270 19:48 17.02.2022
3058 Clear 22 1012 56 10000 3.6 270 18:41 17.02.2022
3059 Clear 22 1011 60 10000 4.12 280 17:50 17.02.2022
3060 Clear 22 1011 64 10000 5.14 280 16:29 17.02.2022
3061 Clear 22 1010 60 10000 5.14 300 15:32 17.02.2022
3062 Clear 23 1010 53 10000 5.14 280 14:26 17.02.2022
3063 Clear 24 1010 50 10000 3.6 280 12:35 17.02.2022
3064 Clouds 24 1011 46 10000 4.12 280 11:21 17.02.2022
3065 Clouds 22 1014 53 10000 4.63 300 08:45 17.02.2022
3066 Clear 18 1010 59 10000 2.06 210 01:45 17.02.2022
3067 Clear 20 1011 52 10000 2.06 230 23:19 16.02.2022
3068 Clear 21 1011 49 10000 2.06 260 21:31 16.02.2022
3069 Clear 22 1012 43 10000 4.63 310 19:46 16.02.2022
3070 Clear 23 1011 33 10000 6.69 310 18:38 16.02.2022
3071 -273 0 0 0 0 0 17:48 16.02.2022
3072 Clear 23 1010 64 10000 7.2 320 15:36 16.02.2022
3073 Clear 24 1011 46 10000 8.23 310 14:57 16.02.2022
3074 Clouds 26 1011 47 10000 6.17 300 12:35 16.02.2022
3075 Clouds 26 1011 50 10000 5.14 290 11:55 16.02.2022
3076 Clouds 26 1011 50 10000 5.14 290 11:24 16.02.2022
3077 Clouds 26 1012 47 10000 4.63 310 10:30 16.02.2022
3078 Clear 20 1015 73 10000 2.06 180 06:57 16.02.2022
3079 Clear 18 1013 77 10000 2.06 180 04:43 16.02.2022
3080 Clear 20 1013 68 10000 2.57 340 23:44 15.02.2022
3081 Clear 21 1013 68 10000 3.09 350 22:19 15.02.2022
3082 Clear 21 1014 68 10000 2.57 340 21:45 15.02.2022
3083 Clear 21 1014 68 10000 2.57 340 21:27 15.02.2022
3084 Clear 22 1014 53 10000 2.57 330 20:55 15.02.2022
3085 Clear 22 1014 43 10000 1.03 0 19:55 15.02.2022
3086 Clear 23 1014 43 10000 1.54 50 18:52 15.02.2022
3087 Clear 23 1014 43 10000 1.54 50 18:19 15.02.2022
3088 Clear 24 1014 46 10000 2.57 50 17:48 15.02.2022
3089 Clear 24 1013 46 10000 3.6 30 16:30 15.02.2022
3090 Clear 26 1013 38 10000 5.14 350 14:47 15.02.2022
3091 Clear 27 1012 32 10000 6.17 340 13:26 15.02.2022
3092 Clear 26 1013 34 10000 6.17 340 11:54 15.02.2022
3093 Clear 26 1014 41 10000 5.66 330 10:58 15.02.2022
3094 Clear 27 1015 41 10000 3.6 330 09:28 15.02.2022
3095 Clear 21 1016 68 10000 1.54 160 06:49 15.02.2022
3096 Clear 21 1014 68 10000 3.09 20 00:48 15.02.2022
3097 Clear 21 1014 64 10000 3.09 360 22:20 14.02.2022
3098 Clear 21 1015 64 10000 2.57 360 21:24 14.02.2022
3099 Clear 22 1014 56 10000 3.09 20 20:24 14.02.2022
3100 Clear 23 1014 56 10000 3.6 20 19:30 14.02.2022
3101 Clear 23 1014 53 10000 3.09 20 18:27 14.02.2022
3102 Clear 23 1014 56 10000 3.09 360 17:43 14.02.2022
3103 Clear 23 1014 56 10000 3.09 360 17:43 14.02.2022
3104 Clear 23 1014 56 10000 3.09 360 17:24 14.02.2022
3105 Clear 23 1012 53 10000 4.63 20 15:58 14.02.2022
3106 Clouds 23 1012 49 10000 4.63 10 13:40 14.02.2022
3107 Clouds 23 1012 49 10000 4.63 10 13:22 14.02.2022
3108 Clouds 22 1012 56 10000 5.66 340 12:32 14.02.2022
3109 Clouds 22 1013 53 10000 5.66 350 11:47 14.02.2022
3110 Clouds 22 1014 53 10000 5.66 340 10:31 14.02.2022
3111 Clear 21 1015 46 10000 2.06 0 08:37 14.02.2022
3112 Clear 19 1015 48 10000 2.06 210 07:27 14.02.2022
3113 Clouds 18 1012 52 10000 3.09 180 23:41 13.02.2022
3114 Clouds 18 1013 52 10000 3.6 210 22:42 13.02.2022
3115 Clouds 18 1013 52 10000 3.6 210 22:23 13.02.2022
3116 Clouds 18 1013 52 10000 3.6 180 21:28 13.02.2022
3117 Clouds 18 1013 52 10000 3.6 200 20:32 13.02.2022
3118 Clouds 19 1013 48 10000 3.09 190 19:24 13.02.2022
3119 Clouds 19 1014 45 10000 2.57 230 18:42 13.02.2022
3120 Clouds 19 1013 52 10000 3.6 250 17:54 13.02.2022
3121 Clouds 20 1012 52 10000 5.14 290 15:54 13.02.2022
3122 Clouds 20 1012 52 10000 5.14 290 15:54 13.02.2022
3123 Clouds 22 1012 40 10000 4.12 270 14:58 13.02.2022
3124 Clouds 21 1011 43 10000 6.17 290 13:59 13.02.2022
3125 Clouds 21 1011 46 10000 6.17 280 12:50 13.02.2022
3126 Clouds 21 1012 52 10000 6.17 290 11:26 13.02.2022
3127 Clouds 22 1013 46 10000 6.17 290 10:30 13.02.2022
3128 Clouds 21 1013 52 10000 6.69 280 09:41 13.02.2022
3129 Clouds 21 1014 60 10000 7.72 280 07:19 13.02.2022
3130 Clear 19 1012 64 10000 2.06 180 00:35 13.02.2022
3131 Clear 20 1012 60 10000 2.06 110 23:39 12.02.2022
3132 Clear 20 1013 60 10000 2.06 110 22:33 12.02.2022
3133 Clear 22 1013 56 10000 1.03 0 21:20 12.02.2022
3134 Clear 22 1014 60 10000 1.54 360 20:32 12.02.2022
3135 Clear 22 1014 60 10000 2.06 330 19:21 12.02.2022
3136 Clear 23 1014 60 10000 4.12 330 18:52 12.02.2022
3137 Clear 23 1014 60 10000 4.12 330 18:34 12.02.2022
3138 Clear 24 1013 50 10000 6.17 330 16:56 12.02.2022
3139 Clear 24 1013 50 10000 6.17 330 16:25 12.02.2022
3140 Clear 25 1013 41 10000 6.69 320 15:50 12.02.2022
3141 Clear 27 1013 32 10000 6.69 300 14:31 12.02.2022
3142 Clear 28 1013 26 10000 5.66 280 12:58 12.02.2022
3143 Clear 28 1014 26 10000 3.6 300 10:40 12.02.2022
3144 Clear 27 1015 32 10000 3.09 240 09:39 12.02.2022
3145 Clear 27 1015 32 10000 3.09 240 09:20 12.02.2022
3146 Clear 26 1016 29 10000 3.6 200 08:18 12.02.2022
3147 Clear 26 1016 29 10000 3.6 200 08:18 12.02.2022
3148 Clear 18 1016 48 10000 2.57 170 05:33 12.02.2022
3149 Clear 17 1015 45 10000 1.03 170 04:27 12.02.2022
3150 Clear 17 1014 52 10000 1.54 110 02:18 12.02.2022
3151 Clear 20 1016 60 10000 1.54 90 22:29 11.02.2022
3152 Clear 20 1016 64 10000 2.57 110 21:51 11.02.2022
3153 Clear 21 1017 56 10000 3.09 110 20:40 11.02.2022
3154 Clear 22 1017 53 10000 2.57 70 19:46 11.02.2022
3155 Clear 22 1017 53 10000 2.57 70 19:26 11.02.2022
3156 Clear 23 1016 50 10000 3.09 40 17:55 11.02.2022
3157 Clear 23 1016 50 10000 3.09 40 17:25 11.02.2022
3158 Clear 24 1016 46 10000 3.6 360 16:22 11.02.2022
3159 Clear 25 1015 47 10000 5.66 340 14:43 11.02.2022
3160 Clear 27 1015 50 10000 3.75 320 14:21 11.02.2022
3161 Clear 27 1015 36 10000 5.66 340 13:57 11.02.2022
3162 Clear 27 1015 36 10000 5.66 340 13:39 11.02.2022
3163 Clear 27 1016 34 10000 4.12 340 11:41 11.02.2022
3164 Clear 26 1018 38 10000 3.6 190 09:58 11.02.2022
3165 Clear 24 1019 43 10000 4.12 200 08:49 11.02.2022
3166 Clear 24 1019 43 10000 4.12 200 08:26 11.02.2022
3167 Clear 22 1019 49 10000 4.63 190 07:18 11.02.2022
3168 Clear 17 1016 55 10000 1.03 0 02:26 11.02.2022
3169 Clear 22 1016 60 10000 3.11 34 00:52 11.02.2022
3170 Clear 19 1017 49 10000 1.54 70 22:51 10.02.2022
3171 Clear 20 1017 52 10000 2.06 90 21:46 10.02.2022
3172 Clear 21 1018 53 10000 1.54 70 20:59 10.02.2022
3173 Clear 21 1018 53 10000 1.54 70 20:35 10.02.2022
3174 Clear 21 1018 60 10000 2.57 40 19:26 10.02.2022
3175 Clear 22 1018 64 10000 3.09 50 18:45 10.02.2022
3176 Clear 23 1018 60 10000 3.6 30 17:26 10.02.2022
3177 Clear 23 1017 53 10000 3.09 20 16:50 10.02.2022
3178 Clear 24 1017 53 10000 4.12 340 15:49 10.02.2022
3179 Clear 24 1017 53 10000 4.12 340 15:29 10.02.2022
3180 Clear 24 1017 46 10000 5.66 330 14:47 10.02.2022
3181 Clear 24 1017 46 10000 5.66 330 14:23 10.02.2022
3182 Clear 25 1016 50 10000 5.66 330 13:26 10.02.2022
3183 Clear 25 1016 50 10000 6.17 330 12:27 10.02.2022
3184 Clear 27 1017 39 10000 5.14 340 11:33 10.02.2022
3185 Clear 26 1018 22 10000 2.06 0 10:44 10.02.2022
3186 Clear 25 1019 29 10000 2.06 0 09:57 10.02.2022
3187 Clear 25 1019 29 10000 2.06 0 09:23 10.02.2022
3188 Clear 20 1020 68 7000 1.54 190 07:19 10.02.2022
3189 Clear 16 1018 82 6000 1.03 0 04:23 10.02.2022
3190 Clear 17 1017 72 10000 1.54 0 01:48 10.02.2022
3191 Clear 17 1017 72 10000 1.54 80 00:44 10.02.2022
3192 Clear 18 1017 72 10000 1.54 80 00:26 10.02.2022
3193 Clear 18 1017 72 10000 1.03 220 22:58 09.02.2022
3194 Clear 18 1017 72 10000 1.03 220 22:34 09.02.2022
3195 Clear 19 1017 68 10000 2.57 110 21:49 09.02.2022
3196 Clear 19 1017 68 10000 2.57 110 21:28 09.02.2022
3197 Clear 20 1018 64 10000 2.06 100 20:47 09.02.2022
3198 Clear 20 1018 64 10000 2.06 100 20:24 09.02.2022
3199 Clear 20 1018 68 10000 1.54 60 19:44 09.02.2022
3200 Clear 20 1018 68 10000 1.54 60 19:22 09.02.2022
3201 Clear 22 1017 56 10000 3.6 40 17:35 09.02.2022
3202 Clear 22 1017 53 10000 3.09 350 16:32 09.02.2022
3203 Clear 22 1016 53 10000 5.14 350 15:33 09.02.2022
3204 Clear 23 1016 49 10000 5.14 350 14:25 09.02.2022
3205 Clear 24 1016 43 10000 5.66 320 12:27 09.02.2022
3206 Clear 24 1017 35 10000 1.54 0 10:47 09.02.2022
3207 Clear 23 1018 43 10000 1.03 0 09:59 09.02.2022
3208 Clear 23 1018 43 10000 1.03 0 09:23 09.02.2022
3209 Clear 22 1019 49 10000 2.57 110 08:58 09.02.2022
3210 Clear 20 1020 56 10000 3.09 170 07:34 09.02.2022
3211 Clear 16 1019 67 10000 2.06 160 05:30 09.02.2022
3212 Clear 16 1019 67 10000 2.06 160 05:30 09.02.2022
3213 Clear 16 1019 67 10000 2.06 160 05:30 09.02.2022
3214 Clear 15 1017 72 10000 2.57 170 03:50 09.02.2022
3215 Clear 17 1017 67 10000 2.57 190 00:23 09.02.2022
3216 Clear 18 1017 68 10000 2.06 200 23:30 08.02.2022
3217 Clear 19 1017 63 10000 2.06 200 22:46 08.02.2022
3218 Clear 19 1017 63 10000 2.06 200 22:21 08.02.2022
3219 Clouds 20 1018 60 10000 2.57 260 21:38 08.02.2022
3220 Clouds 20 1018 60 10000 2.57 260 21:19 08.02.2022
3221 Clouds 21 1018 56 10000 2.57 260 20:41 08.02.2022
3222 Clouds 21 1018 56 10000 2.57 260 20:41 08.02.2022
3223 Clouds 21 1018 56 10000 3.09 260 19:45 08.02.2022
3224 Clouds 21 1017 56 10000 4.12 290 18:34 08.02.2022
3225 Clouds 21 1017 60 10000 3.09 280 17:36 08.02.2022
3226 Clouds 22 1016 56 10000 5.66 280 15:55 08.02.2022
3227 Clouds 22 1016 56 10000 5.66 280 15:29 08.02.2022
3228 Clear 23 1016 46 10000 7.72 300 13:59 08.02.2022
3229 Clouds 23 1016 46 10000 7.2 300 12:40 08.02.2022
3230 Clouds 23 1016 46 10000 7.2 290 11:20 08.02.2022
3231 Clouds 22 1018 49 10000 5.66 260 09:51 08.02.2022
3232 Clouds 22 1018 49 10000 4.63 260 08:56 08.02.2022
3233 Clouds 22 1019 49 10000 4.63 0 07:27 08.02.2022
3234 Clouds 18 1017 55 10000 3.6 270 04:40 08.02.2022
3235 Clouds 18 1017 55 10000 3.6 270 04:22 08.02.2022
3236 Clouds 19 1016 52 10000 4.12 270 03:36 08.02.2022
3237 Clouds 19 1016 52 10000 4.12 270 03:18 08.02.2022
3238 Clouds 19 1016 55 10000 4.12 270 02:59 08.02.2022
3239 Clouds 19 1016 55 10000 4.12 270 02:37 08.02.2022
3240 Clouds 19 1016 55 10000 4.12 270 02:18 08.02.2022
3241 Clouds 19 1016 52 10000 4.63 270 01:45 08.02.2022
3242 Clouds 19 1016 52 10000 4.63 270 01:25 08.02.2022
3243 Clouds 18 1016 55 10000 4.63 270 00:55 08.02.2022
3244 Clouds 18 1016 55 10000 4.63 270 00:36 08.02.2022
3245 Clouds 19 1016 52 10000 4.63 270 23:45 07.02.2022
3246 Clouds 19 1016 52 10000 4.63 270 23:18 07.02.2022
3247 Clouds 20 1016 52 10000 3.6 270 22:59 07.02.2022
3248 Clouds 20 1016 52 10000 3.6 270 22:19 07.02.2022
3249 Clouds 20 1017 49 10000 4.12 270 21:51 07.02.2022
3250 Clouds 20 1017 49 10000 4.12 270 21:28 07.02.2022
3251 Clouds 20 1017 49 10000 3.6 270 20:47 07.02.2022
3252 Clouds 20 1017 49 10000 3.6 270 20:29 07.02.2022
3253 Clear 20 1017 45 10000 5.14 280 19:47 07.02.2022
3254 Clouds 20 1017 49 10000 5.14 280 18:40 07.02.2022
3255 Clouds 20 1017 45 10000 5.14 280 17:33 07.02.2022
3256 Clouds 20 1016 52 10000 6.69 280 16:52 07.02.2022
3257 Clouds 20 1016 49 10000 7.2 270 15:48 07.02.2022
3258 Clouds 21 1015 46 10000 7.72 280 14:19 07.02.2022
3259 Clouds 22 1015 46 10000 7.2 270 13:27 07.02.2022
3260 Clouds 22 1016 43 10000 8.23 290 12:35 07.02.2022
3261 Clouds 22 1016 43 10000 8.23 280 11:50 07.02.2022
3262 Clouds 22 1016 43 10000 8.23 280 11:24 07.02.2022
3263 Clouds 22 1017 40 10000 7.72 280 10:42 07.02.2022
3264 Clouds 22 1017 40 10000 7.72 280 10:24 07.02.2022
3265 Clouds 22 1017 43 10000 8.23 290 09:52 07.02.2022
3266 Clouds 22 1017 43 10000 8.23 290 09:18 07.02.2022
3267 Clouds 21 1018 46 10000 7.2 280 07:53 07.02.2022
3268 Clouds 21 1017 46 10000 6.17 280 06:34 07.02.2022
3269 Clouds 20 1016 49 10000 5.14 280 04:49 07.02.2022
3270 Clouds 20 1015 56 10000 4.63 270 02:37 07.02.2022
3271 Clouds 20 1015 56 10000 4.63 270 00:24 07.02.2022
3272 Clouds 20 1016 56 10000 4.12 270 23:20 06.02.2022
3273 Clouds 20 1016 52 10000 4.12 270 22:42 06.02.2022
3274 Clouds 20 1016 52 10000 4.63 280 21:46 06.02.2022
3275 Clouds 20 1016 52 10000 4.63 280 21:21 06.02.2022
3276 Clouds 20 1017 56 10000 5.14 270 20:48 06.02.2022
3277 Clouds 20 1017 56 10000 5.14 270 20:23 06.02.2022
3278 Clouds 21 1017 49 10000 4.12 270 19:18 06.02.2022
3279 Clear 21 1017 49 10000 5.66 280 18:33 06.02.2022
3280 Clear 21 1016 52 10000 6.69 280 17:37 06.02.2022
3281 Clear 21 1015 49 10000 6.69 280 16:52 06.02.2022
3282 Clear 21 1015 49 10000 6.69 280 16:20 06.02.2022
3283 Clear 22 1015 46 10000 7.72 280 15:47 06.02.2022
3284 Clear 22 1015 46 10000 7.72 280 15:24 06.02.2022
3285 Clear 22 1014 46 10000 7.72 290 14:19 06.02.2022
3286 Clear 23 1014 40 10000 9.26 310 13:21 06.02.2022
3287 Clear 23 1014 43 10000 9.26 310 12:27 06.02.2022
3288 Clear 23 1015 46 10000 8.75 310 10:33 06.02.2022
3289 Clouds 23 1015 43 10000 8.75 310 09:43 06.02.2022
3290 Clear 23 1016 46 10000 7.2 280 08:41 06.02.2022
3291 Clear 22 1015 46 10000 6.69 290 06:34 06.02.2022
3292 Clear 21 1014 49 10000 6.69 290 05:28 06.02.2022
3293 Clear 22 1012 60 10000 8.75 310 02:25 06.02.2022
3294 Clouds 22 1011 73 9000 6.17 290 00:33 06.02.2022
3295 Clouds 22 1011 73 10000 7.2 310 23:39 05.02.2022
3296 Clouds 22 1011 73 10000 4.63 280 21:48 05.02.2022
3297 Clear 22 1011 64 10000 3.6 270 20:47 05.02.2022
3298 Clear 22 1011 64 10000 3.6 270 20:22 05.02.2022
3299 Clear 22 1011 53 10000 1.54 240 19:42 05.02.2022
3300 Clear 22 1011 49 10000 1.54 220 18:37 05.02.2022
3301 Clear 23 1010 41 10000 1.03 220 17:35 05.02.2022
3302 Clear 24 1009 43 10000 1.54 240 16:20 05.02.2022
3303 Clear 25 1009 36 10000 4.63 280 15:31 05.02.2022
3304 Clear 26 1009 31 10000 5.66 280 13:55 05.02.2022
3305 Clear 27 1009 32 10000 5.14 280 12:46 05.02.2022
3306 Clear 27 1009 29 10000 5.66 290 11:47 05.02.2022
3307 Clear 27 1010 32 10000 5.14 280 10:44 05.02.2022
3308 Clear 26 1011 34 10000 3.6 280 09:51 05.02.2022
3309 Clear 26 1011 34 10000 5.14 290 08:47 05.02.2022
3310 Clear 22 1012 46 10000 3.09 200 07:27 05.02.2022
3311 Clear 20 1011 52 10000 2.06 180 06:55 05.02.2022
3312 Clear 17 1010 77 7000 1.03 170 02:43 05.02.2022
3313 Clear 18 1010 77 7000 1.54 180 01:18 05.02.2022
3314 Clear 18 1010 72 8000 1.54 160 00:36 05.02.2022
3315 Clear 19 1010 72 8000 2.57 150 23:33 04.02.2022
3316 Clear 19 1011 68 10000 2.06 170 22:45 04.02.2022
3317 Clear 20 1011 64 10000 1.54 200 21:36 04.02.2022
3318 Clear 20 1011 64 10000 1.54 200 21:18 04.02.2022
3319 Clear 20 1011 60 10000 2.06 250 20:36 04.02.2022
3320 Clear 21 1012 60 10000 2.06 250 19:19 04.02.2022
3321 Clear 23 1012 53 10000 4.63 330 16:44 04.02.2022
3322 Clear 24 1011 41 10000 3.6 330 15:19 04.02.2022
3323 Clear 25 1011 36 10000 4.12 330 14:40 04.02.2022
3324 Clear 25 1012 38 10000 4.12 340 12:43 04.02.2022
3325 Clear 25 1013 38 10000 4.63 330 11:45 04.02.2022
3326 Clear 25 1013 38 10000 4.12 320 10:55 04.02.2022
3327 Clear 24 1014 46 10000 2.57 320 09:56 04.02.2022
3328 Clear 23 1015 56 10000 2.57 340 07:56 04.02.2022
3329 Clear 16 1014 63 10000 1.54 190 03:30 04.02.2022
3330 Clear 18 1014 59 10000 1.03 210 02:34 04.02.2022
3331 Clear 19 1014 52 10000 2.06 30 23:34 03.02.2022
3332 Clear 19 1015 52 10000 2.06 70 22:48 03.02.2022
3333 Clear 19 1016 52 10000 2.06 80 21:51 03.02.2022
3334 Clear 23 1016 64 10000 4.12 354 21:18 03.02.2022
3335 Clear 21 1016 49 10000 2.06 60 20:21 03.02.2022
3336 Clear 21 1016 49 10000 2.57 50 19:36 03.02.2022
3337 Clear 22 1016 43 10000 4.12 30 18:50 03.02.2022
3338 Clear 23 1016 43 10000 4.12 40 17:51 03.02.2022
3339 Clear 23 1016 46 10000 5.66 40 16:46 03.02.2022
3340 Clear 25 1015 38 10000 7.2 20 14:59 03.02.2022
3341 Clear 25 1015 33 10000 6.69 360 13:19 03.02.2022
3342 Clear 25 1016 44 10000 5.66 360 11:44 03.02.2022
3343 Clear 24 1019 46 10000 4.12 30 08:55 03.02.2022
3344 Clear 22 1019 53 10000 5.14 30 07:40 03.02.2022
3345 Clear 16 1018 68 10000 1.54 60 00:34 03.02.2022
3346 Clear 17 1019 59 10000 2.06 190 23:45 02.02.2022
3347 Clear 18 1019 59 10000 1.54 180 22:36 02.02.2022
3348 Clear 20 1019 56 10000 2.06 180 21:42 02.02.2022
3349 Clear 20 1019 56 10000 2.06 180 21:24 02.02.2022
3350 Clear 20 1019 52 10000 1.54 240 20:19 02.02.2022
3351 Clear 21 1019 56 10000 2.06 260 19:45 02.02.2022
3352 Clear 21 1019 56 10000 2.57 260 18:53 02.02.2022
3353 Clear 21 1019 56 10000 2.57 260 18:22 02.02.2022
3354 Clear 22 1018 53 10000 3.6 280 17:20 02.02.2022
3355 Clouds 22 1018 49 10000 4.12 270 16:47 02.02.2022
3356 Clouds 23 1017 46 10000 5.14 320 14:18 02.02.2022
3357 Clouds 24 1017 50 8000 6.17 320 12:26 02.02.2022
3358 Clouds 24 1017 53 8000 6.17 320 11:40 02.02.2022
3359 Clouds 24 1017 50 8000 6.17 310 10:38 02.02.2022
3360 Clouds 22 1018 68 7000 1.54 240 07:42 02.02.2022
3361 Clear 19 1015 72 8000 2.06 210 00:34 02.02.2022
3362 Clear 21 1016 73 8000 1.54 240 21:55 01.02.2022
3363 Clear 21 1016 68 8000 2.06 230 20:49 01.02.2022
3364 Clear 23 1016 64 8000 2.06 260 18:35 01.02.2022
3365 Clear 23 1015 60 8000 4.12 330 16:43 01.02.2022
3366 Clear 27 1014 28 6000 3.6 280 14:56 01.02.2022
3367 Clear 27 1014 29 7000 3.09 290 12:48 01.02.2022
3368 Clear 25 1014 61 7000 2.57 280 11:48 01.02.2022
3369 Clear 20 1015 73 7000 2.06 180 06:57 01.02.2022
3370 Clear 19 1013 73 8000 2.06 110 23:53 31.01.2022
3371 Clear 19 1013 73 8000 2.06 110 23:34 31.01.2022
3372 Clear 19 1013 73 8000 2.06 110 23:34 31.01.2022
3373 Clear 20 1013 68 8000 1.54 70 22:26 31.01.2022
3374 Clear 20 1014 68 8000 2.06 100 21:33 31.01.2022
3375 Clear 21 1014 64 8000 1.54 80 20:33 31.01.2022
3376 Clear 22 1015 60 10000 1.54 10 19:46 31.01.2022
3377 Clear 22 1015 60 10000 1.54 340 18:29 31.01.2022
3378 Clear 23 1014 56 10000 1.03 0 17:46 31.01.2022
3379 Clear 23 1014 60 10000 2.06 350 16:48 31.01.2022
3380 Clear 23 1014 60 10000 3.09 350 15:43 31.01.2022
3381 Clear 24 1014 46 10000 3.6 340 14:24 31.01.2022
3382 Clear 25 1014 38 10000 4.12 340 12:39 31.01.2022
3383 Clear 25 1015 41 10000 2.06 320 11:58 31.01.2022
3384 Clouds 25 1016 50 10000 3.09 270 10:52 31.01.2022
3385 Clouds 25 1016 50 10000 3.09 270 10:34 31.01.2022
3386 Clouds 23 1017 64 10000 2.57 210 09:27 31.01.2022
3387 Clear 22 1018 64 10000 2.57 210 08:52 31.01.2022
3388 Clear 22 1018 64 10000 2.57 210 08:52 31.01.2022
3389 Clear 22 1018 64 10000 2.57 210 08:20 31.01.2022
3390 Clear 19 1017 72 10000 2.57 180 06:21 31.01.2022
3391 Clear 18 1015 72 10000 3.6 190 03:33 31.01.2022
3392 Clear 19 1015 68 10000 2.57 190 23:19 30.01.2022
3393 Clear 19 1016 64 10000 2.06 190 22:29 30.01.2022
3394 Clear 21 1016 60 10000 1.54 220 21:42 30.01.2022
3395 Clear 21 1016 60 10000 1.54 220 21:19 30.01.2022
3396 Clear 21 1017 60 10000 2.06 260 20:49 30.01.2022
3397 Clear 21 1017 60 10000 2.06 260 20:29 30.01.2022
3398 Clear 22 1017 53 10000 3.09 270 19:52 30.01.2022
3399 Clear 22 1017 56 10000 3.6 280 18:44 30.01.2022
3400 Clear 22 1017 56 10000 3.6 280 18:20 30.01.2022
3401 Clear 22 1016 56 10000 3.6 280 17:28 30.01.2022
3402 Clear 22 1016 60 10000 4.12 280 16:40 30.01.2022
3403 Clear 22 1016 60 10000 4.12 280 16:22 30.01.2022
3404 Clear 22 1015 60 10000 5.14 310 15:51 30.01.2022
3405 Clear 22 1015 60 10000 5.14 310 15:32 30.01.2022
3406 Clear 23 1015 53 10000 5.14 310 14:46 30.01.2022
3407 Clear 24 1015 50 10000 4.63 290 12:54 30.01.2022
3408 Clear 24 1015 50 10000 4.63 290 12:33 30.01.2022
3409 Clear 24 1017 50 10000 5.14 300 10:36 30.01.2022
3410 Clear 24 1018 50 10000 3.6 280 09:56 30.01.2022
3411 Clear 23 1018 60 10000 2.57 240 08:58 30.01.2022
3412 Clear 20 1018 68 10000 2.06 170 07:55 30.01.2022
3413 Clear 17 1016 77 10000 1.54 190 02:29 30.01.2022
3414 Clear 18 1016 77 10000 2.06 180 01:39 30.01.2022
3415 Clear 19 1017 72 10000 2.57 190 23:21 29.01.2022
3416 Clear 19 1018 68 10000 2.06 240 21:59 29.01.2022
3417 Clear 19 1018 68 10000 2.06 240 21:26 29.01.2022
3418 Clear 21 1018 64 10000 2.06 190 20:38 29.01.2022
3419 Clear 21 1019 64 10000 1.54 250 19:36 29.01.2022
3420 Clear 22 1019 60 10000 2.06 260 19:00 29.01.2022
3421 Clear 22 1019 60 10000 2.06 260 18:30 29.01.2022
3422 Clear 22 1019 60 10000 2.57 260 17:41 29.01.2022
3423 Clear 22 1018 56 10000 3.09 300 16:38 29.01.2022
3424 Clear 23 1018 46 10000 4.63 300 14:33 29.01.2022
3425 Clear 24 1018 50 10000 5.14 330 13:45 29.01.2022
3426 Clear 24 1018 50 10000 5.14 330 13:25 29.01.2022
3427 Clear 24 1018 50 10000 4.12 300 12:36 29.01.2022
3428 Clear 23 1018 53 10000 5.14 320 11:38 29.01.2022
3429 Clear 24 1019 50 10000 4.63 310 09:49 29.01.2022
3430 Clear 19 1019 77 7000 2.57 160 06:57 29.01.2022
3431 Clear 19 1017 73 10000 1.54 230 00:50 29.01.2022
3432 Clear 19 1017 73 10000 1.54 230 00:31 29.01.2022
3433 Clear 21 1018 68 10000 2.57 260 22:52 28.01.2022
3434 Clear 21 1018 68 10000 2.57 260 22:27 28.01.2022
3435 Clouds 21 1018 73 9000 2.57 270 21:52 28.01.2022
3436 Clouds 22 1018 73 9000 3.6 300 20:30 28.01.2022
3437 Clouds 22 1018 73 9000 3.6 300 20:30 28.01.2022
3438 Clouds 22 1018 73 9000 3.6 300 20:30 28.01.2022
3439 Clouds 22 1018 73 10000 4.12 300 19:33 28.01.2022
3440 Clouds 22 1018 73 10000 3.6 280 18:46 28.01.2022
3441 Clear 23 1018 64 10000 2.57 320 17:31 28.01.2022
3442 Clear 23 1017 68 10000 5.14 330 15:20 28.01.2022
3443 Clouds 24 1017 60 10000 6.17 310 13:52 28.01.2022
3444 Clear 23 1017 65 10000 6.5 294 12:31 28.01.2022
3445 Clear 25 1017 47 10000 5.14 300 11:25 28.01.2022
3446 Clear 24 1018 46 10000 3.6 280 09:52 28.01.2022
3447 Clear 24 1019 38 10000 4.12 290 08:22 28.01.2022
3448 Clear 22 1019 49 10000 2.06 220 07:34 28.01.2022
3449 Haze 17 1017 72 5000 1.03 0 05:23 28.01.2022
3450 Clear 17 1016 77 6000 0.89 180 03:44 28.01.2022
3451 Clear 17 1015 77 6000 2.06 190 02:22 28.01.2022
3452 Clear 17 1015 77 6000 1.54 160 01:32 28.01.2022
3453 Clear 19 1016 73 6000 2.06 130 22:52 27.01.2022
3454 Clear 20 1016 68 8000 3.09 120 21:47 27.01.2022
3455 Clear 20 1016 68 8000 3.09 120 21:29 27.01.2022
3456 Clear 21 1016 68 10000 3.6 130 20:26 27.01.2022
3457 Clear 22 1017 60 10000 2.57 20 18:40 27.01.2022
3458 Clear 22 1016 64 10000 3.6 350 17:55 27.01.2022
3459 Clear 25 1015 50 10000 5.66 340 14:42 27.01.2022
3460 Clear 26 1014 47 10000 4.63 320 13:26 27.01.2022
3461 Clear 26 1014 47 10000 4.63 330 12:39 27.01.2022
3462 Clear 27 1016 32 10000 3.6 190 10:23 27.01.2022
3463 Clear 23 1018 53 10000 5.14 180 08:52 27.01.2022
3464 Clear 23 1018 53 10000 5.14 180 08:30 27.01.2022
3465 Clear 23 1018 53 10000 5.14 180 08:30 27.01.2022
3466 Clear 20 1018 48 10000 2.57 118 05:49 27.01.2022
3467 Clear 20 1015 53 10000 2.18 92 01:46 27.01.2022
3468 Clear 18 1016 64 10000 2.57 120 22:44 26.01.2022
3469 Clear 19 1016 56 10000 1.54 70 21:55 26.01.2022
3470 Clear 19 1016 56 10000 1.54 70 21:31 26.01.2022
3471 Clear 20 1016 53 10000 1.54 40 20:35 26.01.2022
3472 Clear 21 1016 53 10000 1.54 30 19:54 26.01.2022
3473 Clear 21 1016 53 10000 1.54 30 19:19 26.01.2022
3474 Clear 21 1016 53 10000 2.57 30 18:26 26.01.2022
3475 Clear 22 1016 56 10000 3.09 30 17:49 26.01.2022
3476 Clear 22 1016 56 10000 3.09 30 17:19 26.01.2022
3477 Clear 22 1015 56 10000 3.6 30 16:26 26.01.2022
3478 Clear 23 1014 49 10000 3.6 20 15:45 26.01.2022
3479 Clear 25 1015 50 10000 4.63 30 12:54 26.01.2022
3480 Clear 25 1015 50 10000 4.63 330 11:34 26.01.2022
3481 Clear 26 1016 31 10000 2.57 30 10:19 26.01.2022
3482 Clear 25 1018 36 10000 2.57 80 09:42 26.01.2022
3483 Clear 21 1019 64 6000 2.06 110 07:31 26.01.2022
3484 Clear 17 1016 77 6000 1.54 100 00:44 26.01.2022
3485 Clear 17 1017 77 6000 1.54 100 23:44 25.01.2022
3486 Clear 22 1017 60 10000 1.86 35 22:50 25.01.2022
3487 Clear 22 1017 61 10000 1.85 38 22:21 25.01.2022
3488 Clear 19 1017 68 10000 1.54 300 21:37 25.01.2022
3489 Clear 19 1017 68 10000 2.57 300 20:46 25.01.2022
3490 Clear 20 1017 64 10000 3.6 320 19:59 25.01.2022
3491 Clear 20 1017 64 10000 3.6 320 19:40 25.01.2022
3492 Clear 21 1017 64 10000 3.6 320 18:20 25.01.2022
3493 Clear 22 1017 60 10000 3.09 300 17:40 25.01.2022
3494 Clear 22 1016 64 10000 3.6 280 16:35 25.01.2022
3495 Clear 23 1016 64 10000 4.12 320 15:43 25.01.2022
3496 Clear 23 1016 64 10000 4.12 320 15:25 25.01.2022
3497 Clear 23 1015 64 10000 4.12 300 14:57 25.01.2022
3498 Clouds 24 1015 57 10000 3.6 310 12:32 25.01.2022
3499 Clouds 23 1017 56 10000 1.54 0 09:59 25.01.2022
3500 Clear 21 1018 60 10000 2.57 210 08:32 25.01.2022
3501 Clouds 20 1019 56 8000 2.57 160 07:28 25.01.2022
3502 Clear 19 1017 56 10000 1.81 298 05:55 25.01.2022
3503 Clear 18 1016 57 10000 2.49 307 01:34 25.01.2022
3504 Clear 16 1017 59 10000 1.03 140 23:36 24.01.2022
3505 Clear 16 1017 59 10000 1.03 140 23:18 24.01.2022
3506 Clear 16 1017 59 10000 2.57 150 22:58 24.01.2022
3507 Clear 16 1017 59 10000 2.57 150 22:40 24.01.2022
3508 Clear 17 1017 59 10000 2.06 170 21:43 24.01.2022
3509 Clear 17 1017 59 10000 2.06 170 21:25 24.01.2022
3510 Clear 18 1018 55 10000 1.54 190 20:28 24.01.2022
3511 Clear 18 1018 52 10000 0.51 0 19:38 24.01.2022
3512 Clear 19 1018 52 10000 2.06 330 18:50 24.01.2022
3513 Clear 20 1018 49 10000 3.09 320 17:43 24.01.2022
3514 Clear 20 1018 49 10000 3.09 320 17:22 24.01.2022
3515 Clear 20 1017 52 10000 2.57 350 16:32 24.01.2022
3516 Clear 21 1017 46 10000 3.6 330 15:51 24.01.2022
3517 Clear 21 1016 46 10000 3.6 310 14:19 24.01.2022
3518 Clear 22 1016 43 10000 4.12 350 12:35 24.01.2022
3519 Clear 22 1017 46 10000 4.12 340 11:45 24.01.2022
3520 Clear 22 1017 46 10000 4.12 340 10:23 24.01.2022
3521 Clear 21 1018 49 10000 2.06 340 09:46 24.01.2022
3522 Clear 21 1019 49 10000 0 0 08:18 24.01.2022
3523 Clear 14 1016 72 10000 1.54 180 02:29 24.01.2022
3524 Clear 15 1016 63 10000 2.06 0 01:27 24.01.2022
3525 Clear 15 1016 63 10000 2.06 0 01:27 24.01.2022
3526 Clouds 16 1017 63 10000 2.06 180 00:32 24.01.2022
3527 Clear 20 1016 51 10000 3.53 314 23:46 23.01.2022
3528 Clouds 17 1017 55 10000 3.6 330 22:21 23.01.2022
3529 Clouds 18 1017 55 10000 3.6 310 21:41 23.01.2022
3530 Clouds 18 1017 55 10000 3.6 310 21:23 23.01.2022
3531 Clouds 19 1018 52 10000 4.12 280 20:23 23.01.2022
3532 Clouds 20 1018 52 10000 3.6 300 18:56 23.01.2022
3533 Clouds 20 1018 52 10000 3.6 300 18:24 23.01.2022
3534 Clear 20 1018 51 10000 4.27 307 17:19 23.01.2022
3535 Clouds 20 1018 49 10000 5.14 310 16:18 23.01.2022
3536 Clouds 22 1017 46 10000 4.63 320 14:52 23.01.2022
3537 Clouds 22 1017 46 10000 4.63 320 14:19 23.01.2022
3538 Clouds 21 1017 46 10000 4.63 300 12:46 23.01.2022
3539 Clouds 21 1017 46 10000 4.63 300 12:21 23.01.2022
3540 Clouds 21 1017 49 8000 4.63 310 11:27 23.01.2022
3541 Clouds 21 1017 49 10000 5.66 310 10:58 23.01.2022
3542 Clouds 21 1017 49 10000 5.66 310 10:25 23.01.2022
3543 Clouds 21 1018 46 10000 3.6 300 09:32 23.01.2022
3544 Clouds 20 1019 52 10000 2.57 270 08:50 23.01.2022
3545 Clear 20 1017 58 10000 3.55 286 03:59 23.01.2022
3546 Clouds 16 1017 67 10000 2.06 210 01:40 23.01.2022
3547 Clouds 16 1017 63 10000 2.57 190 00:47 23.01.2022
3548 Clouds 16 1017 63 10000 2.57 190 00:18 23.01.2022
3549 Clouds 18 1018 59 10000 3.09 250 22:55 22.01.2022
3550 Clouds 18 1018 59 10000 3.09 250 22:33 22.01.2022
3551 Clouds 18 1019 52 10000 3.13 270 20:46 22.01.2022
3552 Clear 18 1019 50 10000 1.66 319 19:46 22.01.2022
3553 Clear 19 1019 48 10000 1.95 338 18:41 22.01.2022
3554 Clear 20 1018 45 10000 3.09 280 17:49 22.01.2022
3555 Clear 20 1018 45 10000 3.09 280 17:29 22.01.2022
3556 Clear 20 1018 42 10000 3.09 290 16:54 22.01.2022
3557 Clear 20 1017 40 10000 5.14 320 15:45 22.01.2022
3558 Clear 21 1017 37 10000 4.12 320 14:56 22.01.2022
3559 Clear 20 1017 45 10000 4.43 303 13:31 22.01.2022
3560 Clear 21 1017 37 10000 5.14 330 12:40 22.01.2022
3561 Clear 21 1017 37 10000 5.14 330 12:20 22.01.2022
3562 Clear 20 1017 42 10000 3.55 298 10:55 22.01.2022
3563 Clear 20 1018 42 10000 3.05 297 10:26 22.01.2022
3564 Clear 21 1019 37 10000 2.57 300 09:25 22.01.2022
3565 Clear 21 1020 37 10000 1.03 0 08:50 22.01.2022
3566 Clear 18 1020 52 10000 2.06 160 06:56 22.01.2022
3567 Clear 17 1018 56 10000 4.01 300 03:26 22.01.2022
3568 Clouds 19 1018 48 10000 4.63 270 00:31 22.01.2022
3569 Clear 17 1018 58 10000 8.89 293 23:21 21.01.2022
3570 Clouds 18 1019 52 10000 4.12 280 22:19 21.01.2022
3571 Clouds 18 1019 52 10000 7.2 290 19:52 21.01.2022
3572 Clouds 18 1019 52 10000 8.75 290 18:21 21.01.2022
3573 Clouds 18 1018 52 10000 10.29 300 16:54 21.01.2022
3574 Clouds 18 1018 55 10000 10.8 300 15:24 21.01.2022
3575 Clouds 20 1017 45 10000 10.29 290 12:51 21.01.2022
3576 Clouds 19 1017 45 10000 12.86 290 11:42 21.01.2022
3577 Clouds 19 1017 45 10000 11.83 290 11:23 21.01.2022
3578 Clouds 20 1019 45 10000 12.35 300 09:26 21.01.2022
3579 Clouds 20 1019 45 10000 12.35 300 08:20 21.01.2022
3580 Clouds 20 1018 52 9000 12.86 320 04:36 21.01.2022
3581 Clear 21 1016 46 10000 9.26 300 22:52 20.01.2022
3582 Clear 22 1016 46 10000 8.23 300 21:49 20.01.2022
3583 Clear 22 1016 46 10000 8.23 300 21:27 20.01.2022
3584 Clear 22 1016 53 10000 6.69 290 19:56 20.01.2022
3585 Clear 22 1016 53 10000 6.69 290 19:19 20.01.2022
3586 Clear 22 1016 60 10000 6.17 290 17:38 20.01.2022
3587 Clouds 22 1015 60 10000 7.2 300 16:32 20.01.2022
3588 Clouds 23 1015 60 10000 8.23 320 15:32 20.01.2022
3589 Clouds 23 1015 56 10000 8.23 320 14:38 20.01.2022
3590 Clouds 23 1014 56 10000 8.23 320 13:18 20.01.2022
3591 Clouds 24 1014 50 10000 7.72 320 12:30 20.01.2022
3592 Clouds 23 1015 60 10000 7.41 280 11:20 20.01.2022
3593 Clouds 24 1016 46 10000 5.66 320 10:19 20.01.2022
3594 Clouds 24 1017 50 10000 5.14 300 09:18 20.01.2022
3595 Clouds 24 1018 57 10000 4.12 310 07:23 20.01.2022
3596 Clear 22 1016 73 10000 2.06 230 00:40 20.01.2022
3597 Clouds 23 1016 68 10000 2.57 290 22:40 19.01.2022
3598 Clouds 23 1017 68 10000 3.09 290 21:40 19.01.2022
3599 Clouds 23 1017 68 10000 3.09 290 21:21 19.01.2022
3600 Clouds 22 1017 64 10000 3.8 282 20:45 19.01.2022
3601 Clouds 23 1017 73 10000 3.09 340 19:18 19.01.2022
3602 Clouds 23 1017 73 10000 3.09 330 17:51 19.01.2022
3603 Clouds 23 1017 73 10000 3.09 330 17:18 19.01.2022
3604 Clouds 23 1016 78 10000 4.12 340 15:36 19.01.2022
3605 Clouds 24 1015 73 10000 5.14 350 13:38 19.01.2022
3606 Clouds 24 1015 73 10000 5.66 340 12:20 19.01.2022
3607 Clouds 24 1016 73 10000 5.14 330 11:38 19.01.2022
3608 Clouds 25 1017 65 10000 2.06 0 09:49 19.01.2022
3609 Clouds 25 1017 65 10000 2.06 0 09:22 19.01.2022
3610 Clear 22 1017 73 10000 2.06 50 05:29 19.01.2022
3611 Clouds 23 1016 78 10000 3.09 30 00:33 19.01.2022
3612 Clouds 23 1016 83 10000 2.06 60 23:18 18.01.2022
3613 Clouds 24 1017 78 10000 2.06 60 21:55 18.01.2022
3614 Clouds 24 1017 78 10000 2.06 60 20:44 18.01.2022
3615 Clear 24 1017 78 10000 2.06 40 19:52 18.01.2022
3616 Clear 24 1017 78 10000 2.06 40 19:33 18.01.2022
3617 Clear 24 1017 78 10000 5.14 330 18:25 18.01.2022
3618 Clouds 23 1016 83 10000 7.11 309 17:33 18.01.2022
3619 Clouds 23 1015 77 10000 6.15 285 16:22 18.01.2022
3620 Clouds 25 1015 61 10000 6.17 290 15:25 18.01.2022
3621 Clouds 26 1014 57 10000 5.66 280 14:34 18.01.2022
3622 Clear 28 1014 51 10000 7.2 210 11:51 18.01.2022
3623 Clear 27 1015 54 10000 7.2 200 10:30 18.01.2022
3624 Clear 25 1017 61 10000 5.66 190 08:36 18.01.2022
3625 Clear 24 1017 64 10000 6.69 180 07:45 18.01.2022
3626 Clear 22 1015 73 10000 6.17 120 01:34 18.01.2022
3627 Clear 22 1015 73 10000 3.6 110 22:47 17.01.2022
3628 Clear 22 1016 83 10000 3.09 100 21:50 17.01.2022
3629 Clear 22 1016 83 10000 3.09 100 21:29 17.01.2022
3630 Clear 23 1016 78 10000 3.6 60 19:37 17.01.2022
3631 Clear 23 1016 78 10000 4.63 50 18:27 17.01.2022
3632 Clear 24 1016 69 10000 5.66 50 17:22 17.01.2022
3633 Clear 25 1015 65 10000 5.66 50 16:22 17.01.2022
3634 Clear 28 1014 44 9000 3.6 190 14:58 17.01.2022
3635 Clear 28 1014 44 9000 3.6 190 14:32 17.01.2022
3636 Clear 28 1014 44 9000 3.09 200 13:19 17.01.2022
3637 Clear 28 1014 42 9000 5.14 180 12:22 17.01.2022
3638 Clear 26 1015 50 10000 5.66 190 10:53 17.01.2022
3639 Clear 25 1016 53 10000 8.23 170 09:53 17.01.2022
3640 Clear 24 1017 60 10000 6.69 190 08:44 17.01.2022
3641 Clear 22 1017 64 10000 4.63 180 07:20 17.01.2022
3642 Clear 20 1014 77 10000 2.06 100 00:59 17.01.2022
3643 Clear 20 1014 83 10000 3.6 110 23:33 16.01.2022
3644 Clear 20 1013 83 10000 2.06 130 21:21 16.01.2022
3645 Clear 20 1013 83 10000 2.57 110 20:18 16.01.2022
3646 Clear 21 1013 78 10000 2.57 90 18:46 16.01.2022
3647 Clouds 21 1013 78 10000 2.57 120 17:47 16.01.2022
3648 Clouds 22 1011 78 10000 3.6 120 16:53 16.01.2022
3649 Clouds 22 1011 73 10000 2.57 140 15:40 16.01.2022
3650 Clouds 22 1011 73 10000 1.54 180 14:29 16.01.2022
3651 Clouds 22 1011 68 5000 2.57 230 13:23 16.01.2022
3652 Clouds 22 1010 64 10000 5.66 170 11:58 16.01.2022
3653 Clouds 22 1010 64 10000 5.66 170 11:27 16.01.2022
3654 Clouds 23 1014 59 10000 7.25 186 10:27 16.01.2022
3655 Clouds 22 1013 64 10000 8.75 180 09:57 16.01.2022
3656 Clouds 22 1013 64 10000 8.75 180 09:23 16.01.2022
3657 Clouds 21 1015 68 10000 7.2 180 08:53 16.01.2022
3658 Clouds 21 1014 68 10000 6.69 190 05:51 16.01.2022
3659 Clear 21 1012 68 10000 3.09 100 00:19 16.01.2022
3660 Clear 21 1011 73 10000 5.14 80 22:38 15.01.2022
3661 Clear 22 1013 68 10000 5.66 60 21:21 15.01.2022
3662 Clear 22 1013 64 10000 4.63 70 20:43 15.01.2022
3663 Clouds 23 1013 64 8000 4.12 60 19:58 15.01.2022
3664 Clouds 23 1013 64 8000 4.12 60 19:23 15.01.2022
3665 Clouds 25 1013 50 8000 2.06 20 17:52 15.01.2022
3666 Clouds 26 1013 32 7000 3.6 290 16:42 15.01.2022
3667 Clouds 27 1011 32 6000 4.12 210 14:32 15.01.2022
3668 Clouds 27 1011 34 8000 6.17 190 12:33 15.01.2022
3669 Clouds 26 1011 38 8000 6.69 190 11:19 15.01.2022
3670 Clouds 24 1015 46 6000 6.17 190 09:21 15.01.2022
3671 Clear 20 1014 68 10000 2.57 90 00:52 15.01.2022
3672 Clouds 21 1015 68 8000 2.06 80 21:57 14.01.2022
3673 Clouds 21 1015 68 8000 2.06 90 20:51 14.01.2022
3674 Clouds 21 1015 68 8000 2.06 90 20:23 14.01.2022
3675 Clear 22 1015 68 10000 2.06 80 19:48 14.01.2022
3676 Clear 22 1015 60 10000 2.57 60 18:28 14.01.2022
3677 Clear 23 1014 60 10000 5.14 330 16:50 14.01.2022
3678 Clear 23 1012 64 10000 4.12 350 15:48 14.01.2022
3679 Clear 25 1012 53 10000 5.14 340 14:47 14.01.2022
3680 Clear 27 1012 29 10000 4.12 170 13:47 14.01.2022
3681 Clear 27 1012 32 10000 3.6 180 12:31 14.01.2022
3682 Clear 26 1014 41 10000 3.09 180 11:27 14.01.2022
3683 Clear 24 1017 53 10000 3.6 250 09:51 14.01.2022
3684 Clear 22 1018 60 10000 4.12 190 08:52 14.01.2022
3685 Clear 21 1018 60 10000 4.12 210 07:21 14.01.2022
3686 Haze 18 1015 82 4500 2.06 120 01:37 14.01.2022
3687 Clear 19 1016 77 6000 0.51 0 23:32 13.01.2022
3688 Clear 20 1016 73 7000 2.06 110 21:40 13.01.2022
3689 Clear 20 1016 73 7000 2.06 110 21:22 13.01.2022
3690 Clear 21 1017 73 8000 1.54 360 19:40 13.01.2022
3691 Clear 21 1017 73 8000 1.54 360 19:22 13.01.2022
3692 Clear 22 1016 68 10000 3.6 340 17:54 13.01.2022
3693 Clear 23 1015 64 10000 4.63 340 16:21 13.01.2022
3694 Clear 22 1016 62 10000 3.5 336 15:37 13.01.2022
3695 Clear 24 1014 57 10000 2.57 10 14:47 13.01.2022
3696 Clouds 25 1015 53 10000 5.14 340 12:45 13.01.2022
3697 Clouds 24 1017 57 10000 3.09 10 10:25 13.01.2022
3698 Clouds 24 1018 57 10000 2.06 0 09:20 13.01.2022
3699 Clear 23 1019 60 10000 1.54 0 08:27 13.01.2022
3700 Clear 21 1019 64 6000 2.06 180 07:24 13.01.2022
3701 Haze 17 1018 77 4000 1.54 190 05:59 13.01.2022
3702 Haze 17 1018 77 4000 1.54 190 05:59 13.01.2022
3703 Haze 17 1018 77 4000 1.54 190 05:19 13.01.2022
3704 Clear 17 1017 72 7000 1.54 190 01:58 13.01.2022
3705 Clear 17 1017 72 8000 1.54 160 00:55 13.01.2022
3706 Clear 18 1018 68 8000 2.06 140 23:49 12.01.2022
3707 Clear 18 1018 68 8000 2.06 140 23:20 12.01.2022
3708 Clear 19 1018 68 10000 2.57 160 21:57 12.01.2022
3709 Clear 19 1018 68 10000 2.57 160 21:22 12.01.2022
3710 Clear 19 1018 68 10000 2.57 160 21:22 12.01.2022
3711 Clear 23 1018 62 10000 2.07 288 20:56 12.01.2022
3712 Clear 21 1018 60 10000 2.57 260 19:44 12.01.2022
3713 Clear 22 1018 60 10000 3.6 300 18:42 12.01.2022
3714 Clear 22 1018 56 10000 4.12 310 17:21 12.01.2022
3715 Clear 23 1017 53 10000 3.6 330 16:32 12.01.2022
3716 Clear 24 1016 43 10000 4.12 330 14:48 12.01.2022
3717 Clear 24 1016 41 10000 4.12 330 13:19 12.01.2022
3718 Clouds 24 1017 43 10000 2.57 320 10:56 12.01.2022
3719 Clouds 23 1020 49 10000 1.03 0 08:43 12.01.2022
3720 Clear 21 1020 56 9000 2.06 180 07:50 12.01.2022
3721 Clear 21 1020 56 9000 2.06 180 07:31 12.01.2022
3722 Clear 18 1018 63 10000 1.54 210 23:53 11.01.2022
3723 Clear 18 1018 68 10000 1.54 190 22:56 11.01.2022
3724 Clear 18 1018 68 10000 1.54 190 22:23 11.01.2022
3725 Clear 20 1019 56 10000 1.54 180 20:56 11.01.2022
3726 Clear 20 1019 56 10000 1.54 180 20:20 11.01.2022
3727 Clear 20 1019 56 10000 2.06 100 18:32 11.01.2022
3728 Clear 21 1019 49 10000 2.06 30 17:26 11.01.2022
3729 Clear 22 1018 46 10000 3.09 10 16:37 11.01.2022
3730 Clear 22 1018 53 10000 4.12 360 15:39 11.01.2022
3731 Clear 23 1018 46 10000 4.63 350 14:42 11.01.2022
3732 Clear 24 1018 43 10000 6.17 320 13:55 11.01.2022
3733 Clear 24 1018 43 10000 6.17 320 13:35 11.01.2022
3734 Clouds 25 1018 41 10000 4.12 300 12:43 11.01.2022
3735 Clear 25 1018 38 10000 2.06 0 11:45 11.01.2022
3736 Clear 23 1020 46 10000 2.06 0 09:39 11.01.2022
3737 Clear 21 1021 49 10000 3.6 70 07:18 11.01.2022
3738 Clear 17 1018 55 10000 2.57 80 00:32 11.01.2022
3739 Clear 17 1019 59 10000 2.57 70 23:43 10.01.2022
3740 Clear 17 1019 59 10000 2.57 70 23:22 10.01.2022
3741 Clear 18 1019 55 10000 2.57 60 22:19 10.01.2022
3742 Clear 19 1019 56 10000 1.54 80 21:54 10.01.2022
3743 Clear 19 1019 56 10000 1.54 80 21:20 10.01.2022
3744 Clear 19 1019 56 10000 2.06 50 20:57 10.01.2022
3745 Clear 19 1019 56 10000 2.06 50 20:28 10.01.2022
3746 Clear 20 1019 56 10000 1.54 60 19:44 10.01.2022
3747 Clear 20 1019 56 10000 1.54 60 19:21 10.01.2022
3748 Clear 20 1019 56 10000 2.06 50 18:49 10.01.2022
3749 Clear 20 1018 56 10000 3.09 50 17:41 10.01.2022
3750 Clear 22 1018 53 10000 3.6 340 16:42 10.01.2022
3751 Clear 22 1017 53 10000 4.63 340 15:49 10.01.2022
3752 Clear 23 1016 49 10000 6.17 340 14:30 10.01.2022
3753 Clear 24 1016 38 10000 2.06 0 11:58 10.01.2022
3754 Clear 24 1016 38 10000 2.06 0 11:25 10.01.2022
3755 Clouds 23 1018 46 10000 3.6 30 09:50 10.01.2022
3756 Clear 21 1020 56 10000 2.06 120 07:31 10.01.2022
3757 Clear 16 1018 72 10000 1.54 160 05:49 10.01.2022
3758 Clear 17 1017 72 10000 1.03 160 01:31 10.01.2022
3759 Clouds 17 1017 72 10000 1.54 180 00:25 10.01.2022
3760 Clouds 18 1017 68 10000 2.06 140 23:40 09.01.2022
3761 Clouds 18 1018 72 10000 2.57 110 22:38 09.01.2022
3762 Clouds 18 1018 68 10000 2.57 100 21:46 09.01.2022
3763 Clouds 18 1018 68 10000 2.57 100 21:24 09.01.2022
3764 Clear 19 1018 64 10000 2.06 100 20:52 09.01.2022
3765 Clear 19 1018 64 10000 2.06 100 20:34 09.01.2022
3766 Clear 19 1018 64 10000 2.57 100 19:45 09.01.2022
3767 Clear 19 1018 64 10000 2.57 100 19:23 09.01.2022
3768 Clear 20 1018 64 10000 2.06 70 18:56 09.01.2022
3769 Clear 20 1018 64 10000 2.06 70 18:34 09.01.2022
3770 Clear 21 1018 60 10000 1.54 360 17:40 09.01.2022
3771 Clear 21 1018 60 10000 1.54 360 17:20 09.01.2022
3772 Clear 22 1017 56 10000 3.6 350 15:58 09.01.2022
3773 Clear 22 1017 56 10000 3.6 350 15:35 09.01.2022
3774 Clouds 23 1017 53 10000 4.63 350 14:40 09.01.2022
3775 Clouds 23 1016 49 10000 4.63 330 13:51 09.01.2022
3776 Clouds 23 1016 49 10000 4.63 330 13:22 09.01.2022
3777 Clouds 24 1017 46 10000 1.54 230 11:54 09.01.2022
3778 Clouds 23 1018 49 10000 3.09 280 10:53 09.01.2022
3779 Clear 22 1019 49 10000 3.09 210 09:50 09.01.2022
3780 Clear 21 1020 52 10000 3.6 180 08:52 09.01.2022
3781 Clouds 16 1019 63 10000 2.57 130 05:38 09.01.2022
3782 Clouds 16 1017 63 10000 2.57 140 01:24 09.01.2022
3783 Clear 20 1018 55 10000 1.57 305 23:47 08.01.2022
3784 Clear 20 1018 52 10000 1.05 318 23:26 08.01.2022
3785 Clear 18 1018 59 10000 2.57 170 22:30 08.01.2022
3786 Clear 19 1018 55 10000 2.06 180 21:26 08.01.2022
3787 Clear 19 1019 52 10000 2.06 190 20:42 08.01.2022
3788 Clear 19 1019 52 10000 2.06 190 20:21 08.01.2022
3789 Clear 20 1019 49 10000 1.03 240 18:45 08.01.2022
3790 Clear 20 1019 46 10000 1.03 0 17:22 08.01.2022
3791 Clear 21 1018 46 10000 3.6 350 15:56 08.01.2022
3792 Clear 22 1018 40 10000 4.63 340 14:46 08.01.2022
3793 Clear 22 1017 37 10000 5.14 340 13:29 08.01.2022
3794 Clear 23 1018 35 10000 5.14 330 11:28 08.01.2022
3795 Clear 22 1018 33 10000 2.57 350 10:30 08.01.2022
3796 Clear 22 1019 33 10000 2.06 60 09:48 08.01.2022
3797 Clear 22 1020 33 10000 2.57 100 08:22 08.01.2022
3798 Clear 15 1018 63 10000 1.54 150 03:44 08.01.2022
3799 Clear 17 1018 55 10000 1.03 0 00:57 08.01.2022
3800 Clear 17 1018 59 10000 3.09 100 22:54 07.01.2022
3801 Clear 18 1018 55 10000 3.09 100 21:21 07.01.2022
3802 Clear 18 1019 52 10000 2.57 80 20:20 07.01.2022
3803 Clear 19 1019 45 10000 3.6 60 19:25 07.01.2022
3804 Clear 19 1019 49 10000 3.6 70 18:45 07.01.2022
3805 Clear 20 1019 46 10000 3.09 50 17:28 07.01.2022
3806 Clear 21 1018 43 10000 3.6 40 16:41 07.01.2022
3807 Clear 23 1017 35 10000 5.14 20 14:29 07.01.2022
3808 Clouds 23 1017 33 10000 4.63 350 13:41 07.01.2022
3809 Clouds 24 1017 31 10000 5.66 10 12:50 07.01.2022
3810 Clouds 23 1019 27 10000 3.09 60 09:46 07.01.2022
3811 Clear 15 1018 55 10000 1.03 0 02:57 07.01.2022
3812 Clear 15 1017 55 10000 1.54 140 01:56 07.01.2022
3813 Clear 15 1017 55 10000 1.54 140 01:28 07.01.2022
3814 Clear 16 1017 51 10000 1.54 150 00:59 07.01.2022
3815 Clear 16 1017 51 10000 1.54 150 00:28 07.01.2022
3816 Clear 18 1017 48 10000 1.54 190 21:39 06.01.2022
3817 Clear 18 1017 40 10000 2.06 120 20:25 06.01.2022
3818 Clear 22 1018 34 10000 5.01 4 19:54 06.01.2022
3819 Clear 22 1017 33 10000 3.75 354 19:28 06.01.2022
3820 Clear 20 1017 35 10000 2.57 340 17:42 06.01.2022
3821 Clear 20 1017 35 10000 2.57 340 17:42 06.01.2022
3822 Clear 20 1017 35 10000 2.57 340 17:19 06.01.2022
3823 Clear 21 1016 37 10000 2.57 10 16:21 06.01.2022
3824 Clear 22 1016 33 10000 3.6 10 15:39 06.01.2022
3825 Clear 22 1016 33 10000 3.6 10 15:19 06.01.2022
3826 Clear 22 1015 35 10000 4.63 20 14:19 06.01.2022
3827 Clouds 23 1014 31 10000 6.17 340 12:59 06.01.2022
3828 Clouds 23 1014 38 10000 4.63 360 11:50 06.01.2022
3829 Clouds 23 1014 38 10000 4.63 360 11:28 06.01.2022
3830 Clouds 22 1016 46 10000 8.75 300 09:33 06.01.2022
3831 Clouds 21 1014 49 10000 7.72 280 01:57 06.01.2022
3832 Clouds 21 1014 52 10000 7.72 290 23:54 05.01.2022
3833 Clouds 21 1015 49 10000 8.23 290 23:19 05.01.2022
3834 Clouds 21 1015 56 10000 6.69 270 22:40 05.01.2022
3835 Clouds 21 1015 56 10000 6.69 280 21:59 05.01.2022
3836 Clouds 21 1015 56 10000 6.69 280 21:22 05.01.2022
3837 Clouds 21 1015 56 10000 7.2 280 20:21 05.01.2022
3838 Clouds 21 1016 52 10000 6.69 280 19:27 05.01.2022
3839 Clouds 21 1016 56 10000 6.17 260 17:56 05.01.2022
3840 Clouds 21 1015 56 10000 6.17 260 16:56 05.01.2022
3841 Clouds 21 1015 52 10000 7.2 270 15:46 05.01.2022
3842 Clouds 21 1015 49 10000 7.72 270 14:50 05.01.2022
3843 Clouds 22 1014 56 10000 8.23 280 13:33 05.01.2022
3844 Clouds 21 1015 60 10000 6.17 290 11:46 05.01.2022
3845 Clouds 22 1017 46 10000 6.17 300 08:21 05.01.2022
3846 Clouds 22 1016 46 10000 5.14 290 06:36 05.01.2022
3847 Clouds 21 1015 46 10000 6.69 310 01:20 05.01.2022
3848 Clear 22 1015 52 10000 8.82 291 23:41 04.01.2022
3849 Clear 22 1015 52 10000 8.92 288 23:19 04.01.2022
3850 Clouds 22 1016 40 10000 6.17 290 21:32 04.01.2022
3851 Clouds 22 1016 40 10000 7.72 300 20:27 04.01.2022
3852 Clouds 22 1016 46 10000 7.15 300 18:35 04.01.2022
3853 Clouds 22 1016 46 10000 6.69 310 17:18 04.01.2022
3854 Clouds 24 1016 51 10000 10.59 287 16:31 04.01.2022
3855 Clouds 23 1014 49 10000 8.23 300 14:58 04.01.2022
3856 Clouds 23 1014 49 10000 8.23 300 14:37 04.01.2022
3857 Clouds 24 1013 50 10000 7.72 290 13:55 04.01.2022
3858 Clouds 24 1013 43 10000 6.69 270 11:44 04.01.2022
3859 Clouds 24 1014 43 10000 6.69 270 10:18 04.01.2022
3860 Clear 23 1016 40 10000 6.17 280 08:36 04.01.2022
3861 Clouds 22 1015 56 10000 5.66 280 04:24 04.01.2022
3862 Clouds 22 1013 64 10000 5.14 320 00:42 04.01.2022
3863 Clear 23 1013 60 10000 5.14 330 23:44 03.01.2022
3864 Clear 23 1013 60 10000 4.12 340 22:21 03.01.2022
3865 Clear 23 1013 64 10000 4.12 340 21:38 03.01.2022
3866 Clear 24 1013 64 10000 4.12 330 20:34 03.01.2022
3867 Clouds 24 1013 64 10000 4.12 320 18:54 03.01.2022
3868 Clouds 24 1013 64 10000 4.12 320 18:29 03.01.2022
3869 Clear 25 1013 57 10000 4.12 320 17:18 03.01.2022
3870 Clear 23 1012 68 10000 6.77 312 15:50 03.01.2022
3871 Clouds 25 1011 57 10000 4.63 310 14:31 03.01.2022
3872 Clouds 25 1010 73 7000 6.69 300 12:51 03.01.2022
3873 Clouds 25 1010 73 6000 5.14 240 11:50 03.01.2022
3874 Clouds 24 1010 83 5000 5.14 250 10:37 03.01.2022
3875 Dust 26 1011 65 5000 8.23 210 08:48 03.01.2022
3876 Dust 25 1012 69 5000 7.2 200 07:36 03.01.2022
3877 Clouds 23 1010 68 7000 3.09 180 01:55 03.01.2022
3878 Clouds 23 1010 68 8000 2.57 180 23:22 02.01.2022
3879 Clear 23 1010 68 10000 2.57 180 22:55 02.01.2022
3880 Clear 23 1010 68 10000 3.6 150 21:52 02.01.2022
3881 Clear 22 1010 73 10000 3.09 140 20:41 02.01.2022
3882 Clear 22 1010 73 10000 3.09 140 20:22 02.01.2022
3883 Clear 23 1010 64 10000 5.14 120 19:31 02.01.2022
3884 Clouds 24 1011 57 9000 1.54 140 18:47 02.01.2022
3885 Clouds 25 1012 53 6000 1.54 170 17:56 02.01.2022
3886 Clouds 25 1012 53 6000 1.54 170 17:37 02.01.2022
3887 Clouds 25 1012 53 6000 1.54 170 17:18 02.01.2022
3888 Clouds 25 1010 53 6000 3.09 140 16:26 02.01.2022
3889 Dust 27 1010 50 4500 3.09 170 14:34 02.01.2022
3890 Dust 26 1009 57 4500 6.69 180 12:54 02.01.2022
3891 Dust 26 1009 57 4500 6.69 180 12:22 02.01.2022
3892 Clear 25 1010 61 10000 9.77 180 11:33 02.01.2022
3893 Clear 25 1010 61 10000 10.8 180 10:49 02.01.2022
3894 Clear 24 1012 64 10000 11.32 180 09:45 02.01.2022
3895 Clear 21 1015 78 10000 3.09 130 05:51 02.01.2022
3896 Clear 20 1013 83 10000 3.09 90 01:48 02.01.2022
3897 Clear 20 1014 83 10000 3.09 80 23:40 01.01.2022
3898 Clear 20 1015 83 10000 2.06 0 22:57 01.01.2022
3899 Clear 20 1015 83 10000 2.06 0 22:23 01.01.2022
3900 Clear 20 1016 88 10000 3.6 140 21:44 01.01.2022
3901 Clear 20 1017 88 10000 2.57 140 20:55 01.01.2022
3902 Clouds 20 1018 83 10000 0 0 19:58 01.01.2022
3903 Clouds 20 1018 83 10000 0 0 19:26 01.01.2022
3904 Clouds 21 1018 88 10000 1.03 0 17:59 01.01.2022
3905 Clouds 21 1018 88 10000 1.54 170 16:41 01.01.2022
3906 Clouds 21 1018 88 10000 1.54 170 16:19 01.01.2022
3907 Clouds 22 1017 88 10000 2.06 180 15:26 01.01.2022
3908 Clouds 23 1017 78 10000 5.14 330 13:59 01.01.2022
3909 Clouds 23 1016 63 9020 2.63 236 12:50 01.01.2022
3910 Clouds 23 1017 73 4000 4.12 250 11:56 01.01.2022
3911 Clouds 24 1017 64 10000 5.14 140 11:23 01.01.2022
3912 Clear 24 1018 64 10000 4.63 150 10:27 01.01.2022
3913 Clouds 23 1019 64 10000 5.66 160 09:46 01.01.2022
3914 Clear 23 1020 64 10000 6.69 120 08:26 01.01.2022
3915 Clouds 20 1020 83 10000 5.66 100 07:54 01.01.2022
3916 Clouds 20 1020 83 10000 5.66 100 07:34 01.01.2022
3917 Clouds 19 1020 82 10000 4.12 80 06:41 01.01.2022
3918 Clouds 19 1019 82 10000 6.69 40 04:38 01.01.2022
3919 Clouds 20 1018 88 4000 4.63 10 02:44 01.01.2022
3920 Clear 20 1017 83 10000 2.57 90 23:39 31.12.2021
3921 Clear 20 1018 83 10000 2.06 90 21:53 31.12.2021
3922 Clear 21 1019 78 10000 2.57 80 20:39 31.12.2021
3923 Clear 21 1019 78 10000 2.06 90 19:31 31.12.2021
3924 Clear 21 1019 78 10000 2.57 130 18:41 31.12.2021
3925 Clear 22 1018 73 10000 4.12 120 17:43 31.12.2021
3926 Clear 22 1018 73 10000 4.12 120 17:19 31.12.2021
3927 Clear 22 1018 78 10000 4.12 120 16:38 31.12.2021
3928 Clear 23 1017 68 10000 3.6 120 15:57 31.12.2021
3929 Clear 23 1017 68 10000 3.6 120 15:29 31.12.2021
3930 Clear 23 1017 68 10000 3.6 120 15:29 31.12.2021
3931 Clear 23 1017 69 10000 2.06 40 14:57 31.12.2021
3932 Clear 23 1017 69 10000 2.06 40 14:30 31.12.2021
3933 Clouds 24 1016 69 10000 2.57 0 13:36 31.12.2021
3934 Clouds 23 1017 73 10000 2.06 20 12:49 31.12.2021
3935 Clouds 20 1017 88 10000 2.57 170 11:52 31.12.2021
3936 Clouds 20 1017 88 10000 2.57 170 11:33 31.12.2021
3937 Clouds 19 1018 94 8000 2.57 140 10:38 31.12.2021
3938 Clouds 19 1018 94 8000 2.57 140 10:20 31.12.2021
3939 Clouds 19 1018 88 1200 5.14 230 09:33 31.12.2021
3940 Clouds 24 1019 69 10000 2.57 190 08:43 31.12.2021
3941 Clouds 23 1019 68 10000 2.06 200 07:31 31.12.2021
3942 Clear 21 1016 68 10000 1.54 120 23:32 30.12.2021
3943 Clear 21 1016 68 10000 1.54 90 22:34 30.12.2021
3944 Clear 21 1016 68 10000 2.06 120 21:59 30.12.2021
3945 Clear 21 1016 68 10000 2.06 120 21:59 30.12.2021
3946 Clear 21 1016 68 10000 2.06 120 21:37 30.12.2021
3947 Clear 21 1016 68 10000 2.06 120 21:37 30.12.2021
3948 Clear 22 1017 64 10000 2.06 70 20:47 30.12.2021
3949 Clear 22 1017 64 10000 2.06 70 20:28 30.12.2021
3950 Clear 23 1017 64 10000 2.06 70 19:48 30.12.2021
3951 Clear 23 1017 60 10000 2.57 70 18:51 30.12.2021
3952 Clear 23 1017 60 10000 2.57 70 18:51 30.12.2021
3953 Clear 23 1017 60 10000 2.57 70 18:20 30.12.2021
3954 Clear 25 1016 57 10000 3.6 30 16:34 30.12.2021
3955 Clear 26 1015 53 10000 3.6 20 15:52 30.12.2021
3956 Clear 28 1014 30 10000 2.06 220 14:41 30.12.2021
3957 Clear 28 1014 30 10000 2.06 220 14:19 30.12.2021
3958 Clear 28 1014 30 10000 2.06 210 13:23 30.12.2021
3959 Clear 27 1015 36 10000 2.57 110 11:34 30.12.2021
3960 Clear 26 1016 41 10000 2.57 130 10:27 30.12.2021
3961 Clear 25 1017 53 10000 2.57 100 09:27 30.12.2021
3962 Clear 22 1018 64 10000 2.57 110 06:55 30.12.2021
3963 Clear 20 1017 64 10000 1.54 200 04:25 30.12.2021
3964 Clear 21 1016 60 10000 1.03 0 03:40 30.12.2021
3965 Clear 22 1016 56 10000 1.03 0 00:42 30.12.2021
3966 Clear 22 1016 56 10000 1.03 0 23:35 29.12.2021
3967 Clear 21 1016 60 10000 1.54 100 22:30 29.12.2021
3968 Clear 22 1016 56 10000 2.06 110 21:53 29.12.2021
3969 Clear 22 1017 56 10000 2.06 110 20:56 29.12.2021
3970 Clear 22 1017 56 10000 2.06 110 20:18 29.12.2021
3971 Clear 22 1017 60 10000 3.09 110 19:30 29.12.2021
3972 Clear 23 1017 60 10000 2.06 10 18:26 29.12.2021
3973 Clear 24 1017 60 10000 2.57 350 17:29 29.12.2021
3974 Clear 24 1016 53 10000 2.57 340 16:58 29.12.2021
3975 Clear 24 1016 53 10000 2.57 340 16:19 29.12.2021
3976 Clear 25 1016 47 10000 5.14 320 14:47 29.12.2021
3977 Clear 26 1015 50 10000 5.14 310 12:50 29.12.2021
3978 Clear 26 1015 50 10000 5.14 310 12:27 29.12.2021
3979 Clear 26 1016 41 10000 4.12 260 10:38 29.12.2021
3980 Clear 24 1018 53 10000 2.57 110 08:56 29.12.2021
3981 Clear 20 1018 68 10000 1.54 180 06:49 29.12.2021
3982 Clear 20 1018 68 10000 1.54 180 06:28 29.12.2021
3983 Clear 18 1017 72 10000 2.57 120 05:50 29.12.2021
3984 Clear 18 1016 72 10000 1.03 170 03:46 29.12.2021
3985 Clear 19 1016 68 10000 1.54 170 00:28 29.12.2021
3986 Clear 20 1016 68 10000 1.34 200 23:56 28.12.2021
3987 Clear 20 1016 64 10000 1.03 0 22:56 28.12.2021
3988 Clear 21 1016 64 10000 1.03 0 22:24 28.12.2021
3989 Clear 20 1017 68 10000 2.06 70 21:54 28.12.2021
3990 Clear 20 1017 68 10000 2.06 70 21:28 28.12.2021
3991 Clear 21 1017 60 10000 2.06 90 19:52 28.12.2021
3992 Clear 22 1017 60 10000 2.57 90 18:53 28.12.2021
3993 Clear 22 1017 60 10000 2.57 90 18:24 28.12.2021
3994 Clear 23 1017 53 10000 1.54 360 17:25 28.12.2021
3995 Clear 24 1016 50 10000 5.14 330 15:53 28.12.2021
3996 Clear 24 1016 50 10000 5.14 330 15:29 28.12.2021
3997 Clear 25 1015 44 10000 4.63 330 14:54 28.12.2021
3998 Clear 25 1015 44 10000 4.63 330 14:22 28.12.2021
3999 Clear 26 1015 41 10000 4.63 310 13:58 28.12.2021
4000 Clear 26 1015 41 10000 4.63 310 13:33 28.12.2021
4001 Clouds 26 1015 41 10000 5.66 320 12:55 28.12.2021
4002 Clouds 26 1015 41 10000 3.09 0 12:19 28.12.2021
4003 Clouds 25 1018 50 10000 2.06 0 09:32 28.12.2021
4004 Clear 23 1020 60 10000 3.6 190 07:33 28.12.2021
4005 Clear 19 1017 77 10000 2.06 190 03:34 28.12.2021
4006 Clear 21 1017 68 10000 2.06 180 23:39 27.12.2021
4007 Clear 21 1017 64 10000 2.06 190 22:21 27.12.2021
4008 Clear 23 1017 60 10000 2.57 260 21:30 27.12.2021
4009 Clouds 23 1018 60 10000 3.09 270 20:32 27.12.2021
4010 Clouds 24 1018 57 10000 3.09 270 19:48 27.12.2021
4011 Clouds 24 1018 57 10000 3.09 270 19:27 27.12.2021
4012 Clear 24 1017 60 10000 4.63 280 17:51 27.12.2021
4013 Clear 24 1017 60 10000 4.63 280 17:28 27.12.2021
4014 Clear 24 1016 57 10000 4.63 280 15:56 27.12.2021
4015 Clear 24 1016 57 10000 4.63 280 15:19 27.12.2021
4016 Clear 24 1016 57 10000 5.66 290 14:22 27.12.2021
4017 Clouds 26 1016 50 10000 6.17 290 12:52 27.12.2021
4018 Clouds 26 1017 47 10000 6.17 310 10:56 27.12.2021
4019 Clouds 26 1017 47 10000 6.17 310 10:27 27.12.2021
4020 Clouds 25 1018 50 10000 5.66 290 09:19 27.12.2021
4021 Clear 24 1018 60 10000 2.57 230 07:34 27.12.2021
4022 Clear 22 1018 64 10000 2.57 170 06:29 27.12.2021
4023 Clear 23 1016 57 10000 2.57 330 01:52 27.12.2021
4024 Clouds 23 1017 64 10000 4.12 290 23:49 26.12.2021
4025 Clouds 23 1017 64 10000 4.12 290 23:19 26.12.2021
4026 Clear 23 1017 60 10000 2.06 250 21:41 26.12.2021
4027 Clear 24 1018 57 10000 4.12 300 19:57 26.12.2021
4028 Clear 24 1018 57 10000 4.63 290 18:53 26.12.2021
4029 Clear 24 1018 57 10000 4.63 290 18:22 26.12.2021
4030 Clear 25 1016 53 10000 5.14 310 15:54 26.12.2021
4031 Clear 25 1016 50 10000 6.17 310 13:51 26.12.2021
4032 Clear 25 1016 50 10000 6.17 310 13:32 26.12.2021
4033 Clouds 26 1016 50 10000 6.69 330 12:37 26.12.2021
4034 Clouds 26 1016 50 10000 6.69 330 12:37 26.12.2021
4035 Clear 27 1016 47 10000 6.17 310 11:56 26.12.2021
4036 Clear 26 1017 50 10000 4.12 290 09:42 26.12.2021
4037 Clouds 26 1018 50 10000 4.63 320 08:50 26.12.2021
4038 Clouds 26 1018 50 10000 4.63 320 08:27 26.12.2021
4039 Clear 21 1017 73 10000 2.06 180 05:59 26.12.2021
4040 Clear 22 1015 68 10000 1.54 190 00:44 26.12.2021
4041 Clear 21 1015 68 10000 2.57 200 23:49 25.12.2021
4042 Clear 21 1015 68 10000 2.57 200 23:25 25.12.2021
4043 Clear 22 1015 68 10000 3.09 200 22:21 25.12.2021
4044 Clear 23 1016 60 10000 2.06 230 20:36 25.12.2021
4045 Clear 25 1016 57 10000 2.06 250 19:20 25.12.2021
4046 Clear 25 1016 57 10000 2.06 270 18:51 25.12.2021
4047 Clear 25 1015 61 10000 3.6 290 16:52 25.12.2021
4048 Clear 25 1014 61 10000 4.63 280 15:48 25.12.2021
4049 Clouds 25 1014 61 10000 5.14 300 14:25 25.12.2021
4050 Clouds 27 1014 54 10000 5.14 300 12:42 25.12.2021
4051 Clouds 26 1014 57 10000 4.63 290 11:27 25.12.2021
4052 Clouds 26 1016 57 10000 3.09 260 09:49 25.12.2021
4053 Clear 23 1017 64 10000 3.09 200 07:51 25.12.2021
4054 Clear 20 1013 73 10000 2.06 190 01:45 25.12.2021
4055 Clear 21 1014 73 10000 2.06 150 00:27 25.12.2021
4056 Clear 21 1014 68 10000 2.57 190 22:28 24.12.2021
4057 Clear 24 1015 64 10000 2.06 260 19:36 24.12.2021
4058 Clear 24 1015 64 10000 2.06 260 19:18 24.12.2021
4059 Clear 25 1013 65 10000 3.6 270 16:50 24.12.2021
4060 Clouds 26 1013 57 10000 4.63 310 15:54 24.12.2021
4061 Clouds 26 1013 57 10000 4.63 310 15:34 24.12.2021
4062 Clear 26 1013 57 10000 4.63 290 14:40 24.12.2021
4063 Clear 26 1013 57 10000 4.63 290 14:19 24.12.2021
4064 Clouds 27 1012 54 10000 5.36 300 13:34 24.12.2021
4065 Clouds 27 1012 50 10000 5.14 300 12:47 24.12.2021
4066 Clear 27 1012 50 10000 4.63 280 11:52 24.12.2021
4067 Clear 27 1012 50 10000 4.63 280 11:25 24.12.2021
4068 Clear 27 1013 47 10000 4.12 290 10:46 24.12.2021
4069 Clear 26 1014 53 10000 3.6 250 09:33 24.12.2021
4070 Clear 25 1015 57 10000 2.57 210 08:23 24.12.2021
4071 Clear 23 1016 60 10000 2.57 200 07:47 24.12.2021
4072 Clear 20 1012 68 10000 2.06 180 02:33 24.12.2021
4073 Clear 21 1013 64 10000 2.57 190 23:56 23.12.2021
4074 Clear 21 1013 60 10000 2.06 200 22:58 23.12.2021
4075 Clear 21 1013 60 10000 2.06 200 22:37 23.12.2021
4076 Clear 21 1013 60 10000 2.06 200 22:18 23.12.2021
4077 Clear 23 1014 56 10000 2.57 200 20:56 23.12.2021
4078 Clear 23 1014 56 10000 2.57 200 20:18 23.12.2021
4079 Clear 23 1014 56 10000 2.57 200 20:18 23.12.2021
4080 Clear 25 1015 50 10000 3.09 280 18:35 23.12.2021
4081 Clear 25 1015 50 10000 4.12 280 17:56 23.12.2021
4082 Clear 25 1014 50 10000 4.63 280 16:44 23.12.2021
4083 Clear 25 1014 50 10000 4.63 280 16:24 23.12.2021
4084 Clear 25 1013 53 10000 4.63 290 15:31 23.12.2021
4085 Clear 26 1013 50 10000 5.66 270 14:52 23.12.2021
4086 Clear 26 1013 50 10000 5.66 270 14:30 23.12.2021
4087 Clouds 27 1013 47 10000 4.63 260 12:54 23.12.2021
4088 Clouds 26 1014 50 10000 4.63 270 10:44 23.12.2021
4089 Clouds 25 1013 48 10000 7.43 279 09:42 23.12.2021
4090 Clear 24 1015 60 10000 3.6 210 08:59 23.12.2021
4091 Clear 20 1015 73 10000 4.63 210 06:55 23.12.2021
4092 Clear 19 1014 77 10000 3.6 190 04:30 23.12.2021
4093 Clear 23 1014 60 10000 2.57 270 23:20 22.12.2021
4094 Clear 23 1014 64 10000 3.09 0 22:42 22.12.2021
4095 Clear 24 1014 60 10000 4.63 280 21:56 22.12.2021
4096 Clear 24 1014 60 10000 4.63 280 21:29 22.12.2021
4097 Clear 23 1015 58 10000 7.34 274 20:47 22.12.2021
4098 Clear 23 1015 58 10000 7.2 271 20:26 22.12.2021
4099 Clear 24 1015 60 10000 4.63 280 19:21 22.12.2021
4100 Clouds 25 1015 69 10000 5.14 290 17:42 22.12.2021
4101 Clouds 25 1015 69 10000 6.17 290 16:39 22.12.2021
4102 Clouds 26 1014 69 10000 7.2 310 15:39 22.12.2021
4103 Clouds 27 1013 61 10000 4.63 270 13:32 22.12.2021
4104 Clouds 26 1014 65 10000 5.66 280 12:39 22.12.2021
4105 Clear 27 1016 50 10000 5.14 280 09:54 22.12.2021
4106 Clear 27 1016 50 10000 5.14 280 09:35 22.12.2021
4107 Clear 23 1017 56 10000 3.09 200 07:25 22.12.2021
4108 Clear 19 1017 72 10000 3.6 210 05:43 22.12.2021
4109 Clear 19 1017 72 10000 3.6 210 05:24 22.12.2021
4110 Clear 19 1016 72 10000 2.06 220 04:49 22.12.2021
4111 Clear 19 1016 72 10000 2.06 220 04:24 22.12.2021
4112 Clear 19 1016 72 10000 1.54 190 03:32 22.12.2021
4113 Clear 20 1016 68 10000 1.54 180 00:47 22.12.2021
4114 Clouds 23 1016 65 10000 2.06 220 22:52 21.12.2021
4115 Clear 22 1016 67 10000 1.73 258 22:28 21.12.2021
4116 Clear 22 1017 68 10000 2.57 190 21:44 21.12.2021
4117 Clear 23 1017 61 10000 2.06 260 20:55 21.12.2021
4118 Clear 23 1017 61 10000 2.06 260 20:21 21.12.2021
4119 Clear 23 1017 61 10000 2.57 280 19:41 21.12.2021
4120 Clear 24 1017 57 10000 2.57 280 18:45 21.12.2021
4121 Clear 24 1017 57 10000 2.57 280 18:21 21.12.2021
4122 Clouds 23 1017 66 10000 3.09 290 17:41 21.12.2021
4123 Clear 26 1016 44 10000 4.12 290 15:55 21.12.2021
4124 Clear 26 1016 44 10000 4.12 290 15:20 21.12.2021
4125 Clear 28 1016 36 10000 4.12 0 13:50 21.12.2021
4126 Clear 28 1016 36 10000 4.12 0 13:30 21.12.2021
4127 Clear 28 1016 34 10000 4.12 270 11:36 21.12.2021
4128 Clear 28 1017 34 10000 4.12 280 10:21 21.12.2021
4129 Clear 27 1018 41 10000 3.6 240 09:19 21.12.2021
4130 Clear 23 1020 68 6000 1.54 170 07:55 21.12.2021
4131 Clouds 23 1020 68 6000 1.54 170 07:26 21.12.2021
4132 Haze 19 1019 77 5000 2.06 120 05:31 21.12.2021
4133 Clouds 18 1017 77 7000 0.51 0 02:40 21.12.2021
4134 Clear 20 1017 73 10000 1.03 180 23:58 20.12.2021
4135 Clear 20 1017 73 10000 1.03 180 23:27 20.12.2021
4136 Clear 21 1017 73 10000 1.03 210 22:28 20.12.2021
4137 Clear 21 1017 73 10000 1.03 210 22:28 20.12.2021
4138 Clear 21 1017 68 10000 3.6 120 21:47 20.12.2021
4139 Clear 21 1017 68 10000 3.6 120 21:23 20.12.2021
4140 Clear 22 1018 64 10000 1.54 120 20:44 20.12.2021
4141 Clear 22 1018 64 10000 2.57 100 19:50 20.12.2021
4142 Clear 22 1018 64 10000 2.57 100 19:30 20.12.2021
4143 Clear 23 1018 64 10000 1.54 360 18:53 20.12.2021
4144 Clouds 22 1019 67 10000 0.41 50 17:52 20.12.2021
4145 Clouds 22 1019 67 10000 0.94 353 17:23 20.12.2021
4146 Clear 25 1018 57 10000 3.09 350 16:38 20.12.2021
4147 Clear 25 1018 53 10000 4.12 330 15:48 20.12.2021
4148 Clear 26 1017 50 10000 5.66 320 14:43 20.12.2021
4149 Clouds 24 1017 60 10000 3.76 304 12:51 20.12.2021
4150 Clear 25 1018 56 10000 4.48 300 11:19 20.12.2021
4151 Clear 27 1019 39 10000 1.54 0 09:47 20.12.2021
4152 Clear 26 1020 50 10000 2.06 0 08:58 20.12.2021
4153 Clear 26 1020 50 10000 2.06 0 08:40 20.12.2021
4154 Clear 24 1020 52 10000 2.19 233 07:49 20.12.2021
4155 Clouds 23 1020 56 10000 1.71 194 07:25 20.12.2021
4156 Clear 18 1019 77 10000 1.03 0 03:42 20.12.2021
4157 Clear 20 1019 64 10000 1.03 180 23:51 19.12.2021
4158 Clear 21 1019 64 10000 1.54 120 22:45 19.12.2021
4159 Clear 22 1019 56 10000 1.03 0 21:50 19.12.2021
4160 Clear 22 1019 56 10000 1.03 0 21:29 19.12.2021
4161 Clouds 22 1019 62 10000 1.45 29 20:30 19.12.2021
4162 Clear 24 1019 50 10000 2.06 360 19:46 19.12.2021
4163 Clear 24 1019 50 10000 2.57 350 18:58 19.12.2021
4164 Clear 24 1019 50 10000 2.57 350 18:27 19.12.2021
4165 Clear 25 1019 50 10000 3.09 360 17:49 19.12.2021
4166 Clear 25 1019 50 10000 3.09 360 17:18 19.12.2021
4167 Clear 25 1018 53 10000 2.57 350 16:25 19.12.2021
4168 Clear 25 1018 53 10000 5.14 330 15:28 19.12.2021
4169 Clear 26 1017 50 10000 5.14 330 14:57 19.12.2021
4170 Clear 26 1017 50 10000 5.14 330 14:36 19.12.2021
4171 Clear 27 1017 47 10000 5.14 340 13:22 19.12.2021
4172 Clear 27 1017 44 10000 5.14 330 12:33 19.12.2021
4173 Clear 27 1018 39 10000 2.57 270 11:42 19.12.2021
4174 Clear 27 1019 41 10000 1.54 150 10:53 19.12.2021
4175 Clear 27 1019 41 10000 1.54 150 10:23 19.12.2021
4176 Clear 27 1019 41 10000 1.54 150 10:23 19.12.2021
4177 Clear 26 1020 47 10000 3.09 200 09:26 19.12.2021
4178 Clear 23 1022 56 10000 3.6 180 07:47 19.12.2021
4179 Clouds 21 1020 62 10000 1.79 135 04:44 19.12.2021
4180 Clear 21 1018 64 10000 2.06 80 00:55 19.12.2021
4181 Clear 20 1018 68 10000 1.03 0 23:52 18.12.2021
4182 Clear 21 1018 64 10000 1.54 80 22:31 18.12.2021
4183 Clear 21 1019 64 10000 1.54 90 21:54 18.12.2021
4184 Clear 21 1019 64 10000 1.54 90 21:33 18.12.2021
4185 Clear 22 1019 60 10000 2.57 90 20:44 18.12.2021
4186 Clear 22 1019 53 10000 3.6 100 19:50 18.12.2021
4187 Clear 22 1019 53 10000 3.6 100 19:19 18.12.2021
4188 Clear 24 1019 47 10000 2.57 360 18:18 18.12.2021
4189 Clear 24 1018 47 10000 2.57 350 17:46 18.12.2021
4190 Clear 25 1018 44 10000 2.06 360 16:23 18.12.2021
4191 Clear 26 1018 36 10000 3.6 10 15:26 18.12.2021
4192 Clear 27 1017 36 10000 4.63 340 14:22 18.12.2021
4193 Clear 28 1018 34 10000 1.03 0 12:39 18.12.2021
4194 Clear 26 1019 41 10000 4.12 200 10:52 18.12.2021
4195 Clear 25 1020 44 10000 4.63 190 09:33 18.12.2021
4196 Clear 24 1021 46 10000 5.66 190 08:41 18.12.2021
4197 Clear 24 1021 46 10000 5.66 190 08:18 18.12.2021
4198 Clear 20 1018 68 10000 3.09 90 01:48 18.12.2021
4199 Clear 20 1018 68 10000 3.09 90 00:27 18.12.2021
4200 Clouds 20 1018 71 10000 3.58 111 23:37 17.12.2021
4201 Clear 22 1019 68 10000 2.57 90 21:54 17.12.2021
4202 Clear 22 1019 64 10000 3.09 70 20:50 17.12.2021
4203 Clear 22 1019 64 10000 3.09 70 20:28 17.12.2021
4204 Clear 23 1019 64 10000 2.57 70 18:54 17.12.2021
4205 Clear 23 1019 64 10000 2.57 70 18:21 17.12.2021
4206 Clear 24 1019 60 10000 3.6 50 17:25 17.12.2021
4207 Clouds 23 1019 58 10000 3.18 346 16:29 17.12.2021
4208 Clear 25 1018 53 10000 3.6 30 15:51 17.12.2021
4209 Clear 25 1018 53 10000 3.6 30 15:18 17.12.2021
4210 Clear 25 1018 53 10000 4.12 340 14:34 17.12.2021
4211 Clear 28 1018 42 10000 1.54 0 12:38 17.12.2021
4212 Clear 27 1018 34 10000 2.57 160 11:18 17.12.2021
4213 Clear 26 1021 41 10000 3.09 200 09:52 17.12.2021
4214 Clear 24 1021 50 10000 3.09 180 08:58 17.12.2021
4215 Clear 24 1021 50 10000 3.09 180 08:19 17.12.2021
4216 Clear 20 1021 64 10000 1.54 180 05:21 17.12.2021
4217 Clear 20 1019 64 10000 2.06 120 02:51 17.12.2021
4218 Clear 21 1019 60 10000 2.06 100 22:50 16.12.2021
4219 Clear 21 1019 60 10000 2.06 100 22:22 16.12.2021
4220 Clear 22 1019 56 10000 2.06 60 21:44 16.12.2021
4221 Clear 22 1019 60 10000 2.06 80 20:48 16.12.2021
4222 Clear 22 1019 60 10000 2.06 80 20:21 16.12.2021
4223 Clear 22 1020 64 10000 2.57 80 19:31 16.12.2021
4224 Clear 23 1019 60 10000 3.09 60 18:33 16.12.2021
4225 Clear 25 1019 53 10000 3.6 20 17:47 16.12.2021
4226 Clouds 23 1019 57 10000 3.92 337 16:26 16.12.2021
4227 Clear 25 1018 50 10000 4.63 350 15:50 16.12.2021
4228 Clear 27 1017 36 10000 4.12 340 13:47 16.12.2021
4229 Clouds 27 1018 39 10000 4.12 350 12:30 16.12.2021
4230 Clear 28 1018 32 10000 1.03 0 11:19 16.12.2021
4231 Clouds 25 1018 50 10000 3.63 292 10:41 16.12.2021
4232 Clear 27 1020 36 10000 2.06 90 09:43 16.12.2021
4233 Clear 23 1020 53 10000 2.06 120 06:51 16.12.2021
4234 Clear 23 1020 53 10000 2.06 120 06:18 16.12.2021
4235 Clear 21 1018 56 10000 1.03 0 23:58 15.12.2021
4236 Clear 21 1018 56 10000 1.03 0 23:18 15.12.2021
4237 Clouds 22 1019 59 10000 2.45 89 22:21 15.12.2021
4238 Clear 22 1019 53 10000 2.57 110 21:31 15.12.2021
4239 Clouds 22 1019 58 10000 2.5 87 20:51 15.12.2021
4240 Clear 23 1019 57 10000 2.57 90 19:53 15.12.2021
4241 Clear 23 1019 57 10000 2.57 90 19:18 15.12.2021
4242 Clear 23 1019 53 10000 3.09 60 18:20 15.12.2021
4243 Clear 24 1019 50 10000 3.09 30 17:45 15.12.2021
4244 Clear 24 1019 50 10000 3.09 30 17:21 15.12.2021
4245 Clear 26 1018 44 10000 4.12 350 15:49 15.12.2021
4246 Clear 26 1018 44 10000 4.12 350 15:30 15.12.2021
4247 Clear 26 1017 38 10000 5.66 340 14:48 15.12.2021
4248 Clouds 24 1018 44 10000 4.16 336 13:34 15.12.2021
4249 Clear 28 1017 26 10000 2.06 0 11:52 15.12.2021
4250 Clear 28 1019 26 10000 2.57 0 10:20 15.12.2021
4251 Clouds 25 1020 32 10000 1.37 66 08:26 15.12.2021
4252 Clear 18 1020 60 10000 1.54 190 05:53 15.12.2021
4253 Clear 19 1018 56 10000 1.54 90 00:37 15.12.2021
4254 Clear 20 1018 57 10000 4.39 105 23:27 14.12.2021
4255 Clear 20 1018 49 10000 1.54 90 22:44 14.12.2021
4256 Clear 21 1018 49 10000 2.06 100 21:43 14.12.2021
4257 Clear 21 1018 54 10000 4.31 110 20:22 14.12.2021
4258 Clear 23 1018 43 10000 3.6 60 19:34 14.12.2021
4259 Clear 23 1018 46 10000 2.06 80 18:38 14.12.2021
4260 Clear 25 1018 47 10000 2.57 40 17:55 14.12.2021
4261 Clear 25 1017 47 10000 3.09 30 16:43 14.12.2021
4262 Clear 25 1017 47 10000 3.09 30 16:21 14.12.2021
4263 Clear 27 1016 44 10000 4.63 330 13:59 14.12.2021
4264 Clear 29 1016 28 10000 1.03 0 12:50 14.12.2021
4265 Clear 28 1016 32 10000 1.54 0 11:25 14.12.2021
4266 Clear 27 1017 36 10000 2.06 0 10:59 14.12.2021
4267 Clear 26 1018 41 10000 2.06 0 09:54 14.12.2021
4268 Clear 25 1019 38 10000 3.6 170 08:49 14.12.2021
4269 Clear 25 1019 38 10000 3.6 170 08:21 14.12.2021
4270 Clear 24 1019 38 10000 1.54 110 07:23 14.12.2021
4271 Clear 21 1017 45 10000 5.93 93 23:52 13.12.2021
4272 Clear 19 1017 49 10000 1.54 90 22:26 13.12.2021
4273 Clear 20 1017 49 10000 2.57 90 21:39 13.12.2021
4274 Clear 21 1017 40 10000 5.23 89 20:51 13.12.2021
4275 Clear 21 1017 40 10000 5.23 89 20:51 13.12.2021
4276 Clear 21 1018 40 10000 5.02 84 20:22 13.12.2021
4277 Clear 22 1018 49 10000 2.06 80 19:49 13.12.2021
4278 Clear 23 1018 38 10000 5.73 79 17:28 13.12.2021
4279 Clear 25 1017 47 10000 4.63 50 16:43 13.12.2021
4280 Clear 24 1018 40 10000 5.96 75 15:43 13.12.2021
4281 Clear 26 1016 53 10000 4.63 10 14:42 13.12.2021
4282 Clear 27 1016 47 10000 5.66 30 13:37 13.12.2021
4283 Clear 27 1016 50 10000 4.12 10 12:40 13.12.2021
4284 Clear 28 1016 34 10000 2.57 80 11:52 13.12.2021
4285 Clear 28 1016 34 10000 2.57 80 11:29 13.12.2021
4286 Clear 27 1017 36 10000 2.57 70 10:36 13.12.2021
4287 Clear 26 1019 41 10000 4.63 50 08:44 13.12.2021
4288 Clouds 21 1019 68 6000 1.34 160 06:55 13.12.2021
4289 Haze 18 1019 77 5000 1.54 190 05:19 13.12.2021
4290 Clear 20 1017 68 10000 1.54 170 23:55 12.12.2021
4291 Clouds 22 1017 66 10000 0.86 25 21:58 12.12.2021
4292 Clouds 22 1018 66 10000 0.77 328 21:24 12.12.2021
4293 Clouds 23 1018 57 10000 2.06 10 19:35 12.12.2021
4294 Clouds 24 1018 57 10000 2.57 360 18:22 12.12.2021
4295 Clouds 25 1018 57 10000 3.09 310 16:32 12.12.2021
4296 Clouds 25 1017 57 10000 3.09 340 15:55 12.12.2021
4297 Clouds 25 1017 57 10000 3.09 340 15:28 12.12.2021
4298 Clouds 26 1017 50 10000 5.14 340 14:46 12.12.2021
4299 Clouds 24 1017 57 10000 3.5 304 14:18 12.12.2021
4300 Clouds 26 1017 47 10000 3.09 290 12:48 12.12.2021
4301 Clouds 26 1017 50 10000 3.6 310 11:45 12.12.2021
4302 Clouds 26 1017 50 10000 3.6 310 11:27 12.12.2021
4303 Clouds 26 1018 50 10000 4.12 320 10:44 12.12.2021
4304 Clouds 26 1019 50 10000 3.09 310 09:58 12.12.2021
4305 Clouds 25 1019 54 10000 3.77 297 08:46 12.12.2021
4306 Clouds 24 1020 60 8000 1.54 240 07:25 12.12.2021
4307 Clouds 20 1019 68 7000 2.06 160 05:29 12.12.2021
4308 Clouds 20 1019 68 6000 2.57 200 04:19 12.12.2021
4309 Clouds 21 1018 64 10000 2.06 180 00:54 12.12.2021
4310 Clear 21 1018 60 10000 2.57 190 22:56 11.12.2021
4311 Clear 21 1018 60 10000 2.57 190 22:20 11.12.2021
4312 Clouds 22 1019 60 10000 2.06 190 21:26 11.12.2021
4313 Clouds 23 1019 57 10000 1.54 240 19:50 11.12.2021
4314 Clouds 23 1019 57 10000 1.54 240 19:21 11.12.2021
4315 Clear 24 1019 53 10000 1.54 300 18:42 11.12.2021
4316 Clear 25 1019 53 10000 3.09 290 17:48 11.12.2021
4317 Clear 26 1018 47 10000 4.12 330 15:58 11.12.2021
4318 Clear 26 1018 47 10000 4.12 330 15:39 11.12.2021
4319 Clouds 26 1018 47 10000 4.12 310 14:33 11.12.2021
4320 Clouds 27 1018 47 10000 4.63 290 12:20 11.12.2021
4321 Clouds 25 1018 51 10000 3.96 287 10:49 11.12.2021
4322 Clouds 26 1020 47 10000 2.57 220 09:40 11.12.2021
4323 Clear 18 1019 59 10000 1.54 210 03:57 11.12.2021
4324 Clear 19 1018 60 10000 1.54 180 00:47 11.12.2021
4325 Clear 20 1019 56 10000 1.03 0 23:42 10.12.2021
4326 Clear 20 1019 56 10000 1.03 0 22:33 10.12.2021
4327 Clear 20 1019 53 10000 1.54 120 21:40 10.12.2021
4328 Clear 21 1020 53 10000 1.54 100 20:26 10.12.2021
4329 Clouds 25 1020 58 10000 2.05 329 19:18 10.12.2021
4330 Clear 24 1020 50 10000 3.09 350 17:46 10.12.2021
4331 Clear 25 1020 50 10000 3.6 340 16:35 10.12.2021
4332 Clear 26 1020 50 10000 4.12 350 15:43 10.12.2021
4333 Clear 26 1020 50 10000 4.12 350 15:25 10.12.2021
4334 Clear 27 1019 44 10000 5.66 10 14:30 10.12.2021
4335 Clear 27 1019 39 10000 5.14 340 13:48 10.12.2021
4336 Clear 28 1019 28 10000 4.12 340 12:55 10.12.2021
4337 Clear 28 1019 23 10000 3.6 340 11:41 10.12.2021
4338 Clear 28 1020 20 10000 2.06 0 10:56 10.12.2021
4339 Clear 28 1021 18 10000 2.06 100 09:46 10.12.2021
4340 Clouds 24 1022 34 10000 1.08 104 07:28 10.12.2021
4341 Clear 17 1020 48 10000 1.03 180 04:57 10.12.2021
4342 Clear 18 1019 49 10000 1.54 170 02:39 10.12.2021
4343 Clear 20 1019 46 10000 1.03 0 23:40 09.12.2021
4344 Clear 21 1019 49 10000 2.06 100 22:41 09.12.2021
4345 Clear 21 1019 49 10000 2.06 100 22:41 09.12.2021
4346 Clear 21 1019 49 10000 2.06 100 22:21 09.12.2021
4347 Clear 22 1019 53 10000 2.57 110 21:39 09.12.2021
4348 Clouds 23 1019 47 10000 2.62 76 20:35 09.12.2021
4349 Clear 23 1019 50 10000 2.06 90 19:38 09.12.2021
4350 Clear 23 1019 50 10000 2.06 90 19:20 09.12.2021
4351 Clear 24 1020 50 10000 3.99 28 18:19 09.12.2021
4352 Clear 25 1019 47 10000 2.57 40 17:47 09.12.2021
4353 Clear 25 1019 47 10000 2.57 40 17:24 09.12.2021
4354 Clear 24 1019 49 10000 4.34 22 16:36 09.12.2021
4355 Clear 27 1018 39 10000 3.6 20 15:18 09.12.2021
4356 Clear 27 1018 36 10000 4.63 360 14:30 09.12.2021
4357 Clear 30 1017 25 10000 4.12 350 12:48 09.12.2021
4358 Clear 30 1018 12 10000 2.06 0 11:33 09.12.2021
4359 Clear 29 1019 13 10000 3.09 0 10:28 09.12.2021
4360 Clear 26 1021 25 10000 4.12 90 07:34 09.12.2021
4361 Clear 17 1019 52 10000 1.54 70 03:56 09.12.2021
4362 Clear 18 1018 49 10000 2.06 70 00:25 09.12.2021
4363 Clear 19 1018 45 10000 1.03 0 23:37 08.12.2021
4364 Clear 20 1019 43 10000 2.06 90 22:57 08.12.2021
4365 Clear 20 1019 43 10000 2.06 90 22:25 08.12.2021
4366 Clear 21 1019 40 10000 2.06 90 21:33 08.12.2021
4367 Clear 21 1019 40 10000 2.57 100 20:48 08.12.2021
4368 Clear 22 1019 38 10000 2.57 80 19:56 08.12.2021
4369 Clear 23 1019 38 10000 2.57 110 18:58 08.12.2021
4370 Clear 23 1019 38 10000 2.57 110 18:22 08.12.2021
4371 Clear 25 1018 44 10000 3.09 50 16:53 08.12.2021
4372 Clouds 24 1018 41 10000 5.07 63 15:42 08.12.2021
4373 Clouds 25 1018 43 10000 5 45 15:22 08.12.2021
4374 Clear 27 1017 41 10000 4.63 360 13:26 08.12.2021
4375 Clouds 26 1018 42 10000 5.43 8 10:45 08.12.2021
4376 Clear 27 1019 39 10000 4.63 90 09:58 08.12.2021
4377 Clear 26 1020 47 10000 4.12 80 08:34 08.12.2021
4378 Clear 23 1020 53 10000 2.06 100 06:22 08.12.2021
4379 Clear 20 1017 78 9000 2.06 70 01:20 08.12.2021
4380 Clear 22 1018 73 9000 2.57 50 23:23 07.12.2021
4381 Clear 22 1018 73 8000 1.54 60 21:25 07.12.2021
4382 Clear 23 1019 73 9000 2.06 0 20:25 07.12.2021
4383 Clear 23 1019 69 10000 2.57 60 19:21 07.12.2021
4384 Clear 24 1019 69 10000 2.57 50 18:23 07.12.2021
4385 Clouds 25 1018 61 10000 3.6 60 17:27 07.12.2021
4386 Clear 25 1018 57 10000 3.6 20 16:56 07.12.2021
4387 Clear 25 1018 57 10000 3.6 20 16:26 07.12.2021
4388 Clouds 25 1017 57 10000 5.14 350 14:38 07.12.2021
4389 Clear 24 1017 58 10000 4.38 349 13:41 07.12.2021
4390 Clouds 26 1017 53 10000 5.14 340 12:22 07.12.2021
4391 Clouds 26 1017 47 10000 3.6 350 11:19 07.12.2021
4392 Clouds 26 1019 47 10000 1.54 0 09:40 07.12.2021
4393 Clear 23 1020 56 10000 2.57 200 07:50 07.12.2021
4394 Clear 19 1019 72 8000 3.09 170 05:52 07.12.2021
4395 Clear 19 1019 72 8000 3.09 170 05:26 07.12.2021
4396 Clear 21 1017 68 10000 1.54 170 23:36 06.12.2021
4397 Clear 22 1017 64 10000 2.06 190 22:41 06.12.2021
4398 Clear 23 1017 53 10000 3.09 290 21:59 06.12.2021
4399 Clear 23 1017 53 10000 3.09 290 21:31 06.12.2021
4400 Clear 23 1018 64 10000 1.54 240 20:32 06.12.2021
4401 Clouds 23 1018 61 10000 3.14 264 19:25 06.12.2021
4402 Clear 25 1017 53 10000 2.57 260 18:42 06.12.2021
4403 Clear 23 1018 60 10000 3.24 271 17:54 06.12.2021
4404 Clear 23 1018 60 10000 3.36 278 17:33 06.12.2021
4405 Clear 25 1017 53 10000 4.12 300 15:52 06.12.2021
4406 Clear 26 1016 47 10000 4.12 0 14:46 06.12.2021
4407 Clouds 27 1016 44 10000 4.63 290 13:35 06.12.2021
4408 Clouds 27 1016 47 10000 5.14 310 12:38 06.12.2021
4409 Clouds 27 1017 36 10000 3.6 260 10:28 06.12.2021
4410 Clear 25 1019 57 10000 1.03 0 07:41 06.12.2021
4411 Clouds 20 1017 73 8000 1.54 180 02:28 06.12.2021
4412 Clear 22 1016 64 10000 1.54 110 22:28 05.12.2021
4413 Clear 22 1016 64 10000 1.54 110 22:28 05.12.2021
4414 Clear 22 1017 64 10000 2.06 90 21:25 05.12.2021
4415 Clear 23 1017 60 10000 2.06 80 20:54 05.12.2021
4416 Clear 23 1017 60 10000 2.06 80 20:18 05.12.2021
4417 Clear 23 1017 60 10000 3.09 100 19:26 05.12.2021
4418 Clear 24 1017 57 10000 2.06 30 18:31 05.12.2021
4419 Clear 25 1017 57 10000 2.06 10 17:52 05.12.2021
4420 Clear 25 1017 57 10000 2.06 10 17:34 05.12.2021
4421 Clear 26 1016 47 10000 3.09 30 16:36 05.12.2021
4422 Clear 26 1016 47 10000 3.09 30 16:18 05.12.2021
4423 Clear 26 1016 50 10000 5.14 340 14:48 05.12.2021
4424 Clear 26 1016 50 10000 5.14 340 14:30 05.12.2021
4425 Clear 27 1015 47 10000 3.6 360 13:35 05.12.2021
4426 Clear 27 1015 44 10000 4.63 360 12:47 05.12.2021
4427 Clear 27 1015 44 10000 4.63 360 12:27 05.12.2021
4428 Clear 27 1016 44 10000 3.09 0 11:46 05.12.2021
4429 Clouds 27 1017 41 10000 3.09 60 10:43 05.12.2021
4430 Clouds 26 1018 47 10000 2.06 0 09:47 05.12.2021
4431 Clear 21 1019 60 10000 2.57 180 06:31 05.12.2021
4432 Clear 20 1017 64 10000 1.54 170 01:38 05.12.2021
4433 Clouds 21 1017 60 10000 2.06 150 23:22 04.12.2021
4434 Clouds 23 1017 53 10000 2.06 260 21:51 04.12.2021
4435 Clouds 24 1017 50 10000 3.09 280 20:47 04.12.2021
4436 Clouds 24 1017 53 10000 2.57 260 19:54 04.12.2021
4437 Clouds 24 1017 53 10000 2.57 260 19:30 04.12.2021
4438 Clouds 25 1017 47 10000 3.6 290 17:58 04.12.2021
4439 Clouds 25 1017 47 10000 3.6 290 17:36 04.12.2021
4440 Clear 23 1017 55 10000 5.28 277 16:47 04.12.2021
4441 Clear 24 1017 55 10000 5.53 279 16:28 04.12.2021
4442 Clouds 26 1015 50 10000 6.69 280 13:39 04.12.2021
4443 Clouds 26 1016 47 10000 6.17 260 11:44 04.12.2021
4444 Clouds 26 1016 47 10000 6.17 260 11:20 04.12.2021
4445 Clouds 26 1016 44 10000 6.17 260 10:24 04.12.2021
4446 Clouds 26 1018 50 10000 5.14 270 08:42 04.12.2021
4447 Clouds 22 1018 68 10000 2.57 190 05:30 04.12.2021
4448 Clouds 21 1017 68 10000 2.57 190 04:40 04.12.2021
4449 Clouds 23 1016 64 10000 3.09 200 23:49 03.12.2021
4450 Clouds 23 1016 68 10000 2.57 210 22:55 03.12.2021
4451 Clouds 24 1016 64 10000 2.57 220 21:59 03.12.2021
4452 Clouds 24 1016 64 10000 2.57 220 21:25 03.12.2021
4453 Clouds 25 1017 65 10000 2.06 240 20:43 03.12.2021
4454 Clear 26 1017 58 10000 6.68 277 19:36 03.12.2021
4455 Clouds 26 1017 61 10000 2.57 260 18:26 03.12.2021
4456 Clear 27 1017 59 10000 5.54 272 17:44 03.12.2021
4457 Clear 27 1016 57 10000 5.14 290 14:20 03.12.2021
4458 Clear 29 1015 34 10000 6.17 280 12:52 03.12.2021
4459 Clear 29 1016 34 10000 6.69 280 11:24 03.12.2021
4460 Clouds 29 1017 32 10000 5.14 270 09:57 03.12.2021
4461 Clear 26 1018 51 10000 4.13 248 08:24 03.12.2021
4462 Clear 25 1018 53 10000 3.09 190 07:37 03.12.2021
4463 Clear 20 1015 64 10000 1.54 190 02:24 03.12.2021
4464 Clear 21 1015 60 10000 1.03 0 00:47 03.12.2021
4465 Clear 22 1015 56 10000 1.54 140 23:46 02.12.2021
4466 Clear 23 1015 60 10000 2.57 140 21:42 02.12.2021
4467 Clear 25 1016 61 10000 2.06 0 20:57 02.12.2021
4468 Clear 25 1016 61 10000 2.06 0 20:37 02.12.2021
4469 Clear 25 1016 57 10000 4.12 330 19:25 02.12.2021
4470 Clear 26 1016 50 10000 4.12 290 17:43 02.12.2021
4471 Clear 27 1015 52 10000 4.63 300 15:42 02.12.2021
4472 Clear 27 1014 49 10000 6.17 330 14:59 02.12.2021
4473 Clouds 26 1015 54 10000 4.74 298 13:58 02.12.2021
4474 Clouds 29 1014 37 10000 4.63 290 12:52 02.12.2021
4475 Clouds 29 1014 37 10000 4.63 290 12:18 02.12.2021
4476 Clear 28 1016 36 10000 3.6 250 09:34 02.12.2021
4477 Clear 26 1017 44 10000 3.6 210 08:49 02.12.2021
4478 Clear 24 1017 52 10000 3.11 101 04:54 02.12.2021
4479 Clear 22 1014 60 10000 2.06 70 00:53 02.12.2021
4480 Clear 22 1014 60 10000 1.03 0 23:19 01.12.2021
4481 Clear 23 1015 57 10000 1.54 50 22:23 01.12.2021
4482 Clear 24 1015 57 10000 1.54 100 20:39 01.12.2021
4483 Clear 24 1015 57 10000 2.06 70 19:54 01.12.2021
4484 Clear 24 1015 57 10000 2.06 70 19:28 01.12.2021
4485 Clear 24 1016 55 10000 3.94 78 17:45 01.12.2021
4486 Clear 27 1014 50 10000 3.09 30 16:46 01.12.2021
4487 Clear 28 1013 42 10000 5.14 20 14:52 01.12.2021
4488 Clear 28 1013 42 10000 6.17 30 13:45 01.12.2021
4489 Clouds 29 1013 42 10000 5.66 30 12:50 01.12.2021
4490 Clouds 29 1015 37 10000 2.57 0 10:42 01.12.2021
4491 Clear 28 1016 42 10000 3.09 90 09:20 01.12.2021
4492 Clear 27 1016 50 10000 4.12 110 08:30 01.12.2021
4493 Clear 26 1017 53 10000 4.63 90 07:33 01.12.2021
4494 Clear 25 1017 61 10000 4.63 90 06:34 01.12.2021
4495 Clear 21 1015 68 10000 1.54 90 03:46 01.12.2021
4496 Clear 22 1015 71 10000 4.33 89 00:59 01.12.2021
4497 Clear 22 1015 68 10000 2.57 150 23:54 30.11.2021
4498 Clear 22 1015 68 10000 2.57 150 23:24 30.11.2021
4499 Clear 23 1015 64 10000 2.57 100 21:39 30.11.2021
4500 Clear 23 1015 68 10000 5.49 90 20:44 30.11.2021
4501 Clear 24 1016 53 10000 3.09 90 19:53 30.11.2021
4502 Clear 24 1016 53 10000 3.09 90 19:34 30.11.2021
4503 Clear 25 1016 50 10000 3.6 90 18:37 30.11.2021
4504 Clear 27 1015 47 10000 4.12 60 16:50 30.11.2021
4505 Clear 27 1014 54 10000 4.63 40 15:38 30.11.2021
4506 Clouds 27 1013 57 10000 6.17 20 14:20 30.11.2021
4507 Clouds 28 1013 54 10000 5.66 360 13:26 30.11.2021
4508 Clouds 28 1012 57 10000 7.2 340 12:45 30.11.2021
4509 Clear 30 1013 58 10000 6.41 342 11:50 30.11.2021
4510 Clear 30 1013 57 10000 5.82 343 11:23 30.11.2021
4511 Clouds 29 1014 45 10000 2.06 130 10:33 30.11.2021
4512 Clouds 27 1016 54 10000 4.12 80 08:53 30.11.2021
4513 Clouds 27 1016 54 10000 4.12 80 08:26 30.11.2021
4514 Clouds 27 1017 54 10000 4.63 70 07:47 30.11.2021
4515 Clouds 22 1015 64 10000 1.54 210 02:41 30.11.2021
4516 Clear 22 1015 67 10000 1.45 102 01:42 30.11.2021
4517 Clouds 22 1015 60 10000 1.54 200 00:24 30.11.2021
4518 Clouds 22 1015 60 10000 1.03 200 23:24 29.11.2021
4519 Clouds 23 1015 60 10000 1.03 190 22:56 29.11.2021
4520 Clouds 23 1015 60 10000 1.03 190 22:33 29.11.2021
4521 Clouds 24 1015 57 10000 1.54 180 21:30 29.11.2021
4522 Clear 24 1016 57 10000 1.54 170 20:59 29.11.2021
4523 Clear 24 1016 57 10000 1.54 170 20:32 29.11.2021
4524 Clear 23 1015 57 10000 0.94 92 19:56 29.11.2021
4525 Clear 23 1015 57 10000 0.94 92 19:36 29.11.2021
4526 Clear 24 1015 56 10000 0.48 54 18:51 29.11.2021
4527 Clear 24 1016 56 10000 0.66 324 17:49 29.11.2021
4528 Clear 24 1015 56 10000 2.09 303 17:18 29.11.2021
4529 Clear 24 1015 56 10000 2.11 303 17:18 29.11.2021
4530 Clear 24 1015 56 10000 3.47 294 16:29 29.11.2021
4531 Clear 24 1015 56 10000 3.45 294 15:50 29.11.2021
4532 Clear 25 1014 56 10000 4.42 283 14:43 29.11.2021
4533 Clear 26 1014 54 10000 5.51 274 13:34 29.11.2021
4534 Clear 26 1014 54 10000 5.51 271 12:37 29.11.2021
4535 Clear 26 1014 53 10000 5.62 273 11:40 29.11.2021
4536 Clear 26 1014 51 10000 5.01 272 10:51 29.11.2021
4537 Clear 26 1016 50 10000 3.78 270 09:34 29.11.2021
4538 Clouds 24 1017 60 10000 2.57 200 06:20 29.11.2021
4539 Clear 23 1014 64 10000 2.06 170 01:43 29.11.2021
4540 Clouds 23 1014 64 10000 1.54 160 00:42 29.11.2021
4541 Clouds 24 1014 64 10000 2.57 210 23:44 28.11.2021
4542 Clouds 24 1014 64 10000 2.57 210 23:23 28.11.2021
4543 Clouds 25 1015 57 10000 2.06 230 21:49 28.11.2021
4544 Clouds 25 1015 57 10000 2.06 230 21:23 28.11.2021
4545 Clear 25 1015 57 10000 2.06 260 20:33 28.11.2021
4546 Clear 27 1015 54 10000 3.09 270 18:53 28.11.2021
4547 Clear 27 1015 54 10000 3.09 270 18:32 28.11.2021
4548 Clear 27 1015 50 10000 3.09 260 17:54 28.11.2021
4549 Clear 27 1015 50 10000 3.09 260 17:31 28.11.2021
4550 Clear 26 1015 56 10000 3.97 263 16:37 28.11.2021
4551 Clear 26 1015 56 10000 3.89 269 16:18 28.11.2021
4552 Clear 28 1014 51 10000 3.09 270 15:31 28.11.2021
4553 Clear 28 1014 51 10000 3.09 270 15:31 28.11.2021
4554 Clear 26 1014 57 10000 4.4 272 14:44 28.11.2021
4555 Clear 29 1013 51 10000 2.57 0 13:18 28.11.2021
4556 Clouds 29 1013 51 10000 4.12 280 12:46 28.11.2021
4557 Clouds 29 1015 54 10000 5.14 310 10:59 28.11.2021
4558 Clouds 29 1015 54 10000 5.14 310 10:21 28.11.2021
4559 Clouds 29 1015 61 10000 3.6 290 09:37 28.11.2021
4560 Clouds 27 1016 69 9000 3.6 210 07:49 28.11.2021
4561 Clear 25 1014 73 10000 2.57 210 23:58 27.11.2021
4562 Clear 27 1015 69 10000 2.06 230 20:57 27.11.2021
4563 Clear 28 1015 61 10000 3.09 280 19:23 27.11.2021
4564 Clear 28 1015 61 10000 5.14 310 17:27 27.11.2021
4565 Clear 29 1014 58 10000 5.14 310 15:57 27.11.2021
4566 Clouds 30 1013 58 10000 6.17 290 13:48 27.11.2021
4567 Clouds 29 1013 65 10000 5.66 280 12:55 27.11.2021
4568 Clear 30 1014 54 10000 4.63 290 10:48 27.11.2021
4569 Clear 29 1015 58 10000 3.09 250 09:53 27.11.2021
4570 Clear 28 1016 61 10000 4.12 220 08:43 27.11.2021
4571 Clear 24 1017 69 7000 2.06 180 06:34 27.11.2021
4572 Clear 22 1015 73 10000 1.03 170 01:57 27.11.2021
4573 Clear 23 1015 69 10000 2.06 170 23:36 26.11.2021
4574 Clear 23 1015 69 10000 2.06 170 22:25 26.11.2021
4575 Clear 24 1015 65 10000 2.06 180 21:38 26.11.2021
4576 Clear 24 1015 65 10000 2.06 180 21:18 26.11.2021
4577 Clear 25 1015 61 10000 2.57 130 20:29 26.11.2021
4578 Clear 26 1016 61 10000 2.57 120 19:49 26.11.2021
4579 Clear 26 1016 61 10000 2.06 350 18:41 26.11.2021
4580 Clear 27 1016 61 10000 2.06 350 17:23 26.11.2021
4581 Clear 28 1015 54 10000 5.66 340 15:59 26.11.2021
4582 Clear 29 1014 54 10000 5.14 320 13:36 26.11.2021
4583 Clear 29 1014 51 10000 5.14 340 12:51 26.11.2021
4584 Clear 29 1015 39 10000 4.63 340 10:39 26.11.2021
4585 Clear 30 1016 39 10000 2.06 350 09:29 26.11.2021
4586 Clear 28 1017 54 10000 1.54 0 08:47 26.11.2021
4587 Clear 28 1017 54 10000 1.54 0 08:19 26.11.2021
4588 Clear 23 1017 68 10000 1.54 190 06:29 26.11.2021
4589 Clear 20 1016 78 8000 1.54 210 04:52 26.11.2021
4590 Clear 20 1015 78 10000 1.54 190 03:28 26.11.2021
4591 Clear 22 1015 64 10000 2.06 160 23:29 25.11.2021
4592 Clear 24 1015 61 10000 2.06 120 21:58 25.11.2021
4593 Clear 25 1015 57 10000 2.06 350 20:41 25.11.2021
4594 Clear 26 1015 57 10000 2.57 350 18:50 25.11.2021
4595 Clear 27 1015 57 10000 4.63 320 18:00 25.11.2021
4596 Clear 27 1015 57 10000 4.63 320 17:26 25.11.2021
4597 Clear 27 1014 57 10000 4.63 300 16:41 25.11.2021
4598 Clear 27 1014 57 10000 4.63 300 16:41 25.11.2021
4599 Clear 28 1014 57 10000 5.14 300 15:58 25.11.2021
4600 Clear 28 1013 54 10000 5.14 290 14:21 25.11.2021
4601 Clear 29 1013 51 10000 4.63 280 12:55 25.11.2021
4602 Clouds 30 1014 48 10000 4.63 280 11:55 25.11.2021
4603 Clouds 29 1014 51 10000 4.63 290 10:31 25.11.2021
4604 Clouds 24 1016 69 10000 4.12 200 06:36 25.11.2021
4605 Clouds 23 1013 64 10000 2.06 190 02:54 25.11.2021
4606 Clear 26 1013 57 10000 5.14 310 23:39 24.11.2021
4607 Clear 27 1013 57 10000 5.66 290 22:28 24.11.2021
4608 Clear 27 1014 57 10000 5.66 290 21:48 24.11.2021
4609 Clear 27 1014 57 10000 5.66 290 21:19 24.11.2021
4610 Clear 27 1014 57 10000 4.63 290 20:26 24.11.2021
4611 Clear 27 1014 61 10000 5.14 290 18:58 24.11.2021
4612 Clear 27 1014 61 10000 5.14 290 18:18 24.11.2021
4613 Clear 28 1013 61 10000 4.63 280 16:20 24.11.2021
4614 Clear 30 1012 48 10000 6.17 300 14:56 24.11.2021
4615 Clear 30 1012 48 10000 6.17 300 14:21 24.11.2021
4616 Clear 31 1012 37 10000 5.66 310 12:51 24.11.2021
4617 Clear 31 1012 42 10000 5.14 300 11:22 24.11.2021
4618 Clear 31 1013 45 10000 5.14 300 10:50 24.11.2021
4619 Clear 31 1013 45 10000 5.14 300 10:27 24.11.2021
4620 Clear 28 1015 69 8000 3.09 220 07:59 24.11.2021
4621 Clear 26 1015 73 6000 3.6 200 06:59 24.11.2021
4622 Clear 24 1013 78 8000 2.06 190 03:59 24.11.2021
4623 Clear 25 1012 73 10000 1.54 200 01:30 24.11.2021
4624 Clear 26 1013 65 10000 3.09 310 22:59 23.11.2021
4625 Clear 26 1013 65 10000 3.09 310 22:34 23.11.2021
4626 Clear 26 1013 69 10000 3.6 320 21:45 23.11.2021
4627 Clear 26 1013 69 10000 3.6 320 21:45 23.11.2021
4628 Clear 27 1014 65 10000 3.09 320 20:21 23.11.2021
4629 Clear 27 1014 65 10000 3.09 320 19:20 23.11.2021
4630 Clear 28 1014 69 10000 4.12 320 18:29 23.11.2021
4631 Clear 29 1014 65 10000 4.12 320 17:23 23.11.2021
4632 Clear 29 1014 61 10000 4.63 320 16:35 23.11.2021
4633 Clear 29 1013 61 10000 5.14 330 15:23 23.11.2021
4634 Clear 30 1013 48 10000 5.66 340 14:39 23.11.2021
4635 Clear 31 1012 45 10000 5.14 330 12:50 23.11.2021
4636 Clear 32 1013 35 10000 3.09 320 10:26 23.11.2021
4637 Clear 32 1014 35 10000 2.06 0 09:43 23.11.2021
4638 Clear 29 1016 37 10000 1.54 190 07:42 23.11.2021
4639 Clear 22 1014 57 10000 1.03 0 03:58 23.11.2021
4640 Clear 22 1014 57 10000 1.03 0 03:25 23.11.2021
4641 Clear 25 1014 69 10000 2.57 110 23:26 22.11.2021
4642 Clear 25 1014 73 10000 2.57 70 22:56 22.11.2021
4643 Clear 24 1014 73 10000 2.57 70 22:29 22.11.2021
4644 Clear 25 1015 69 10000 1.54 70 21:44 22.11.2021
4645 Clear 26 1015 65 10000 2.06 50 20:56 22.11.2021
4646 Clear 26 1015 65 10000 2.06 50 20:21 22.11.2021
4647 Clear 26 1015 65 10000 2.06 60 19:20 22.11.2021
4648 Clear 27 1015 54 10000 2.57 90 18:40 22.11.2021
4649 Clear 28 1015 48 10000 2.57 20 17:46 22.11.2021
4650 Clear 29 1015 37 10000 3.09 30 16:30 22.11.2021
4651 Clear 32 1013 33 10000 3.6 20 14:28 22.11.2021
4652 Clear 32 1014 40 10000 5.14 320 12:47 22.11.2021
4653 Clear 33 1015 17 10000 2.57 70 10:45 22.11.2021
4654 Clear 32 1016 18 10000 2.06 20 09:48 22.11.2021
4655 Clear 30 1017 25 10000 2.57 90 08:41 22.11.2021
4656 Clear 27 1017 34 10000 3.09 100 06:59 22.11.2021
4657 Clear 23 1015 53 10000 3.09 90 23:39 21.11.2021
4658 Clear 24 1016 50 10000 3.09 70 22:53 21.11.2021
4659 Clear 24 1016 50 10000 3.09 70 22:26 21.11.2021
4660 Clear 25 1016 50 10000 3.6 90 20:42 21.11.2021
4661 Clear 25 1016 50 10000 3.6 90 20:42 21.11.2021
4662 Clear 25 1016 50 10000 3.6 90 20:22 21.11.2021
4663 Clear 27 1015 50 10000 3.6 100 18:30 21.11.2021
4664 Clear 28 1015 47 10000 2.57 80 17:40 21.11.2021
4665 Clear 28 1014 51 10000 4.63 50 16:52 21.11.2021
4666 Clear 27 1013 55 10000 5.55 28 14:47 21.11.2021
4667 Clear 31 1012 42 10000 4.63 20 13:54 21.11.2021
4668 Clear 32 1012 27 10000 3.09 80 12:55 21.11.2021
4669 Clear 31 1013 30 10000 3.09 70 11:57 21.11.2021
4670 Clear 31 1013 30 10000 3.09 70 11:35 21.11.2021
4671 Clear 31 1013 35 10000 2.06 0 10:19 21.11.2021
4672 Clear 29 1014 42 10000 2.57 120 09:20 21.11.2021
4673 Clear 28 1015 47 10000 4.12 100 08:30 21.11.2021
4674 Clear 27 1015 50 10000 4.63 110 07:50 21.11.2021
4675 Clear 25 1015 65 10000 3.6 110 06:23 21.11.2021
4676 Clear 22 1014 68 10000 3.09 90 05:37 21.11.2021
4677 Clear 22 1013 73 10000 2.06 80 03:21 21.11.2021
4678 Clear 22 1012 68 10000 2.57 80 02:53 21.11.2021
4679 Clear 22 1012 68 10000 3.09 90 01:25 21.11.2021
4680 Clear 23 1012 64 10000 2.57 90 00:41 21.11.2021
4681 Clear 25 1012 57 10000 2.68 100 21:51 20.11.2021
4682 Clear 25 1012 57 10000 2.68 100 21:30 20.11.2021
4683 Clear 25 1012 53 10000 2.57 80 19:46 20.11.2021
4684 Clear 26 1012 53 10000 3.6 50 18:45 20.11.2021
4685 Clear 26 1012 53 10000 3.6 50 18:19 20.11.2021
4686 Clear 26 1011 54 10000 4.12 70 17:21 20.11.2021
4687 Clear 28 1010 47 10000 5.14 20 14:51 20.11.2021
4688 Clear 28 1010 47 10000 5.14 20 14:28 20.11.2021
4689 Clear 26 1010 57 10000 4.82 4 13:35 20.11.2021
4690 Clear 29 1010 45 10000 5.66 340 11:25 20.11.2021
4691 Clear 29 1012 37 10000 2.06 110 09:55 20.11.2021
4692 Clear 28 1013 44 10000 3.09 70 08:32 20.11.2021
4693 Clear 23 1012 57 10000 2.06 110 05:30 20.11.2021
4694 Clear 21 1012 60 10000 1.54 110 04:51 20.11.2021
4695 Clear 22 1011 60 10000 1.54 130 03:54 20.11.2021
4696 Clear 23 1010 57 10000 2.57 120 00:42 20.11.2021
4697 Clear 23 1011 57 10000 1.54 130 23:45 19.11.2021
4698 Clear 24 1011 57 10000 2.06 170 22:53 19.11.2021
4699 Clear 24 1011 57 10000 3.09 120 21:24 19.11.2021
4700 Clear 24 1011 57 10000 2.57 90 20:40 19.11.2021
4701 Clear 24 1011 57 10000 2.57 90 20:22 19.11.2021
4702 Clear 25 1011 57 10000 3.09 80 19:43 19.11.2021
4703 Clear 26 1011 53 10000 2.57 40 18:45 19.11.2021
4704 Clear 26 1011 54 10000 3.6 20 17:44 19.11.2021
4705 Clear 27 1010 54 10000 4.63 50 16:43 19.11.2021
4706 Clear 28 1009 51 10000 5.66 10 14:52 19.11.2021
4707 Clouds 29 1010 45 10000 4.63 340 11:32 19.11.2021
4708 Clouds 29 1011 42 10000 1.03 0 10:24 19.11.2021
4709 Clear 27 1013 47 9000 2.57 70 08:35 19.11.2021
4710 Clear 22 1013 64 8000 2.06 140 05:36 19.11.2021
4711 Clear 23 1012 57 10000 2.06 150 03:37 19.11.2021
4712 Clear 24 1012 57 10000 3.6 120 23:54 18.11.2021
4713 Clear 24 1012 57 10000 2.57 110 22:49 18.11.2021
4714 Clear 25 1013 53 10000 2.57 80 20:57 18.11.2021
4715 Clear 25 1013 53 10000 2.57 80 20:39 18.11.2021
4716 Clear 25 1013 53 10000 2.57 80 20:19 18.11.2021
4717 Clear 26 1013 50 10000 3.09 90 19:36 18.11.2021
4718 Clear 27 1013 54 10000 4.12 70 18:37 18.11.2021
4719 Clear 28 1013 54 10000 3.6 20 17:52 18.11.2021
4720 Clear 28 1012 54 10000 4.63 10 16:47 18.11.2021
4721 Clear 28 1012 57 10000 4.12 20 15:56 18.11.2021
4722 Clear 29 1011 54 10000 4.12 10 14:57 18.11.2021
4723 Clear 30 1012 51 10000 4.63 360 12:55 18.11.2021
4724 Clouds 31 1012 33 10000 3.6 110 11:44 18.11.2021
4725 Clouds 31 1012 33 10000 3.6 110 11:26 18.11.2021
4726 Clear 32 1013 35 10000 4.12 120 10:35 18.11.2021
4727 Clear 29 1015 45 10000 5.66 130 08:44 18.11.2021
4728 Clear 26 1016 61 10000 4.63 100 06:49 18.11.2021
4729 Clear 24 1015 61 10000 3.09 100 05:46 18.11.2021
4730 Clear 24 1014 65 10000 2.06 60 01:26 18.11.2021
4731 Clear 25 1014 61 10000 1.54 0 23:46 17.11.2021
4732 Clear 26 1014 57 10000 2.06 60 22:40 17.11.2021
4733 Clear 26 1014 57 10000 2.06 60 22:19 17.11.2021
4734 Clear 26 1014 57 10000 2.06 60 22:19 17.11.2021
4735 Clear 26 1014 61 10000 1.54 60 21:35 17.11.2021
4736 Clear 27 1014 61 10000 3.09 50 19:51 17.11.2021
4737 Clear 28 1013 54 10000 4.63 40 17:36 17.11.2021
4738 Clear 28 1013 54 10000 4.12 20 16:28 17.11.2021
4739 Clear 30 1011 45 10000 5.66 340 13:41 17.11.2021
4740 Clear 30 1011 45 10000 5.14 340 12:38 17.11.2021
4741 Clear 32 1012 35 10000 1.54 0 10:54 17.11.2021
4742 Clear 32 1012 35 10000 1.54 0 10:54 17.11.2021
4743 Clear 30 1013 39 10000 2.06 0 09:44 17.11.2021
4744 Clear 30 1014 39 10000 1.54 0 08:30 17.11.2021
4745 Clear 28 1014 51 10000 2.06 0 07:41 17.11.2021
4746 Clear 23 1011 60 10000 1.03 0 02:49 17.11.2021
4747 Clear 24 1010 57 10000 2.06 160 00:35 17.11.2021
4748 Clear 25 1011 53 10000 1.54 140 22:37 16.11.2021
4749 Clear 25 1011 57 10000 1.54 110 20:19 16.11.2021
4750 Clear 27 1011 57 10000 2.57 360 19:55 16.11.2021
4751 Clear 27 1010 57 10000 3.09 340 18:52 16.11.2021
4752 Clear 27 1010 57 10000 3.09 340 18:29 16.11.2021
4753 Clear 28 1010 54 10000 3.6 320 17:29 16.11.2021
4754 Clear 28 1010 54 10000 3.09 340 16:21 16.11.2021
4755 Clear 28 1010 51 10000 4.12 330 15:44 16.11.2021
4756 Clear 30 1009 35 10000 4.63 320 13:49 16.11.2021
4757 Clear 31 1010 33 10000 0.89 0 10:52 16.11.2021
4758 Clear 30 1011 37 10000 1.54 140 09:44 16.11.2021
4759 Clear 28 1012 42 10000 2.57 180 08:24 16.11.2021
4760 Clear 26 1012 44 10000 3.6 190 07:30 16.11.2021
4761 Clear 24 1010 33 10000 2.06 100 23:54 15.11.2021
4762 Clear 24 1010 36 10000 2.06 100 22:48 15.11.2021
4763 Clear 24 1010 36 10000 2.06 100 22:20 15.11.2021
4764 Clear 25 1011 34 10000 3.6 110 21:51 15.11.2021
4765 Clear 25 1011 34 10000 3.6 110 21:25 15.11.2021
4766 Clear 26 1011 32 10000 3.09 90 19:41 15.11.2021
4767 Clear 28 1011 28 10000 3.6 90 17:50 15.11.2021
4768 Clear 30 1010 35 10000 4.12 70 16:19 15.11.2021
4769 Clear 30 1010 37 10000 6.17 50 15:40 15.11.2021
4770 Clear 30 1010 37 10000 6.17 50 15:20 15.11.2021
4771 Clear 33 1010 43 10000 6.69 22 12:47 15.11.2021
4772 Clear 33 1011 19 10000 3.6 100 10:54 15.11.2021
4773 Clear 31 1013 25 10000 4.12 80 09:26 15.11.2021
4774 Clear 29 1015 34 10000 2.57 90 07:45 15.11.2021
4775 Clear 21 1014 73 7000 2.06 130 04:46 15.11.2021
4776 Clear 26 1014 69 10000 2.06 70 22:47 14.11.2021
4777 Clear 26 1014 69 10000 2.06 70 22:28 14.11.2021
4778 Clear 27 1014 61 10000 1.54 60 19:51 14.11.2021
4779 Clear 27 1014 61 10000 1.54 60 19:18 14.11.2021
4780 Clear 28 1014 57 10000 2.06 40 18:54 14.11.2021
4781 Clear 28 1014 57 10000 2.06 40 18:36 14.11.2021
4782 Clear 28 1014 57 10000 2.06 40 18:18 14.11.2021
4783 Clear 28 1014 54 10000 2.06 20 17:54 14.11.2021
4784 Clear 28 1014 54 10000 2.06 20 17:36 14.11.2021
4785 Clear 28 1014 54 10000 2.06 20 17:18 14.11.2021
4786 Clear 28 1014 51 10000 3.09 20 16:45 14.11.2021
4787 Clear 28 1014 51 10000 3.09 20 16:19 14.11.2021
4788 Clear 28 1013 47 10000 4.12 360 15:22 14.11.2021
4789 Clear 29 1013 45 10000 4.12 330 14:45 14.11.2021
4790 Clear 29 1013 45 10000 4.12 330 14:23 14.11.2021
4791 Clear 30 1012 42 10000 4.63 330 13:53 14.11.2021
4792 Clear 30 1012 42 10000 4.63 330 13:32 14.11.2021
4793 Clear 30 1013 42 10000 4.63 310 12:26 14.11.2021
4794 Clear 31 1013 37 10000 3.09 320 11:34 14.11.2021
4795 Clear 30 1014 35 10000 3.6 300 10:40 14.11.2021
4796 Clear 30 1014 35 10000 3.6 300 10:40 14.11.2021
4797 Clear 30 1015 37 10000 4.63 280 09:42 14.11.2021
4798 Clear 30 1016 42 10000 2.06 0 08:52 14.11.2021
4799 Clear 26 1016 65 10000 3.09 180 06:54 14.11.2021
4800 Clear 27 1014 61 10000 4.12 290 23:28 13.11.2021
4801 Clear 28 1014 57 10000 4.63 290 22:21 13.11.2021
4802 Clear 28 1014 57 10000 6.86 296 21:50 13.11.2021
4803 Clear 28 1014 58 10000 6.93 293 21:18 13.11.2021
4804 Clear 29 1015 58 10000 4.12 290 19:37 13.11.2021
4805 Clear 29 1015 58 10000 5.14 280 18:33 13.11.2021
4806 Clear 29 1015 58 10000 4.12 290 17:46 13.11.2021
4807 Clear 29 1015 54 10000 4.63 300 16:30 13.11.2021
4808 Clear 30 1014 51 10000 6.17 320 14:57 13.11.2021
4809 Clear 30 1014 51 10000 6.17 320 14:19 13.11.2021
4810 Clear 31 1014 51 10000 4.63 330 12:52 13.11.2021
4811 Clear 30 1015 51 10000 4.12 350 11:58 13.11.2021
4812 Clear 30 1015 51 10000 4.12 350 11:26 13.11.2021
4813 Clear 30 1015 48 10000 4.63 10 10:43 13.11.2021
4814 Clear 31 1016 40 10000 4.12 10 09:50 13.11.2021
4815 Clear 31 1016 40 10000 4.12 10 09:32 13.11.2021
4816 Clear 30 1017 42 10000 5.14 340 08:54 13.11.2021
4817 Clear 30 1017 42 10000 5.14 340 08:18 13.11.2021
4818 Clear 26 1017 46 10000 0.94 109 04:43 13.11.2021
4819 Clear 24 1017 48 10000 1.6 102 04:23 13.11.2021
4820 Clear 25 1015 50 10000 1.54 190 00:28 13.11.2021
4821 Clear 26 1015 42 10000 1.54 30 22:43 12.11.2021
4822 Clear 27 1015 42 10000 2.06 90 21:29 12.11.2021
4823 Clear 27 1016 39 10000 2.06 60 19:43 12.11.2021
4824 Clear 27 1016 39 10000 2.06 60 19:23 12.11.2021
4825 Clear 28 1016 37 10000 3.6 20 18:20 12.11.2021
4826 Clear 27 1015 48 10000 4.61 9 16:19 12.11.2021
4827 Clear 30 1014 37 10000 5.14 350 14:53 12.11.2021
4828 Clear 32 1013 29 10000 5.66 340 11:31 12.11.2021
4829 Clear 32 1014 19 10000 1.54 0 10:49 12.11.2021
4830 Clear 32 1015 19 10000 2.06 0 09:29 12.11.2021
4831 Clear 31 1016 19 10000 3.09 70 08:38 12.11.2021
4832 Clear 23 1014 46 10000 2.57 80 02:22 12.11.2021
4833 Clear 26 1014 34 10000 3.6 110 23:33 11.11.2021
4834 Clear 25 1014 44 10000 2.06 100 22:30 11.11.2021
4835 Clear 25 1014 44 10000 3.09 110 21:27 11.11.2021
4836 Clear 25 1014 44 10000 2.06 90 20:38 11.11.2021
4837 Clear 27 1014 34 10000 3.09 40 18:55 11.11.2021
4838 Clear 28 1013 39 10000 2.57 60 17:42 11.11.2021
4839 Clear 29 1013 37 10000 3.09 30 16:38 11.11.2021
4840 Clear 29 1012 37 10000 5.14 350 14:45 11.11.2021
4841 Clear 29 1012 37 10000 5.14 350 14:26 11.11.2021
4842 Clear 30 1012 32 10000 5.66 350 13:37 11.11.2021
4843 Clear 28 1012 39 10000 6.18 349 12:48 11.11.2021
4844 Clouds 30 1012 32 10000 5.66 340 10:35 11.11.2021
4845 Clouds 30 1014 32 10000 3.09 10 09:33 11.11.2021
4846 Clear 29 1015 37 10000 2.57 50 07:36 11.11.2021
4847 Clear 22 1013 50 10000 2.06 110 02:35 11.11.2021
4848 Clear 25 1013 44 10000 1.03 0 22:49 10.11.2021
4849 Clear 25 1014 41 10000 2.06 110 21:58 10.11.2021
4850 Clear 25 1014 41 10000 2.06 110 21:18 10.11.2021
4851 Clear 27 1014 36 10000 2.57 80 20:36 10.11.2021
4852 Clear 26 1014 39 10000 2.06 70 19:46 10.11.2021
4853 Clear 27 1014 39 10000 2.57 80 17:40 10.11.2021
4854 Clear 28 1014 39 10000 3.09 40 16:25 10.11.2021
4855 Clear 29 1013 39 10000 5.66 350 14:40 10.11.2021
4856 Clear 29 1013 42 10000 5.14 360 13:40 10.11.2021
4857 Clear 29 1013 45 10000 6.17 340 12:44 10.11.2021
4858 Clear 30 1014 37 10000 5.14 340 10:39 10.11.2021
4859 Clear 30 1016 39 10000 3.09 30 08:45 10.11.2021
4860 Clouds 29 1017 45 10000 3.09 70 07:25 10.11.2021
4861 Clear 27 1017 50 10000 2.06 0 06:25 10.11.2021
4862 Clouds 25 1016 50 10000 2.57 0 05:44 10.11.2021
4863 Clouds 25 1016 50 10000 1.54 100 22:54 09.11.2021
4864 Clear 25 1016 53 10000 2.06 130 21:47 09.11.2021
4865 Clear 26 1016 50 10000 2.06 100 20:26 09.11.2021
4866 Clear 27 1016 44 10000 1.54 80 19:20 09.11.2021
4867 Clear 28 1016 47 10000 3.6 30 17:31 09.11.2021
4868 Clear 29 1015 45 10000 4.12 20 15:45 09.11.2021
4869 Clear 30 1015 42 10000 5.14 20 14:24 09.11.2021
4870 Clouds 31 1014 40 10000 5.14 360 12:53 09.11.2021
4871 Clouds 30 1015 42 10000 3.6 10 11:38 09.11.2021
4872 Clouds 30 1015 42 10000 3.6 10 11:38 09.11.2021
4873 Clouds 30 1015 42 10000 4.12 10 10:44 09.11.2021
4874 Clouds 30 1016 48 10000 3.09 20 09:24 09.11.2021
4875 Clouds 30 1017 45 10000 3.09 30 08:19 09.11.2021
4876 Clear 24 1017 47 10000 3.09 110 05:45 09.11.2021
4877 Clear 22 1014 53 10000 1.03 0 02:19 09.11.2021
4878 Clear 22 1014 53 10000 1.54 60 01:39 09.11.2021
4879 Clear 24 1013 50 10000 2.57 90 23:36 08.11.2021
4880 Clear 25 1014 61 10000 2.63 72 22:49 08.11.2021
4881 Clear 25 1014 44 10000 2.06 120 21:46 08.11.2021
4882 Clear 25 1014 44 10000 2.06 120 21:46 08.11.2021
4883 Clear 25 1014 44 10000 2.06 90 20:47 08.11.2021
4884 Clear 26 1014 44 10000 1.54 100 19:48 08.11.2021
4885 Clear 26 1014 41 10000 3.09 110 18:25 08.11.2021
4886 Clear 28 1014 44 10000 4.63 80 16:21 08.11.2021
4887 Clear 29 1014 42 10000 7.2 360 14:58 08.11.2021
4888 Clear 29 1014 42 10000 7.2 360 14:37 08.11.2021
4889 Dust 30 1013 37 8000 9.77 340 13:24 08.11.2021
4890 Clear 29 1013 48 8000 10.8 340 11:56 08.11.2021
4891 Dust 29 1013 54 5000 9.77 350 10:50 08.11.2021
4892 Clear 32 1013 27 10000 2.57 0 09:37 08.11.2021
4893 Clear 31 1014 35 10000 3.09 100 08:53 08.11.2021
4894 Clear 29 1014 45 10000 3.6 120 07:28 08.11.2021
4895 Clear 23 1012 64 10000 2.57 100 03:42 08.11.2021
4896 Clear 23 1012 64 10000 2.57 100 03:22 08.11.2021
4897 Clear 25 1012 47 10000 4.32 86 23:45 07.11.2021
4898 Clear 26 1012 39 10000 2.57 100 21:46 07.11.2021
4899 Clear 27 1012 36 10000 2.57 80 20:52 07.11.2021
4900 Clear 28 1012 34 10000 2.57 80 19:25 07.11.2021
4901 Clear 30 1012 32 10000 1.03 0 17:49 07.11.2021
4902 Clear 30 1011 32 10000 1.54 0 16:50 07.11.2021
4903 Clouds 30 1011 30 10000 2.06 20 15:47 07.11.2021
4904 Clear 31 1010 27 10000 3.6 360 14:28 07.11.2021
4905 Clear 31 1010 25 10000 4.63 350 12:58 07.11.2021
4906 Clear 31 1010 23 10000 5.66 10 11:42 07.11.2021
4907 Clear 32 1011 20 10000 3.6 360 09:26 07.11.2021
4908 Clear 27 1012 65 7000 2.06 190 06:46 07.11.2021
4909 Clear 26 1010 65 8000 2.57 200 02:32 07.11.2021
4910 Clouds 27 1010 61 10000 3.09 150 22:57 06.11.2021
4911 Clouds 27 1010 61 10000 3.09 150 22:32 06.11.2021
4912 Clouds 27 1010 57 10000 2.57 170 21:28 06.11.2021
4913 Clouds 28 1011 54 10000 2.57 360 20:50 06.11.2021
4914 Clear 28 1011 51 10000 3.6 330 18:56 06.11.2021
4915 Clear 30 1010 54 10000 2.57 290 16:38 06.11.2021
4916 Clouds 30 1010 54 10000 4.63 330 14:37 06.11.2021
4917 Clouds 31 1009 51 10000 4.63 320 13:38 06.11.2021
4918 Clouds 31 1009 51 10000 4.63 320 13:38 06.11.2021
4919 Clouds 31 1010 51 10000 4.63 340 11:25 06.11.2021
4920 Clouds 32 1012 43 10000 2.06 0 09:22 06.11.2021
4921 Clear 24 1012 69 8000 3.09 190 04:56 06.11.2021
4922 Clear 26 1011 65 10000 2.06 120 01:27 06.11.2021
4923 Clear 27 1011 62 10000 2.2 43 23:34 05.11.2021
4924 Clear 28 1011 54 10000 1.54 60 22:33 05.11.2021
4925 Clear 28 1011 54 10000 1.54 60 22:33 05.11.2021
4926 Clear 28 1012 48 10000 1.54 20 20:50 05.11.2021
4927 Clear 28 1012 48 10000 1.54 20 20:19 05.11.2021
4928 Clear 29 1012 51 10000 2.06 10 19:32 05.11.2021
4929 Clear 29 1012 54 10000 3.6 350 18:38 05.11.2021
4930 Clouds 29 1012 58 10000 3.6 350 17:25 05.11.2021
4931 Clear 30 1010 58 10000 5.66 350 14:54 05.11.2021
4932 Clouds 31 1010 51 10000 5.66 320 13:35 05.11.2021
4933 Clouds 32 1011 48 10000 3.6 0 10:29 05.11.2021
4934 Clear 31 1013 51 8000 1.03 0 08:39 05.11.2021
4935 Clear 29 1014 61 7000 2.57 120 07:21 05.11.2021
4936 Haze 24 1013 78 3500 1.54 100 04:43 05.11.2021
4937 Haze 25 1012 78 4500 1.03 0 02:24 05.11.2021
4938 Haze 25 1011 78 4500 2.57 100 00:30 05.11.2021
4939 Haze 26 1012 78 5000 3.6 110 22:59 04.11.2021
4940 Haze 26 1012 78 5000 3.6 110 22:18 04.11.2021
4941 Clear 27 1012 74 6000 2.06 120 21:30 04.11.2021
4942 Clear 27 1012 74 6000 2.06 100 20:30 04.11.2021
4943 Clear 27 1012 74 6000 2.06 100 20:30 04.11.2021
4944 Clear 28 1013 69 8000 3.09 100 19:50 04.11.2021
4945 Clear 28 1013 69 8000 3.09 100 19:28 04.11.2021
4946 Clear 28 1013 65 10000 2.06 340 18:42 04.11.2021
4947 Clear 29 1012 65 10000 3.6 350 17:36 04.11.2021
4948 Clear 29 1012 65 10000 4.63 330 16:23 04.11.2021
4949 Clear 31 1011 48 10000 5.14 350 14:19 04.11.2021
4950 Clear 33 1012 25 8000 3.09 0 10:52 04.11.2021
4951 Clear 34 1013 37 10000 2.59 277 08:58 04.11.2021
4952 Clear 33 1014 35 10000 1.93 211 08:28 04.11.2021
4953 Clear 29 1015 39 7000 4.12 180 07:34 04.11.2021
4954 Haze 26 1013 83 5000 1.54 110 23:52 03.11.2021
4955 Haze 26 1013 83 5000 2.06 110 22:49 03.11.2021
4956 Clear 27 1013 64 10000 1.85 44 21:45 03.11.2021
4957 Clear 27 1013 63 10000 2.24 31 21:19 03.11.2021
4958 Clear 28 1014 70 7000 2.57 90 20:33 03.11.2021
4959 Clear 28 1014 70 8000 2.06 350 19:40 03.11.2021
4960 Clear 29 1014 74 8000 3.09 350 18:47 03.11.2021
4961 Clear 30 1013 70 8000 4.12 340 17:58 03.11.2021
4962 Clear 30 1013 66 9000 4.63 340 16:53 03.11.2021
4963 Clear 30 1012 66 7000 4.63 340 15:56 03.11.2021
4964 Clear 30 1012 66 7000 4.63 340 15:38 03.11.2021
4965 Clear 32 1012 55 7000 5.14 340 13:46 03.11.2021
4966 Clear 33 1012 52 7000 4.12 330 11:39 03.11.2021
4967 Clear 33 1013 38 8000 2.06 280 10:52 03.11.2021
4968 Clear 33 1013 38 8000 2.06 280 10:18 03.11.2021
4969 Clear 32 1014 51 9000 3.09 300 09:28 03.11.2021
4970 Clear 31 1015 58 8000 2.24 0 08:21 03.11.2021
4971 Clear 29 1015 70 6000 2.06 160 07:38 03.11.2021
4972 Haze 25 1014 73 4000 1.54 180 04:24 03.11.2021
4973 Clear 26 1012 74 7000 1.54 160 01:42 03.11.2021
4974 Clear 27 1012 69 8000 1.54 240 23:32 02.11.2021
4975 Clear 27 1013 69 8000 1.54 110 22:21 02.11.2021
4976 Clear 28 1013 65 8000 2.06 110 20:48 02.11.2021
4977 Clear 28 1013 65 8000 2.06 110 20:23 02.11.2021
4978 Clear 29 1013 70 8000 2.06 80 19:46 02.11.2021
4979 Clear 29 1013 70 10000 2.06 80 18:36 02.11.2021
4980 Clear 30 1013 70 10000 1.54 30 17:57 02.11.2021
4981 Clear 30 1013 70 10000 1.54 30 17:31 02.11.2021
4982 Clear 30 1012 74 10000 3.09 340 16:27 02.11.2021
4983 Clear 31 1011 62 10000 6.17 330 14:59 02.11.2021
4984 Clear 32 1011 58 10000 5.66 330 13:50 02.11.2021
4985 Clear 32 1011 58 10000 5.66 330 13:26 02.11.2021
4986 Clear 33 1011 55 9000 5.14 310 12:28 02.11.2021
4987 Clear 33 1012 52 8000 4.63 320 11:28 02.11.2021
4988 Clear 34 1012 52 7000 5.14 320 10:51 02.11.2021
4989 Clear 34 1012 52 7000 5.14 320 10:23 02.11.2021
4990 Clear 32 1014 48 8000 0.51 0 08:42 02.11.2021
4991 Clear 29 1015 55 10000 2.55 212 06:42 02.11.2021
4992 Haze 26 1013 83 2500 1.54 180 03:33 02.11.2021
4993 Clear 26 1012 78 6000 2.57 170 00:58 02.11.2021
4994 Clear 27 1013 74 7000 2.06 140 22:28 01.11.2021
4995 Clear 29 1014 70 8000 2.06 330 20:50 01.11.2021
4996 Clear 29 1014 70 8000 2.06 330 20:32 01.11.2021
4997 Clear 29 1014 74 10000 3 290 19:44 01.11.2021
4998 Clear 29 1014 70 8000 3.09 360 18:57 01.11.2021
4999 Clear 29 1014 70 8000 3.09 360 18:19 01.11.2021
5000 Clear 30 1013 70 8000 3.6 340 17:18 01.11.2021
5001 Clear 31 1013 70 8000 3.09 350 16:34 01.11.2021
5002 Clear 32 1012 62 7000 4.12 330 15:45 01.11.2021
5003 Clear 32 1012 62 7000 4.12 330 15:19 01.11.2021
5004 Clear 32 1012 62 10000 4.63 330 14:41 01.11.2021
5005 Clear 32 1012 62 10000 4.63 330 14:19 01.11.2021
5006 Clear 34 1012 43 10000 5.66 320 12:59 01.11.2021
5007 Clear 36 1013 36 10000 4.12 310 11:40 01.11.2021
5008 Clear 36 1014 41 10000 3.09 320 10:22 01.11.2021
5009 Clear 35 1017 26 10000 1.03 0 08:43 01.11.2021
5010 Clear 32 1017 35 10000 1.03 0 07:47 01.11.2021
5011 Clear 24 1016 65 10000 1.03 0 03:58 01.11.2021
5012 Clear 24 1016 65 10000 1.03 0 03:39 01.11.2021
5013 Clear 28 1016 64 10000 1.98 30 23:58 31.10.2021
5014 Clear 29 1016 74 10000 2.06 350 21:26 31.10.2021
5015 Clear 30 1017 66 10000 2.57 340 20:24 31.10.2021
5016 Clear 30 1017 55 10000 3.09 330 18:46 31.10.2021
5017 Clear 30 1017 55 10000 3.09 330 18:23 31.10.2021
5018 Clear 31 1017 55 10000 4.12 330 16:48 31.10.2021
5019 Clear 30 1017 55 10000 4.06 326 15:18 31.10.2021
5020 Clear 34 1016 33 10000 6.69 330 12:58 31.10.2021
5021 Clear 34 1016 33 10000 6.69 330 12:58 31.10.2021
5022 Clear 34 1016 33 10000 6.69 330 12:19 31.10.2021
5023 Clear 35 1018 23 10000 6.17 10 10:51 31.10.2021
5024 Clear 35 1018 20 10000 5.66 340 09:26 31.10.2021
5025 Clear 34 1019 29 10000 3.09 320 08:46 31.10.2021
5026 Clear 29 1018 58 10000 3.28 358 02:59 31.10.2021
5027 Clear 27 1018 65 10000 0.51 0 23:54 30.10.2021
5028 Clear 29 1019 58 10000 1.03 0 21:50 30.10.2021
5029 Clear 29 1019 58 10000 1.03 0 21:26 30.10.2021
5030 Clear 29 1019 58 10000 1.54 60 19:40 30.10.2021
5031 Clear 29 1019 52 10000 2.61 6 17:49 30.10.2021
5032 Clear 29 1018 50 10000 4.28 330 15:41 30.10.2021
5033 Clear 33 1017 35 10000 4.63 340 13:59 30.10.2021
5034 Clear 33 1017 35 10000 4.63 340 13:38 30.10.2021
5035 Clear 33 1017 35 10000 4.63 340 13:20 30.10.2021
5036 Clear 34 1018 24 10000 2.06 330 11:49 30.10.2021
5037 Clear 33 1020 25 10000 3.09 270 10:44 30.10.2021
5038 Clear 30 1021 30 10000 3.09 190 08:56 30.10.2021
5039 Clear 29 1021 30 10000 2.57 180 07:56 30.10.2021
5040 Clear 24 1020 25 10000 1.54 140 05:46 30.10.2021
5041 Clear 25 1018 34 10000 2.06 0 02:59 30.10.2021
5042 Clear 26 1017 28 10000 3.09 90 23:21 29.10.2021
5043 Clear 27 1018 24 10000 3.09 80 22:34 29.10.2021
5044 Clear 27 1018 24 10000 4.12 80 21:18 29.10.2021
5045 Clear 28 1018 20 10000 3.6 80 20:32 29.10.2021
5046 Clear 30 1018 39 10000 3.6 70 19:26 29.10.2021
5047 Clear 30 1017 51 10000 5.14 50 17:43 29.10.2021
5048 Clear 31 1016 48 10000 5.14 30 15:42 29.10.2021
5049 Clouds 33 1015 40 10000 5.14 340 12:50 29.10.2021
5050 Clouds 33 1017 35 10000 3.09 170 10:46 29.10.2021
5051 Clear 32 1018 37 10000 3.09 180 09:46 29.10.2021
5052 Clear 26 1015 69 10000 3.09 90 02:46 29.10.2021
5053 Clouds 25 1015 72 10000 5.82 97 00:30 29.10.2021
5054 Clouds 26 1015 70 10000 5.61 92 22:27 28.10.2021
5055 Clouds 27 1015 68 10000 5.54 94 20:59 28.10.2021
5056 Clear 30 1015 54 10000 3.09 40 19:56 28.10.2021
5057 Clear 30 1015 54 10000 4.12 70 18:46 28.10.2021
5058 Clear 30 1014 54 10000 4.12 30 17:38 28.10.2021
5059 Clear 31 1014 48 10000 4.12 10 16:38 28.10.2021
5060 Clear 31 1013 51 10000 5.66 350 14:42 28.10.2021
5061 Clouds 32 1013 45 10000 6.69 340 13:33 28.10.2021
5062 Clouds 32 1013 45 10000 5.14 340 12:50 28.10.2021
5063 Clear 35 1013 49 10000 4.98 300 11:49 28.10.2021
5064 Clouds 32 1015 40 10000 1.54 150 10:23 28.10.2021
5065 Clear 33 1015 48 10000 3.37 256 09:37 28.10.2021
5066 Clear 30 1016 51 10000 3.09 130 08:36 28.10.2021
5067 Clear 32 1016 52 10000 4.58 146 07:41 28.10.2021
5068 Clear 27 1013 65 10000 3.09 90 01:48 28.10.2021
5069 Clear 27 1013 65 10000 3.09 90 22:54 27.10.2021
5070 Clear 28 1013 61 10000 3.6 70 21:57 27.10.2021
5071 Clear 28 1013 61 10000 3.6 70 21:28 27.10.2021
5072 Clear 29 1013 61 10000 3.09 70 20:43 27.10.2021
5073 Clear 29 1013 58 10000 3.6 40 19:47 27.10.2021
5074 Clear 30 1013 58 10000 3.09 350 18:56 27.10.2021
5075 Clear 30 1013 58 10000 3.6 360 17:49 27.10.2021
5076 Clouds 30 1012 58 10000 4.63 20 16:25 27.10.2021
5077 Clouds 31 1012 51 10000 5.14 360 15:25 27.10.2021
5078 Clouds 32 1011 48 10000 6.17 10 14:24 27.10.2021
5079 Clouds 33 1013 46 10000 4.63 320 11:18 27.10.2021
5080 Clouds 33 1014 40 10000 2.06 110 10:37 27.10.2021
5081 Clouds 32 1015 45 10000 2.57 60 09:23 27.10.2021
5082 Clear 29 1015 48 10000 1.54 120 07:46 27.10.2021
5083 Clear 27 1015 61 10000 2.47 123 05:49 27.10.2021
5084 Clear 29 1013 65 10000 1.82 81 01:24 27.10.2021
5085 Clear 27 1012 48 10000 1.54 160 00:54 27.10.2021
5086 Clear 29 1012 45 10000 1.54 120 23:55 26.10.2021
5087 Clear 29 1012 42 10000 2.06 360 22:47 26.10.2021
5088 Clear 29 1012 42 10000 2.06 360 22:25 26.10.2021
5089 Clear 30 1012 40 10000 1.54 330 21:41 26.10.2021
5090 Clear 30 1012 42 10000 3.09 350 19:59 26.10.2021
5091 Clear 30 1012 42 10000 3.09 350 19:22 26.10.2021
5092 Clear 31 1012 42 10000 3.09 300 18:23 26.10.2021
5093 Clear 32 1010 48 10000 4.12 290 15:51 26.10.2021
5094 Clear 33 1010 40 10000 5.14 290 13:21 26.10.2021
5095 Clouds 34 1011 38 10000 5.14 310 11:18 26.10.2021
5096 Clouds 32 1013 48 10000 1.54 0 09:26 26.10.2021
5097 Clear 30 1014 62 10000 2.57 0 07:22 26.10.2021
5098 Clouds 28 1011 78 10000 2.06 150 00:29 26.10.2021
5099 Clear 28 1012 58 10000 1.11 239 23:37 25.10.2021
5100 Clear 29 1012 70 10000 1.54 220 22:34 25.10.2021
5101 Clear 29 1012 70 10000 2.06 230 21:45 25.10.2021
5102 Clear 30 1012 74 10000 2.06 250 20:38 25.10.2021
5103 Clear 29 1012 63 10000 2.3 284 19:44 25.10.2021
5104 Clear 29 1012 63 10000 2.96 290 19:23 25.10.2021
5105 Clear 30 1011 74 10000 3.09 260 18:38 25.10.2021
5106 Clear 31 1011 66 10000 4.12 280 17:35 25.10.2021
5107 Clear 32 1010 58 10000 4.12 280 15:18 25.10.2021
5108 Clear 34 1011 38 10000 4.12 270 12:33 25.10.2021
5109 Clear 33 1012 49 10000 1.03 0 10:54 25.10.2021
5110 Clear 30 1014 66 10000 2.57 190 08:58 25.10.2021
5111 Clear 28 1013 69 10000 3.09 190 07:19 25.10.2021
5112 Clear 26 1011 78 10000 2.06 170 04:35 25.10.2021
5113 Clear 27 1010 68 10000 3.14 190 00:52 25.10.2021
5114 Clear 28 1010 68 10000 3.14 190 00:33 25.10.2021
5115 Clear 28 1010 69 10000 3.09 190 23:41 24.10.2021
5116 Clear 29 1011 70 10000 2.57 190 22:38 24.10.2021
5117 Clear 29 1011 70 10000 2.57 190 22:19 24.10.2021
5118 Clear 28 1011 61 10000 2.46 213 21:18 24.10.2021
5119 Clear 30 1011 66 10000 2.06 250 20:34 24.10.2021
5120 Clear 30 1011 66 10000 2.06 270 19:39 24.10.2021
5121 Clear 31 1011 58 10000 2.57 270 18:29 24.10.2021
5122 Clear 31 1011 58 10000 4.12 290 17:44 24.10.2021
5123 Clear 30 1011 56 10000 4.75 287 15:56 24.10.2021
5124 Clear 30 1011 56 10000 4.75 287 15:56 24.10.2021
5125 Clouds 33 1010 55 10000 6.17 300 14:41 24.10.2021
5126 Clear 31 1010 57 10000 6.18 280 12:58 24.10.2021
5127 Clouds 33 1011 49 10000 5.66 320 11:45 24.10.2021
5128 Clouds 33 1011 49 10000 5.66 320 11:25 24.10.2021
5129 Clouds 33 1012 49 10000 3.6 300 10:27 24.10.2021
5130 Clear 30 1013 62 10000 2.57 180 07:51 24.10.2021
5131 Clear 28 1011 65 10000 1.31 303 01:22 24.10.2021
5132 Clear 29 1011 62 10000 1.03 0 23:48 23.10.2021
5133 Clear 29 1012 62 10000 1.54 60 22:18 23.10.2021
5134 Clear 31 1012 55 10000 2.57 340 20:37 23.10.2021
5135 Clear 31 1012 58 10000 3.09 360 18:59 23.10.2021
5136 Clear 31 1012 58 10000 3.09 360 18:30 23.10.2021
5137 Clear 31 1011 58 10000 4.12 350 17:43 23.10.2021
5138 Clear 31 1011 62 10000 5.66 340 16:24 23.10.2021
5139 Clear 33 1010 52 10000 6.69 330 14:32 23.10.2021
5140 Clear 28 1012 59 10000 2.09 38 03:34 23.10.2021
5141 Clear 29 1011 54 10000 2.06 60 00:22 23.10.2021
5142 Clear 29 1012 58 10000 1.54 100 23:18 22.10.2021
5143 Clear 31 1012 62 10000 2.57 50 20:50 22.10.2021
5144 Clear 31 1012 62 10000 3.09 40 18:45 22.10.2021
5145 Clear 31 1011 62 10000 2.57 40 17:43 22.10.2021
5146 Clear 32 1011 62 10000 5.66 340 15:37 22.10.2021
5147 Clouds 34 1010 49 10000 5.14 350 13:54 22.10.2021
5148 Clear 32 1011 48 10000 2.89 322 11:26 22.10.2021
5149 Clouds 34 1012 46 10000 1.54 0 10:41 22.10.2021
5150 Clouds 32 1013 55 10000 2.57 190 09:56 22.10.2021
5151 Clear 31 1013 58 10000 2.57 170 08:36 22.10.2021
5152 Clear 29 1013 61 10000 2.57 170 07:23 22.10.2021
5153 Clear 30 1011 63 10000 3.43 150 03:32 22.10.2021
5154 Clear 29 1011 58 10000 3.6 160 23:57 21.10.2021
5155 Clear 29 1011 58 10000 3.6 160 23:38 21.10.2021
5156 Clear 31 1011 60 10000 2.35 305 22:21 21.10.2021
5157 Clear 31 1011 55 10000 3.6 270 20:42 21.10.2021
5158 Clear 31 1011 55 10000 3.6 270 20:19 21.10.2021
5159 Clear 32 1011 51 10000 5.14 280 19:29 21.10.2021
5160 Clear 32 1010 51 10000 5.66 280 18:46 21.10.2021
5161 Clear 30 1011 66 10000 4 282 18:18 21.10.2021
5162 Clear 32 1010 62 10000 3.6 270 17:37 21.10.2021
5163 Clear 33 1010 55 10000 5.14 290 15:49 21.10.2021
5164 Clear 33 1010 55 10000 5.14 290 15:20 21.10.2021
5165 Clear 34 1009 49 10000 5.14 280 14:38 21.10.2021
5166 Clear 36 1009 54 10000 5.7 265 13:19 21.10.2021
5167 Clear 36 1010 52 10000 5.68 266 11:24 21.10.2021
5168 Clear 31 1013 66 7000 3.6 200 08:34 21.10.2021
5169 Haze 27 1013 83 5000 3.6 200 07:28 21.10.2021
5170 Clear 28 1011 70 8000 1.54 170 03:29 21.10.2021
5171 Clear 28 1010 65 10000 0.73 7 23:29 20.10.2021
5172 Clear 31 1011 66 10000 2.06 80 21:52 20.10.2021
5173 Clear 31 1011 66 10000 2.06 80 21:30 20.10.2021
5174 Clear 31 1011 58 10000 2.57 50 20:54 20.10.2021
5175 Clear 31 1011 58 10000 2.57 50 20:28 20.10.2021
5176 Clear 32 1011 62 10000 3.09 340 19:51 20.10.2021
5177 Clear 31 1010 74 8000 3.09 330 18:54 20.10.2021
5178 Clear 31 1010 74 8000 3.6 340 17:45 20.10.2021
5179 Clear 32 1009 62 10000 5.66 330 15:26 20.10.2021
5180 Clear 35 1011 43 10000 1.54 0 10:25 20.10.2021
5181 Clear 32 1012 51 10000 1.03 0 08:53 20.10.2021
5182 Clear 28 1009 65 10000 1.03 0 03:21 20.10.2021
5183 Clear 29 1009 61 10000 2.06 210 00:43 20.10.2021
5184 Clear 29 1009 61 10000 2.57 210 23:59 19.10.2021
5185 Clear 31 1010 55 10000 2.06 190 21:43 19.10.2021
5186 Clear 32 1010 51 10000 1.54 210 20:54 19.10.2021
5187 Clear 32 1010 51 10000 1.54 210 20:22 19.10.2021
5188 Clear 32 1009 51 10000 2.06 250 19:41 19.10.2021
5189 Clear 32 1009 51 10000 2.06 250 19:19 19.10.2021
5190 Clear 32 1008 55 10000 3.6 270 17:58 19.10.2021
5191 Clear 34 1007 49 10000 4.12 280 15:39 19.10.2021
5192 Clear 34 1007 49 10000 4.12 280 15:19 19.10.2021
5193 Clear 35 1007 46 10000 5.14 290 14:26 19.10.2021
5194 Clear 35 1007 46 10000 5.66 290 13:29 19.10.2021
5195 Clear 35 1008 46 8000 5.14 290 11:32 19.10.2021
5196 Clear 35 1009 46 6000 4.12 290 10:23 19.10.2021
5197 Clouds 32 1010 66 8000 3.6 200 08:58 19.10.2021
5198 Haze 29 1010 79 4500 3.6 190 06:50 19.10.2021
5199 Clouds 30 1008 74 8000 2.57 200 00:24 19.10.2021
5200 Clouds 30 1008 74 8000 3.09 200 23:50 18.10.2021
5201 Clouds 30 1008 74 8000 3.09 200 23:19 18.10.2021
5202 Clouds 31 1008 70 8000 2.06 230 22:53 18.10.2021
5203 Clear 30 1009 74 10000 2.38 264 21:19 18.10.2021
5204 Clear 32 1009 66 10000 2.57 250 20:41 18.10.2021
5205 Clear 32 1009 66 10000 2.57 250 20:18 18.10.2021
5206 Clear 32 1009 70 10000 2.57 260 19:30 18.10.2021
5207 Clear 32 1008 66 10000 2.57 280 18:54 18.10.2021
5208 Clear 34 1007 52 10000 6.17 310 15:45 18.10.2021
5209 Clear 34 1007 43 10000 7.2 320 14:26 18.10.2021
5210 Clear 37 1008 12 10000 4.63 260 10:43 18.10.2021
5211 Clear 34 1010 16 10000 3.6 210 09:30 18.10.2021
5212 Clear 27 1007 42 10000 1.54 150 03:22 18.10.2021
5213 Clear 31 1007 35 10000 1.03 0 23:31 17.10.2021
5214 Clear 30 1008 45 10000 1.54 100 21:55 17.10.2021
5215 Clear 30 1008 45 10000 1.54 100 21:18 17.10.2021
5216 Clear 31 1008 45 10000 1.03 0 20:38 17.10.2021
5217 Clear 32 1008 43 10000 1.54 80 19:42 17.10.2021
5218 Clear 32 1008 43 10000 1.54 80 19:23 17.10.2021
5219 Clear 34 1006 36 10000 3.09 50 17:34 17.10.2021
5220 Clear 36 1006 23 10000 4.12 340 15:42 17.10.2021
5221 Clear 36 1005 32 10000 5.66 340 14:24 17.10.2021
5222 Clear 36 1005 34 10000 6.69 350 13:56 17.10.2021
5223 Clear 39 1007 8 10000 2.06 0 11:58 17.10.2021
5224 Clear 38 1007 11 10000 3.09 140 10:43 17.10.2021
5225 Clear 37 1009 19 10000 4.12 130 09:41 17.10.2021
5226 Clear 30 1009 48 8000 3.6 90 07:19 17.10.2021
5227 Clear 29 1006 74 8000 2.57 30 00:53 17.10.2021
5228 Clear 29 1006 74 8000 2.57 30 00:23 17.10.2021
5229 Clear 30 1006 66 10000 3.6 340 21:52 16.10.2021
5230 Clear 29 1006 47 10000 0.85 12 20:32 16.10.2021
5231 Clear 31 1006 51 10000 1.03 0 19:46 16.10.2021
5232 Clear 31 1006 51 10000 1.03 0 19:23 16.10.2021
5233 Clear 31 1006 66 8000 2.06 60 18:56 16.10.2021
5234 Clear 31 1006 66 8000 2.06 60 18:38 16.10.2021
5235 Clear 31 1006 66 8000 2.06 60 18:18 16.10.2021
5236 Clear 30 1006 59 10000 2.3 48 17:27 16.10.2021
5237 Clear 33 1004 55 8000 4.63 330 15:33 16.10.2021
5238 Clear 37 1005 48 10000 6.11 336 12:26 16.10.2021
5239 Clear 34 1006 55 8000 5.66 330 10:47 16.10.2021
5240 Clear 34 1008 46 8000 1.03 0 08:23 16.10.2021
5241 Clear 28 1006 76 10000 3.5 137 01:25 16.10.2021
5242 Clouds 29 1006 66 10000 3.09 150 23:57 15.10.2021
5243 Clouds 29 1006 66 10000 3.09 150 23:24 15.10.2021
5244 Clear 29 1007 70 10000 1.3 353 22:19 15.10.2021
5245 Clear 29 1007 70 10000 1.73 329 21:29 15.10.2021
5246 Clear 29 1007 70 10000 1.72 329 21:29 15.10.2021
5247 Clear 31 1007 66 10000 2.06 360 20:49 15.10.2021
5248 Clear 32 1007 62 10000 2.06 310 19:37 15.10.2021
5249 Clear 32 1007 62 10000 2.57 280 18:41 15.10.2021
5250 Clear 33 1006 55 10000 5.66 330 16:43 15.10.2021
5251 Clear 30 1006 64 10000 3.72 285 15:36 15.10.2021
5252 Clear 35 1006 52 10000 5.14 350 13:31 15.10.2021
5253 Clear 35 1007 43 10000 4.12 350 11:37 15.10.2021
5254 Clear 37 1008 46 10000 3.91 311 10:58 15.10.2021
5255 Clear 35 1009 41 10000 2.57 0 09:59 15.10.2021
5256 Clear 26 1010 78 10000 1.03 0 05:44 15.10.2021
5257 Clear 27 1009 69 10000 2.06 140 01:47 15.10.2021
5258 Clear 28 1009 65 10000 2.57 110 00:22 15.10.2021
5259 Clear 31 1009 58 10000 2.57 20 22:52 14.10.2021
5260 Clear 31 1009 58 10000 3.09 330 21:45 14.10.2021
5261 Clear 30 1010 64 10000 2.64 318 20:49 14.10.2021
5262 Clear 30 1010 63 10000 2.64 305 20:19 14.10.2021
5263 Clear 32 1010 55 10000 3.6 330 19:38 14.10.2021
5264 Clear 32 1009 58 10000 3.6 330 17:37 14.10.2021
5265 Clear 32 1009 58 10000 3.09 340 16:51 14.10.2021
5266 Clear 32 1009 58 10000 3.09 340 16:20 14.10.2021
5267 Clear 34 1009 49 10000 5.66 340 14:43 14.10.2021
5268 Clear 34 1009 49 10000 5.66 340 14:21 14.10.2021
5269 Clear 35 1010 41 10000 5.66 340 11:44 14.10.2021
5270 Clear 37 1011 44 10000 4.26 313 09:55 14.10.2021
5271 Clear 32 1011 45 10000 0.91 2 07:32 14.10.2021
5272 Clear 31 1010 57 10000 3.79 18 01:29 14.10.2021
5273 Clear 30 1010 57 10000 4.24 10 00:28 14.10.2021
5274 Clear 29 1010 55 10000 2.63 4 21:58 13.10.2021
5275 Clear 29 1010 55 10000 2.63 4 21:32 13.10.2021
5276 Clear 31 1009 58 10000 2.57 330 19:59 13.10.2021
5277 Clear 30 1010 58 10000 2.9 46 18:54 13.10.2021
5278 Clear 30 1010 58 10000 2.92 45 18:34 13.10.2021
5279 Clear 32 1008 49 10000 4.65 338 15:32 13.10.2021
5280 Clear 37 1008 22 10000 4.63 340 14:45 13.10.2021
5281 Clear 37 1008 22 10000 4.63 340 14:21 13.10.2021
5282 Clear 37 1009 20 10000 5.14 330 12:22 13.10.2021
5283 Clear 37 1009 18 10000 4.63 340 11:34 13.10.2021
5284 Clear 34 1012 18 10000 2.06 230 08:41 13.10.2021
5285 Clear 29 1011 30 10000 1.54 0 06:42 13.10.2021
5286 Clear 28 1009 30 10000 2.57 60 02:27 13.10.2021
5287 Clear 28 1008 30 10000 1.54 70 01:43 13.10.2021
5288 Clear 30 1008 29 10000 2.06 130 23:30 12.10.2021
5289 Clear 31 1008 25 10000 2.06 130 22:46 12.10.2021
5290 Clear 32 1009 25 10000 3.09 110 21:50 12.10.2021
5291 Clear 32 1009 25 10000 2.57 140 20:34 12.10.2021
5292 Clear 33 1008 29 10000 2.06 80 19:57 12.10.2021
5293 Clear 33 1008 33 10000 4.12 80 18:36 12.10.2021
5294 Clear 31 1008 34 10000 4.6 100 17:51 12.10.2021
5295 Clear 35 1007 36 10000 4.63 30 16:39 12.10.2021
5296 Clear 36 1007 34 10000 4.63 20 15:58 12.10.2021
5297 Clear 37 1006 32 10000 4.63 360 14:39 12.10.2021
5298 Clear 37 1006 34 10000 5.66 350 13:43 12.10.2021
5299 Clear 38 1006 34 10000 5.14 330 12:35 12.10.2021
5300 Clear 37 1009 16 10000 2.06 0 09:42 12.10.2021
5301 Clear 35 1010 18 10000 2.06 150 08:43 12.10.2021
5302 Clear 32 1009 25 10000 3.09 110 07:25 12.10.2021
5303 Clear 28 1008 28 10000 1.03 90 05:29 12.10.2021
5304 Clear 28 1007 28 10000 1.54 90 04:32 12.10.2021
5305 Clear 30 1007 40 10000 5.28 78 00:28 12.10.2021
5306 Clear 30 1007 25 10000 1.54 130 23:40 11.10.2021
5307 Clear 31 1007 23 10000 2.57 120 22:57 11.10.2021
5308 Clear 32 1007 29 10000 2.06 0 21:45 11.10.2021
5309 Clear 33 1007 26 10000 3.09 60 20:39 11.10.2021
5310 Clear 34 1007 22 10000 4.12 50 19:44 11.10.2021
5311 Clear 34 1007 46 10000 3.09 30 18:37 11.10.2021
5312 Clear 34 1006 52 10000 3.6 360 16:51 11.10.2021
5313 Clear 34 1006 52 10000 3.6 360 16:31 11.10.2021
5314 Clear 34 1005 52 10000 4.63 350 15:47 11.10.2021
5315 Clear 34 1005 59 8000 6.69 340 14:54 11.10.2021
5316 Clear 34 1005 59 8000 6.69 340 14:22 11.10.2021
5317 Clear 34 1005 55 9000 7.72 330 13:36 11.10.2021
5318 Clear 34 1005 55 9000 7.72 330 13:36 11.10.2021
5319 Clear 37 1007 39 10000 1.03 0 11:37 11.10.2021
5320 Clear 36 1008 41 10000 1.54 0 10:30 11.10.2021
5321 Clear 33 1009 49 10000 1.54 0 08:42 11.10.2021
5322 Clear 28 1007 74 10000 1.54 170 03:49 11.10.2021
5323 Clear 30 1007 66 10000 2.06 170 01:36 11.10.2021
5324 Clear 31 1007 58 10000 1.03 0 00:44 11.10.2021
5325 Clear 31 1007 55 10000 2.06 260 23:57 10.10.2021
5326 Clear 32 1007 55 10000 2.57 290 21:51 10.10.2021
5327 Clear 32 1007 55 10000 2.57 290 21:29 10.10.2021
5328 Clear 33 1008 55 10000 3.6 330 20:42 10.10.2021
5329 Clear 33 1008 55 10000 3.6 330 20:20 10.10.2021
5330 Clear 33 1008 58 10000 4.63 320 19:52 10.10.2021
5331 Clear 33 1008 58 10000 4.63 320 19:33 10.10.2021
5332 Clear 33 1007 62 10000 4.63 290 18:32 10.10.2021
5333 Clear 35 1006 55 10000 4.12 300 15:59 10.10.2021
5334 Clear 35 1006 55 10000 4.12 300 15:40 10.10.2021
5335 Clear 36 1006 56 8000 5.66 310 13:42 10.10.2021
5336 Clear 36 1006 59 8000 5.14 280 12:48 10.10.2021
5337 Clear 36 1006 59 8000 5.14 280 12:30 10.10.2021
5338 Clear 36 1008 52 8000 1.54 210 10:42 10.10.2021
5339 Clear 34 1009 66 6000 2.57 0 09:29 10.10.2021
5340 Haze 33 1009 70 5000 1.54 0 08:52 10.10.2021
5341 Haze 29 1008 84 2500 1.54 160 06:36 10.10.2021
5342 Haze 29 1006 79 5000 2.57 220 02:29 10.10.2021
5343 Clear 30 1006 79 6000 2.06 230 00:54 10.10.2021
5344 Clear 30 1006 74 7000 1.54 250 23:52 09.10.2021
5345 Clear 30 1006 74 7000 1.54 250 23:52 09.10.2021
5346 Clear 31 1007 70 7000 1.54 150 22:39 09.10.2021
5347 Clear 31 1007 74 8000 1.54 140 21:31 09.10.2021
5348 Clear 33 1007 66 9000 1.03 0 20:59 09.10.2021
5349 Clear 33 1007 70 8000 2.06 310 19:42 09.10.2021
5350 Clear 32 1006 79 8000 2.57 350 18:57 09.10.2021
5351 Clear 32 1006 79 8000 2.57 350 18:27 09.10.2021
5352 Clear 33 1006 70 7000 5.14 340 16:28 09.10.2021
5353 Clear 35 1006 63 7000 5.66 320 14:57 09.10.2021
5354 Clear 36 1006 59 7000 5.66 330 13:40 09.10.2021
5355 Clear 36 1006 56 7000 5.14 320 12:37 09.10.2021
5356 Clear 39 1007 25 8000 1.54 0 11:33 09.10.2021
5357 Clear 37 1008 44 8000 2.06 230 10:22 09.10.2021
5358 Clear 35 1008 55 7000 1.03 0 09:30 09.10.2021
5359 Clear 32 1008 74 6000 2.06 220 08:28 09.10.2021
5360 Haze 30 1007 74 5000 3.09 170 06:54 09.10.2021
5361 Haze 28 1007 79 5000 2.57 140 05:27 09.10.2021
5362 Clear 30 1006 74 7000 2.06 90 02:48 09.10.2021
5363 Clear 30 1006 70 8000 2.06 130 00:45 09.10.2021
5364 Clear 31 1006 66 8000 2.06 170 23:35 08.10.2021
5365 Clear 31 1006 74 7000 1.03 0 22:49 08.10.2021
5366 Clear 32 1006 74 8000 1.03 0 21:47 08.10.2021
5367 Clear 32 1006 74 8000 2.06 10 20:31 08.10.2021
5368 Clear 33 1006 70 10000 3.6 340 18:23 08.10.2021
5369 Clear 33 1005 66 10000 3.6 330 17:18 08.10.2021
5370 Clear 34 1005 55 10000 4.63 330 16:44 08.10.2021
5371 Clear 34 1005 55 10000 4.63 330 16:22 08.10.2021
5372 Clear 36 1006 52 10000 5.66 320 13:48 08.10.2021
5373 Clear 37 1007 30 10000 4.63 320 11:56 08.10.2021
5374 Clear 37 1007 44 10000 2.57 310 10:50 08.10.2021
5375 Clear 37 1007 44 10000 2.57 310 10:25 08.10.2021
5376 Clear 31 1008 70 10000 2.06 120 06:49 08.10.2021
5377 Clear 31 1007 66 10000 2.06 40 23:28 07.10.2021
5378 Clear 31 1007 62 10000 1.54 50 22:56 07.10.2021
5379 Clear 31 1007 62 10000 1.54 60 21:30 07.10.2021
5380 Clear 32 1007 58 10000 2.06 80 20:43 07.10.2021
5381 Clear 33 1007 55 10000 2.06 60 19:39 07.10.2021
5382 Clear 34 1007 49 10000 2.57 50 18:59 07.10.2021
5383 Clear 34 1006 46 10000 4.12 340 17:35 07.10.2021
5384 Clear 35 1006 43 10000 4.63 340 16:42 07.10.2021
5385 Clear 35 1006 46 10000 6.69 350 14:56 07.10.2021
5386 Clear 37 1006 41 10000 6.69 340 13:44 07.10.2021
5387 Clear 37 1006 41 10000 6.69 340 13:20 07.10.2021
5388 Clear 38 1007 34 10000 4.63 320 11:26 07.10.2021
5389 Clear 38 1008 32 10000 1.54 0 10:47 07.10.2021
5390 Clear 36 1009 38 10000 2.57 160 09:47 07.10.2021
5391 Clear 34 1010 43 10000 3.6 170 08:54 07.10.2021
5392 Clear 34 1010 43 10000 3.6 170 08:19 07.10.2021
5393 Clear 32 1009 45 10000 4.12 180 07:39 07.10.2021
5394 Clear 30 1009 42 10000 3.09 170 06:47 07.10.2021
5395 Clear 30 1007 43 10000 2.68 60 00:55 07.10.2021
5396 Clear 31 1007 40 10000 2.57 80 23:25 06.10.2021
5397 Clear 31 1007 40 10000 3.58 110 22:33 06.10.2021
5398 Clear 31 1007 59 10000 2.68 80 21:39 06.10.2021
5399 Clear 32 1007 55 10000 2.57 50 20:29 06.10.2021
5400 Clear 33 1007 52 10000 3.09 50 19:21 06.10.2021
5401 Clear 34 1006 59 10000 3.09 30 17:27 06.10.2021
5402 Clear 34 1005 59 10000 6.17 340 15:43 06.10.2021
5403 Clear 35 1005 52 10000 6.69 340 14:53 06.10.2021
5404 Clear 36 1005 49 10000 6.69 340 13:25 06.10.2021
5405 Clear 37 1006 44 10000 6.69 340 12:47 06.10.2021
5406 Clear 37 1006 44 10000 6.69 340 12:26 06.10.2021
5407 Clear 38 1006 39 10000 5.14 330 11:35 06.10.2021
5408 Clear 38 1006 39 10000 5.14 330 11:35 06.10.2021
5409 Clear 35 1009 43 10000 3.6 170 09:40 06.10.2021
5410 Clear 33 1009 52 10000 4.63 190 08:59 06.10.2021
5411 Clear 33 1009 52 10000 4.63 190 08:30 06.10.2021
5412 Clear 30 1008 66 10000 2.68 150 05:56 06.10.2021
5413 Clear 29 1006 79 10000 2.57 100 02:19 06.10.2021
5414 Clear 30 1006 74 10000 2.06 90 00:24 06.10.2021
5415 Clear 30 1006 74 10000 2.24 100 23:51 05.10.2021
5416 Clear 30 1006 74 10000 2.24 100 23:29 05.10.2021
5417 Clear 31 1006 70 10000 2.68 70 22:31 05.10.2021
5418 Clear 32 1006 70 10000 2.24 70 21:57 05.10.2021
5419 Clear 32 1006 70 10000 2.06 70 21:20 05.10.2021
5420 Clear 33 1007 66 10000 3.09 40 20:26 05.10.2021
5421 Clear 33 1007 62 10000 3.13 40 19:50 05.10.2021
5422 Clear 33 1007 62 10000 3.09 40 19:23 05.10.2021
5423 Clear 33 1006 58 10000 3.09 20 18:20 05.10.2021
5424 Clear 35 1004 46 10000 6.17 350 15:28 05.10.2021
5425 Clear 37 1004 41 10000 6.69 320 13:49 05.10.2021
5426 Clear 37 1004 41 10000 6.69 320 13:18 05.10.2021
5427 Clear 37 1005 39 10000 4.63 300 12:33 05.10.2021
5428 Clear 37 1006 34 10000 2.06 0 11:41 05.10.2021
5429 Clear 36 1007 38 10000 1.54 0 10:34 05.10.2021
5430 Clear 31 1007 58 10000 3.13 170 06:59 05.10.2021
5431 Clear 30 1005 70 10000 2.68 80 00:58 05.10.2021
5432 Clear 31 1006 62 10000 2.24 100 22:51 04.10.2021
5433 Clear 32 1006 58 10000 2.57 70 21:23 04.10.2021
5434 Clear 33 1005 59 10000 2.68 40 18:48 04.10.2021
5435 Clear 33 1005 58 10000 2.57 20 17:26 04.10.2021
5436 Clear 35 1005 49 10000 2.06 0 15:32 04.10.2021
5437 Clear 35 1005 46 10000 3.09 90 14:45 04.10.2021
5438 Clear 35 1005 46 10000 2.06 70 13:59 04.10.2021
5439 Clear 35 1005 46 10000 2.06 70 13:31 04.10.2021
5440 Clear 35 1006 46 10000 3.09 70 12:38 04.10.2021
5441 Clear 34 1006 49 10000 4.12 100 11:33 04.10.2021
5442 Clear 34 1007 49 10000 5.66 80 10:44 04.10.2021
5443 Clear 33 1008 55 10000 4.63 80 09:35 04.10.2021
5444 Clear 32 1008 55 10000 4.63 80 07:53 04.10.2021
5445 Clear 32 1008 55 10000 5.66 100 06:42 04.10.2021
5446 Clear 31 1006 58 10000 6.17 100 22:48 03.10.2021
5447 Clear 32 1007 51 10000 5.66 100 21:54 03.10.2021
5448 Clear 32 1007 51 10000 5.66 100 21:29 03.10.2021
5449 Clear 32 1006 48 10000 5.66 100 20:44 03.10.2021
5450 Clear 32 1006 51 10000 5.14 110 19:42 03.10.2021
5451 Clear 33 1006 49 10000 5.14 110 18:29 03.10.2021
5452 Clear 33 1006 49 10000 5.66 120 17:36 03.10.2021
5453 Clear 35 1005 43 10000 6.69 120 14:50 03.10.2021
5454 Clear 35 1005 43 10000 6.69 120 14:29 03.10.2021
5455 Clear 36 1005 41 10000 8.23 110 13:35 03.10.2021
5456 Clouds 36 1005 38 8000 8.23 120 12:44 03.10.2021
5457 Clear 37 1006 44 10000 6.17 130 10:58 03.10.2021
5458 Clear 37 1007 41 10000 6.69 130 09:42 03.10.2021
5459 Clear 32 1005 55 10000 3.6 120 05:25 03.10.2021
5460 Clear 33 1003 70 10000 2.57 350 22:52 02.10.2021
5461 Clear 34 1003 62 10000 2.57 360 21:49 02.10.2021
5462 Clear 34 1003 59 10000 2.57 40 20:18 02.10.2021
5463 Clear 34 1003 59 10000 2.57 40 20:18 02.10.2021
5464 Clear 34 1003 63 10000 3.13 330 18:56 02.10.2021
5465 Clear 34 1003 63 10000 3.13 330 18:56 02.10.2021
5466 Clear 34 1003 63 10000 3.13 330 18:56 02.10.2021
5467 Clear 34 1003 62 10000 3.09 330 18:18 02.10.2021
5468 Clear 34 1002 62 10000 3.6 340 17:36 02.10.2021
5469 Clear 34 1002 66 10000 4.63 350 16:22 02.10.2021
5470 Haze 30 1004 84 3000 1.03 0 06:47 02.10.2021
5471 Clear 35 1003 59 10000 6.69 340 15:37 30.09.2021
5472 Clear 36 1003 52 10000 6.69 330 13:54 30.09.2021
5473 Clear 38 1004 49 10000 6.17 320 11:53 30.09.2021
5474 Clear 40 1005 24 10000 1.03 0 10:52 30.09.2021
5475 Clear 40 1005 24 10000 1.03 0 10:20 30.09.2021
5476 Clear 37 1006 28 10000 1.03 0 08:30 30.09.2021
5477 Clear 35 1006 43 10000 1.54 130 07:34 30.09.2021
5478 Dust 30 1005 62 4500 2.06 140 05:23 30.09.2021
5479 Clear 32 1004 55 10000 1.34 190 01:36 30.09.2021
5480 Clear 33 1004 55 10000 2.24 100 00:23 30.09.2021
5481 Clear 33 1004 52 10000 1.54 210 22:38 29.09.2021
5482 Clear 34 1005 46 10000 1.54 130 21:27 29.09.2021
5483 Clear 35 1005 49 10000 2.06 340 20:28 29.09.2021
5484 Clear 34 1005 52 10000 3.13 350 19:54 29.09.2021
5485 Clear 34 1004 56 10000 2.24 350 18:50 29.09.2021
5486 Clear 34 1004 59 8000 2.24 310 17:41 29.09.2021
5487 Clear 34 1004 63 6000 4.47 350 16:48 29.09.2021
5488 Clear 35 1003 55 6000 6.17 350 15:58 29.09.2021
5489 Clear 36 1003 52 10000 6.69 350 14:39 29.09.2021
5490 Clear 37 1003 47 10000 6.69 320 13:58 29.09.2021
5491 Clear 37 1003 47 10000 6.69 320 13:18 29.09.2021
5492 Clear 37 1003 44 10000 6.69 320 12:19 29.09.2021
5493 Clear 38 1004 47 10000 2.57 0 10:49 29.09.2021
5494 Clear 38 1005 37 10000 1.54 180 09:51 29.09.2021
5495 Clear 38 1005 37 10000 1.54 180 09:24 29.09.2021
5496 Clear 34 1006 62 10000 1.54 0 07:32 29.09.2021
5497 Clear 32 1004 74 10000 2.68 360 03:58 29.09.2021
5498 Clear 33 1004 66 10000 2.57 340 23:26 28.09.2021
5499 Clear 33 1004 66 10000 3.58 330 22:23 28.09.2021
5500 Clear 33 1004 70 10000 3.13 340 21:44 28.09.2021
5501 Clear 33 1004 66 10000 3.13 330 20:38 28.09.2021
5502 Clear 33 1004 66 10000 1.54 10 19:46 28.09.2021
5503 Clear 34 1004 59 10000 3.6 340 18:46 28.09.2021
5504 Clear 34 1003 63 10000 4.47 330 17:59 28.09.2021
5505 Clear 34 1002 62 10000 6.69 330 16:23 28.09.2021
5506 Clear 36 1002 49 10000 7.2 350 13:49 28.09.2021
5507 Clear 37 1002 47 10000 6.69 340 12:48 28.09.2021
5508 Clear 37 1002 47 10000 6.69 340 12:19 28.09.2021
5509 Clear 38 1002 47 10000 6.17 350 11:45 28.09.2021
5510 Clear 38 1004 37 10000 1.54 0 10:58 28.09.2021
5511 Clear 37 1005 36 10000 3.6 110 09:53 28.09.2021
5512 Clear 35 1005 49 10000 3.09 100 08:58 28.09.2021
5513 Clear 35 1005 49 10000 3.09 100 08:38 28.09.2021
5514 Clear 33 1005 62 10000 3.6 100 07:31 28.09.2021
5515 Clear 30 1004 79 10000 2.57 90 05:28 28.09.2021
5516 Clouds 31 1003 62 8000 2.06 10 01:23 28.09.2021
5517 Clouds 32 1003 62 8000 2.06 340 00:25 28.09.2021
5518 Clouds 32 1003 66 8000 2.68 340 23:41 27.09.2021
5519 Clear 32 1003 66 8000 2.68 10 22:55 27.09.2021
5520 Clear 33 1003 59 8000 3.13 350 21:54 27.09.2021
5521 Clear 33 1003 62 7000 2.68 340 20:44 27.09.2021
5522 Clouds 33 1003 62 7000 2.68 340 19:55 27.09.2021
5523 Clouds 33 1003 62 7000 2.57 340 19:27 27.09.2021
5524 Clouds 33 1003 62 7000 3.58 340 18:49 27.09.2021
5525 Clouds 33 1002 62 7000 5.14 350 17:29 27.09.2021
5526 Dust 33 1002 62 5000 5.81 350 16:49 27.09.2021
5527 Dust 34 1002 55 5000 5.66 340 15:44 27.09.2021
5528 Dust 34 1002 55 5000 5.66 340 15:18 27.09.2021
5529 Dust 36 1002 49 5000 6.69 330 13:32 27.09.2021
5530 Dust 37 1003 44 5000 3.6 320 11:40 27.09.2021
5531 Clear 37 1004 39 10000 2.57 0 10:36 27.09.2021
5532 Clouds 34 1005 52 8000 0.51 0 08:51 27.09.2021
5533 Clear 30 1004 70 10000 2.06 180 05:22 27.09.2021
5534 Clear 32 1003 62 10000 2.68 260 03:18 27.09.2021
5535 Clear 33 1003 62 10000 3.13 260 22:38 26.09.2021
5536 Clear 33 1003 62 10000 4.02 280 21:53 26.09.2021
5537 Clear 33 1003 62 10000 4.12 280 21:25 26.09.2021
5538 Clear 33 1003 62 10000 3.6 270 20:22 26.09.2021
5539 Clear 34 1003 59 10000 5.36 300 19:52 26.09.2021
5540 Clear 34 1003 59 10000 5.14 290 18:46 26.09.2021
5541 Clear 35 1002 55 10000 6.69 310 17:57 26.09.2021
5542 Clear 35 1002 55 10000 6.69 310 17:23 26.09.2021
5543 Clear 36 1002 52 10000 6.69 310 16:54 26.09.2021
5544 Clear 36 1002 56 10000 5.81 290 15:59 26.09.2021
5545 Clear 37 1001 53 10000 5.81 270 14:59 26.09.2021
5546 Clear 37 1002 47 10000 5.36 280 13:57 26.09.2021
5547 Clear 37 1002 47 10000 5.14 280 13:20 26.09.2021
5548 Clear 37 1002 49 10000 5.14 270 12:25 26.09.2021
5549 Clear 37 1003 60 10000 4.47 290 11:42 26.09.2021
5550 Clear 37 1003 53 10000 5.36 290 10:30 26.09.2021
5551 Clear 36 1004 56 10000 1.34 0 09:20 26.09.2021
5552 Clear 32 1004 70 10000 3.13 210 07:39 26.09.2021
5553 Clear 33 1003 66 10000 3.58 310 00:23 26.09.2021
5554 Clear 33 1003 66 10000 2.24 280 23:30 25.09.2021
5555 Clear 33 1003 66 10000 3.13 270 22:38 25.09.2021
5556 Clear 34 1004 59 10000 2.68 250 21:55 25.09.2021
5557 Clear 34 1004 59 10000 2.68 250 21:32 25.09.2021
5558 Clear 34 1004 63 10000 3.13 270 20:50 25.09.2021
5559 Clear 34 1004 63 10000 2.68 270 19:31 25.09.2021
5560 Clear 34 1004 59 10000 3.09 260 18:25 25.09.2021
5561 Clear 37 1003 47 10000 5.14 300 15:56 25.09.2021
5562 Clear 40 1004 21 10000 4.63 330 13:58 25.09.2021
5563 Clear 40 1004 21 10000 4.63 330 13:32 25.09.2021
5564 Clear 40 1004 12 10000 3.6 340 12:28 25.09.2021
5565 Clear 38 1006 35 10000 3.58 320 10:35 25.09.2021
5566 Clear 37 1007 53 10000 2.68 300 09:40 25.09.2021
5567 Clear 35 1007 59 10000 1.03 0 08:20 25.09.2021
5568 Clear 33 1006 70 10000 2.06 80 06:26 25.09.2021
5569 Dust 34 1005 56 5000 0.45 0 23:55 24.09.2021
5570 Dust 35 1005 46 5000 1.03 0 21:50 24.09.2021
5571 Dust 36 1005 38 5000 2.57 30 20:49 24.09.2021
5572 Clouds 36 1005 34 6000 2.06 60 19:58 24.09.2021
5573 Clouds 37 1004 32 6000 2.06 50 18:35 24.09.2021
5574 Clouds 37 1003 30 7000 4.12 350 17:55 24.09.2021
5575 Clouds 37 1003 30 7000 4.12 350 17:37 24.09.2021
5576 Clouds 37 1003 30 7000 4.12 350 17:18 24.09.2021
5577 Clear 37 1003 59 10000 6.17 340 14:31 24.09.2021
5578 Clear 37 1003 59 10000 7.72 330 13:18 24.09.2021
5579 Clear 37 1003 56 10000 7.15 340 12:40 24.09.2021
5580 Clear 38 1003 56 10000 7.2 340 12:22 24.09.2021
5581 Clear 39 1005 41 10000 2.57 70 10:27 24.09.2021
5582 Clear 35 1006 55 10000 3.09 70 08:55 24.09.2021
5583 Clear 33 1005 62 10000 3.6 50 07:35 24.09.2021
5584 Clear 32 1005 66 10000 2.57 0 06:47 24.09.2021
5585 Clear 30 1004 70 10000 2.06 100 04:55 24.09.2021
5586 Clear 31 1003 62 10000 1.03 0 00:35 24.09.2021
5587 Clear 33 1004 58 10000 1.54 360 22:30 23.09.2021
5588 Clear 33 1004 58 10000 2.57 350 21:56 23.09.2021
5589 Clear 33 1004 58 10000 2.06 350 20:35 23.09.2021
5590 Clear 33 1004 58 10000 2.57 350 19:48 23.09.2021
5591 Clear 34 1002 55 10000 4.63 320 17:47 23.09.2021
5592 Clear 35 1002 52 10000 6.17 330 15:32 23.09.2021
5593 Clear 36 1001 49 10000 6.17 340 14:59 23.09.2021
5594 Clear 36 1002 46 10000 5.66 310 13:46 23.09.2021
5595 Clear 39 1002 51 10000 5.32 298 13:21 23.09.2021
5596 Clear 36 1002 46 10000 5.66 310 12:52 23.09.2021
5597 Clear 36 1002 46 10000 5.66 310 12:22 23.09.2021
5598 Clear 37 1002 47 10000 4.63 320 11:40 23.09.2021
5599 Clear 36 1003 44 10000 1.54 350 10:26 23.09.2021
5600 Clear 36 1004 49 10000 1.54 0 09:52 23.09.2021
5601 Clear 34 1004 59 10000 2.57 310 08:25 23.09.2021
5602 Clear 30 1002 66 10000 2.06 200 04:27 23.09.2021
5603 Clear 31 1002 62 10000 1.54 220 23:27 22.09.2021
5604 Clear 32 1002 58 10000 2.06 240 22:29 22.09.2021
5605 Clear 33 1002 58 10000 1.54 240 21:56 22.09.2021
5606 Clear 33 1002 58 10000 1.54 240 21:34 22.09.2021
5607 Clear 33 1002 58 10000 2.06 260 20:54 22.09.2021
5608 Clear 33 1002 55 10000 2.57 260 19:32 22.09.2021
5609 Clear 34 1002 52 10000 3.6 270 18:39 22.09.2021
5610 Clear 34 1002 52 10000 3.6 270 18:39 22.09.2021
5611 Clear 32 1002 61 10000 4.54 256 17:48 22.09.2021
5612 Clear 32 1002 61 10000 4.36 259 16:38 22.09.2021
5613 Clear 33 1002 54 10000 4.66 268 15:20 22.09.2021
5614 Clear 36 1001 46 10000 4.63 290 13:58 22.09.2021
5615 Clear 36 1003 49 10000 4.63 290 11:59 22.09.2021
5616 Clouds 36 1003 49 10000 3.6 290 10:53 22.09.2021
5617 Clouds 35 1004 52 10000 2.06 330 09:25 22.09.2021
5618 Clouds 34 1005 59 10000 2.57 310 08:30 22.09.2021
5619 Clear 33 1004 66 10000 2.57 210 07:21 22.09.2021
5620 Clear 30 1003 79 7000 2.57 160 05:56 22.09.2021
5621 Clear 30 1003 79 7000 2.57 160 05:34 22.09.2021
5622 Clear 31 1002 74 10000 2.57 180 03:52 22.09.2021
5623 Clear 33 1002 62 10000 2.06 250 00:22 22.09.2021
5624 Clear 33 1003 70 10000 2.06 260 22:56 21.09.2021
5625 Clear 33 1003 70 10000 2.57 250 21:36 21.09.2021
5626 Clouds 32 1004 67 10000 3.45 284 20:27 21.09.2021
5627 Clear 32 1004 67 10000 3.31 288 19:22 21.09.2021
5628 Clear 32 1003 68 10000 3.97 295 17:39 21.09.2021
5629 Clear 35 1002 59 10000 4.12 290 16:38 21.09.2021
5630 Clear 36 1002 56 10000 5.66 300 15:44 21.09.2021
5631 Clear 36 1002 52 10000 5.66 290 14:58 21.09.2021
5632 Clear 37 1002 53 10000 5.14 300 13:56 21.09.2021
5633 Clear 37 1002 53 10000 5.14 300 13:36 21.09.2021
5634 Clear 37 1003 47 10000 5.66 310 12:36 21.09.2021
5635 Clear 38 1005 30 10000 4.63 260 10:32 21.09.2021
5636 Clear 35 1006 46 8000 4.63 200 08:29 21.09.2021
5637 Clear 33 1006 66 8000 4.63 180 07:18 21.09.2021
5638 Clear 31 1004 70 7000 1.54 240 00:30 21.09.2021
5639 Clear 33 1004 70 8000 2.57 240 22:37 20.09.2021
5640 Clear 33 1005 59 9000 2.06 290 21:41 20.09.2021
5641 Clear 33 1005 62 9000 1.54 320 20:55 20.09.2021
5642 Clear 33 1004 70 8000 3.09 330 19:33 20.09.2021
5643 Clear 34 1003 66 8000 4.12 340 17:52 20.09.2021
5644 Clear 35 1003 59 6000 5.66 330 16:49 20.09.2021
5645 Clear 36 1003 56 7000 6.69 320 15:56 20.09.2021
5646 Clear 36 1003 56 7000 6.69 320 15:32 20.09.2021
5647 Clear 37 1003 49 8000 7.2 310 14:25 20.09.2021
5648 Clear 39 1004 39 10000 5.14 290 12:39 20.09.2021
5649 Clear 39 1004 39 10000 5.14 290 12:20 20.09.2021
5650 Clear 39 1006 32 10000 3.09 200 10:32 20.09.2021
5651 Clear 37 1006 39 8000 4.12 220 09:43 20.09.2021
5652 Clear 37 1006 39 8000 4.12 220 09:20 20.09.2021
5653 Clouds 35 1007 43 8000 4.63 190 08:27 20.09.2021
5654 Clear 31 1004 70 10000 2.06 50 01:43 20.09.2021
5655 Clear 32 1005 66 10000 2.57 100 22:46 19.09.2021
5656 Clear 33 1005 62 10000 2.06 70 21:45 19.09.2021
5657 Clear 33 1005 62 10000 2.06 80 20:53 19.09.2021
5658 Clear 34 1005 55 10000 2.06 20 19:32 19.09.2021
5659 Clear 35 1004 52 10000 4.63 350 18:30 19.09.2021
5660 Clear 35 1003 55 10000 6.69 340 17:23 19.09.2021
5661 Clear 37 1003 44 10000 7.2 350 15:59 19.09.2021
5662 Clear 37 1003 44 10000 7.2 350 15:31 19.09.2021
5663 Clear 39 1003 24 10000 6.69 330 14:48 19.09.2021
5664 Clear 39 1003 37 10000 6.17 330 13:29 19.09.2021
5665 Clear 40 1004 35 10000 6.69 330 12:52 19.09.2021
5666 Clear 42 1004 19 10000 1.54 0 11:29 19.09.2021
5667 Clear 41 1005 24 10000 1.54 0 10:56 19.09.2021
5668 Clear 39 1006 25 10000 3.6 190 09:49 19.09.2021
5669 Clear 38 1006 32 10000 4.12 170 08:35 19.09.2021
5670 Clear 32 1005 33 10000 3.6 170 06:42 19.09.2021
5671 Clear 33 1003 55 10000 2.57 150 23:53 18.09.2021
5672 Clear 33 1003 55 10000 2.06 160 22:31 18.09.2021
5673 Clear 34 1004 55 10000 1.54 30 20:58 18.09.2021
5674 Clear 34 1004 55 10000 1.54 30 20:38 18.09.2021
5675 Clear 34 1003 55 10000 2.06 350 19:40 18.09.2021
5676 Clear 34 1003 55 10000 2.06 350 19:21 18.09.2021
5677 Clear 35 1003 59 10000 3.09 330 18:37 18.09.2021
5678 Clear 36 1002 56 10000 4.12 320 17:45 18.09.2021
5679 Clear 37 1002 49 10000 5.14 320 16:24 18.09.2021
5680 Clear 40 1002 27 10000 5.66 330 13:49 18.09.2021
5681 Clear 40 1002 27 10000 5.66 330 13:29 18.09.2021
5682 Clear 40 1002 25 10000 4.63 310 12:49 18.09.2021
5683 Clear 40 1003 20 10000 4.12 340 11:41 18.09.2021
5684 Clear 41 1003 18 10000 2.57 300 10:32 18.09.2021
5685 Clear 39 1004 27 10000 2.06 0 09:28 18.09.2021
5686 Clear 37 1004 36 10000 3.6 220 08:59 18.09.2021
5687 Clear 32 1004 50 10000 3.72 182 05:49 18.09.2021
5688 Clear 31 1001 66 10000 0.41 178 00:41 18.09.2021
5689 Clear 31 1001 67 10000 0.2 183 23:49 17.09.2021
5690 Clear 31 1001 68 10000 0.66 196 22:38 17.09.2021
5691 Clear 31 1002 69 10000 0.88 204 22:19 17.09.2021
5692 Clear 34 1002 52 10000 1.54 0 20:51 17.09.2021
5693 Clear 36 1002 46 10000 2.57 330 19:22 17.09.2021
5694 Clear 36 1000 46 10000 4.63 320 17:21 17.09.2021
5695 Clear 37 1000 44 10000 5.66 320 16:24 17.09.2021
5696 Clear 38 1000 44 10000 7.2 300 13:29 17.09.2021
5697 Clear 38 1002 47 10000 5.14 290 10:53 17.09.2021
5698 Clear 37 1002 39 10000 2.57 240 08:46 17.09.2021
5699 Clear 33 1002 58 10000 2.06 180 06:53 17.09.2021
5700 Clear 31 1000 70 10000 1.54 100 01:26 17.09.2021
5701 Clear 32 1000 75 10000 2.06 330 23:25 16.09.2021
5702 Clear 34 1001 59 10000 1.54 350 22:25 16.09.2021
5703 Clear 34 1001 63 10000 2.06 50 21:43 16.09.2021
5704 Clear 34 1001 63 10000 2.06 50 21:22 16.09.2021
5705 Clear 34 1002 63 10000 1.03 0 20:18 16.09.2021
5706 Clear 34 1002 63 10000 1.03 0 20:18 16.09.2021
5707 Clear 35 1001 66 10000 3.6 350 18:20 16.09.2021
5708 Clear 35 1001 63 10000 4.63 330 17:33 16.09.2021
5709 Clear 39 1000 37 10000 6.69 320 14:56 16.09.2021
5710 Clear 40 1000 33 10000 7.2 320 13:56 16.09.2021
5711 Clear 43 1001 18 10000 5.14 280 12:49 16.09.2021
5712 Clear 43 1001 18 10000 5.14 280 12:28 16.09.2021
5713 Clear 43 1002 14 10000 3.09 270 11:25 16.09.2021
5714 Clear 41 1003 20 10000 4.12 230 10:31 16.09.2021
5715 Clear 39 1004 27 10000 4.63 220 09:53 16.09.2021
5716 Clear 37 1004 28 10000 5.66 210 08:42 16.09.2021
5717 Clear 35 1004 36 10000 2.06 210 07:22 16.09.2021
5718 Clear 33 1004 43 10000 2.57 190 06:39 16.09.2021
5719 Clear 31 1002 58 10000 1.54 270 04:55 16.09.2021
5720 Clear 31 1001 79 8000 3.09 100 01:27 16.09.2021
5721 Clear 33 1001 66 10000 2.06 70 23:37 15.09.2021
5722 Clear 34 1002 59 10000 2.06 70 22:47 15.09.2021
5723 Clear 34 1002 63 10000 1.54 90 21:44 15.09.2021
5724 Clear 34 1002 63 10000 1.54 90 21:25 15.09.2021
5725 Clear 35 1002 63 10000 2.57 40 19:52 15.09.2021
5726 Clear 35 1002 63 10000 2.57 40 19:19 15.09.2021
5727 Clear 36 1001 56 10000 3.6 330 17:49 15.09.2021
5728 Clear 37 1000 49 10000 5.66 330 16:54 15.09.2021
5729 Clear 38 1000 47 10000 6.69 330 15:33 15.09.2021
5730 Clear 39 1000 47 10000 5.66 340 14:44 15.09.2021
5731 Clouds 39 1001 50 10000 5.66 350 13:51 15.09.2021
5732 Clouds 39 1001 50 10000 5.66 350 13:29 15.09.2021
5733 Clear 40 1001 42 10000 5.66 340 12:42 15.09.2021
5734 Clear 41 1002 37 10000 5.14 320 11:51 15.09.2021
5735 Clear 42 1002 17 10000 2.57 240 11:19 15.09.2021
5736 Clear 41 1003 24 10000 1.54 0 10:50 15.09.2021
5737 Clear 40 1004 25 10000 3.6 180 09:26 15.09.2021
5738 Clouds 34 1004 66 9000 2.57 180 07:37 15.09.2021
5739 Clouds 31 1002 84 8000 2.06 80 04:24 15.09.2021
5740 Clear 33 1002 84 10000 3.09 340 22:56 14.09.2021
5741 Clear 34 1002 70 10000 3.6 330 21:38 14.09.2021
5742 Clear 35 1002 63 10000 2.57 310 20:27 14.09.2021
5743 Clear 35 1001 59 10000 2.06 60 19:41 14.09.2021
5744 Clear 36 1000 56 10000 3.09 350 17:34 14.09.2021
5745 Clouds 36 1000 56 10000 5.14 340 16:56 14.09.2021
5746 Clear 37 1000 56 10000 5.66 330 15:28 14.09.2021
5747 Clear 38 1000 53 10000 5.66 320 14:31 14.09.2021
5748 Clear 37 1001 63 10000 5.14 320 11:51 14.09.2021
5749 Clear 39 1002 35 10000 2.06 300 10:53 14.09.2021
5750 Clouds 38 1003 44 8000 2.06 0 09:50 14.09.2021
5751 Clouds 35 1003 63 8000 1.54 260 08:36 14.09.2021
5752 Clear 32 1002 74 6000 2.06 200 06:22 14.09.2021
5753 Clear 32 1001 75 10000 2.06 240 23:36 13.09.2021
5754 Clear 34 1001 70 10000 2.06 300 22:30 13.09.2021
5755 Clear 34 1001 66 10000 1.03 0 21:59 13.09.2021
5756 Clear 34 1001 66 10000 1.03 0 21:40 13.09.2021
5757 Clear 34 1001 75 10000 2.57 360 19:48 13.09.2021
5758 Clear 34 1000 75 10000 4.63 350 18:45 13.09.2021
5759 Clear 34 1000 75 10000 4.63 350 18:45 13.09.2021
5760 Clear 35 999 66 10000 4.63 340 17:41 13.09.2021
5761 Clear 36 999 59 10000 5.66 340 16:50 13.09.2021
5762 Clear 38 999 53 10000 6.69 340 14:56 13.09.2021
5763 Clear 38 999 53 10000 6.69 340 14:56 13.09.2021
5764 Clear 40 1000 42 10000 6.17 330 11:52 13.09.2021
5765 Clear 42 1001 35 10000 5.14 310 10:58 13.09.2021
5766 Clear 41 1001 20 10000 2.06 0 09:31 13.09.2021
5767 Clear 34 1000 43 10000 1.54 80 01:24 13.09.2021
5768 Clear 36 1000 32 10000 1.54 0 22:55 12.09.2021
5769 Clear 36 1000 32 10000 1.54 0 22:24 12.09.2021
5770 Clear 37 1000 32 10000 2.57 10 21:23 12.09.2021
5771 Clear 37 1000 36 10000 2.57 40 20:21 12.09.2021
5772 Clear 37 1000 41 10000 3.6 40 19:49 12.09.2021
5773 Clear 37 1000 41 10000 3.6 40 19:18 12.09.2021
5774 Clear 37 1000 47 10000 3.6 30 18:18 12.09.2021
5775 Clear 39 999 42 10000 7.2 340 15:59 12.09.2021
5776 Clouds 40 998 31 10000 8.23 320 14:48 12.09.2021
5777 Clear 42 999 29 10000 7.2 320 12:45 12.09.2021
5778 Clear 42 1000 21 10000 4.12 280 10:33 12.09.2021
5779 Clear 40 1002 25 10000 2.57 120 08:39 12.09.2021
5780 Clear 36 1002 41 10000 2.57 110 07:33 12.09.2021
5781 Clear 33 999 62 10000 2.57 340 00:47 12.09.2021
5782 Clear 34 1000 52 10000 2.06 340 22:59 11.09.2021
5783 Clear 36 1000 39 10000 2.06 120 21:39 11.09.2021
5784 Clear 37 999 41 10000 2.06 30 19:55 11.09.2021
5785 Clear 37 999 41 10000 3.09 20 18:30 11.09.2021
5786 Clear 37 999 41 10000 2.57 20 17:29 11.09.2021
5787 Clear 38 998 47 8000 4.12 10 15:37 11.09.2021
5788 Dust 37 998 59 5000 7.72 350 13:25 11.09.2021
5789 Dust 40 999 44 5000 7.2 330 11:45 11.09.2021
5790 Clear 42 1000 26 10000 2.06 0 10:40 11.09.2021
5791 Clear 38 1001 44 8000 3.6 110 08:54 11.09.2021
5792 Clouds 36 1002 56 6000 2.06 120 07:44 11.09.2021
5793 Haze 32 1001 79 4500 1.54 100 04:23 11.09.2021
5794 Clouds 34 1000 59 8000 2.06 250 22:47 10.09.2021
5795 Clouds 34 1000 59 8000 2.06 250 22:18 10.09.2021
5796 Clouds 35 1000 52 8000 1.54 230 21:40 10.09.2021
5797 Clouds 36 1000 52 8000 2.06 290 19:32 10.09.2021
5798 Clouds 35 1000 63 6000 3.6 40 17:59 10.09.2021
5799 Haze 36 999 56 5000 4.12 330 16:28 10.09.2021
5800 Clouds 38 999 53 6000 7.2 340 13:32 10.09.2021
5801 Clouds 39 1002 39 8000 3.09 240 10:54 10.09.2021
5802 Haze 36 1003 56 5000 4.12 200 08:26 10.09.2021
5803 Haze 34 1003 66 5000 3.6 210 07:43 10.09.2021
5804 Clouds 33 1001 79 6000 3.6 120 00:41 10.09.2021
5805 Clouds 35 1001 66 8000 1.03 0 21:56 09.09.2021
5806 Clouds 34 1001 75 6000 2.57 350 20:48 09.09.2021
5807 Clouds 34 1001 75 6000 2.57 350 20:28 09.09.2021
5808 Clouds 34 1000 79 6000 3.6 330 18:50 09.09.2021
5809 Haze 35 1000 71 5000 4.12 330 17:51 09.09.2021
5810 Haze 35 999 75 4500 5.66 360 16:39 09.09.2021
5811 Clouds 37 999 59 6000 7.2 320 15:26 09.09.2021
5812 Clear 39 1000 47 10000 6.69 320 12:33 09.09.2021
5813 Clear 40 1001 42 10000 5.14 300 11:23 09.09.2021
5814 Clear 40 1002 29 10000 3.09 220 09:39 09.09.2021
5815 Clear 36 1001 41 10000 4.63 180 07:56 09.09.2021
5816 Clear 33 1001 58 10000 2.06 160 05:51 09.09.2021
5817 Clear 33 999 75 10000 2.06 340 00:43 09.09.2021
5818 Clear 35 1000 63 10000 2.57 320 21:49 08.09.2021
5819 Clear 35 1000 55 10000 4.12 340 20:54 08.09.2021
5820 Clear 35 1000 66 10000 3.6 330 19:46 08.09.2021
5821 Clear 36 1000 59 10000 1.54 10 18:47 08.09.2021
5822 Clear 36 1000 59 10000 1.54 10 18:25 08.09.2021
5823 Clear 36 999 56 10000 3.6 330 17:40 08.09.2021
5824 Clear 37 999 53 10000 5.66 340 15:49 08.09.2021
5825 Clouds 39 999 50 8000 5.66 340 13:45 08.09.2021
5826 Clouds 40 1000 58 10000 6.92 336 12:41 08.09.2021
5827 Clouds 41 1000 56 10000 6.57 331 12:23 08.09.2021
5828 Clear 41 1001 31 10000 5.14 330 11:26 08.09.2021
5829 Clear 41 1002 27 10000 2.57 240 10:31 08.09.2021
5830 Clear 39 1002 29 10000 3.09 200 09:56 08.09.2021
5831 Clear 34 1002 52 8000 3.6 100 07:46 08.09.2021
5832 Clear 34 1002 52 8000 3.6 100 07:19 08.09.2021
5833 Clear 32 1001 70 7000 1.03 0 23:32 07.09.2021
5834 Clear 33 1001 66 8000 1.03 0 22:19 07.09.2021
5835 Clear 34 1001 66 8000 1.03 0 20:45 07.09.2021
5836 Clear 34 1001 70 6000 3.6 350 19:26 07.09.2021
5837 Clear 34 1001 70 6000 6.69 340 18:37 07.09.2021
5838 Clear 35 1000 63 7000 4.12 330 17:35 07.09.2021
5839 Clear 36 1000 52 8000 5.66 350 15:57 07.09.2021
5840 Clear 37 1000 47 8000 4.63 340 14:54 07.09.2021
5841 Clear 37 1000 53 7000 5.66 340 13:52 07.09.2021
5842 Clear 37 1000 53 7000 6.69 340 12:20 07.09.2021
5843 Clear 36 1002 63 6000 4.63 330 10:59 07.09.2021
5844 Clear 36 1002 63 6000 4.63 330 10:18 07.09.2021
5845 Haze 33 1003 75 5000 2.57 50 07:47 07.09.2021
5846 Haze 32 1003 79 4000 2.57 80 06:31 07.09.2021
5847 Clouds 31 1002 79 6000 2.06 70 02:39 07.09.2021
5848 Clouds 31 1002 79 6000 2.06 70 02:19 07.09.2021
5849 Clear 33 1002 75 7000 1.54 340 23:52 06.09.2021
5850 Clear 33 1002 75 7000 1.54 340 23:31 06.09.2021
5851 Clear 33 1002 70 8000 2.06 340 22:51 06.09.2021
5852 Clear 33 1002 70 8000 2.06 340 22:21 06.09.2021
5853 Clear 34 1002 70 10000 2.06 230 20:35 06.09.2021
5854 Clear 34 1002 70 10000 1.03 0 19:19 06.09.2021
5855 Clear 35 1001 63 9000 2.57 360 18:35 06.09.2021
5856 Clear 35 1001 66 7000 3.09 340 17:50 06.09.2021
5857 Clear 36 1001 56 6000 4.12 310 16:20 06.09.2021
5858 Clear 38 1000 44 7000 5.14 340 14:59 06.09.2021
5859 Clear 40 1001 27 10000 5.14 320 12:59 06.09.2021
5860 Clear 40 1001 27 10000 5.14 320 12:41 06.09.2021
5861 Clear 39 1002 30 10000 5.14 320 10:27 06.09.2021
5862 Clear 36 1003 30 10000 1.54 210 07:39 06.09.2021
5863 Clear 32 1001 31 10000 1.54 170 03:34 06.09.2021
5864 Clear 33 1001 36 10000 2.06 100 23:22 05.09.2021
5865 Clear 34 1001 36 10000 2.57 130 22:32 05.09.2021
5866 Clear 35 1001 41 10000 2.57 140 21:55 05.09.2021
5867 Clear 35 1001 41 10000 2.57 140 21:20 05.09.2021
5868 Clear 36 1001 41 10000 3.09 340 19:45 05.09.2021
5869 Clouds 37 1000 34 6000 4.63 340 17:52 05.09.2021
5870 Clouds 39 1000 29 7000 6.17 330 15:43 05.09.2021
5871 Clouds 39 1000 29 7000 6.17 330 15:19 05.09.2021
5872 Clouds 39 1000 29 7000 6.17 330 15:19 05.09.2021
5873 Clouds 35 1001 49 10000 5.28 311 12:44 05.09.2021
5874 Clear 42 1002 19 10000 3.6 290 11:31 05.09.2021
5875 Clear 41 1002 18 10000 3.09 240 10:39 05.09.2021
5876 Clear 39 1003 22 10000 3.6 260 09:33 05.09.2021
5877 Clear 38 1003 23 10000 1.03 0 08:28 05.09.2021
5878 Clear 31 1001 43 10000 0.51 0 03:52 05.09.2021
5879 Clear 33 1000 40 10000 3.09 170 00:39 05.09.2021
5880 Clear 33 1000 43 10000 1.54 180 23:55 04.09.2021
5881 Clear 33 1000 43 10000 1.54 180 23:22 04.09.2021
5882 Clear 35 1001 41 10000 2.57 160 22:34 04.09.2021
5883 Clear 35 1001 41 10000 2.57 160 22:34 04.09.2021
5884 Clear 35 1002 41 10000 1.54 340 20:21 04.09.2021
5885 Clear 35 1001 52 10000 2.57 340 19:33 04.09.2021
5886 Clear 37 1000 39 10000 3.6 320 17:21 04.09.2021
5887 Clear 39 1000 35 10000 6.69 320 14:29 04.09.2021
5888 Clear 41 1001 22 10000 4.63 280 11:26 04.09.2021
5889 Clear 41 1002 22 10000 2.57 250 10:32 04.09.2021
5890 Clear 35 1002 38 10000 2.06 220 07:32 04.09.2021
5891 Clear 32 1000 66 10000 2.57 190 00:49 04.09.2021
5892 Clear 32 1000 66 10000 2.57 190 00:49 04.09.2021
5893 Clear 34 1000 62 10000 2.06 220 23:39 03.09.2021
5894 Clear 34 1000 62 10000 2.06 220 23:19 03.09.2021
5895 Clear 34 1001 62 10000 2.57 210 21:41 03.09.2021
5896 Clear 35 1001 59 10000 2.57 320 20:54 03.09.2021
5897 Clear 35 1001 59 10000 2.57 320 20:19 03.09.2021
5898 Clear 35 1001 55 10000 3.6 310 19:33 03.09.2021
5899 Clear 35 1001 55 10000 3.6 310 19:33 03.09.2021
5900 Clear 36 1001 49 10000 3.09 280 18:20 03.09.2021
5901 Clear 37 1000 44 8000 5.14 320 16:46 03.09.2021
5902 Clear 37 999 44 7000 5.66 310 15:38 03.09.2021
5903 Clear 38 999 37 8000 6.17 280 13:24 03.09.2021
5904 Clear 40 1001 27 7000 3.09 290 10:45 03.09.2021
5905 Clear 38 1002 30 8000 3.6 240 09:21 03.09.2021
5906 Clear 35 1002 36 10000 4.63 210 07:54 03.09.2021
5907 Clear 33 1002 43 10000 4.12 210 06:26 03.09.2021
5908 Clear 33 1001 62 10000 3.09 130 23:56 02.09.2021
5909 Clear 34 1002 62 10000 2.06 330 21:49 02.09.2021
5910 Clear 35 1002 55 10000 2.06 340 20:25 02.09.2021
5911 Clear 35 1001 59 10000 5.14 350 17:33 02.09.2021
5912 Clear 36 1001 52 10000 6.69 330 16:20 02.09.2021
5913 Clear 37 1001 47 10000 7.72 320 15:29 02.09.2021
5914 Clear 39 1001 37 10000 7.72 320 13:23 02.09.2021
5915 Clear 40 1003 27 10000 3.09 0 11:41 02.09.2021
5916 Clear 39 1004 29 10000 3.09 220 10:52 02.09.2021
5917 Clear 36 1005 38 10000 6.17 180 08:57 02.09.2021
5918 Clear 34 1005 43 8000 5.66 200 07:22 02.09.2021
5919 Clear 33 1004 38 10000 3.09 130 05:31 02.09.2021
5920 Clear 33 1004 38 10000 3.09 130 05:31 02.09.2021
5921 Clear 33 1003 36 10000 3.09 110 02:35 02.09.2021
5922 Clear 33 1002 38 10000 3.6 150 01:36 02.09.2021
5923 Clear 33 1003 40 10000 3.6 140 23:40 01.09.2021
5924 Clear 34 1003 38 10000 4.12 130 22:42 01.09.2021
5925 Clear 35 1003 36 10000 3.09 100 21:41 01.09.2021
5926 Clear 35 1004 36 10000 2.57 50 20:54 01.09.2021
5927 Clear 36 1003 38 10000 2.57 30 19:23 01.09.2021
5928 Clear 36 1002 49 10000 4.12 20 17:50 01.09.2021
5929 Clear 38 1002 41 10000 4.12 10 16:48 01.09.2021
5930 Clear 38 1002 41 10000 4.12 10 16:21 01.09.2021
5931 Clear 39 1002 35 10000 7.2 350 13:40 01.09.2021
5932 Clear 42 1003 26 10000 4.63 330 11:46 01.09.2021
5933 Clear 40 1005 24 10000 2.06 0 09:25 01.09.2021
5934 Clear 35 1005 38 10000 3.6 160 07:53 01.09.2021
5935 Clear 32 1005 46 10000 2.06 160 05:40 01.09.2021
5936 Clear 33 1002 52 10000 3.6 120 23:19 31.08.2021
5937 Clear 34 1003 46 10000 3.09 90 21:40 31.08.2021
5938 Clear 35 1003 59 10000 3.6 30 19:48 31.08.2021
5939 Clear 35 1003 52 10000 3.09 30 18:37 31.08.2021
5940 Clear 37 1002 36 10000 3.6 40 17:38 31.08.2021
5941 Clear 37 1002 36 10000 3.6 40 17:20 31.08.2021
5942 Clear 37 1002 41 10000 6.17 330 16:24 31.08.2021
5943 Clear 40 1002 27 10000 7.2 330 13:46 31.08.2021
5944 Clear 42 1003 21 10000 2.06 0 11:36 31.08.2021
5945 Clear 40 1004 25 10000 1.54 0 10:55 31.08.2021
5946 Clear 39 1004 27 10000 1.54 0 09:45 31.08.2021
5947 Clear 37 1005 34 10000 2.06 170 08:40 31.08.2021
5948 Clear 35 1005 38 10000 4.12 170 07:38 31.08.2021
5949 Clear 32 1004 55 10000 3.09 150 05:55 31.08.2021
5950 Clear 34 1002 34 10000 3.6 0 23:35 30.08.2021
5951 Clear 36 1002 26 10000 3.09 70 21:53 30.08.2021
5952 Clear 36 1002 26 10000 3.09 70 21:32 30.08.2021
5953 Clear 36 1002 34 10000 3.09 70 20:32 30.08.2021
5954 Clear 37 1002 32 10000 2.06 70 19:29 30.08.2021
5955 Clear 38 1002 34 10000 2.57 20 18:44 30.08.2021
5956 Clear 38 1001 37 10000 3.09 20 17:47 30.08.2021
5957 Clear 39 1001 30 10000 4.12 30 16:24 30.08.2021
5958 Clear 40 1000 25 10000 5.66 20 15:39 30.08.2021
5959 Clear 40 1000 37 10000 6.17 350 13:45 30.08.2021
5960 Clear 42 1001 26 10000 6.69 320 12:29 30.08.2021
5961 Clear 41 1002 24 10000 1.03 0 10:34 30.08.2021
5962 Clear 36 998 23 10000 2.57 70 23:29 29.08.2021
5963 Clear 37 999 25 10000 4.12 120 21:33 29.08.2021
5964 Clear 38 999 22 10000 4.12 120 20:27 29.08.2021
5965 Clear 40 999 18 10000 5.14 120 19:20 29.08.2021
5966 Clear 40 997 20 10000 3.6 50 17:53 29.08.2021
5967 Clear 42 997 19 10000 4.12 30 15:49 29.08.2021
5968 Clear 41 997 26 10000 5.66 340 14:20 29.08.2021
5969 Clouds 41 997 35 10000 6.69 350 13:44 29.08.2021
5970 Clouds 41 997 27 10000 6.17 340 12:32 29.08.2021
5971 Clear 42 997 24 10000 5.66 350 11:50 29.08.2021
5972 Clear 42 997 24 10000 5.66 350 11:22 29.08.2021
5973 Clear 43 999 14 10000 2.06 160 10:42 29.08.2021
5974 Clear 43 999 14 10000 2.06 160 10:23 29.08.2021
5975 Clear 39 999 24 10000 3.09 220 08:24 29.08.2021
5976 Clear 36 996 12 10000 2.57 100 00:25 29.08.2021
5977 Clear 37 997 19 10000 0.51 0 21:53 28.08.2021
5978 Clear 40 997 10 10000 3.09 110 20:22 28.08.2021
5979 Clear 40 996 18 9000 3.09 50 18:33 28.08.2021
5980 Clear 41 996 27 8000 3.6 20 17:59 28.08.2021
5981 Clear 41 996 21 10000 4.63 40 16:59 28.08.2021
5982 Clear 42 996 17 10000 5.66 10 15:39 28.08.2021
5983 Clear 43 996 14 10000 5.66 10 14:20 28.08.2021
5984 Clear 42 996 19 10000 6.69 10 13:44 28.08.2021
5985 Clouds 40 997 47 7000 6.69 330 12:42 28.08.2021
5986 Clouds 40 997 37 8000 7.2 340 11:53 28.08.2021
5987 Clouds 45 998 8 8000 7.72 340 10:35 28.08.2021
5988 Clouds 40 999 30 8000 3.09 200 08:39 28.08.2021
5989 Clouds 35 999 46 7000 1.54 110 06:24 28.08.2021
5990 Clouds 34 997 71 8000 3.09 340 22:28 27.08.2021
5991 Clear 37 997 25 10000 1.03 0 20:56 27.08.2021
5992 Clear 37 997 25 10000 1.03 0 20:19 27.08.2021
5993 Clear 40 997 27 10000 2.57 130 18:57 27.08.2021
5994 Clear 40 997 27 10000 2.57 130 18:37 27.08.2021
5995 Clear 40 997 29 10000 5.14 20 16:55 27.08.2021
5996 Clouds 40 997 52 10000 6.59 355 15:22 27.08.2021
5997 Clear 42 996 26 10000 6.17 10 14:41 27.08.2021
5998 Clear 42 997 33 10000 5.66 320 12:30 27.08.2021
5999 Clear 42 998 29 10000 5.66 340 11:24 27.08.2021
6000 Clear 42 998 37 7000 5.14 320 10:42 27.08.2021
6001 Clear 42 999 26 7000 2.06 0 09:30 27.08.2021
6002 Clear 39 999 50 7000 3.09 340 08:41 27.08.2021
6003 Haze 33 999 59 5000 3.6 130 05:53 27.08.2021
6004 Clear 33 998 75 6000 4.12 110 02:44 27.08.2021
6005 Clear 34 998 70 7000 3.6 80 00:31 27.08.2021
6006 Clear 34 998 75 6000 4.63 340 22:28 26.08.2021
6007 Clear 35 998 71 7000 4.12 340 21:57 26.08.2021
6008 Haze 35 998 66 5000 4.12 330 19:54 26.08.2021
6009 Clear 36 998 63 7000 2.06 360 18:49 26.08.2021
6010 Clear 37 998 53 6000 3.6 40 17:34 26.08.2021
6011 Haze 36 997 63 4000 4.12 340 16:32 26.08.2021
6012 Haze 36 997 67 3500 5.66 350 15:53 26.08.2021
6013 Haze 38 998 56 4000 7.2 320 13:29 26.08.2021
6014 Haze 38 998 56 4000 6.69 320 12:49 26.08.2021
6015 Haze 39 999 53 4000 5.66 330 11:51 26.08.2021
6016 Clear 38 1000 39 9000 3.6 220 09:40 26.08.2021
6017 Clear 37 1001 44 8000 3.09 220 08:27 26.08.2021
6018 Clear 34 999 70 8000 3.6 130 00:46 26.08.2021
6019 Clear 34 1000 75 10000 1.54 340 22:46 25.08.2021
6020 Clear 34 1000 75 10000 1.54 340 22:26 25.08.2021
6021 Clear 35 1000 71 10000 4.63 330 20:58 25.08.2021
6022 Clear 35 1000 71 10000 4.63 330 20:31 25.08.2021
6023 Clear 36 1000 59 10000 4.63 330 19:52 25.08.2021
6024 Clear 36 999 52 10000 3.09 270 18:18 25.08.2021
6025 Clear 38 1000 47 10000 6.17 310 15:59 25.08.2021
6026 Clear 38 1000 47 10000 6.17 310 15:39 25.08.2021
6027 Clear 39 1000 39 10000 5.66 320 14:47 25.08.2021
6028 Clear 39 1001 35 10000 5.66 290 13:54 25.08.2021
6029 Clear 39 1002 37 10000 5.14 290 12:40 25.08.2021
6030 Clear 39 1003 35 10000 4.12 280 11:21 25.08.2021
6031 Clear 39 1003 32 10000 3.6 250 10:18 25.08.2021
6032 Clear 37 1004 36 10000 4.63 250 09:40 25.08.2021
6033 Clear 36 1004 38 10000 4.63 230 08:38 25.08.2021
6034 Clouds 35 1004 43 8000 6.17 200 07:31 25.08.2021
6035 Clear 34 1002 63 7000 2.06 100 01:25 25.08.2021
6036 Clear 35 1002 63 7000 1.54 50 23:31 24.08.2021
6037 Clear 35 1002 71 7000 3.6 40 21:21 24.08.2021
6038 Clear 36 1002 63 7000 2.57 20 20:21 24.08.2021
6039 Clear 36 1002 59 8000 3.6 340 19:43 24.08.2021
6040 Clear 36 1001 56 7000 3.6 350 17:55 24.08.2021
6041 Clear 36 1001 56 7000 3.6 350 17:22 24.08.2021
6042 Clear 37 1001 53 7000 4.63 360 16:23 24.08.2021
6043 Clear 40 1001 35 8000 5.66 320 13:55 24.08.2021
6044 Clear 40 1002 33 10000 5.66 330 12:45 24.08.2021
6045 Clear 40 1003 33 10000 5.14 340 11:21 24.08.2021
6046 Clear 40 1003 29 10000 2.06 240 10:47 24.08.2021
6047 Clear 39 1004 32 10000 2.57 220 09:55 24.08.2021
6048 Clear 36 1004 38 9000 4.63 190 07:42 24.08.2021
6049 Dust 34 1004 43 5000 5.14 180 05:57 24.08.2021
6050 Clear 34 1002 52 10000 2.57 120 03:47 24.08.2021
6051 Clear 36 1002 46 10000 2.06 50 23:54 23.08.2021
6052 Clear 36 1002 41 10000 2.06 80 22:46 23.08.2021
6053 Clear 36 1002 39 10000 3.6 70 21:36 23.08.2021
6054 Clouds 37 1002 44 9000 3.6 50 19:55 23.08.2021
6055 Clear 37 1001 49 10000 3.6 10 18:25 23.08.2021
6056 Clouds 37 1000 53 9000 4.63 340 16:25 23.08.2021
6057 Clouds 38 1001 53 7000 6.17 340 13:57 23.08.2021
6058 Clouds 40 1001 39 6000 6.17 320 12:33 23.08.2021
6059 Dust 41 1002 42 5000 4.63 340 10:52 23.08.2021
6060 Clouds 41 1002 37 6000 3.6 310 10:21 23.08.2021
6061 Clouds 38 1004 41 6000 2.57 130 08:49 23.08.2021
6062 Clouds 37 1004 47 7000 3.6 150 07:41 23.08.2021
6063 Clear 34 1003 62 10000 5.66 110 06:41 23.08.2021
6064 Clouds 33 1002 66 9000 4.63 120 04:22 23.08.2021
6065 Clouds 34 1002 66 9000 2.06 80 00:46 23.08.2021
6066 Clear 35 1003 71 10000 3.09 50 22:42 22.08.2021
6067 Clear 35 1003 66 10000 1.54 300 21:30 22.08.2021
6068 Clear 35 1003 63 10000 2.06 70 20:19 22.08.2021
6069 Clear 36 1002 59 10000 2.06 40 18:33 22.08.2021
6070 Clear 38 1001 44 10000 6.69 340 15:56 22.08.2021
6071 Clear 40 1001 31 10000 7.2 330 14:54 22.08.2021
6072 Clear 40 1001 35 10000 7.2 330 13:47 22.08.2021
6073 Clear 40 1001 35 10000 7.2 330 13:19 22.08.2021
6074 Clear 40 1002 33 10000 7.2 320 12:48 22.08.2021
6075 Clear 41 1002 35 10000 5.14 330 11:45 22.08.2021
6076 Clear 41 1002 35 10000 5.14 330 11:20 22.08.2021
6077 Clear 38 1004 39 10000 2.06 230 08:44 22.08.2021
6078 Clear 37 1004 44 10000 2.57 170 07:53 22.08.2021
6079 Clear 33 1002 66 10000 2.57 160 04:32 22.08.2021
6080 Clear 35 1004 59 10000 2.57 20 22:37 21.08.2021
6081 Clear 35 1004 59 10000 2.57 20 22:37 21.08.2021
6082 Clear 35 1004 59 10000 2.06 330 21:40 21.08.2021
6083 Clear 35 1002 59 10000 4.63 330 18:55 21.08.2021
6084 Clear 35 1002 59 10000 4.63 330 18:37 21.08.2021
6085 Clear 37 1002 44 10000 7.72 320 16:58 21.08.2021
6086 Clear 37 1002 44 10000 7.72 320 16:32 21.08.2021
6087 Clear 38 1002 41 10000 8.23 330 15:39 21.08.2021
6088 Clear 38 1002 41 10000 8.23 330 15:20 21.08.2021
6089 Clear 41 1002 33 10000 5.66 310 13:36 21.08.2021
6090 Clear 41 1002 31 10000 4.12 290 12:39 21.08.2021
6091 Clear 39 1004 32 10000 4.12 230 10:43 21.08.2021
6092 Clear 34 1005 46 10000 5.14 200 07:51 21.08.2021
6093 Clouds 34 1002 62 8000 2.06 180 00:26 21.08.2021
6094 Clear 35 1002 63 7000 2.57 70 22:28 20.08.2021
6095 Clear 35 1002 63 7000 3.09 340 19:31 20.08.2021
6096 Clear 36 1000 49 7000 6.17 330 16:57 20.08.2021
6097 Clear 39 1000 37 10000 5.66 320 14:34 20.08.2021
6098 Clear 39 1002 35 8000 3.6 250 11:55 20.08.2021
6099 Clear 39 1002 35 8000 3.6 250 11:27 20.08.2021
6100 Clear 38 1003 37 10000 4.63 240 10:21 20.08.2021
6101 Clear 35 1003 43 10000 5.14 190 09:18 20.08.2021
6102 Clear 34 1003 46 10000 4.63 190 08:36 20.08.2021
6103 Dust 32 1002 48 5000 4.63 190 04:40 20.08.2021
6104 Dust 33 1001 46 4500 5.14 190 04:20 20.08.2021
6105 Clear 34 1000 62 8000 2.57 40 23:27 19.08.2021
6106 Clear 34 1000 66 7000 3.09 40 22:37 19.08.2021
6107 Clear 35 1001 59 7000 2.57 20 21:49 19.08.2021
6108 Clear 35 1000 63 7000 3.09 50 19:59 19.08.2021
6109 Clear 36 999 56 7000 3.09 10 17:52 19.08.2021
6110 Clear 36 999 56 7000 6.17 340 16:42 19.08.2021
6111 Clouds 37 999 47 7000 6.69 350 14:33 19.08.2021
6112 Clear 41 999 33 10000 5.14 320 12:45 19.08.2021
6113 Clear 41 999 33 10000 5.14 320 12:27 19.08.2021
6114 Clear 39 1001 32 8000 3.6 150 10:47 19.08.2021
6115 Clear 38 1001 37 8000 5.14 230 09:48 19.08.2021
6116 Clear 38 1001 37 8000 5.14 230 09:26 19.08.2021
6117 Dust 36 1002 44 5000 4.63 180 08:25 19.08.2021
6118 Clear 33 1000 62 10000 6.17 120 03:34 19.08.2021
6119 Clear 33 998 58 10000 6.17 90 01:58 19.08.2021
6120 Clear 33 998 58 10000 6.17 90 01:58 19.08.2021
6121 Clear 33 999 62 10000 3.6 90 23:21 18.08.2021
6122 Clear 33 999 62 10000 3.6 90 22:25 18.08.2021
6123 Clear 34 999 59 10000 6.17 100 20:41 18.08.2021
6124 Clear 34 999 59 10000 6.17 100 20:20 18.08.2021
6125 Clear 37 998 49 10000 6.69 100 18:58 18.08.2021
6126 Clear 37 998 49 10000 6.69 100 18:33 18.08.2021
6127 Clear 39 997 47 10000 6.17 50 16:42 18.08.2021
6128 Clear 38 997 53 8000 6.69 10 15:40 18.08.2021
6129 Clear 38 997 53 8000 6.69 10 15:21 18.08.2021
6130 Clear 41 998 37 10000 6.17 330 12:44 18.08.2021
6131 Clear 41 998 37 10000 6.17 330 12:26 18.08.2021
6132 Clear 42 999 31 10000 1.54 0 11:22 18.08.2021
6133 Clear 35 1002 52 10000 7.72 120 07:53 18.08.2021
6134 Clear 32 999 66 10000 5.66 110 00:59 18.08.2021
6135 Clear 33 1000 58 10000 5.66 100 22:38 17.08.2021
6136 Clear 33 1000 55 10000 5.66 110 21:46 17.08.2021
6137 Clear 34 1000 55 10000 5.66 100 20:47 17.08.2021
6138 Clear 35 1000 52 10000 5.66 100 19:20 17.08.2021
6139 Clouds 38 999 44 9000 6.17 90 17:33 17.08.2021
6140 Clouds 39 999 42 7000 7.72 100 16:50 17.08.2021
6141 Clear 41 999 37 10000 7.72 90 15:41 17.08.2021
6142 Clear 41 999 35 10000 6.69 80 14:42 17.08.2021
6143 Clear 42 1000 33 10000 6.17 90 12:36 17.08.2021
6144 Clear 38 1002 44 7000 7.2 120 09:27 17.08.2021
6145 Clear 37 1002 49 8000 8.75 130 08:21 17.08.2021
6146 Clear 34 1002 62 9000 7.72 110 06:40 17.08.2021
6147 Clear 34 1000 62 10000 4.63 130 23:18 16.08.2021
6148 Clear 35 1000 55 10000 3.09 140 22:47 16.08.2021
6149 Clear 35 1000 55 10000 3.09 140 22:28 16.08.2021
6150 Clear 36 1000 56 10000 2.57 180 21:36 16.08.2021
6151 Clear 36 1000 52 10000 4.63 100 20:50 16.08.2021
6152 Clear 37 999 49 10000 5.66 120 19:26 16.08.2021
6153 Clear 40 999 42 10000 6.17 110 18:25 16.08.2021
6154 Clear 38 998 56 8000 4.12 20 17:52 16.08.2021
6155 Clear 39 998 56 8000 4.12 30 15:53 16.08.2021
6156 Clear 39 998 60 7000 6.69 330 14:57 16.08.2021
6157 Clouds 39 998 63 6000 7.2 330 13:40 16.08.2021
6158 Clouds 40 999 53 7000 6.17 330 12:56 16.08.2021
6159 Clouds 41 999 53 6000 6.17 340 11:29 16.08.2021
6160 Clear 38 1001 56 8000 4.63 110 08:54 16.08.2021
6161 Clouds 36 1001 59 8000 3.09 120 07:45 16.08.2021
6162 Clouds 36 1001 59 8000 3.09 120 07:26 16.08.2021
6163 Clouds 33 999 70 6000 2.57 150 05:51 16.08.2021
6164 Clear 34 997 63 8000 1.03 0 23:46 15.08.2021
6165 Clear 35 997 71 8000 1.54 0 20:51 15.08.2021
6166 Clear 36 997 63 10000 3.09 340 18:48 15.08.2021
6167 Clear 36 997 63 10000 3.09 340 18:20 15.08.2021
6168 Clear 37 996 59 10000 3.09 320 17:42 15.08.2021
6169 Clear 38 996 47 10000 4.12 330 16:28 15.08.2021
6170 Clear 38 996 47 10000 5.14 340 15:28 15.08.2021
6171 Clear 38 996 50 10000 5.14 350 14:30 15.08.2021
6172 Clear 40 997 42 10000 6.17 320 11:44 15.08.2021
6173 Clear 40 998 33 10000 3.6 240 09:41 15.08.2021
6174 Clouds 32 997 70 8000 2.57 180 05:21 15.08.2021
6175 Clear 35 996 63 10000 3.6 340 00:43 15.08.2021
6176 Clear 36 996 56 10000 2.06 330 22:47 14.08.2021
6177 Clear 37 997 47 10000 1.03 0 20:59 14.08.2021
6178 Clear 37 996 47 10000 2.06 50 19:44 14.08.2021
6179 Clear 37 996 47 10000 2.06 50 19:23 14.08.2021
6180 Clear 38 996 41 10000 3.6 330 17:22 14.08.2021
6181 Clear 38 996 50 10000 6.69 350 15:54 14.08.2021
6182 Clear 38 996 53 10000 6.17 340 14:32 14.08.2021
6183 Clear 40 997 42 10000 7.2 310 12:22 14.08.2021
6184 Clear 41 998 40 10000 5.14 330 10:53 14.08.2021
6185 Clear 37 999 53 10000 2.06 0 07:48 14.08.2021
6186 Clear 34 998 75 10000 3.6 340 23:54 13.08.2021
6187 Clear 34 998 75 9000 1.54 40 22:30 13.08.2021
6188 Clear 35 999 66 10000 2.06 10 21:40 13.08.2021
6189 Clear 37 998 39 10000 2.57 340 18:49 13.08.2021
6190 Clear 37 998 47 10000 2.57 340 17:56 13.08.2021
6191 Clear 38 998 44 10000 4.63 350 16:32 13.08.2021
6192 Clear 39 998 42 10000 5.66 340 14:30 13.08.2021
6193 Clear 43 999 37 10000 5.14 330 11:20 13.08.2021
6194 Clear 41 1001 33 10000 1.54 0 09:49 13.08.2021
6195 Clear 38 1001 41 10000 2.57 120 08:36 13.08.2021
6196 Clear 35 1001 59 10000 3.09 90 07:20 13.08.2021
6197 Clouds 31 1000 74 7000 2.57 110 04:59 13.08.2021
6198 Clouds 34 1000 79 8000 2.57 60 23:49 12.08.2021
6199 Clouds 35 1001 75 7000 2.06 340 21:21 12.08.2021
6200 Clear 34 1001 79 7000 1.54 340 20:22 12.08.2021
6201 Clear 35 1001 75 7000 3.6 350 19:45 12.08.2021
6202 Clear 35 1001 75 7000 3.6 350 19:45 12.08.2021
6203 Clear 35 1000 71 9000 3.6 340 17:54 12.08.2021
6204 Clear 36 1000 63 10000 4.63 340 16:34 12.08.2021
6205 Clear 37 999 59 10000 5.66 340 15:20 12.08.2021
6206 Clear 38 1000 44 10000 6.69 340 12:59 12.08.2021
6207 Clear 40 1000 42 10000 6.17 340 11:20 12.08.2021
6208 Clear 36 1002 38 10000 2.57 210 07:57 12.08.2021
6209 Clear 34 1000 46 10000 1.54 100 01:52 12.08.2021
6210 Clear 35 1000 41 10000 2.57 50 22:54 11.08.2021
6211 Clear 37 1000 37 10000 1.03 0 20:45 11.08.2021
6212 Clear 38 999 41 10000 2.06 340 18:29 11.08.2021
6213 Clear 38 998 50 10000 4.12 340 16:30 11.08.2021
6214 Clear 38 998 50 10000 5.66 350 15:20 11.08.2021
6215 Clear 39 998 56 10000 6.17 340 14:22 11.08.2021
6216 Clear 39 998 56 10000 6.17 340 14:22 11.08.2021
6217 Clear 42 999 27 10000 6.69 310 12:31 11.08.2021
6218 Clear 42 1000 24 10000 5.66 290 11:46 11.08.2021
6219 Clear 42 1000 24 10000 5.66 290 11:22 11.08.2021
6220 Clear 42 1001 20 10000 4.12 220 09:59 11.08.2021
6221 Clear 40 1001 25 10000 4.12 210 08:30 11.08.2021
6222 Clear 36 999 32 10000 1.03 0 23:42 10.08.2021
6223 Clear 38 1000 37 10000 2.57 150 22:32 10.08.2021
6224 Clear 37 1000 41 10000 1.54 200 21:33 10.08.2021
6225 Clear 38 1000 39 10000 2.06 70 20:35 10.08.2021
6226 Clear 39 999 32 10000 2.57 330 18:39 10.08.2021
6227 Clear 39 998 44 10000 3.6 350 16:41 10.08.2021
6228 Clear 40 998 24 10000 5.66 330 15:21 10.08.2021
6229 Clear 43 999 26 10000 7.2 320 12:49 10.08.2021
6230 Clear 44 1000 18 10000 5.66 260 10:47 10.08.2021
6231 Clear 37 1001 36 10000 4.63 190 06:57 10.08.2021
6232 Clear 35 1001 55 10000 3.09 130 04:58 10.08.2021
6233 Clear 37 999 41 10000 3.09 160 23:44 09.08.2021
6234 Clear 40 1000 24 10000 2.06 90 21:55 09.08.2021
6235 Clear 40 1000 24 10000 2.06 90 21:36 09.08.2021
6236 Clear 41 1000 20 10000 1.54 80 19:37 09.08.2021
6237 Clear 43 1000 20 10000 3.09 10 17:53 09.08.2021
6238 Clear 42 999 23 10000 6.17 350 15:35 09.08.2021
6239 Clear 42 999 33 10000 6.69 340 14:25 09.08.2021
6240 Clear 42 1000 40 10000 6.17 350 13:27 09.08.2021
6241 Clear 45 1000 25 10000 5.66 340 11:47 09.08.2021
6242 Clear 41 1002 20 10000 4.12 150 08:31 09.08.2021
6243 Clear 35 999 34 10000 2.06 50 02:54 09.08.2021
6244 Clear 39 1000 32 10000 2.57 90 21:26 08.08.2021
6245 Clear 39 1000 42 10000 3.6 40 19:51 08.08.2021
6246 Clear 42 998 19 10000 6.17 20 16:55 08.08.2021
6247 Clouds 43 998 24 6000 5.14 20 15:42 08.08.2021
6248 Clear 44 998 22 10000 7.72 340 13:41 08.08.2021
6249 Clear 44 1000 23 10000 1.54 0 11:26 08.08.2021
6250 Clear 35 1001 75 6000 3.09 100 06:57 08.08.2021
6251 Clear 35 1001 75 6000 3.09 100 06:39 08.08.2021
6252 Clear 35 999 71 8000 3.6 340 00:32 08.08.2021
6253 Clear 35 999 59 10000 1.54 260 22:47 07.08.2021
6254 Clear 37 999 56 10000 1.54 270 21:41 07.08.2021
6255 Clear 37 999 59 10000 1.54 330 20:51 07.08.2021
6256 Clear 37 998 59 10000 3.6 350 17:46 07.08.2021
6257 Clear 38 998 53 10000 5.14 350 16:43 07.08.2021
6258 Clear 38 997 56 8000 7.2 350 14:29 07.08.2021
6259 Clear 39 997 47 8000 8.23 330 13:32 07.08.2021
6260 Clear 41 999 42 9000 3.6 320 10:24 07.08.2021
6261 Clear 35 999 63 7000 2.57 330 06:21 07.08.2021
6262 Clear 34 996 75 6000 2.06 30 01:50 07.08.2021
6263 Clear 36 998 59 8000 1.34 280 21:38 06.08.2021
6264 Clear 36 998 59 8000 1.54 300 20:31 06.08.2021
6265 Clear 36 997 59 8000 2.06 350 19:56 06.08.2021
6266 Clear 37 997 56 8000 1.54 340 18:31 06.08.2021
6267 Clear 38 996 50 9000 5.14 350 15:46 06.08.2021
6268 Clear 39 998 50 8000 6.17 330 10:41 06.08.2021
6269 Clear 39 998 39 9000 2.06 0 09:26 06.08.2021
6270 Clouds 36 998 53 7000 2.68 220 07:19 06.08.2021
6271 Clouds 34 997 66 8000 1.03 0 23:31 05.08.2021
6272 Clouds 34 998 66 7000 2.06 300 21:32 05.08.2021
6273 Clouds 35 998 63 7000 2.06 360 19:59 05.08.2021
6274 Clouds 35 998 59 7000 3.09 350 18:58 05.08.2021
6275 Clear 37 997 41 8000 3.6 320 16:21 05.08.2021
6276 Clear 38 997 39 10000 4.63 320 14:18 05.08.2021
6277 Clear 38 999 47 8000 5.14 310 10:53 05.08.2021
6278 Clear 38 999 50 8000 1.54 0 08:32 05.08.2021
6279 Clear 32 999 58 8000 2.06 190 04:30 05.08.2021
6280 Clear 35 1000 56 10000 1.34 250 22:48 04.08.2021
6281 Clear 36 1000 53 10000 1.34 230 21:40 04.08.2021
6282 Clear 36 1000 53 10000 1.34 230 21:18 04.08.2021
6283 Clear 36 999 56 10000 3.6 340 17:25 04.08.2021
6284 Clear 38 999 39 10000 6.69 320 15:32 04.08.2021
6285 Clear 39 999 37 10000 7.72 320 14:41 04.08.2021
6286 Clear 40 1001 27 10000 3.09 260 09:48 04.08.2021
6287 Clear 35 1000 63 10000 2.57 360 23:20 03.08.2021
6288 Clear 37 1000 39 10000 1.03 0 20:33 03.08.2021
6289 Clear 36 999 52 10000 2.57 320 18:59 03.08.2021
6290 Clear 36 998 59 10000 3.13 340 17:31 03.08.2021
6291 Clear 38 997 63 7000 7.2 340 14:58 03.08.2021
6292 Clear 40 999 42 8000 4.63 310 10:58 03.08.2021
6293 Clear 40 999 42 8000 4.63 310 10:38 03.08.2021
6294 Clear 34 997 59 10000 2.06 120 23:46 02.08.2021
6295 Clear 37 996 56 10000 3.6 310 17:28 02.08.2021
6296 Clear 39 996 39 10000 6.69 320 15:46 02.08.2021
6297 Clear 41 996 26 10000 4.63 300 12:47 02.08.2021
6298 Clear 41 997 35 10000 5.66 320 11:58 02.08.2021
6299 Clear 41 997 26 10000 3.09 320 10:58 02.08.2021
6300 Clear 40 997 25 10000 1.54 0 09:45 02.08.2021
6301 Clear 36 997 49 10000 2.06 220 20:29 01.08.2021
6302 Clear 38 996 37 10000 4.63 320 17:47 01.08.2021
6303 Clear 40 998 35 10000 5.14 300 11:40 01.08.2021
6304 Clear 39 998 39 9000 6.69 330 10:56 01.08.2021
6305 Clouds 32 998 84 6000 3.09 150 03:50 01.08.2021
6306 Clouds 33 998 79 7000 2.57 190 01:22 01.08.2021
6307 Clouds 34 999 75 7000 4.12 330 22:41 31.07.2021
6308 Clear 35 999 66 10000 4.12 340 19:47 31.07.2021
6309 Clear 38 996 50 8000 5.66 320 16:38 31.07.2021
6310 Clear 38 996 56 7000 6.17 330 15:27 31.07.2021
6311 Dust 42 998 42 4500 4.63 290 10:59 31.07.2021
6312 Dust 42 998 42 4500 4.63 290 10:59 31.07.2021
6313 Dust 35 997 63 3500 2.57 90 04:38 31.07.2021
6314 Dust 35 996 67 5000 2.68 320 22:31 30.07.2021
6315 Dust 36 996 63 5000 3.09 340 20:24 30.07.2021
6316 Dust 39 994 56 4000 5.66 360 15:38 30.07.2021
6317 Clear 38 994 37 10000 1.03 0 19:57 29.07.2021
6318 Clouds 40 994 24 7000 3.6 240 08:43 29.07.2021
6319 Clouds 33 993 36 8000 2.57 190 04:51 29.07.2021
6320 Clouds 37 992 39 8000 1.03 0 22:48 28.07.2021
6321 Clear 39 992 32 10000 3.6 340 17:53 28.07.2021
6322 Clear 41 991 26 10000 3.6 320 16:54 28.07.2021
6323 Clear 42 993 31 10000 5.66 330 09:42 28.07.2021
6324 Clouds 35 992 56 8000 1.34 220 23:50 27.07.2021
6325 Clear 36 993 46 10000 2.06 240 21:33 27.07.2021
6326 Clear 40 993 39 7000 7.2 320 14:54 27.07.2021
6327 Clouds 40 993 39 7000 7.2 320 14:30 27.07.2021
6328 Clear 41 994 31 8000 5.66 280 10:20 27.07.2021
6329 Clear 35 994 44 10000 1.54 60 01:53 27.07.2021
6330 Clear 39 996 39 6000 5.66 320 15:34 26.07.2021
6331 Clear 42 998 29 6000 5.66 290 10:19 26.07.2021
6332 Clouds 39 998 32 9000 3.6 320 20:57 25.07.2021
6333 Clouds 39 998 32 9000 3.6 320 20:24 25.07.2021
6334 Clear 39 996 37 10000 5.14 320 16:24 25.07.2021
6335 Clouds 41 997 44 6000 6.17 330 12:51 25.07.2021
6336 Clouds 40 998 31 6000 3.6 210 08:21 25.07.2021
6337 Clouds 34 997 46 6000 2.57 80 04:55 25.07.2021
6338 Clouds 36 998 56 8000 5.14 50 20:22 24.07.2021
6339 Dust 39 994 44 4000 8.23 320 15:52 24.07.2021
6340 Clear 36 996 36 8000 3.09 180 04:21 24.07.2021
6341 Clear 41 992 29 10000 3.09 350 17:34 23.07.2021
6342 Clear 43 992 26 10000 4.63 330 14:35 23.07.2021
6343 Clear 38 996 32 10000 2.57 250 07:47 23.07.2021
6344 Clear 36 994 49 10000 1.54 220 22:46 22.07.2021
6345 Clear 39 995 37 10000 6.17 290 14:36 22.07.2021
6346 Clear 40 997 31 10000 6.69 270 11:18 22.07.2021
6347 Clear 38 999 34 10000 4.12 250 08:23 22.07.2021
6348 Dust 36 998 47 5000 7.15 210 22:33 21.07.2021
6349 Clear 36 998 63 10000 4.63 220 21:31 21.07.2021
6350 Clear 38 997 47 10000 4.47 300 17:28 21.07.2021
6351 Dust 40 1000 33 4000 6.71 200 09:54 21.07.2021
6352 Dust 40 1000 33 4000 6.69 200 09:19 21.07.2021
6353 Clear 35 998 56 10000 3.58 190 23:56 20.07.2021
6354 Clear 35 998 67 10000 6.26 350 17:46 20.07.2021
6355 Clear 37 997 47 10000 6.69 330 16:33 20.07.2021
6356 Clear 38 996 41 10000 7.72 330 15:26 20.07.2021
6357 Clear 40 998 35 10000 5.14 300 11:19 20.07.2021
6358 Clear 36 999 52 10000 2.06 210 07:23 20.07.2021
6359 Clear 34 997 59 10000 1.54 240 00:21 20.07.2021
6360 Clear 37 997 44 10000 7.2 290 15:39 19.07.2021
6361 Clouds 39 998 39 10000 6.69 300 12:37 19.07.2021
6362 Clear 34 1000 59 10000 3.09 360 20:44 18.07.2021
6363 Clouds 37 998 44 10000 3.6 360 15:20 18.07.2021
6364 Clouds 37 1001 41 10000 2.06 0 10:19 18.07.2021
6365 Clear 33 1000 58 10000 7.72 110 22:28 17.07.2021
6366 Clear 33 1000 59 10000 7.6 110 21:55 17.07.2021
6367 Clear 33 1000 59 10000 7.6 110 21:37 17.07.2021
6368 Clouds 38 998 41 9000 10.29 110 12:34 17.07.2021
6369 Dust 36 1000 46 4500 11.83 100 10:21 17.07.2021
6370 Clouds 33 999 62 10000 5.66 80 04:47 17.07.2021
6371 Clear 39 997 37 10000 9.77 120 14:24 16.07.2021
6372 Clear 37 999 39 10000 9.39 110 09:45 16.07.2021
6373 Clear 35 998 49 10000 6.26 100 06:57 16.07.2021
6374 Clear 41 994 40 10000 6.17 20 14:39 15.07.2021
6375 Clear 41 995 31 10000 3.6 70 13:48 15.07.2021
6376 Clear 37 999 46 10000 7.72 120 07:58 15.07.2021
6377 Clear 37 996 53 10000 5.14 90 22:30 14.07.2021
6378 Clear 39 994 44 10000 5.14 20 16:48 14.07.2021
6379 Clear 40 997 39 10000 3.6 100 09:56 14.07.2021
6380 Clouds 35 995 53 7000 7.6 120 23:30 13.07.2021
6381 Clouds 35 995 52 7000 7.72 120 23:30 13.07.2021
6382 Clear 38 995 44 10000 6.69 90 19:59 13.07.2021
6383 Clear 38 995 44 10000 6.69 90 19:40 13.07.2021
6384 Clear 38 995 44 10000 6.69 90 19:20 13.07.2021
6385 Clouds 39 994 42 9000 7.2 80 18:43 13.07.2021
6386 Clouds 39 994 42 9000 7.2 80 18:23 13.07.2021
6387 Clouds 44 993 26 7000 4.12 130 13:22 13.07.2021
6388 Clear 41 995 31 10000 4.63 120 09:27 13.07.2021
6389 Clear 39 994 44 10000 5.14 130 20:29 12.07.2021
6390 Clear 40 992 35 10000 5.14 30 16:46 12.07.2021
6391 Clouds 40 994 47 9000 4.12 360 12:50 12.07.2021
6392 Clear 36 995 36 10000 1.54 240 23:22 11.07.2021
6393 Clear 38 996 29 10000 1.03 0 20:49 11.07.2021
6394 Clear 43 995 23 10000 7.72 300 14:23 11.07.2021
6395 Clear 37 996 30 8000 3.6 80 23:57 10.07.2021
6396 Clear 41 994 24 8000 3.6 330 15:30 10.07.2021
6397 Clouds 39 996 24 7000 7.2 180 07:50 10.07.2021
6398 Clouds 33 994 70 7000 2.06 230 02:18 10.07.2021
6399 Clear 35 994 63 10000 3.6 340 18:20 09.07.2021
6400 Clear 41 994 29 10000 6.69 290 14:49 09.07.2021
6401 Clear 41 996 29 10000 7.72 280 12:24 09.07.2021
6402 Clear 36 998 41 10000 1.03 230 23:52 08.07.2021
6403 Clear 36 999 36 10000 1.03 0 22:48 08.07.2021
6404 Clear 38 998 32 10000 4.12 280 18:57 08.07.2021
6405 Clear 39 998 30 10000 6.17 290 17:43 08.07.2021
6406 Clear 40 1000 35 8000 6.69 320 13:32 08.07.2021
6407 Clear 40 1000 33 8000 6.17 280 12:45 08.07.2021
6408 Clear 41 1001 27 8000 4.63 250 11:50 08.07.2021
6409 Clear 40 1001 27 8000 4.63 250 10:30 08.07.2021
6410 Clear 35 1002 36 10000 5.36 190 05:30 08.07.2021
6411 Clear 35 1000 44 10000 2.06 130 02:22 08.07.2021
6412 Clear 36 1001 46 8000 2.57 100 22:56 07.07.2021
6413 Clear 36 1001 46 8000 2.57 100 22:19 07.07.2021
6414 Clear 36 1001 49 8000 3.09 90 21:42 07.07.2021
6415 Clear 36 1001 49 8000 3.09 90 21:23 07.07.2021
6416 Clouds 37 1001 41 8000 1.54 40 19:57 07.07.2021
6417 Clouds 37 1001 41 8000 1.54 40 19:28 07.07.2021
6418 Dust 36 999 52 5000 3.6 10 17:36 07.07.2021
6419 Dust 38 999 50 4500 6.69 330 15:45 07.07.2021
6420 Dust 38 999 50 4500 6.69 330 15:45 07.07.2021
6421 Clear 41 1000 35 9000 6.17 320 12:26 07.07.2021
6422 Clear 38 1001 37 10000 5.14 180 08:39 07.07.2021
6423 Clear 36 1001 41 9000 5.36 170 06:46 07.07.2021
6424 Clear 35 1000 49 10000 5.36 160 05:47 07.07.2021
6425 Clear 37 999 44 10000 3.6 90 21:32 06.07.2021
6426 Clear 37 998 44 10000 2.06 350 19:30 06.07.2021
6427 Clear 37 998 49 10000 2.57 340 18:47 06.07.2021
6428 Clear 37 998 49 10000 2.57 340 18:28 06.07.2021
6429 Clear 40 998 44 10000 7.2 340 13:46 06.07.2021
6430 Clear 42 998 40 10000 7.2 350 12:34 06.07.2021
6431 Clear 40 1000 37 10000 4.63 140 09:41 06.07.2021
6432 Clear 39 1001 42 10000 6.17 140 08:34 06.07.2021
6433 Clear 35 1001 59 10000 6.17 130 06:45 06.07.2021
6434 Clear 35 998 53 10000 5.36 100 01:41 06.07.2021
6435 Clear 36 998 50 10000 5.36 110 22:43 05.07.2021
6436 Clear 40 997 39 10000 5.14 90 18:52 05.07.2021
6437 Clouds 41 996 42 7000 5.66 20 15:45 05.07.2021
6438 Clear 37 1000 53 7000 8.23 120 07:26 05.07.2021
6439 Clouds 34 999 63 7000 5.36 110 05:46 05.07.2021
6440 Clouds 34 999 63 7000 3.58 90 04:40 05.07.2021
6441 Clear 35 997 63 8000 3.13 100 23:18 04.07.2021
6442 Clear 39 998 30 8000 3.6 100 19:24 04.07.2021
6443 Clear 39 996 35 7000 4.12 30 16:51 04.07.2021
6444 Dust 38 997 47 4000 7.15 340 12:58 04.07.2021
6445 Clear 43 998 15 7000 2.06 270 09:25 04.07.2021
6446 Clear 35 996 59 7000 2.06 260 23:34 03.07.2021
6447 Clear 35 996 59 7000 1.54 270 22:40 03.07.2021
6448 Dust 38 995 39 5000 5.81 310 14:58 03.07.2021
6449 Dust 39 995 48 5000 6.71 330 12:38 03.07.2021
6450 Clouds 39 997 45 6000 4.47 310 09:39 03.07.2021
6451 Clear 39 997 44 6000 4.63 310 09:20 03.07.2021
6452 Clear 39 997 39 6000 4.12 320 08:44 03.07.2021
6453 Clouds 37 995 44 8000 3.09 260 17:28 02.07.2021
6454 Clear 38 998 25 10000 3.6 250 07:41 02.07.2021
6455 Clouds 36 998 26 9000 1.34 250 06:34 02.07.2021
6456 Clear 34 998 52 10000 2.57 230 23:25 01.07.2021
6457 Clear 34 998 55 10000 2.06 230 22:29 01.07.2021
6458 Clear 35 999 49 10000 1.54 350 21:34 01.07.2021
6459 Clear 37 998 32 10000 2.06 290 19:37 01.07.2021
6460 Clear 37 998 32 10000 2.06 290 19:18 01.07.2021
6461 Clear 37 997 36 10000 2.57 240 18:38 01.07.2021
6462 Clear 38 998 28 10000 3.09 310 17:19 01.07.2021
6463 Clear 40 998 24 10000 5.66 330 15:45 01.07.2021
6464 Clear 40 998 24 10000 5.66 330 15:22 01.07.2021
6465 Clear 40 1000 25 10000 5.14 320 11:27 01.07.2021
6466 Clear 39 1001 24 10000 3.6 240 08:53 01.07.2021
6467 Clear 34 1001 49 10000 1.54 200 23:23 30.06.2021
6468 Clear 33 1001 52 10000 1.54 210 22:21 30.06.2021
6469 Clear 35 1001 49 10000 2.06 220 21:44 30.06.2021
6470 Clear 35 1002 49 10000 2.06 220 20:59 30.06.2021
6471 Clear 36 1002 41 10000 2.68 250 19:43 30.06.2021
6472 Clear 38 1001 37 10000 4.63 270 16:42 30.06.2021
6473 Clear 39 1002 32 10000 7.72 280 13:25 30.06.2021
6474 Clear 39 1004 25 10000 4.63 230 08:56 30.06.2021
6475 Clear 35 1001 38 10000 2.57 150 23:56 29.06.2021
6476 Clear 37 1003 39 10000 4.63 20 19:29 29.06.2021
6477 Clear 39 1001 25 10000 5.14 300 17:44 29.06.2021
6478 Clear 39 1001 25 10000 5.14 300 17:24 29.06.2021
6479 Clear 40 1001 27 10000 7.72 320 15:50 29.06.2021
6480 Clear 40 1001 27 10000 7.72 320 15:50 29.06.2021
6481 Clear 41 1002 24 10000 8.23 320 14:54 29.06.2021
6482 Clear 41 1002 26 10000 7.2 320 13:20 29.06.2021
6483 Clear 34 1002 43 10000 0.89 0 02:53 29.06.2021
6484 Clear 35 1003 46 10000 1.34 120 21:59 28.06.2021
6485 Clear 36 1004 38 10000 4.12 90 20:25 28.06.2021
6486 Clear 38 1002 34 7000 5.14 330 17:32 28.06.2021
6487 Clear 38 1002 39 6000 5.66 330 16:57 28.06.2021
6488 Clear 38 1002 41 6000 6.69 350 14:30 28.06.2021
6489 Clear 41 1004 26 10000 3.6 290 11:34 28.06.2021
6490 Clear 35 1002 34 8000 3.58 110 23:47 27.06.2021
6491 Clear 36 1002 27 8000 3.13 150 22:31 27.06.2021
6492 Clear 37 1002 32 7000 2.57 90 19:43 27.06.2021
6493 Clear 41 1001 17 8000 5.66 300 16:55 27.06.2021
6494 Clear 42 1001 16 10000 6.17 300 15:39 27.06.2021
6495 Dust 42 1003 20 5000 6.17 230 10:30 27.06.2021
6496 Clear 34 999 31 10000 1.03 0 00:27 27.06.2021
6497 Clear 36 999 28 10000 3.09 100 21:26 26.06.2021
6498 Clear 37 999 28 10000 2.06 110 20:47 26.06.2021
6499 Clear 36 998 34 10000 1.03 0 19:27 26.06.2021
6500 Clear 40 998 21 10000 5.14 320 15:39 26.06.2021
6501 Clear 42 998 19 10000 7.2 320 13:52 26.06.2021
6502 Clear 42 1000 17 7000 4.63 290 10:39 26.06.2021
6503 Clear 35 999 33 10000 3.09 220 06:23 26.06.2021
6504 Clear 35 999 46 10000 1.03 0 21:24 25.06.2021
6505 Clear 34 1000 46 10000 1.54 0 20:35 25.06.2021
6506 Clear 35 998 56 10000 2.68 350 18:48 25.06.2021
6507 Clear 35 998 56 7000 4.47 340 17:30 25.06.2021
6508 Clear 35 998 56 7000 4.47 340 17:30 25.06.2021
6509 Clear 36 998 52 7000 6.69 330 16:21 25.06.2021
6510 Clear 38 999 41 8000 8.75 320 13:42 25.06.2021
6511 Clear 42 1000 13 6000 5.66 190 09:56 25.06.2021
6512 Clear 37 1001 25 6000 5.66 210 07:23 25.06.2021
6513 Clear 32 1000 43 10000 2.06 120 03:59 25.06.2021
6514 Clear 34 1000 49 10000 3.6 340 23:48 24.06.2021
6515 Clear 36 1000 46 10000 2.06 220 21:48 24.06.2021
6516 Clear 37 1001 36 10000 1.54 0 20:42 24.06.2021
6517 Clear 38 1001 34 10000 2.06 350 19:47 24.06.2021
6518 Clear 38 1000 32 10000 2.57 40 18:20 24.06.2021
6519 Clear 37 999 44 10000 7.2 350 15:23 24.06.2021
6520 Clear 38 1000 53 10000 7.72 340 14:52 24.06.2021
6521 Clouds 40 1000 35 10000 8.23 330 13:18 24.06.2021
6522 Clear 43 1001 11 9000 3.6 190 09:51 24.06.2021
6523 Clear 41 1002 20 8000 3.09 220 08:28 24.06.2021
6524 Clear 37 1002 25 8000 2.57 170 06:39 24.06.2021
6525 Clear 36 1000 34 10000 3.09 340 23:33 23.06.2021
6526 Clear 36 1001 32 10000 2.06 220 22:25 23.06.2021
6527 Clear 36 1001 32 10000 2.06 220 22:25 23.06.2021
6528 Clear 39 1001 22 10000 0.51 0 21:20 23.06.2021
6529 Clear 40 1001 17 10000 2.06 30 19:55 23.06.2021
6530 Clear 41 1000 18 10000 3.09 50 18:29 23.06.2021
6531 Clear 41 999 18 8000 5.14 20 16:52 23.06.2021
6532 Clouds 43 999 19 8000 6.69 340 14:31 23.06.2021
6533 Clear 44 1000 30 8000 6.17 340 12:38 23.06.2021
6534 Clear 45 1001 11 8000 2.57 280 11:22 23.06.2021
6535 Clear 43 1002 17 8000 3.09 200 09:26 23.06.2021
6536 Clear 42 1002 13 8000 4.12 180 08:38 23.06.2021
6537 Clear 40 1002 20 8000 3.09 170 07:48 23.06.2021
6538 Clear 33 1001 40 10000 3.09 0 04:35 23.06.2021
6539 Clear 35 1000 30 10000 2.57 70 01:50 23.06.2021
6540 Clear 37 1000 30 10000 3.09 20 23:58 22.06.2021
6541 Clear 37 1000 30 10000 3.09 20 23:32 22.06.2021
6542 Clear 38 1000 23 10000 3.09 160 22:32 22.06.2021
6543 Clear 37 1000 27 8000 1.34 210 21:39 22.06.2021
6544 Clear 38 1001 15 8000 1.54 90 20:27 22.06.2021
6545 Clear 41 1000 20 8000 2.57 20 18:59 22.06.2021
6546 Clear 41 1000 20 8000 2.57 20 18:29 22.06.2021
6547 Clear 41 1000 20 6000 3.6 10 17:29 22.06.2021
6548 Dust 41 1000 20 4000 3.6 50 16:48 22.06.2021
6549 Clear 40 999 29 7000 6.69 330 14:54 22.06.2021
6550 Clear 40 999 29 7000 6.69 330 14:25 22.06.2021
6551 Clear 40 1000 33 7000 7.72 340 13:34 22.06.2021
6552 Clear 41 1000 31 8000 6.69 350 11:53 22.06.2021
6553 Clear 44 1001 14 7000 2.06 0 10:37 22.06.2021
6554 Clear 40 1002 14 10000 3.6 190 07:59 22.06.2021
6555 Clear 34 1000 46 10000 1.54 100 00:50 22.06.2021
6556 Clear 34 1000 49 10000 1.54 360 23:32 21.06.2021
6557 Clear 35 1000 46 10000 2.57 340 22:34 21.06.2021
6558 Clear 35 1001 55 10000 2.57 350 21:29 21.06.2021
6559 Clear 35 1000 59 8000 2.68 340 20:46 21.06.2021
6560 Clear 36 1000 47 8000 2.68 330 19:55 21.06.2021
6561 Clear 38 1000 39 8000 2.57 360 18:58 21.06.2021
6562 Clear 38 1000 41 7000 3.09 70 17:36 21.06.2021
6563 Clear 37 999 49 7000 7.72 330 16:46 21.06.2021
6564 Clear 37 999 49 7000 7.72 330 16:25 21.06.2021
6565 Clear 39 999 41 6000 8.23 340 15:46 21.06.2021
6566 Clouds 40 999 39 6000 7.72 330 14:19 21.06.2021
6567 Clouds 42 999 26 6000 7.2 320 13:34 21.06.2021
6568 Clouds 44 999 23 6000 6.69 310 12:38 21.06.2021
6569 Clouds 44 1000 13 8000 3.09 220 11:52 21.06.2021
6570 Clouds 43 1001 15 7000 2.57 0 10:31 21.06.2021
6571 Clouds 41 1001 22 6000 3.6 210 09:34 21.06.2021
6572 Clouds 40 1001 24 6000 5.66 200 08:24 21.06.2021
6573 Clouds 39 1002 22 8000 3.6 210 07:28 21.06.2021
6574 Clear 35 999 59 10000 4.12 340 00:43 21.06.2021
6575 Clear 37 999 19 10000 2.57 10 23:35 20.06.2021
6576 Clear 37 999 13 10000 1.03 0 22:58 20.06.2021
6577 Clear 37 999 13 10000 1.03 0 22:18 20.06.2021
6578 Clear 38 999 8 10000 2.57 130 21:28 20.06.2021
6579 Clear 41 999 9 10000 3.09 170 19:47 20.06.2021
6580 Clear 41 999 9 10000 3.09 170 19:24 20.06.2021
6581 Clear 41 999 21 10000 3.09 50 18:21 20.06.2021
6582 Clear 42 998 19 10000 5.14 20 16:52 20.06.2021
6583 Clear 42 998 24 10000 4.63 350 15:55 20.06.2021
6584 Clear 42 998 24 10000 4.63 350 15:33 20.06.2021
6585 Clear 41 998 26 10000 5.66 330 14:48 20.06.2021
6586 Clear 40 998 44 10000 6.69 350 13:41 20.06.2021
6587 Clear 40 999 39 10000 5.66 330 12:57 20.06.2021
6588 Clear 40 999 33 10000 6.17 320 11:46 20.06.2021
6589 Clear 39 1000 53 10000 5.66 320 10:40 20.06.2021
6590 Clear 39 1000 50 10000 4.63 340 09:46 20.06.2021
6591 Clear 37 1000 49 10000 1.54 0 07:42 20.06.2021
6592 Clear 31 999 77 10000 2.4 67 23:43 19.06.2021
6593 Clear 33 999 79 8000 4.12 340 22:59 19.06.2021
6594 Clear 34 999 75 9000 4.12 350 21:53 19.06.2021
6595 Clear 34 999 75 9000 4.12 350 21:27 19.06.2021
6596 Clear 36 997 56 10000 3.09 320 18:55 19.06.2021
6597 Clear 36 997 56 10000 3.09 320 18:22 19.06.2021
6598 Clear 37 997 44 10000 3.09 330 17:27 19.06.2021
6599 Clear 38 996 44 10000 5.14 340 16:49 19.06.2021
6600 Clear 38 996 53 8000 5.66 330 15:42 19.06.2021
6601 Clear 37 997 59 7000 6.69 330 13:23 19.06.2021
6602 Clear 36 998 63 6000 6.17 340 11:59 19.06.2021
6603 Clear 37 999 63 6000 6.17 330 10:49 19.06.2021
6604 Clear 37 999 63 6000 6.17 330 10:49 19.06.2021
6605 Clear 37 999 63 6000 6.17 330 10:49 19.06.2021
6606 Clear 37 999 63 6000 6.17 330 10:49 19.06.2021
6607 Clear 37 999 63 6000 6.17 330 10:27 19.06.2021
6608 Clear 39 1000 35 6000 3.09 0 09:58 19.06.2021
6609 Clear 36 1000 59 6000 1.54 0 08:25 19.06.2021
6610 Haze 33 1000 70 5000 2.06 330 06:36 19.06.2021
6611 Clear 31 998 79 6000 2.06 210 03:31 19.06.2021
6612 Clear 33 998 70 7000 1.54 0 00:23 19.06.2021
6613 Clouds 32 998 74 7000 1.54 260 23:40 18.06.2021
6614 Clouds 32 999 74 7000 2.06 250 22:55 18.06.2021
6615 Clouds 32 999 74 7000 2.06 250 22:35 18.06.2021
6616 Clear 33 999 75 7000 2.57 270 21:50 18.06.2021
6617 Clear 33 999 75 7000 2.57 270 21:26 18.06.2021
6618 Clear 33 998 75 7000 3.6 270 20:24 18.06.2021
6619 Clear 34 997 62 9000 3.09 270 18:46 18.06.2021
6620 Clear 35 997 55 8000 3.09 280 17:51 18.06.2021
6621 Clear 35 996 63 7000 4.63 330 16:39 18.06.2021
6622 Clear 35 996 63 7000 5.14 350 15:46 18.06.2021
6623 Clear 36 996 56 7000 5.14 340 14:41 18.06.2021
6624 Clear 35 996 63 7000 6.69 360 13:44 18.06.2021
6625 Clear 37 997 53 8000 6.17 320 12:56 18.06.2021
6626 Clear 37 997 53 8000 6.17 320 12:34 18.06.2021
6627 Clear 39 997 50 8000 3.09 0 11:46 18.06.2021
6628 Clear 38 998 39 9000 1.03 0 10:57 18.06.2021
6629 Clear 38 998 39 9000 1.03 0 10:24 18.06.2021
6630 Clear 36 998 44 8000 2.06 170 09:57 18.06.2021
6631 Clear 36 998 44 8000 2.06 170 09:21 18.06.2021
6632 Clear 34 998 55 8000 1.03 0 08:33 18.06.2021
6633 Clear 32 999 70 8000 1.54 0 07:36 18.06.2021
6634 Clouds 29 998 84 7000 3.09 210 05:49 18.06.2021
6635 Clouds 32 997 70 7000 2.68 200 00:36 18.06.2021
6636 Clouds 32 997 70 8000 3.09 210 23:28 17.06.2021
6637 Clouds 32 998 70 8000 3.09 250 22:27 17.06.2021
6638 Clouds 32 998 70 8000 2.68 260 21:58 17.06.2021
6639 Clouds 32 998 70 8000 2.57 260 21:19 17.06.2021
6640 Clouds 32 997 74 7000 4.02 280 20:33 17.06.2021
6641 Clouds 33 997 70 8000 4.47 250 19:57 17.06.2021
6642 Clouds 33 997 70 8000 4.63 250 19:27 17.06.2021
6643 Clear 33 997 66 8000 4.02 270 17:50 17.06.2021
6644 Clear 33 997 66 8000 4.12 270 17:23 17.06.2021
6645 Clear 34 996 63 7000 5.36 280 16:30 17.06.2021
6646 Clear 36 996 55 6000 5.66 260 15:53 17.06.2021
6647 Clear 37 996 52 6000 6.17 290 14:33 17.06.2021
6648 Dust 37 996 47 5000 6.17 270 13:46 17.06.2021
6649 Dust 37 997 53 5000 7.72 290 12:31 17.06.2021
6650 Dust 38 997 53 4000 6.17 280 11:41 17.06.2021
6651 Dust 38 997 47 4000 4.63 250 10:44 17.06.2021
6652 Dust 38 997 47 4000 4.63 250 10:23 17.06.2021
6653 Dust 37 997 47 4000 3.09 240 09:42 17.06.2021
6654 Clear 34 998 55 8000 2.57 210 08:52 17.06.2021
6655 Clear 33 998 58 10000 3.6 180 07:51 17.06.2021
6656 Clear 31 998 66 10000 4.12 190 06:23 17.06.2021
6657 Clear 31 997 74 8000 3.6 180 01:54 17.06.2021
6658 Clouds 32 997 74 10000 3.58 280 23:40 16.06.2021
6659 Clouds 32 997 74 10000 3.6 280 23:21 16.06.2021
6660 Clear 32 997 74 10000 2.57 250 22:24 16.06.2021
6661 Clear 32 997 70 8000 4.02 240 21:43 16.06.2021
6662 Clear 32 997 70 8000 4.12 240 21:19 16.06.2021
6663 Clear 33 997 70 7000 4.02 270 20:39 16.06.2021
6664 Clear 33 997 66 7000 3.58